<?xml version="1.0" encoding="UTF-8" standalone="no" ?>
<gpx xmlns="http://www.topografix.com/GPX/1/1" xmlns:xsi="http://www.w3.org/2001/XMLSchema-instance" xsi:schemaLocation="http://www.topografix.com/GPX/1/1 http://www.topografix.com/GPX/1/1/gpx.xsd" version="1.1" creator="VisuGPX - https://www.visugpx.com">
  <metadata>
    <name>Le Pilat</name>
    <desc><![CDATA[Le mont Pilat]]></desc>
  </metadata>
  <trk>
    <name><![CDATA[Le pilat]]></name>
    <cmt><![CDATA[Bruno, Thierry]]></cmt>
    <trkseg>
      <trkpt lat="45.11502" lon="4.96371">
        <ele>220.79800415039</ele>
        <time>2010-04-06T11:15:58Z</time>
      </trkpt>
      <trkpt lat="45.11467" lon="4.96317">
        <ele>221.13900756836</ele>
        <time>2010-04-06T11:16:08Z</time>
      </trkpt>
      <trkpt lat="45.1144" lon="4.96273">
        <ele>221.51300048828</ele>
        <time>2010-04-06T11:16:16Z</time>
      </trkpt>
      <trkpt lat="45.11406" lon="4.96206">
        <ele>221.32299804688</ele>
        <time>2010-04-06T11:16:27Z</time>
      </trkpt>
      <trkpt lat="45.1137" lon="4.96132">
        <ele>219.94599914551</ele>
        <time>2010-04-06T11:16:38Z</time>
      </trkpt>
      <trkpt lat="45.11338" lon="4.96073">
        <ele>219.11099243164</ele>
        <time>2010-04-06T11:16:47Z</time>
      </trkpt>
      <trkpt lat="45.11297" lon="4.96006">
        <ele>218.50500488281</ele>
        <time>2010-04-06T11:16:58Z</time>
      </trkpt>
      <trkpt lat="45.11275" lon="4.95966">
        <ele>218.42900085449</ele>
        <time>2010-04-06T11:17:04Z</time>
      </trkpt>
      <trkpt lat="45.11267" lon="4.95952">
        <ele>218.08299255371</ele>
        <time>2010-04-06T11:17:06Z</time>
      </trkpt>
      <trkpt lat="45.11231" lon="4.95896">
        <ele>217.18699645996</ele>
        <time>2010-04-06T11:17:14Z</time>
      </trkpt>
      <trkpt lat="45.11212" lon="4.95869">
        <ele>216.84300231934</ele>
        <time>2010-04-06T11:17:18Z</time>
      </trkpt>
      <trkpt lat="45.11208" lon="4.95862">
        <ele>217.44200134277</ele>
        <time>2010-04-06T11:17:19Z</time>
      </trkpt>
      <trkpt lat="45.11161" lon="4.95794">
        <ele>216.81500244141</ele>
        <time>2010-04-06T11:17:29Z</time>
      </trkpt>
      <trkpt lat="45.1113" lon="4.95733">
        <ele>216.31100463867</ele>
        <time>2010-04-06T11:17:37Z</time>
      </trkpt>
      <trkpt lat="45.11095" lon="4.95678">
        <ele>216.46899414062</ele>
        <time>2010-04-06T11:17:45Z</time>
      </trkpt>
      <trkpt lat="45.11065" lon="4.95648">
        <ele>216.70100402832</ele>
        <time>2010-04-06T11:17:51Z</time>
      </trkpt>
      <trkpt lat="45.11035" lon="4.95617">
        <ele>216.58299255371</ele>
        <time>2010-04-06T11:17:57Z</time>
      </trkpt>
      <trkpt lat="45.10997" lon="4.95566">
        <ele>215.87800598144</ele>
        <time>2010-04-06T11:18:05Z</time>
      </trkpt>
      <trkpt lat="45.1097" lon="4.95508">
        <ele>215.49699401856</ele>
        <time>2010-04-06T11:18:12Z</time>
      </trkpt>
      <trkpt lat="45.10949" lon="4.95439">
        <ele>213.87800598144</ele>
        <time>2010-04-06T11:18:19Z</time>
      </trkpt>
      <trkpt lat="45.10931" lon="4.95358">
        <ele>214.76300048828</ele>
        <time>2010-04-06T11:18:27Z</time>
      </trkpt>
      <trkpt lat="45.10906" lon="4.95285">
        <ele>214.01699829102</ele>
        <time>2010-04-06T11:18:35Z</time>
      </trkpt>
      <trkpt lat="45.10884" lon="4.95219">
        <ele>214.71699523926</ele>
        <time>2010-04-06T11:18:43Z</time>
      </trkpt>
      <trkpt lat="45.10868" lon="4.95172">
        <ele>216.54299926758</ele>
        <time>2010-04-06T11:18:50Z</time>
      </trkpt>
      <trkpt lat="45.10854" lon="4.95112">
        <ele>220.23500061035</ele>
        <time>2010-04-06T11:18:59Z</time>
      </trkpt>
      <trkpt lat="45.10851" lon="4.95068">
        <ele>223.12100219727</ele>
        <time>2010-04-06T11:19:06Z</time>
      </trkpt>
      <trkpt lat="45.10854" lon="4.95012">
        <ele>226.16499328613</ele>
        <time>2010-04-06T11:19:15Z</time>
      </trkpt>
      <trkpt lat="45.10854" lon="4.94995">
        <ele>227.44200134277</ele>
        <time>2010-04-06T11:19:18Z</time>
      </trkpt>
      <trkpt lat="45.10857" lon="4.94959">
        <ele>229.5119934082</ele>
        <time>2010-04-06T11:19:24Z</time>
      </trkpt>
      <trkpt lat="45.10857" lon="4.9494">
        <ele>229.91299438477</ele>
        <time>2010-04-06T11:19:27Z</time>
      </trkpt>
      <trkpt lat="45.1086" lon="4.9488">
        <ele>232.91700744629</ele>
        <time>2010-04-06T11:19:37Z</time>
      </trkpt>
      <trkpt lat="45.10868" lon="4.94849">
        <ele>233.56500244141</ele>
        <time>2010-04-06T11:19:43Z</time>
      </trkpt>
      <trkpt lat="45.10878" lon="4.94823">
        <ele>234.01800537109</ele>
        <time>2010-04-06T11:19:49Z</time>
      </trkpt>
      <trkpt lat="45.10879" lon="4.94805">
        <ele>234.43899536133</ele>
        <time>2010-04-06T11:19:52Z</time>
      </trkpt>
      <trkpt lat="45.10891" lon="4.94759">
        <ele>234.19799804688</ele>
        <time>2010-04-06T11:19:59Z</time>
      </trkpt>
      <trkpt lat="45.10907" lon="4.94701">
        <ele>233.81199645996</ele>
        <time>2010-04-06T11:20:07Z</time>
      </trkpt>
      <trkpt lat="45.10926" lon="4.94629">
        <ele>234.00199890137</ele>
        <time>2010-04-06T11:20:16Z</time>
      </trkpt>
      <trkpt lat="45.10933" lon="4.94575">
        <ele>233.20300292969</ele>
        <time>2010-04-06T11:20:22Z</time>
      </trkpt>
      <trkpt lat="45.10932" lon="4.94499">
        <ele>232.63999938965</ele>
        <time>2010-04-06T11:20:30Z</time>
      </trkpt>
      <trkpt lat="45.10928" lon="4.94422">
        <ele>232.85600280762</ele>
        <time>2010-04-06T11:20:38Z</time>
      </trkpt>
      <trkpt lat="45.10923" lon="4.94346">
        <ele>232.96099853516</ele>
        <time>2010-04-06T11:20:46Z</time>
      </trkpt>
      <trkpt lat="45.10905" lon="4.94294">
        <ele>232.04400634766</ele>
        <time>2010-04-06T11:20:52Z</time>
      </trkpt>
      <trkpt lat="45.10896" lon="4.94279">
        <ele>231.73599243164</ele>
        <time>2010-04-06T11:20:54Z</time>
      </trkpt>
      <trkpt lat="45.10833" lon="4.94208">
        <ele>230.52600097656</ele>
        <time>2010-04-06T11:21:05Z</time>
      </trkpt>
      <trkpt lat="45.1078" lon="4.94144">
        <ele>230.32099914551</ele>
        <time>2010-04-06T11:21:15Z</time>
      </trkpt>
      <trkpt lat="45.1075" lon="4.94097">
        <ele>232.64300537109</ele>
        <time>2010-04-06T11:21:22Z</time>
      </trkpt>
      <trkpt lat="45.10722" lon="4.94038">
        <ele>233.97599792481</ele>
        <time>2010-04-06T11:21:30Z</time>
      </trkpt>
      <trkpt lat="45.10703" lon="4.93974">
        <ele>235.22099304199</ele>
        <time>2010-04-06T11:21:38Z</time>
      </trkpt>
      <trkpt lat="45.10691" lon="4.93898">
        <ele>236.23699951172</ele>
        <time>2010-04-06T11:21:47Z</time>
      </trkpt>
      <trkpt lat="45.10683" lon="4.93836">
        <ele>234.79899597168</ele>
        <time>2010-04-06T11:21:54Z</time>
      </trkpt>
      <trkpt lat="45.10673" lon="4.93746">
        <ele>233.75</ele>
        <time>2010-04-06T11:22:03Z</time>
      </trkpt>
      <trkpt lat="45.10665" lon="4.93679">
        <ele>230.78199768066</ele>
        <time>2010-04-06T11:22:09Z</time>
      </trkpt>
      <trkpt lat="45.10657" lon="4.93616">
        <ele>228.06399536133</ele>
        <time>2010-04-06T11:22:14Z</time>
      </trkpt>
      <trkpt lat="45.10644" lon="4.93548">
        <ele>223.54899597168</ele>
        <time>2010-04-06T11:22:19Z</time>
      </trkpt>
      <trkpt lat="45.10627" lon="4.9346">
        <ele>218.65100097656</ele>
        <time>2010-04-06T11:22:25Z</time>
      </trkpt>
      <trkpt lat="45.10624" lon="4.93445">
        <ele>218.46899414062</ele>
        <time>2010-04-06T11:22:26Z</time>
      </trkpt>
      <trkpt lat="45.10605" lon="4.93351">
        <ele>216.30299377441</ele>
        <time>2010-04-06T11:22:33Z</time>
      </trkpt>
      <trkpt lat="45.106" lon="4.93325">
        <ele>216.53900146484</ele>
        <time>2010-04-06T11:22:35Z</time>
      </trkpt>
      <trkpt lat="45.10577" lon="4.93204">
        <ele>214.32400512695</ele>
        <time>2010-04-06T11:22:45Z</time>
      </trkpt>
      <trkpt lat="45.10552" lon="4.93074">
        <ele>215.12199401856</ele>
        <time>2010-04-06T11:22:56Z</time>
      </trkpt>
      <trkpt lat="45.10527" lon="4.92945">
        <ele>214.27200317383</ele>
        <time>2010-04-06T11:23:08Z</time>
      </trkpt>
      <trkpt lat="45.10507" lon="4.92841">
        <ele>213.33200073242</ele>
        <time>2010-04-06T11:23:18Z</time>
      </trkpt>
      <trkpt lat="45.10498" lon="4.92794">
        <ele>213.87800598144</ele>
        <time>2010-04-06T11:23:23Z</time>
      </trkpt>
      <trkpt lat="45.10495" lon="4.92777">
        <ele>214.13600158691</ele>
        <time>2010-04-06T11:23:25Z</time>
      </trkpt>
      <trkpt lat="45.10504" lon="4.92759">
        <ele>215.02699279785</ele>
        <time>2010-04-06T11:23:29Z</time>
      </trkpt>
      <trkpt lat="45.10514" lon="4.92758">
        <ele>214.77400207519</ele>
        <time>2010-04-06T11:23:31Z</time>
      </trkpt>
      <trkpt lat="45.10553" lon="4.92754">
        <ele>215.48899841309</ele>
        <time>2010-04-06T11:23:38Z</time>
      </trkpt>
      <trkpt lat="45.1058" lon="4.92752">
        <ele>215.88299560547</ele>
        <time>2010-04-06T11:23:43Z</time>
      </trkpt>
      <trkpt lat="45.10615" lon="4.92762">
        <ele>215.84800720215</ele>
        <time>2010-04-06T11:23:50Z</time>
      </trkpt>
      <trkpt lat="45.1063" lon="4.92768">
        <ele>216.0119934082</ele>
        <time>2010-04-06T11:23:54Z</time>
      </trkpt>
      <trkpt lat="45.10634" lon="4.92762">
        <ele>216.23100280762</ele>
        <time>2010-04-06T11:23:59Z</time>
      </trkpt>
      <trkpt lat="45.10634" lon="4.9276">
        <ele>216.1549987793</ele>
        <time>2010-04-06T11:24:00Z</time>
      </trkpt>
      <trkpt lat="45.10637" lon="4.92759">
        <ele>216.125</ele>
        <time>2010-04-06T11:24:04Z</time>
      </trkpt>
      <trkpt lat="45.10637" lon="4.92759">
        <ele>216.22599792481</ele>
        <time>2010-04-06T11:24:06Z</time>
      </trkpt>
      <trkpt lat="45.10634" lon="4.92768">
        <ele>215.36099243164</ele>
        <time>2010-04-06T11:25:52Z</time>
      </trkpt>
      <trkpt lat="45.10627" lon="4.92768">
        <ele>214.12300109863</ele>
        <time>2010-04-06T11:25:56Z</time>
      </trkpt>
      <trkpt lat="45.10613" lon="4.9276">
        <ele>214.45399475098</ele>
        <time>2010-04-06T11:26:02Z</time>
      </trkpt>
      <trkpt lat="45.10597" lon="4.92755">
        <ele>214.52499389648</ele>
        <time>2010-04-06T11:26:09Z</time>
      </trkpt>
      <trkpt lat="45.1058" lon="4.92752">
        <ele>214.19299316406</ele>
        <time>2010-04-06T11:26:15Z</time>
      </trkpt>
      <trkpt lat="45.10557" lon="4.92754">
        <ele>213.83999633789</ele>
        <time>2010-04-06T11:26:21Z</time>
      </trkpt>
      <trkpt lat="45.10539" lon="4.92756">
        <ele>213.94299316406</ele>
        <time>2010-04-06T11:26:25Z</time>
      </trkpt>
      <trkpt lat="45.10505" lon="4.92761">
        <ele>213.50300598144</ele>
        <time>2010-04-06T11:26:32Z</time>
      </trkpt>
      <trkpt lat="45.10493" lon="4.92762">
        <ele>213.43299865723</ele>
        <time>2010-04-06T11:26:36Z</time>
      </trkpt>
      <trkpt lat="45.10492" lon="4.92761">
        <ele>213.49699401856</ele>
        <time>2010-04-06T11:26:38Z</time>
      </trkpt>
      <trkpt lat="45.10486" lon="4.92748">
        <ele>213.43800354004</ele>
        <time>2010-04-06T11:26:44Z</time>
      </trkpt>
      <trkpt lat="45.10481" lon="4.92725">
        <ele>213.22599792481</ele>
        <time>2010-04-06T11:26:49Z</time>
      </trkpt>
      <trkpt lat="45.10477" lon="4.92714">
        <ele>212.66299438477</ele>
        <time>2010-04-06T11:26:51Z</time>
      </trkpt>
      <trkpt lat="45.10472" lon="4.92684">
        <ele>212.82699584961</ele>
        <time>2010-04-06T11:26:56Z</time>
      </trkpt>
      <trkpt lat="45.10469" lon="4.92661">
        <ele>212.30999755859</ele>
        <time>2010-04-06T11:27:00Z</time>
      </trkpt>
      <trkpt lat="45.1046" lon="4.92615">
        <ele>212.02200317383</ele>
        <time>2010-04-06T11:27:08Z</time>
      </trkpt>
      <trkpt lat="45.10458" lon="4.92602">
        <ele>212.93699645996</ele>
        <time>2010-04-06T11:27:10Z</time>
      </trkpt>
      <trkpt lat="45.10449" lon="4.92548">
        <ele>212.18600463867</ele>
        <time>2010-04-06T11:27:17Z</time>
      </trkpt>
      <trkpt lat="45.10437" lon="4.92481">
        <ele>210.36999511719</ele>
        <time>2010-04-06T11:27:25Z</time>
      </trkpt>
      <trkpt lat="45.10424" lon="4.92406">
        <ele>208.81799316406</ele>
        <time>2010-04-06T11:27:33Z</time>
      </trkpt>
      <trkpt lat="45.10412" lon="4.92336">
        <ele>207.66799926758</ele>
        <time>2010-04-06T11:27:40Z</time>
      </trkpt>
      <trkpt lat="45.10402" lon="4.92277">
        <ele>208.10400390625</ele>
        <time>2010-04-06T11:27:46Z</time>
      </trkpt>
      <trkpt lat="45.10388" lon="4.922">
        <ele>207.54200744629</ele>
        <time>2010-04-06T11:27:54Z</time>
      </trkpt>
      <trkpt lat="45.10374" lon="4.92119">
        <ele>208.16000366211</ele>
        <time>2010-04-06T11:28:02Z</time>
      </trkpt>
      <trkpt lat="45.10358" lon="4.92033">
        <ele>208.14300537109</ele>
        <time>2010-04-06T11:28:11Z</time>
      </trkpt>
      <trkpt lat="45.10343" lon="4.91952">
        <ele>209.14100646973</ele>
        <time>2010-04-06T11:28:20Z</time>
      </trkpt>
      <trkpt lat="45.10327" lon="4.91863">
        <ele>209.42199707031</ele>
        <time>2010-04-06T11:28:30Z</time>
      </trkpt>
      <trkpt lat="45.10318" lon="4.91812">
        <ele>210.52699279785</ele>
        <time>2010-04-06T11:28:36Z</time>
      </trkpt>
      <trkpt lat="45.10316" lon="4.91804">
        <ele>210.30999755859</ele>
        <time>2010-04-06T11:28:37Z</time>
      </trkpt>
      <trkpt lat="45.10317" lon="4.91773">
        <ele>211.76699829102</ele>
        <time>2010-04-06T11:28:41Z</time>
      </trkpt>
      <trkpt lat="45.10329" lon="4.91756">
        <ele>212.25900268555</ele>
        <time>2010-04-06T11:28:44Z</time>
      </trkpt>
      <trkpt lat="45.10348" lon="4.9175">
        <ele>212.07699584961</ele>
        <time>2010-04-06T11:28:47Z</time>
      </trkpt>
      <trkpt lat="45.10429" lon="4.91742">
        <ele>213.16600036621</ele>
        <time>2010-04-06T11:28:59Z</time>
      </trkpt>
      <trkpt lat="45.1052" lon="4.91733">
        <ele>214.03700256348</ele>
        <time>2010-04-06T11:29:12Z</time>
      </trkpt>
      <trkpt lat="45.10607" lon="4.91724">
        <ele>216.61099243164</ele>
        <time>2010-04-06T11:29:25Z</time>
      </trkpt>
      <trkpt lat="45.10689" lon="4.91715">
        <ele>219.23899841309</ele>
        <time>2010-04-06T11:29:38Z</time>
      </trkpt>
      <trkpt lat="45.10743" lon="4.91708">
        <ele>221.55400085449</ele>
        <time>2010-04-06T11:29:47Z</time>
      </trkpt>
      <trkpt lat="45.10767" lon="4.91688">
        <ele>221.16700744629</ele>
        <time>2010-04-06T11:29:52Z</time>
      </trkpt>
      <trkpt lat="45.10774" lon="4.91656">
        <ele>220.89799499512</ele>
        <time>2010-04-06T11:29:56Z</time>
      </trkpt>
      <trkpt lat="45.10775" lon="4.91567">
        <ele>219.05299377441</ele>
        <time>2010-04-06T11:30:05Z</time>
      </trkpt>
      <trkpt lat="45.10775" lon="4.91506">
        <ele>217.59599304199</ele>
        <time>2010-04-06T11:30:11Z</time>
      </trkpt>
      <trkpt lat="45.10776" lon="4.91415">
        <ele>217.80099487305</ele>
        <time>2010-04-06T11:30:20Z</time>
      </trkpt>
      <trkpt lat="45.10776" lon="4.91358">
        <ele>219.64599609375</ele>
        <time>2010-04-06T11:30:26Z</time>
      </trkpt>
      <trkpt lat="45.10776" lon="4.91284">
        <ele>220.12399291992</ele>
        <time>2010-04-06T11:30:34Z</time>
      </trkpt>
      <trkpt lat="45.10786" lon="4.91243">
        <ele>220.9880065918</ele>
        <time>2010-04-06T11:30:39Z</time>
      </trkpt>
      <trkpt lat="45.10803" lon="4.91227">
        <ele>221.69799804688</ele>
        <time>2010-04-06T11:30:42Z</time>
      </trkpt>
      <trkpt lat="45.10816" lon="4.91222">
        <ele>221.92599487305</ele>
        <time>2010-04-06T11:30:44Z</time>
      </trkpt>
      <trkpt lat="45.10884" lon="4.91203">
        <ele>221.84700012207</ele>
        <time>2010-04-06T11:30:54Z</time>
      </trkpt>
      <trkpt lat="45.10928" lon="4.91194">
        <ele>222.35699462891</ele>
        <time>2010-04-06T11:31:00Z</time>
      </trkpt>
      <trkpt lat="45.10994" lon="4.91174">
        <ele>222.35400390625</ele>
        <time>2010-04-06T11:31:09Z</time>
      </trkpt>
      <trkpt lat="45.1106" lon="4.91137">
        <ele>222.63299560547</ele>
        <time>2010-04-06T11:31:18Z</time>
      </trkpt>
      <trkpt lat="45.11103" lon="4.91108">
        <ele>222.64300537109</ele>
        <time>2010-04-06T11:31:24Z</time>
      </trkpt>
      <trkpt lat="45.11166" lon="4.91065">
        <ele>222.56199645996</ele>
        <time>2010-04-06T11:31:33Z</time>
      </trkpt>
      <trkpt lat="45.11212" lon="4.91027">
        <ele>222.83700561523</ele>
        <time>2010-04-06T11:31:40Z</time>
      </trkpt>
      <trkpt lat="45.11273" lon="4.90986">
        <ele>223.69799804688</ele>
        <time>2010-04-06T11:31:49Z</time>
      </trkpt>
      <trkpt lat="45.11338" lon="4.90947">
        <ele>224.62699890137</ele>
        <time>2010-04-06T11:31:59Z</time>
      </trkpt>
      <trkpt lat="45.11373" lon="4.90917">
        <ele>225.48100280762</ele>
        <time>2010-04-06T11:32:05Z</time>
      </trkpt>
      <trkpt lat="45.11418" lon="4.90867">
        <ele>225.95100402832</ele>
        <time>2010-04-06T11:32:13Z</time>
      </trkpt>
      <trkpt lat="45.11451" lon="4.90844">
        <ele>226.74899291992</ele>
        <time>2010-04-06T11:32:18Z</time>
      </trkpt>
      <trkpt lat="45.11508" lon="4.90823">
        <ele>227.1309967041</ele>
        <time>2010-04-06T11:32:26Z</time>
      </trkpt>
      <trkpt lat="45.1158" lon="4.9079">
        <ele>227.41000366211</ele>
        <time>2010-04-06T11:32:36Z</time>
      </trkpt>
      <trkpt lat="45.11639" lon="4.90736">
        <ele>227.2140045166</ele>
        <time>2010-04-06T11:32:45Z</time>
      </trkpt>
      <trkpt lat="45.11664" lon="4.90697">
        <ele>226.72799682617</ele>
        <time>2010-04-06T11:32:50Z</time>
      </trkpt>
      <trkpt lat="45.11687" lon="4.90623">
        <ele>226.49000549316</ele>
        <time>2010-04-06T11:32:58Z</time>
      </trkpt>
      <trkpt lat="45.11697" lon="4.90548">
        <ele>225.23100280762</ele>
        <time>2010-04-06T11:33:05Z</time>
      </trkpt>
      <trkpt lat="45.11698" lon="4.90536">
        <ele>224.89100646973</ele>
        <time>2010-04-06T11:33:06Z</time>
      </trkpt>
      <trkpt lat="45.11708" lon="4.90491">
        <ele>223.07899475098</ele>
        <time>2010-04-06T11:33:10Z</time>
      </trkpt>
      <trkpt lat="45.11716" lon="4.90398">
        <ele>221.04800415039</ele>
        <time>2010-04-06T11:33:18Z</time>
      </trkpt>
      <trkpt lat="45.11725" lon="4.90366">
        <ele>220.98899841309</ele>
        <time>2010-04-06T11:33:21Z</time>
      </trkpt>
      <trkpt lat="45.1173" lon="4.90357">
        <ele>220.79299926758</ele>
        <time>2010-04-06T11:33:22Z</time>
      </trkpt>
      <trkpt lat="45.11752" lon="4.90338">
        <ele>221.02900695801</ele>
        <time>2010-04-06T11:33:25Z</time>
      </trkpt>
      <trkpt lat="45.11809" lon="4.90304">
        <ele>219.99699401856</ele>
        <time>2010-04-06T11:33:32Z</time>
      </trkpt>
      <trkpt lat="45.11861" lon="4.90268">
        <ele>220.07499694824</ele>
        <time>2010-04-06T11:33:39Z</time>
      </trkpt>
      <trkpt lat="45.11916" lon="4.90229">
        <ele>219.77900695801</ele>
        <time>2010-04-06T11:33:46Z</time>
      </trkpt>
      <trkpt lat="45.11951" lon="4.90201">
        <ele>220.25300598144</ele>
        <time>2010-04-06T11:33:51Z</time>
      </trkpt>
      <trkpt lat="45.11989" lon="4.90161">
        <ele>219.33099365234</ele>
        <time>2010-04-06T11:33:57Z</time>
      </trkpt>
      <trkpt lat="45.12001" lon="4.90146">
        <ele>219.30700683594</ele>
        <time>2010-04-06T11:33:59Z</time>
      </trkpt>
      <trkpt lat="45.12016" lon="4.90108">
        <ele>218.66299438477</ele>
        <time>2010-04-06T11:34:03Z</time>
      </trkpt>
      <trkpt lat="45.12012" lon="4.90074">
        <ele>217.92599487305</ele>
        <time>2010-04-06T11:34:06Z</time>
      </trkpt>
      <trkpt lat="45.12009" lon="4.90063">
        <ele>217.10499572754</ele>
        <time>2010-04-06T11:34:07Z</time>
      </trkpt>
      <trkpt lat="45.11983" lon="4.90002">
        <ele>215.68600463867</ele>
        <time>2010-04-06T11:34:13Z</time>
      </trkpt>
      <trkpt lat="45.11975" lon="4.8998">
        <ele>214.92700195312</ele>
        <time>2010-04-06T11:34:15Z</time>
      </trkpt>
      <trkpt lat="45.11967" lon="4.89959">
        <ele>215.19700622559</ele>
        <time>2010-04-06T11:34:17Z</time>
      </trkpt>
      <trkpt lat="45.11964" lon="4.89949">
        <ele>215.05700683594</ele>
        <time>2010-04-06T11:34:18Z</time>
      </trkpt>
      <trkpt lat="45.11934" lon="4.89881">
        <ele>215.75999450684</ele>
        <time>2010-04-06T11:34:25Z</time>
      </trkpt>
      <trkpt lat="45.11911" lon="4.89832">
        <ele>216.28500366211</ele>
        <time>2010-04-06T11:34:31Z</time>
      </trkpt>
      <trkpt lat="45.11896" lon="4.89806">
        <ele>216.23899841309</ele>
        <time>2010-04-06T11:34:35Z</time>
      </trkpt>
      <trkpt lat="45.1189" lon="4.89791">
        <ele>217.73899841309</ele>
        <time>2010-04-06T11:34:37Z</time>
      </trkpt>
      <trkpt lat="45.11883" lon="4.89762">
        <ele>218.69799804688</ele>
        <time>2010-04-06T11:34:41Z</time>
      </trkpt>
      <trkpt lat="45.1188" lon="4.897">
        <ele>219.27900695801</ele>
        <time>2010-04-06T11:34:49Z</time>
      </trkpt>
      <trkpt lat="45.11878" lon="4.89663">
        <ele>219.92199707031</ele>
        <time>2010-04-06T11:34:54Z</time>
      </trkpt>
      <trkpt lat="45.11885" lon="4.89648">
        <ele>221.20899963379</ele>
        <time>2010-04-06T11:34:58Z</time>
      </trkpt>
      <trkpt lat="45.11901" lon="4.89659">
        <ele>221.12300109863</ele>
        <time>2010-04-06T11:35:02Z</time>
      </trkpt>
      <trkpt lat="45.11941" lon="4.89679">
        <ele>220.05200195312</ele>
        <time>2010-04-06T11:35:09Z</time>
      </trkpt>
      <trkpt lat="45.11983" lon="4.89688">
        <ele>218.85899353027</ele>
        <time>2010-04-06T11:35:15Z</time>
      </trkpt>
      <trkpt lat="45.12046" lon="4.89693">
        <ele>218.06100463867</ele>
        <time>2010-04-06T11:35:23Z</time>
      </trkpt>
      <trkpt lat="45.12063" lon="4.89694">
        <ele>217.1309967041</ele>
        <time>2010-04-06T11:35:25Z</time>
      </trkpt>
      <trkpt lat="45.12136" lon="4.89703">
        <ele>217.13800048828</ele>
        <time>2010-04-06T11:35:34Z</time>
      </trkpt>
      <trkpt lat="45.12196" lon="4.89726">
        <ele>218.08700561523</ele>
        <time>2010-04-06T11:35:42Z</time>
      </trkpt>
      <trkpt lat="45.12238" lon="4.89735">
        <ele>218.89199829102</ele>
        <time>2010-04-06T11:35:48Z</time>
      </trkpt>
      <trkpt lat="45.12274" lon="4.89732">
        <ele>219.43299865723</ele>
        <time>2010-04-06T11:35:53Z</time>
      </trkpt>
      <trkpt lat="45.12324" lon="4.89724">
        <ele>220.71800231934</ele>
        <time>2010-04-06T11:36:00Z</time>
      </trkpt>
      <trkpt lat="45.12366" lon="4.89726">
        <ele>221.42399597168</ele>
        <time>2010-04-06T11:36:06Z</time>
      </trkpt>
      <trkpt lat="45.12417" lon="4.89736">
        <ele>221.75199890137</ele>
        <time>2010-04-06T11:36:13Z</time>
      </trkpt>
      <trkpt lat="45.12493" lon="4.89751">
        <ele>222.83999633789</ele>
        <time>2010-04-06T11:36:23Z</time>
      </trkpt>
      <trkpt lat="45.12554" lon="4.89762">
        <ele>223.32699584961</ele>
        <time>2010-04-06T11:36:31Z</time>
      </trkpt>
      <trkpt lat="45.12628" lon="4.89776">
        <ele>223.73500061035</ele>
        <time>2010-04-06T11:36:41Z</time>
      </trkpt>
      <trkpt lat="45.12702" lon="4.89789">
        <ele>224.28399658203</ele>
        <time>2010-04-06T11:36:51Z</time>
      </trkpt>
      <trkpt lat="45.12746" lon="4.89778">
        <ele>225.35499572754</ele>
        <time>2010-04-06T11:36:57Z</time>
      </trkpt>
      <trkpt lat="45.12798" lon="4.89763">
        <ele>227.45100402832</ele>
        <time>2010-04-06T11:37:05Z</time>
      </trkpt>
      <trkpt lat="45.12853" lon="4.89743">
        <ele>229.46200561523</ele>
        <time>2010-04-06T11:37:14Z</time>
      </trkpt>
      <trkpt lat="45.12901" lon="4.89715">
        <ele>230.81300354004</ele>
        <time>2010-04-06T11:37:22Z</time>
      </trkpt>
      <trkpt lat="45.12952" lon="4.89673">
        <ele>232.32400512695</ele>
        <time>2010-04-06T11:37:31Z</time>
      </trkpt>
      <trkpt lat="45.13015" lon="4.89615">
        <ele>233.83999633789</ele>
        <time>2010-04-06T11:37:42Z</time>
      </trkpt>
      <trkpt lat="45.13063" lon="4.89577">
        <ele>234.56500244141</ele>
        <time>2010-04-06T11:37:50Z</time>
      </trkpt>
      <trkpt lat="45.13084" lon="4.89567">
        <ele>233.27799987793</ele>
        <time>2010-04-06T11:37:53Z</time>
      </trkpt>
      <trkpt lat="45.13144" lon="4.89551">
        <ele>232.18699645996</ele>
        <time>2010-04-06T11:38:00Z</time>
      </trkpt>
      <trkpt lat="45.13201" lon="4.89534">
        <ele>231.85699462891</ele>
        <time>2010-04-06T11:38:07Z</time>
      </trkpt>
      <trkpt lat="45.13247" lon="4.89528">
        <ele>232.71099853516</ele>
        <time>2010-04-06T11:38:13Z</time>
      </trkpt>
      <trkpt lat="45.13303" lon="4.8953">
        <ele>234.06199645996</ele>
        <time>2010-04-06T11:38:21Z</time>
      </trkpt>
      <trkpt lat="45.13317" lon="4.8953">
        <ele>234.42500305176</ele>
        <time>2010-04-06T11:38:23Z</time>
      </trkpt>
      <trkpt lat="45.13347" lon="4.89515">
        <ele>234.95700073242</ele>
        <time>2010-04-06T11:38:28Z</time>
      </trkpt>
      <trkpt lat="45.13362" lon="4.89485">
        <ele>235.33299255371</ele>
        <time>2010-04-06T11:38:32Z</time>
      </trkpt>
      <trkpt lat="45.13366" lon="4.89457">
        <ele>235.69000244141</ele>
        <time>2010-04-06T11:38:35Z</time>
      </trkpt>
      <trkpt lat="45.13368" lon="4.8943">
        <ele>236.05200195312</ele>
        <time>2010-04-06T11:38:38Z</time>
      </trkpt>
      <trkpt lat="45.13371" lon="4.89393">
        <ele>237.19099426269</ele>
        <time>2010-04-06T11:38:42Z</time>
      </trkpt>
      <trkpt lat="45.13367" lon="4.89373">
        <ele>236.9109954834</ele>
        <time>2010-04-06T11:38:44Z</time>
      </trkpt>
      <trkpt lat="45.13378" lon="4.89331">
        <ele>238.47300720215</ele>
        <time>2010-04-06T11:38:49Z</time>
      </trkpt>
      <trkpt lat="45.134" lon="4.89309">
        <ele>238.54499816894</ele>
        <time>2010-04-06T11:38:53Z</time>
      </trkpt>
      <trkpt lat="45.13412" lon="4.89306">
        <ele>238.77400207519</ele>
        <time>2010-04-06T11:38:55Z</time>
      </trkpt>
      <trkpt lat="45.13452" lon="4.89303">
        <ele>239.92500305176</ele>
        <time>2010-04-06T11:39:01Z</time>
      </trkpt>
      <trkpt lat="45.13506" lon="4.89296">
        <ele>240.90400695801</ele>
        <time>2010-04-06T11:39:09Z</time>
      </trkpt>
      <trkpt lat="45.13571" lon="4.89283">
        <ele>241.89900207519</ele>
        <time>2010-04-06T11:39:18Z</time>
      </trkpt>
      <trkpt lat="45.13643" lon="4.89261">
        <ele>242.92700195312</ele>
        <time>2010-04-06T11:39:28Z</time>
      </trkpt>
      <trkpt lat="45.13694" lon="4.89246">
        <ele>244.80700683594</ele>
        <time>2010-04-06T11:39:36Z</time>
      </trkpt>
      <trkpt lat="45.13736" lon="4.89233">
        <ele>246.45799255371</ele>
        <time>2010-04-06T11:39:43Z</time>
      </trkpt>
      <trkpt lat="45.13782" lon="4.8922">
        <ele>248.19999694824</ele>
        <time>2010-04-06T11:39:51Z</time>
      </trkpt>
      <trkpt lat="45.13835" lon="4.89209">
        <ele>250.57400512695</ele>
        <time>2010-04-06T11:40:00Z</time>
      </trkpt>
      <trkpt lat="45.13888" lon="4.892">
        <ele>254.15299987793</ele>
        <time>2010-04-06T11:40:10Z</time>
      </trkpt>
      <trkpt lat="45.13927" lon="4.89185">
        <ele>257.1369934082</ele>
        <time>2010-04-06T11:40:18Z</time>
      </trkpt>
      <trkpt lat="45.13969" lon="4.89165">
        <ele>259.25201416016</ele>
        <time>2010-04-06T11:40:27Z</time>
      </trkpt>
      <trkpt lat="45.14019" lon="4.89139">
        <ele>260.4289855957</ele>
        <time>2010-04-06T11:40:37Z</time>
      </trkpt>
      <trkpt lat="45.14073" lon="4.89112">
        <ele>261.0530090332</ele>
        <time>2010-04-06T11:40:47Z</time>
      </trkpt>
      <trkpt lat="45.14122" lon="4.89083">
        <ele>262.29000854492</ele>
        <time>2010-04-06T11:40:56Z</time>
      </trkpt>
      <trkpt lat="45.14177" lon="4.89044">
        <ele>263.92300415039</ele>
        <time>2010-04-06T11:41:06Z</time>
      </trkpt>
      <trkpt lat="45.14252" lon="4.8899">
        <ele>265.41400146484</ele>
        <time>2010-04-06T11:41:19Z</time>
      </trkpt>
      <trkpt lat="45.14308" lon="4.88949">
        <ele>265.66500854492</ele>
        <time>2010-04-06T11:41:28Z</time>
      </trkpt>
      <trkpt lat="45.14369" lon="4.88905">
        <ele>265.4049987793</ele>
        <time>2010-04-06T11:41:37Z</time>
      </trkpt>
      <trkpt lat="45.14421" lon="4.88869">
        <ele>264.49899291992</ele>
        <time>2010-04-06T11:41:44Z</time>
      </trkpt>
      <trkpt lat="45.14452" lon="4.88849">
        <ele>262.77200317383</ele>
        <time>2010-04-06T11:41:48Z</time>
      </trkpt>
      <trkpt lat="45.14497" lon="4.88826">
        <ele>259.36199951172</ele>
        <time>2010-04-06T11:41:53Z</time>
      </trkpt>
      <trkpt lat="45.14552" lon="4.88811">
        <ele>255.40600585938</ele>
        <time>2010-04-06T11:41:58Z</time>
      </trkpt>
      <trkpt lat="45.14626" lon="4.88801">
        <ele>249.46200561523</ele>
        <time>2010-04-06T11:42:04Z</time>
      </trkpt>
      <trkpt lat="45.14708" lon="4.88791">
        <ele>242.19299316406</ele>
        <time>2010-04-06T11:42:10Z</time>
      </trkpt>
      <trkpt lat="45.14764" lon="4.88778">
        <ele>237.95599365234</ele>
        <time>2010-04-06T11:42:14Z</time>
      </trkpt>
      <trkpt lat="45.14874" lon="4.88751">
        <ele>234.60299682617</ele>
        <time>2010-04-06T11:42:22Z</time>
      </trkpt>
      <trkpt lat="45.14899" lon="4.88745">
        <ele>235.38299560547</ele>
        <time>2010-04-06T11:42:24Z</time>
      </trkpt>
      <trkpt lat="45.14934" lon="4.88757">
        <ele>236.61099243164</ele>
        <time>2010-04-06T11:42:27Z</time>
      </trkpt>
      <trkpt lat="45.14947" lon="4.88783">
        <ele>237.29800415039</ele>
        <time>2010-04-06T11:42:29Z</time>
      </trkpt>
      <trkpt lat="45.14973" lon="4.88846">
        <ele>239.88800048828</ele>
        <time>2010-04-06T11:42:34Z</time>
      </trkpt>
      <trkpt lat="45.14981" lon="4.88858">
        <ele>241.19099426269</ele>
        <time>2010-04-06T11:42:35Z</time>
      </trkpt>
      <trkpt lat="45.15003" lon="4.88886">
        <ele>242.91999816894</ele>
        <time>2010-04-06T11:42:39Z</time>
      </trkpt>
      <trkpt lat="45.15028" lon="4.88897">
        <ele>243.29200744629</ele>
        <time>2010-04-06T11:42:42Z</time>
      </trkpt>
      <trkpt lat="45.15072" lon="4.88909">
        <ele>241.93099975586</ele>
        <time>2010-04-06T11:42:47Z</time>
      </trkpt>
      <trkpt lat="45.1513" lon="4.88923">
        <ele>239.58299255371</ele>
        <time>2010-04-06T11:42:53Z</time>
      </trkpt>
      <trkpt lat="45.15194" lon="4.88927">
        <ele>235.46800231934</ele>
        <time>2010-04-06T11:42:59Z</time>
      </trkpt>
      <trkpt lat="45.15284" lon="4.8893">
        <ele>233.1190032959</ele>
        <time>2010-04-06T11:43:07Z</time>
      </trkpt>
      <trkpt lat="45.15316" lon="4.8893">
        <ele>232.80200195312</ele>
        <time>2010-04-06T11:43:10Z</time>
      </trkpt>
      <trkpt lat="45.15356" lon="4.88911">
        <ele>232.53199768066</ele>
        <time>2010-04-06T11:43:14Z</time>
      </trkpt>
      <trkpt lat="45.15411" lon="4.88883">
        <ele>232.97200012207</ele>
        <time>2010-04-06T11:43:20Z</time>
      </trkpt>
      <trkpt lat="45.15488" lon="4.88884">
        <ele>232.44799804688</ele>
        <time>2010-04-06T11:43:28Z</time>
      </trkpt>
      <trkpt lat="45.15588" lon="4.88889">
        <ele>231.35499572754</ele>
        <time>2010-04-06T11:43:38Z</time>
      </trkpt>
      <trkpt lat="45.15649" lon="4.88892">
        <ele>229.29200744629</ele>
        <time>2010-04-06T11:43:44Z</time>
      </trkpt>
      <trkpt lat="45.15719" lon="4.88895">
        <ele>225.11500549316</ele>
        <time>2010-04-06T11:43:50Z</time>
      </trkpt>
      <trkpt lat="45.15768" lon="4.88899">
        <ele>220.73500061035</ele>
        <time>2010-04-06T11:43:54Z</time>
      </trkpt>
      <trkpt lat="45.15781" lon="4.88901">
        <ele>220.52799987793</ele>
        <time>2010-04-06T11:43:55Z</time>
      </trkpt>
      <trkpt lat="45.15843" lon="4.88908">
        <ele>217.21000671387</ele>
        <time>2010-04-06T11:44:00Z</time>
      </trkpt>
      <trkpt lat="45.15941" lon="4.88922">
        <ele>215.4109954834</ele>
        <time>2010-04-06T11:44:08Z</time>
      </trkpt>
      <trkpt lat="45.16013" lon="4.88926">
        <ele>213.86999511719</ele>
        <time>2010-04-06T11:44:14Z</time>
      </trkpt>
      <trkpt lat="45.16059" lon="4.88926">
        <ele>213.05599975586</ele>
        <time>2010-04-06T11:44:18Z</time>
      </trkpt>
      <trkpt lat="45.16138" lon="4.88927">
        <ele>211.83299255371</ele>
        <time>2010-04-06T11:44:25Z</time>
      </trkpt>
      <trkpt lat="45.16192" lon="4.88928">
        <ele>212.11999511719</ele>
        <time>2010-04-06T11:44:30Z</time>
      </trkpt>
      <trkpt lat="45.16243" lon="4.88929">
        <ele>212.00799560547</ele>
        <time>2010-04-06T11:44:35Z</time>
      </trkpt>
      <trkpt lat="45.16334" lon="4.88931">
        <ele>213.7200012207</ele>
        <time>2010-04-06T11:44:44Z</time>
      </trkpt>
      <trkpt lat="45.16399" lon="4.88933">
        <ele>215.60299682617</ele>
        <time>2010-04-06T11:44:51Z</time>
      </trkpt>
      <trkpt lat="45.1646" lon="4.88945">
        <ele>216.32600402832</ele>
        <time>2010-04-06T11:44:58Z</time>
      </trkpt>
      <trkpt lat="45.16523" lon="4.88965">
        <ele>215.98500061035</ele>
        <time>2010-04-06T11:45:05Z</time>
      </trkpt>
      <trkpt lat="45.1662" lon="4.88994">
        <ele>214.4109954834</ele>
        <time>2010-04-06T11:45:15Z</time>
      </trkpt>
      <trkpt lat="45.16703" lon="4.89017">
        <ele>211.1369934082</ele>
        <time>2010-04-06T11:45:23Z</time>
      </trkpt>
      <trkpt lat="45.16755" lon="4.89036">
        <ele>209.68800354004</ele>
        <time>2010-04-06T11:45:28Z</time>
      </trkpt>
      <trkpt lat="45.16776" lon="4.89044">
        <ele>209.4049987793</ele>
        <time>2010-04-06T11:45:30Z</time>
      </trkpt>
      <trkpt lat="45.16796" lon="4.89052">
        <ele>209.35600280762</ele>
        <time>2010-04-06T11:45:32Z</time>
      </trkpt>
      <trkpt lat="45.16832" lon="4.89062">
        <ele>209.55900573731</ele>
        <time>2010-04-06T11:45:36Z</time>
      </trkpt>
      <trkpt lat="45.16846" lon="4.89064">
        <ele>209.86399841309</ele>
        <time>2010-04-06T11:45:39Z</time>
      </trkpt>
      <trkpt lat="45.1686" lon="4.89046">
        <ele>209.60000610352</ele>
        <time>2010-04-06T11:45:43Z</time>
      </trkpt>
      <trkpt lat="45.16862" lon="4.89038">
        <ele>209.80900573731</ele>
        <time>2010-04-06T11:45:44Z</time>
      </trkpt>
      <trkpt lat="45.16876" lon="4.88949">
        <ele>208.5</ele>
        <time>2010-04-06T11:45:54Z</time>
      </trkpt>
      <trkpt lat="45.16891" lon="4.88856">
        <ele>206.33000183106</ele>
        <time>2010-04-06T11:46:03Z</time>
      </trkpt>
      <trkpt lat="45.16893" lon="4.88845">
        <ele>206.44900512695</ele>
        <time>2010-04-06T11:46:04Z</time>
      </trkpt>
      <trkpt lat="45.16903" lon="4.88787">
        <ele>204.74499511719</ele>
        <time>2010-04-06T11:46:09Z</time>
      </trkpt>
      <trkpt lat="45.1692" lon="4.88692">
        <ele>198.22799682617</ele>
        <time>2010-04-06T11:46:16Z</time>
      </trkpt>
      <trkpt lat="45.16922" lon="4.88677">
        <ele>198.18200683594</ele>
        <time>2010-04-06T11:46:17Z</time>
      </trkpt>
      <trkpt lat="45.1694" lon="4.88581">
        <ele>192.80000305176</ele>
        <time>2010-04-06T11:46:23Z</time>
      </trkpt>
      <trkpt lat="45.16956" lon="4.88486">
        <ele>190.67300415039</ele>
        <time>2010-04-06T11:46:29Z</time>
      </trkpt>
      <trkpt lat="45.1697" lon="4.88404">
        <ele>190.97999572754</ele>
        <time>2010-04-06T11:46:35Z</time>
      </trkpt>
      <trkpt lat="45.16976" lon="4.88365">
        <ele>190.27400207519</ele>
        <time>2010-04-06T11:46:38Z</time>
      </trkpt>
      <trkpt lat="45.16983" lon="4.88328">
        <ele>191.26499938965</ele>
        <time>2010-04-06T11:46:41Z</time>
      </trkpt>
      <trkpt lat="45.16993" lon="4.88252">
        <ele>189.63600158691</ele>
        <time>2010-04-06T11:46:47Z</time>
      </trkpt>
      <trkpt lat="45.1699" lon="4.88187">
        <ele>189.19400024414</ele>
        <time>2010-04-06T11:46:52Z</time>
      </trkpt>
      <trkpt lat="45.16978" lon="4.88057">
        <ele>188.19500732422</ele>
        <time>2010-04-06T11:47:02Z</time>
      </trkpt>
      <trkpt lat="45.16972" lon="4.87971">
        <ele>186.80499267578</ele>
        <time>2010-04-06T11:47:09Z</time>
      </trkpt>
      <trkpt lat="45.16975" lon="4.87915">
        <ele>187.23599243164</ele>
        <time>2010-04-06T11:47:14Z</time>
      </trkpt>
      <trkpt lat="45.1699" lon="4.87834">
        <ele>187.31599426269</ele>
        <time>2010-04-06T11:47:22Z</time>
      </trkpt>
      <trkpt lat="45.17" lon="4.87779">
        <ele>186.83799743652</ele>
        <time>2010-04-06T11:47:27Z</time>
      </trkpt>
      <trkpt lat="45.17013" lon="4.87737">
        <ele>186.4700012207</ele>
        <time>2010-04-06T11:47:31Z</time>
      </trkpt>
      <trkpt lat="45.17014" lon="4.87726">
        <ele>185.86000061035</ele>
        <time>2010-04-06T11:47:32Z</time>
      </trkpt>
      <trkpt lat="45.17031" lon="4.87612">
        <ele>185.98500061035</ele>
        <time>2010-04-06T11:47:42Z</time>
      </trkpt>
      <trkpt lat="45.17031" lon="4.87542">
        <ele>185.48899841309</ele>
        <time>2010-04-06T11:47:48Z</time>
      </trkpt>
      <trkpt lat="45.17023" lon="4.87456">
        <ele>187.43400573731</ele>
        <time>2010-04-06T11:47:56Z</time>
      </trkpt>
      <trkpt lat="45.17021" lon="4.87435">
        <ele>186.93400573731</ele>
        <time>2010-04-06T11:47:58Z</time>
      </trkpt>
      <trkpt lat="45.17018" lon="4.87372">
        <ele>186.23199462891</ele>
        <time>2010-04-06T11:48:04Z</time>
      </trkpt>
      <trkpt lat="45.17011" lon="4.87293">
        <ele>188.26899719238</ele>
        <time>2010-04-06T11:48:12Z</time>
      </trkpt>
      <trkpt lat="45.17005" lon="4.87234">
        <ele>187.93400573731</ele>
        <time>2010-04-06T11:48:18Z</time>
      </trkpt>
      <trkpt lat="45.17004" lon="4.87225">
        <ele>188.36199951172</ele>
        <time>2010-04-06T11:48:19Z</time>
      </trkpt>
      <trkpt lat="45.17009" lon="4.87189">
        <ele>187.9940032959</ele>
        <time>2010-04-06T11:48:23Z</time>
      </trkpt>
      <trkpt lat="45.17014" lon="4.87172">
        <ele>187.90899658203</ele>
        <time>2010-04-06T11:48:25Z</time>
      </trkpt>
      <trkpt lat="45.17041" lon="4.8711">
        <ele>187.44400024414</ele>
        <time>2010-04-06T11:48:32Z</time>
      </trkpt>
      <trkpt lat="45.1708" lon="4.87021">
        <ele>187.2380065918</ele>
        <time>2010-04-06T11:48:41Z</time>
      </trkpt>
      <trkpt lat="45.17118" lon="4.86932">
        <ele>187.41700744629</ele>
        <time>2010-04-06T11:48:50Z</time>
      </trkpt>
      <trkpt lat="45.17126" lon="4.86914">
        <ele>188.38600158691</ele>
        <time>2010-04-06T11:48:52Z</time>
      </trkpt>
      <trkpt lat="45.17167" lon="4.86816">
        <ele>188.61000061035</ele>
        <time>2010-04-06T11:49:02Z</time>
      </trkpt>
      <trkpt lat="45.17211" lon="4.86712">
        <ele>190.44700622559</ele>
        <time>2010-04-06T11:49:13Z</time>
      </trkpt>
      <trkpt lat="45.17242" lon="4.86637">
        <ele>187.69999694824</ele>
        <time>2010-04-06T11:49:20Z</time>
      </trkpt>
      <trkpt lat="45.17271" lon="4.86568">
        <ele>186.61500549316</ele>
        <time>2010-04-06T11:49:26Z</time>
      </trkpt>
      <trkpt lat="45.17322" lon="4.86452">
        <ele>185.94999694824</ele>
        <time>2010-04-06T11:49:36Z</time>
      </trkpt>
      <trkpt lat="45.1736" lon="4.86358">
        <ele>185.41000366211</ele>
        <time>2010-04-06T11:49:44Z</time>
      </trkpt>
      <trkpt lat="45.17393" lon="4.86278">
        <ele>185.96299743652</ele>
        <time>2010-04-06T11:49:51Z</time>
      </trkpt>
      <trkpt lat="45.17441" lon="4.86179">
        <ele>184.90899658203</ele>
        <time>2010-04-06T11:50:00Z</time>
      </trkpt>
      <trkpt lat="45.17461" lon="4.86149">
        <ele>186.18099975586</ele>
        <time>2010-04-06T11:50:03Z</time>
      </trkpt>
      <trkpt lat="45.17479" lon="4.86116">
        <ele>184.31599426269</ele>
        <time>2010-04-06T11:50:06Z</time>
      </trkpt>
      <trkpt lat="45.17521" lon="4.86031">
        <ele>181.94799804688</ele>
        <time>2010-04-06T11:50:13Z</time>
      </trkpt>
      <trkpt lat="45.17534" lon="4.86006">
        <ele>181.02799987793</ele>
        <time>2010-04-06T11:50:15Z</time>
      </trkpt>
      <trkpt lat="45.17582" lon="4.85898">
        <ele>180.30499267578</ele>
        <time>2010-04-06T11:50:23Z</time>
      </trkpt>
      <trkpt lat="45.17598" lon="4.85826">
        <ele>182.10600280762</ele>
        <time>2010-04-06T11:50:28Z</time>
      </trkpt>
      <trkpt lat="45.17604" lon="4.858">
        <ele>182.97099304199</ele>
        <time>2010-04-06T11:50:30Z</time>
      </trkpt>
      <trkpt lat="45.17615" lon="4.85776">
        <ele>184.04800415039</ele>
        <time>2010-04-06T11:50:32Z</time>
      </trkpt>
      <trkpt lat="45.17638" lon="4.85752">
        <ele>185.05900573731</ele>
        <time>2010-04-06T11:50:35Z</time>
      </trkpt>
      <trkpt lat="45.17703" lon="4.85714">
        <ele>187.94999694824</ele>
        <time>2010-04-06T11:50:43Z</time>
      </trkpt>
      <trkpt lat="45.17747" lon="4.85678">
        <ele>187.30499267578</ele>
        <time>2010-04-06T11:50:49Z</time>
      </trkpt>
      <trkpt lat="45.17789" lon="4.85638">
        <ele>188.87199401856</ele>
        <time>2010-04-06T11:50:55Z</time>
      </trkpt>
      <trkpt lat="45.1783" lon="4.85593">
        <ele>189.80799865723</ele>
        <time>2010-04-06T11:51:01Z</time>
      </trkpt>
      <trkpt lat="45.17855" lon="4.85547">
        <ele>190.91299438477</ele>
        <time>2010-04-06T11:51:06Z</time>
      </trkpt>
      <trkpt lat="45.17879" lon="4.85501">
        <ele>192.88000488281</ele>
        <time>2010-04-06T11:51:11Z</time>
      </trkpt>
      <trkpt lat="45.17888" lon="4.85459">
        <ele>193.66000366211</ele>
        <time>2010-04-06T11:51:15Z</time>
      </trkpt>
      <trkpt lat="45.17883" lon="4.85415">
        <ele>194.83999633789</ele>
        <time>2010-04-06T11:51:19Z</time>
      </trkpt>
      <trkpt lat="45.1788" lon="4.85404">
        <ele>194.72999572754</ele>
        <time>2010-04-06T11:51:20Z</time>
      </trkpt>
      <trkpt lat="45.17868" lon="4.85331">
        <ele>192.72700500488</ele>
        <time>2010-04-06T11:51:26Z</time>
      </trkpt>
      <trkpt lat="45.17873" lon="4.85264">
        <ele>190.39599609375</ele>
        <time>2010-04-06T11:51:31Z</time>
      </trkpt>
      <trkpt lat="45.17877" lon="4.85238">
        <ele>190.08700561523</ele>
        <time>2010-04-06T11:51:33Z</time>
      </trkpt>
      <trkpt lat="45.17897" lon="4.85191">
        <ele>187.97900390625</ele>
        <time>2010-04-06T11:51:37Z</time>
      </trkpt>
      <trkpt lat="45.17936" lon="4.85136">
        <ele>187.03900146484</ele>
        <time>2010-04-06T11:51:43Z</time>
      </trkpt>
      <trkpt lat="45.1797" lon="4.85087">
        <ele>184.59100341797</ele>
        <time>2010-04-06T11:51:48Z</time>
      </trkpt>
      <trkpt lat="45.17986" lon="4.85033">
        <ele>181.95899963379</ele>
        <time>2010-04-06T11:51:52Z</time>
      </trkpt>
      <trkpt lat="45.17987" lon="4.85018">
        <ele>181.96099853516</ele>
        <time>2010-04-06T11:51:53Z</time>
      </trkpt>
      <trkpt lat="45.1799" lon="4.8496">
        <ele>179.875</ele>
        <time>2010-04-06T11:51:57Z</time>
      </trkpt>
      <trkpt lat="45.17992" lon="4.84879">
        <ele>178.6190032959</ele>
        <time>2010-04-06T11:52:03Z</time>
      </trkpt>
      <trkpt lat="45.17994" lon="4.84852">
        <ele>177.73599243164</ele>
        <time>2010-04-06T11:52:05Z</time>
      </trkpt>
      <trkpt lat="45.17989" lon="4.8477">
        <ele>176.39999389648</ele>
        <time>2010-04-06T11:52:11Z</time>
      </trkpt>
      <trkpt lat="45.17975" lon="4.84717">
        <ele>176.81900024414</ele>
        <time>2010-04-06T11:52:15Z</time>
      </trkpt>
      <trkpt lat="45.1795" lon="4.84635">
        <ele>175.13800048828</ele>
        <time>2010-04-06T11:52:21Z</time>
      </trkpt>
      <trkpt lat="45.17916" lon="4.84541">
        <ele>173.84899902344</ele>
        <time>2010-04-06T11:52:28Z</time>
      </trkpt>
      <trkpt lat="45.17886" lon="4.84464">
        <ele>177.11199951172</ele>
        <time>2010-04-06T11:52:34Z</time>
      </trkpt>
      <trkpt lat="45.17871" lon="4.84396">
        <ele>176.46699523926</ele>
        <time>2010-04-06T11:52:39Z</time>
      </trkpt>
      <trkpt lat="45.17861" lon="4.84315">
        <ele>176.92999267578</ele>
        <time>2010-04-06T11:52:45Z</time>
      </trkpt>
      <trkpt lat="45.17872" lon="4.84266">
        <ele>176.85400390625</ele>
        <time>2010-04-06T11:52:49Z</time>
      </trkpt>
      <trkpt lat="45.17877" lon="4.84256">
        <ele>176.86700439453</ele>
        <time>2010-04-06T11:52:50Z</time>
      </trkpt>
      <trkpt lat="45.17904" lon="4.84199">
        <ele>174.87300109863</ele>
        <time>2010-04-06T11:52:55Z</time>
      </trkpt>
      <trkpt lat="45.17924" lon="4.84061">
        <ele>169.49600219727</ele>
        <time>2010-04-06T11:53:04Z</time>
      </trkpt>
      <trkpt lat="45.17913" lon="4.84029">
        <ele>168.06599426269</ele>
        <time>2010-04-06T11:53:06Z</time>
      </trkpt>
      <trkpt lat="45.17907" lon="4.83963">
        <ele>164.23500061035</ele>
        <time>2010-04-06T11:53:10Z</time>
      </trkpt>
      <trkpt lat="45.17909" lon="4.83946">
        <ele>164.02000427246</ele>
        <time>2010-04-06T11:53:11Z</time>
      </trkpt>
      <trkpt lat="45.17926" lon="4.83863">
        <ele>162.13600158691</ele>
        <time>2010-04-06T11:53:16Z</time>
      </trkpt>
      <trkpt lat="45.17953" lon="4.83767">
        <ele>160.11500549316</ele>
        <time>2010-04-06T11:53:22Z</time>
      </trkpt>
      <trkpt lat="45.17982" lon="4.83679">
        <ele>160.4109954834</ele>
        <time>2010-04-06T11:53:28Z</time>
      </trkpt>
      <trkpt lat="45.1801" lon="4.83616">
        <ele>159.76400756836</ele>
        <time>2010-04-06T11:53:33Z</time>
      </trkpt>
      <trkpt lat="45.18041" lon="4.83576">
        <ele>158.49299621582</ele>
        <time>2010-04-06T11:53:37Z</time>
      </trkpt>
      <trkpt lat="45.1809" lon="4.83527">
        <ele>159.34199523926</ele>
        <time>2010-04-06T11:53:43Z</time>
      </trkpt>
      <trkpt lat="45.18109" lon="4.83482">
        <ele>159.41700744629</ele>
        <time>2010-04-06T11:53:47Z</time>
      </trkpt>
      <trkpt lat="45.1811" lon="4.83468">
        <ele>159.81700134277</ele>
        <time>2010-04-06T11:53:48Z</time>
      </trkpt>
      <trkpt lat="45.18094" lon="4.83425">
        <ele>160.09100341797</ele>
        <time>2010-04-06T11:53:52Z</time>
      </trkpt>
      <trkpt lat="45.18087" lon="4.83416">
        <ele>159.8450012207</ele>
        <time>2010-04-06T11:53:53Z</time>
      </trkpt>
      <trkpt lat="45.18061" lon="4.83385">
        <ele>162.10200500488</ele>
        <time>2010-04-06T11:53:57Z</time>
      </trkpt>
      <trkpt lat="45.1803" lon="4.83351">
        <ele>162.12300109863</ele>
        <time>2010-04-06T11:54:02Z</time>
      </trkpt>
      <trkpt lat="45.1801" lon="4.83321">
        <ele>164.89999389648</ele>
        <time>2010-04-06T11:54:06Z</time>
      </trkpt>
      <trkpt lat="45.17974" lon="4.83298">
        <ele>163.26600646973</ele>
        <time>2010-04-06T11:54:11Z</time>
      </trkpt>
      <trkpt lat="45.17949" lon="4.83304">
        <ele>160.89500427246</ele>
        <time>2010-04-06T11:54:14Z</time>
      </trkpt>
      <trkpt lat="45.17884" lon="4.83335">
        <ele>160.39900207519</ele>
        <time>2010-04-06T11:54:21Z</time>
      </trkpt>
      <trkpt lat="45.17833" lon="4.83339">
        <ele>159.25799560547</ele>
        <time>2010-04-06T11:54:26Z</time>
      </trkpt>
      <trkpt lat="45.17813" lon="4.83335">
        <ele>159.73899841309</ele>
        <time>2010-04-06T11:54:28Z</time>
      </trkpt>
      <trkpt lat="45.17779" lon="4.83309">
        <ele>160.63800048828</ele>
        <time>2010-04-06T11:54:32Z</time>
      </trkpt>
      <trkpt lat="45.17773" lon="4.83297">
        <ele>160.47599792481</ele>
        <time>2010-04-06T11:54:33Z</time>
      </trkpt>
      <trkpt lat="45.17762" lon="4.83273">
        <ele>159.36799621582</ele>
        <time>2010-04-06T11:54:35Z</time>
      </trkpt>
      <trkpt lat="45.17755" lon="4.83246">
        <ele>158.60499572754</ele>
        <time>2010-04-06T11:54:37Z</time>
      </trkpt>
      <trkpt lat="45.17736" lon="4.83156">
        <ele>156.79400634766</ele>
        <time>2010-04-06T11:54:44Z</time>
      </trkpt>
      <trkpt lat="45.17722" lon="4.83084">
        <ele>157.10000610352</ele>
        <time>2010-04-06T11:54:50Z</time>
      </trkpt>
      <trkpt lat="45.17711" lon="4.83017">
        <ele>155.61599731445</ele>
        <time>2010-04-06T11:54:56Z</time>
      </trkpt>
      <trkpt lat="45.1769" lon="4.82974">
        <ele>155.18400573731</ele>
        <time>2010-04-06T11:55:01Z</time>
      </trkpt>
      <trkpt lat="45.17667" lon="4.82959">
        <ele>154.90400695801</ele>
        <time>2010-04-06T11:55:04Z</time>
      </trkpt>
      <trkpt lat="45.17643" lon="4.82957">
        <ele>155.09399414062</ele>
        <time>2010-04-06T11:55:07Z</time>
      </trkpt>
      <trkpt lat="45.17626" lon="4.82962">
        <ele>154.33500671387</ele>
        <time>2010-04-06T11:55:09Z</time>
      </trkpt>
      <trkpt lat="45.17585" lon="4.82981">
        <ele>156.18299865723</ele>
        <time>2010-04-06T11:55:14Z</time>
      </trkpt>
      <trkpt lat="45.17525" lon="4.83004">
        <ele>157.88900756836</ele>
        <time>2010-04-06T11:55:21Z</time>
      </trkpt>
      <trkpt lat="45.17508" lon="4.83011">
        <ele>159.02699279785</ele>
        <time>2010-04-06T11:55:23Z</time>
      </trkpt>
      <trkpt lat="45.175" lon="4.83014">
        <ele>159.44999694824</ele>
        <time>2010-04-06T11:55:24Z</time>
      </trkpt>
      <trkpt lat="45.17465" lon="4.83014">
        <ele>160.70599365234</ele>
        <time>2010-04-06T11:55:28Z</time>
      </trkpt>
      <trkpt lat="45.17448" lon="4.83006">
        <ele>160.64300537109</ele>
        <time>2010-04-06T11:55:30Z</time>
      </trkpt>
      <trkpt lat="45.17403" lon="4.82969">
        <ele>160.41200256348</ele>
        <time>2010-04-06T11:55:36Z</time>
      </trkpt>
      <trkpt lat="45.17374" lon="4.82917">
        <ele>157.94299316406</ele>
        <time>2010-04-06T11:55:41Z</time>
      </trkpt>
      <trkpt lat="45.17369" lon="4.82889">
        <ele>157.11399841309</ele>
        <time>2010-04-06T11:55:43Z</time>
      </trkpt>
      <trkpt lat="45.17377" lon="4.82843">
        <ele>157.98100280762</ele>
        <time>2010-04-06T11:55:46Z</time>
      </trkpt>
      <trkpt lat="45.1738" lon="4.82829">
        <ele>157.06199645996</ele>
        <time>2010-04-06T11:55:47Z</time>
      </trkpt>
      <trkpt lat="45.17405" lon="4.82743">
        <ele>153.86799621582</ele>
        <time>2010-04-06T11:55:53Z</time>
      </trkpt>
      <trkpt lat="45.1742" lon="4.82705">
        <ele>152.08200073242</ele>
        <time>2010-04-06T11:55:56Z</time>
      </trkpt>
      <trkpt lat="45.17427" lon="4.8268">
        <ele>151.32000732422</ele>
        <time>2010-04-06T11:55:58Z</time>
      </trkpt>
      <trkpt lat="45.17432" lon="4.82641">
        <ele>149.17900085449</ele>
        <time>2010-04-06T11:56:01Z</time>
      </trkpt>
      <trkpt lat="45.17429" lon="4.82601">
        <ele>151.45700073242</ele>
        <time>2010-04-06T11:56:04Z</time>
      </trkpt>
      <trkpt lat="45.17412" lon="4.82566">
        <ele>150.99000549316</ele>
        <time>2010-04-06T11:56:07Z</time>
      </trkpt>
      <trkpt lat="45.17405" lon="4.82556">
        <ele>150.68299865723</ele>
        <time>2010-04-06T11:56:08Z</time>
      </trkpt>
      <trkpt lat="45.17354" lon="4.82477">
        <ele>147.79400634766</ele>
        <time>2010-04-06T11:56:16Z</time>
      </trkpt>
      <trkpt lat="45.1732" lon="4.82402">
        <ele>149.27699279785</ele>
        <time>2010-04-06T11:56:23Z</time>
      </trkpt>
      <trkpt lat="45.1731" lon="4.82352">
        <ele>150.82299804688</ele>
        <time>2010-04-06T11:56:27Z</time>
      </trkpt>
      <trkpt lat="45.17309" lon="4.8234">
        <ele>150.53100585938</ele>
        <time>2010-04-06T11:56:28Z</time>
      </trkpt>
      <trkpt lat="45.17318" lon="4.82294">
        <ele>151.56900024414</ele>
        <time>2010-04-06T11:56:32Z</time>
      </trkpt>
      <trkpt lat="45.17329" lon="4.82278">
        <ele>152.43899536133</ele>
        <time>2010-04-06T11:56:34Z</time>
      </trkpt>
      <trkpt lat="45.17342" lon="4.82265">
        <ele>152.02299499512</ele>
        <time>2010-04-06T11:56:36Z</time>
      </trkpt>
      <trkpt lat="45.17407" lon="4.82215">
        <ele>150.29100036621</ele>
        <time>2010-04-06T11:56:45Z</time>
      </trkpt>
      <trkpt lat="45.17463" lon="4.82175">
        <ele>148.64399719238</ele>
        <time>2010-04-06T11:56:52Z</time>
      </trkpt>
      <trkpt lat="45.17504" lon="4.82154">
        <ele>147.77900695801</ele>
        <time>2010-04-06T11:56:57Z</time>
      </trkpt>
      <trkpt lat="45.17538" lon="4.82117">
        <ele>146.69099426269</ele>
        <time>2010-04-06T11:57:02Z</time>
      </trkpt>
      <trkpt lat="45.1758" lon="4.82066">
        <ele>145.94000244141</ele>
        <time>2010-04-06T11:57:08Z</time>
      </trkpt>
      <trkpt lat="45.17608" lon="4.82009">
        <ele>145.49000549316</ele>
        <time>2010-04-06T11:57:13Z</time>
      </trkpt>
      <trkpt lat="45.17638" lon="4.81955">
        <ele>144.44299316406</ele>
        <time>2010-04-06T11:57:18Z</time>
      </trkpt>
      <trkpt lat="45.17658" lon="4.81928">
        <ele>145.28399658203</ele>
        <time>2010-04-06T11:57:21Z</time>
      </trkpt>
      <trkpt lat="45.17679" lon="4.81885">
        <ele>142.25999450684</ele>
        <time>2010-04-06T11:57:25Z</time>
      </trkpt>
      <trkpt lat="45.17682" lon="4.81873">
        <ele>144.04600524902</ele>
        <time>2010-04-06T11:57:26Z</time>
      </trkpt>
      <trkpt lat="45.17694" lon="4.81838">
        <ele>142.12800598144</ele>
        <time>2010-04-06T11:57:29Z</time>
      </trkpt>
      <trkpt lat="45.17716" lon="4.81767">
        <ele>143.75700378418</ele>
        <time>2010-04-06T11:57:35Z</time>
      </trkpt>
      <trkpt lat="45.17724" lon="4.81716">
        <ele>143.61199951172</ele>
        <time>2010-04-06T11:57:39Z</time>
      </trkpt>
      <trkpt lat="45.17722" lon="4.81635">
        <ele>143.73199462891</ele>
        <time>2010-04-06T11:57:45Z</time>
      </trkpt>
      <trkpt lat="45.17719" lon="4.81582">
        <ele>142.28399658203</ele>
        <time>2010-04-06T11:57:49Z</time>
      </trkpt>
      <trkpt lat="45.17724" lon="4.81536">
        <ele>143.03399658203</ele>
        <time>2010-04-06T11:57:53Z</time>
      </trkpt>
      <trkpt lat="45.17746" lon="4.81464">
        <ele>144.8690032959</ele>
        <time>2010-04-06T11:58:00Z</time>
      </trkpt>
      <trkpt lat="45.17752" lon="4.81444">
        <ele>145.84199523926</ele>
        <time>2010-04-06T11:58:02Z</time>
      </trkpt>
      <trkpt lat="45.17762" lon="4.81428">
        <ele>144.75</ele>
        <time>2010-04-06T11:58:04Z</time>
      </trkpt>
      <trkpt lat="45.17768" lon="4.81423">
        <ele>145.18899536133</ele>
        <time>2010-04-06T11:58:05Z</time>
      </trkpt>
      <trkpt lat="45.17781" lon="4.81411">
        <ele>145.7140045166</ele>
        <time>2010-04-06T11:58:09Z</time>
      </trkpt>
      <trkpt lat="45.17786" lon="4.81407">
        <ele>145.67300415039</ele>
        <time>2010-04-06T11:58:14Z</time>
      </trkpt>
      <trkpt lat="45.17787" lon="4.81405">
        <ele>145.37399291992</ele>
        <time>2010-04-06T11:58:17Z</time>
      </trkpt>
      <trkpt lat="45.17784" lon="4.81399">
        <ele>143.95899963379</ele>
        <time>2010-04-06T11:58:24Z</time>
      </trkpt>
      <trkpt lat="45.17779" lon="4.81389">
        <ele>142.73199462891</ele>
        <time>2010-04-06T11:58:27Z</time>
      </trkpt>
      <trkpt lat="45.17775" lon="4.8138">
        <ele>144.21099853516</ele>
        <time>2010-04-06T11:58:29Z</time>
      </trkpt>
      <trkpt lat="45.1777" lon="4.81354">
        <ele>144.40400695801</ele>
        <time>2010-04-06T11:58:33Z</time>
      </trkpt>
      <trkpt lat="45.17781" lon="4.81337">
        <ele>144.0299987793</ele>
        <time>2010-04-06T11:58:36Z</time>
      </trkpt>
      <trkpt lat="45.17806" lon="4.81331">
        <ele>144.07200622559</ele>
        <time>2010-04-06T11:58:40Z</time>
      </trkpt>
      <trkpt lat="45.17812" lon="4.81329">
        <ele>144.65800476074</ele>
        <time>2010-04-06T11:58:41Z</time>
      </trkpt>
      <trkpt lat="45.17823" lon="4.81324">
        <ele>144.54400634766</ele>
        <time>2010-04-06T11:58:43Z</time>
      </trkpt>
      <trkpt lat="45.17859" lon="4.81332">
        <ele>143.97300720215</ele>
        <time>2010-04-06T11:58:48Z</time>
      </trkpt>
      <trkpt lat="45.17919" lon="4.81358">
        <ele>144.27099609375</ele>
        <time>2010-04-06T11:58:56Z</time>
      </trkpt>
      <trkpt lat="45.17973" lon="4.81376">
        <ele>144.82000732422</ele>
        <time>2010-04-06T11:59:02Z</time>
      </trkpt>
      <trkpt lat="45.18027" lon="4.81395">
        <ele>144.76400756836</ele>
        <time>2010-04-06T11:59:08Z</time>
      </trkpt>
      <trkpt lat="45.18084" lon="4.81406">
        <ele>143.83999633789</ele>
        <time>2010-04-06T11:59:14Z</time>
      </trkpt>
      <trkpt lat="45.18141" lon="4.8141">
        <ele>144.14900207519</ele>
        <time>2010-04-06T11:59:20Z</time>
      </trkpt>
      <trkpt lat="45.182" lon="4.814">
        <ele>144.44400024414</ele>
        <time>2010-04-06T11:59:26Z</time>
      </trkpt>
      <trkpt lat="45.18279" lon="4.81393">
        <ele>145.00900268555</ele>
        <time>2010-04-06T11:59:34Z</time>
      </trkpt>
      <trkpt lat="45.18336" lon="4.81388">
        <ele>146.41200256348</ele>
        <time>2010-04-06T11:59:40Z</time>
      </trkpt>
      <trkpt lat="45.18371" lon="4.81386">
        <ele>148.7200012207</ele>
        <time>2010-04-06T11:59:44Z</time>
      </trkpt>
      <trkpt lat="45.18415" lon="4.81387">
        <ele>151.08099365234</ele>
        <time>2010-04-06T11:59:50Z</time>
      </trkpt>
      <trkpt lat="45.18435" lon="4.81397">
        <ele>151.46299743652</ele>
        <time>2010-04-06T11:59:53Z</time>
      </trkpt>
      <trkpt lat="45.18462" lon="4.81402">
        <ele>150.98699951172</ele>
        <time>2010-04-06T11:59:57Z</time>
      </trkpt>
      <trkpt lat="45.18502" lon="4.81405">
        <ele>151.3690032959</ele>
        <time>2010-04-06T12:00:02Z</time>
      </trkpt>
      <trkpt lat="45.18559" lon="4.81408">
        <ele>151.18099975586</ele>
        <time>2010-04-06T12:00:08Z</time>
      </trkpt>
      <trkpt lat="45.18642" lon="4.81413">
        <ele>150.49099731445</ele>
        <time>2010-04-06T12:00:16Z</time>
      </trkpt>
      <trkpt lat="45.18687" lon="4.81415">
        <ele>150.44599914551</ele>
        <time>2010-04-06T12:00:21Z</time>
      </trkpt>
      <trkpt lat="45.18773" lon="4.81417">
        <ele>150.25199890137</ele>
        <time>2010-04-06T12:00:30Z</time>
      </trkpt>
      <trkpt lat="45.18835" lon="4.81418">
        <ele>152.4109954834</ele>
        <time>2010-04-06T12:00:37Z</time>
      </trkpt>
      <trkpt lat="45.18911" lon="4.81421">
        <ele>156.33700561523</ele>
        <time>2010-04-06T12:00:46Z</time>
      </trkpt>
      <trkpt lat="45.1895" lon="4.81424">
        <ele>158.50300598144</ele>
        <time>2010-04-06T12:00:51Z</time>
      </trkpt>
      <trkpt lat="45.19017" lon="4.81428">
        <ele>159.72599792481</ele>
        <time>2010-04-06T12:00:59Z</time>
      </trkpt>
      <trkpt lat="45.19077" lon="4.8143">
        <ele>160.68899536133</ele>
        <time>2010-04-06T12:01:06Z</time>
      </trkpt>
      <trkpt lat="45.1913" lon="4.81434">
        <ele>161.21299743652</ele>
        <time>2010-04-06T12:01:12Z</time>
      </trkpt>
      <trkpt lat="45.19209" lon="4.81439">
        <ele>162.03100585938</ele>
        <time>2010-04-06T12:01:21Z</time>
      </trkpt>
      <trkpt lat="45.19276" lon="4.81443">
        <ele>162.74200439453</ele>
        <time>2010-04-06T12:01:29Z</time>
      </trkpt>
      <trkpt lat="45.19324" lon="4.81446">
        <ele>163.32000732422</ele>
        <time>2010-04-06T12:01:35Z</time>
      </trkpt>
      <trkpt lat="45.19378" lon="4.81449">
        <ele>163.7200012207</ele>
        <time>2010-04-06T12:01:41Z</time>
      </trkpt>
      <trkpt lat="45.19461" lon="4.81453">
        <ele>165.00199890137</ele>
        <time>2010-04-06T12:01:50Z</time>
      </trkpt>
      <trkpt lat="45.19541" lon="4.81457">
        <ele>164.9880065918</ele>
        <time>2010-04-06T12:01:59Z</time>
      </trkpt>
      <trkpt lat="45.19578" lon="4.81461">
        <ele>164.82600402832</ele>
        <time>2010-04-06T12:02:03Z</time>
      </trkpt>
      <trkpt lat="45.19657" lon="4.81464">
        <ele>162.92900085449</ele>
        <time>2010-04-06T12:02:11Z</time>
      </trkpt>
      <trkpt lat="45.19743" lon="4.81468">
        <ele>160.65199279785</ele>
        <time>2010-04-06T12:02:19Z</time>
      </trkpt>
      <trkpt lat="45.19829" lon="4.81472">
        <ele>159.83799743652</ele>
        <time>2010-04-06T12:02:27Z</time>
      </trkpt>
      <trkpt lat="45.19905" lon="4.81475">
        <ele>159.38900756836</ele>
        <time>2010-04-06T12:02:34Z</time>
      </trkpt>
      <trkpt lat="45.19938" lon="4.81477">
        <ele>157.91000366211</ele>
        <time>2010-04-06T12:02:37Z</time>
      </trkpt>
      <trkpt lat="45.19991" lon="4.81482">
        <ele>157.68800354004</ele>
        <time>2010-04-06T12:02:42Z</time>
      </trkpt>
      <trkpt lat="45.20023" lon="4.81484">
        <ele>156.03799438477</ele>
        <time>2010-04-06T12:02:45Z</time>
      </trkpt>
      <trkpt lat="45.201" lon="4.81487">
        <ele>152.64300537109</ele>
        <time>2010-04-06T12:02:52Z</time>
      </trkpt>
      <trkpt lat="45.20175" lon="4.8149">
        <ele>147.23899841309</ele>
        <time>2010-04-06T12:02:58Z</time>
      </trkpt>
      <trkpt lat="45.20214" lon="4.81492">
        <ele>146.20199584961</ele>
        <time>2010-04-06T12:03:01Z</time>
      </trkpt>
      <trkpt lat="45.2024" lon="4.81493">
        <ele>145.27400207519</ele>
        <time>2010-04-06T12:03:03Z</time>
      </trkpt>
      <trkpt lat="45.20253" lon="4.81493">
        <ele>144.81199645996</ele>
        <time>2010-04-06T12:03:04Z</time>
      </trkpt>
      <trkpt lat="45.20266" lon="4.81494">
        <ele>144.97599792481</ele>
        <time>2010-04-06T12:03:05Z</time>
      </trkpt>
      <trkpt lat="45.20348" lon="4.81502">
        <ele>146.02499389648</ele>
        <time>2010-04-06T12:03:12Z</time>
      </trkpt>
      <trkpt lat="45.20369" lon="4.815">
        <ele>146.41299438477</ele>
        <time>2010-04-06T12:03:14Z</time>
      </trkpt>
      <trkpt lat="45.2041" lon="4.81506">
        <ele>146.2559967041</ele>
        <time>2010-04-06T12:03:18Z</time>
      </trkpt>
      <trkpt lat="45.20473" lon="4.8151">
        <ele>145.20399475098</ele>
        <time>2010-04-06T12:03:24Z</time>
      </trkpt>
      <trkpt lat="45.20535" lon="4.81516">
        <ele>146.28900146484</ele>
        <time>2010-04-06T12:03:30Z</time>
      </trkpt>
      <trkpt lat="45.20619" lon="4.81522">
        <ele>147.49699401856</ele>
        <time>2010-04-06T12:03:38Z</time>
      </trkpt>
      <trkpt lat="45.20731" lon="4.81531">
        <ele>147.80499267578</ele>
        <time>2010-04-06T12:03:49Z</time>
      </trkpt>
      <trkpt lat="45.20832" lon="4.81536">
        <ele>147.63200378418</ele>
        <time>2010-04-06T12:03:59Z</time>
      </trkpt>
      <trkpt lat="45.20893" lon="4.81537">
        <ele>147.44299316406</ele>
        <time>2010-04-06T12:04:05Z</time>
      </trkpt>
      <trkpt lat="45.20956" lon="4.81539">
        <ele>146.27099609375</ele>
        <time>2010-04-06T12:04:11Z</time>
      </trkpt>
      <trkpt lat="45.21028" lon="4.81541">
        <ele>146.80400085449</ele>
        <time>2010-04-06T12:04:18Z</time>
      </trkpt>
      <trkpt lat="45.21048" lon="4.81542">
        <ele>146.68699645996</ele>
        <time>2010-04-06T12:04:20Z</time>
      </trkpt>
      <trkpt lat="45.21069" lon="4.81519">
        <ele>145.91700744629</ele>
        <time>2010-04-06T12:04:23Z</time>
      </trkpt>
      <trkpt lat="45.21083" lon="4.81489">
        <ele>147.32400512695</ele>
        <time>2010-04-06T12:04:26Z</time>
      </trkpt>
      <trkpt lat="45.21092" lon="4.81487">
        <ele>147.26600646973</ele>
        <time>2010-04-06T12:04:27Z</time>
      </trkpt>
      <trkpt lat="45.211" lon="4.81489">
        <ele>147.26600646973</ele>
        <time>2010-04-06T12:04:28Z</time>
      </trkpt>
      <trkpt lat="45.21164" lon="4.81495">
        <ele>146.95500183106</ele>
        <time>2010-04-06T12:04:35Z</time>
      </trkpt>
      <trkpt lat="45.21182" lon="4.81495">
        <ele>146.66999816894</ele>
        <time>2010-04-06T12:04:37Z</time>
      </trkpt>
      <trkpt lat="45.21216" lon="4.81477">
        <ele>145.66600036621</ele>
        <time>2010-04-06T12:04:41Z</time>
      </trkpt>
      <trkpt lat="45.21272" lon="4.81433">
        <ele>146.20700073242</ele>
        <time>2010-04-06T12:04:48Z</time>
      </trkpt>
      <trkpt lat="45.21337" lon="4.81392">
        <ele>146.06100463867</ele>
        <time>2010-04-06T12:04:56Z</time>
      </trkpt>
      <trkpt lat="45.21405" lon="4.81358">
        <ele>146.64399719238</ele>
        <time>2010-04-06T12:05:04Z</time>
      </trkpt>
      <trkpt lat="45.21468" lon="4.81334">
        <ele>146.74699401856</ele>
        <time>2010-04-06T12:05:11Z</time>
      </trkpt>
      <trkpt lat="45.2158" lon="4.81297">
        <ele>146.67599487305</ele>
        <time>2010-04-06T12:05:23Z</time>
      </trkpt>
      <trkpt lat="45.21663" lon="4.81268">
        <ele>147.76800537109</ele>
        <time>2010-04-06T12:05:32Z</time>
      </trkpt>
      <trkpt lat="45.217" lon="4.81261">
        <ele>147.20199584961</ele>
        <time>2010-04-06T12:05:36Z</time>
      </trkpt>
      <trkpt lat="45.21773" lon="4.81239">
        <ele>147.82499694824</ele>
        <time>2010-04-06T12:05:44Z</time>
      </trkpt>
      <trkpt lat="45.21867" lon="4.81208">
        <ele>147.12199401856</ele>
        <time>2010-04-06T12:05:54Z</time>
      </trkpt>
      <trkpt lat="45.21936" lon="4.81184">
        <ele>145.81900024414</ele>
        <time>2010-04-06T12:06:01Z</time>
      </trkpt>
      <trkpt lat="45.21999" lon="4.81165">
        <ele>148.34300231934</ele>
        <time>2010-04-06T12:06:08Z</time>
      </trkpt>
      <trkpt lat="45.22073" lon="4.81142">
        <ele>148.74699401856</ele>
        <time>2010-04-06T12:06:17Z</time>
      </trkpt>
      <trkpt lat="45.22081" lon="4.81138">
        <ele>148.78300476074</ele>
        <time>2010-04-06T12:06:18Z</time>
      </trkpt>
      <trkpt lat="45.22115" lon="4.81103">
        <ele>147.51699829102</ele>
        <time>2010-04-06T12:06:23Z</time>
      </trkpt>
      <trkpt lat="45.22139" lon="4.81074">
        <ele>149.31700134277</ele>
        <time>2010-04-06T12:06:27Z</time>
      </trkpt>
      <trkpt lat="45.2215" lon="4.81061">
        <ele>150.39199829102</ele>
        <time>2010-04-06T12:06:29Z</time>
      </trkpt>
      <trkpt lat="45.22193" lon="4.81024">
        <ele>151.10600280762</ele>
        <time>2010-04-06T12:06:36Z</time>
      </trkpt>
      <trkpt lat="45.22251" lon="4.80996">
        <ele>150.89999389648</ele>
        <time>2010-04-06T12:06:44Z</time>
      </trkpt>
      <trkpt lat="45.22311" lon="4.80966">
        <ele>151.40899658203</ele>
        <time>2010-04-06T12:06:52Z</time>
      </trkpt>
      <trkpt lat="45.22376" lon="4.80937">
        <ele>151.16299438477</ele>
        <time>2010-04-06T12:07:00Z</time>
      </trkpt>
      <trkpt lat="45.22444" lon="4.80924">
        <ele>151.71699523926</ele>
        <time>2010-04-06T12:07:08Z</time>
      </trkpt>
      <trkpt lat="45.22548" lon="4.80909">
        <ele>151.30400085449</ele>
        <time>2010-04-06T12:07:20Z</time>
      </trkpt>
      <trkpt lat="45.22623" lon="4.80898">
        <ele>149.91900634766</ele>
        <time>2010-04-06T12:07:28Z</time>
      </trkpt>
      <trkpt lat="45.22723" lon="4.80884">
        <ele>149.14199829102</ele>
        <time>2010-04-06T12:07:38Z</time>
      </trkpt>
      <trkpt lat="45.22808" lon="4.80871">
        <ele>150.31199645996</ele>
        <time>2010-04-06T12:07:47Z</time>
      </trkpt>
      <trkpt lat="45.22868" lon="4.80852">
        <ele>150.91499328613</ele>
        <time>2010-04-06T12:07:54Z</time>
      </trkpt>
      <trkpt lat="45.22918" lon="4.80828">
        <ele>151.36099243164</ele>
        <time>2010-04-06T12:08:00Z</time>
      </trkpt>
      <trkpt lat="45.22985" lon="4.80788">
        <ele>151.36199951172</ele>
        <time>2010-04-06T12:08:08Z</time>
      </trkpt>
      <trkpt lat="45.2306" lon="4.80743">
        <ele>151.58999633789</ele>
        <time>2010-04-06T12:08:17Z</time>
      </trkpt>
      <trkpt lat="45.23147" lon="4.80689">
        <ele>152.01600646973</ele>
        <time>2010-04-06T12:08:28Z</time>
      </trkpt>
      <trkpt lat="45.23192" lon="4.80654">
        <ele>152.36500549316</ele>
        <time>2010-04-06T12:08:34Z</time>
      </trkpt>
      <trkpt lat="45.23207" lon="4.80643">
        <ele>152.2559967041</ele>
        <time>2010-04-06T12:08:36Z</time>
      </trkpt>
      <trkpt lat="45.23251" lon="4.80628">
        <ele>151.89700317383</ele>
        <time>2010-04-06T12:08:41Z</time>
      </trkpt>
      <trkpt lat="45.23325" lon="4.80617">
        <ele>150.06100463867</ele>
        <time>2010-04-06T12:08:49Z</time>
      </trkpt>
      <trkpt lat="45.23379" lon="4.80613">
        <ele>148.88299560547</ele>
        <time>2010-04-06T12:08:55Z</time>
      </trkpt>
      <trkpt lat="45.23407" lon="4.80612">
        <ele>148.4880065918</ele>
        <time>2010-04-06T12:08:58Z</time>
      </trkpt>
      <trkpt lat="45.23435" lon="4.8062">
        <ele>147.09800720215</ele>
        <time>2010-04-06T12:09:01Z</time>
      </trkpt>
      <trkpt lat="45.23444" lon="4.80624">
        <ele>146.27600097656</ele>
        <time>2010-04-06T12:09:02Z</time>
      </trkpt>
      <trkpt lat="45.23475" lon="4.80638">
        <ele>144.26600646973</ele>
        <time>2010-04-06T12:09:05Z</time>
      </trkpt>
      <trkpt lat="45.23552" lon="4.80656">
        <ele>144.07200622559</ele>
        <time>2010-04-06T12:09:12Z</time>
      </trkpt>
      <trkpt lat="45.23624" lon="4.80662">
        <ele>144.03300476074</ele>
        <time>2010-04-06T12:09:19Z</time>
      </trkpt>
      <trkpt lat="45.23714" lon="4.8067">
        <ele>143.93499755859</ele>
        <time>2010-04-06T12:09:28Z</time>
      </trkpt>
      <trkpt lat="45.23813" lon="4.80676">
        <ele>143.98599243164</ele>
        <time>2010-04-06T12:09:38Z</time>
      </trkpt>
      <trkpt lat="45.23872" lon="4.80662">
        <ele>143.11099243164</ele>
        <time>2010-04-06T12:09:44Z</time>
      </trkpt>
      <trkpt lat="45.23908" lon="4.80644">
        <ele>143.75100708008</ele>
        <time>2010-04-06T12:09:48Z</time>
      </trkpt>
      <trkpt lat="45.2394" lon="4.80613">
        <ele>143.9049987793</ele>
        <time>2010-04-06T12:09:52Z</time>
      </trkpt>
      <trkpt lat="45.23957" lon="4.80587">
        <ele>145.30499267578</ele>
        <time>2010-04-06T12:09:55Z</time>
      </trkpt>
      <trkpt lat="45.23977" lon="4.80564">
        <ele>147.65800476074</ele>
        <time>2010-04-06T12:09:59Z</time>
      </trkpt>
      <trkpt lat="45.24" lon="4.80555">
        <ele>148.5359954834</ele>
        <time>2010-04-06T12:10:04Z</time>
      </trkpt>
      <trkpt lat="45.2404" lon="4.80552">
        <ele>149.5890045166</ele>
        <time>2010-04-06T12:10:12Z</time>
      </trkpt>
      <trkpt lat="45.24066" lon="4.80553">
        <ele>149.89100646973</ele>
        <time>2010-04-06T12:10:17Z</time>
      </trkpt>
      <trkpt lat="45.24109" lon="4.80552">
        <ele>149.85400390625</ele>
        <time>2010-04-06T12:10:24Z</time>
      </trkpt>
      <trkpt lat="45.24146" lon="4.80552">
        <ele>149.89300537109</ele>
        <time>2010-04-06T12:10:30Z</time>
      </trkpt>
      <trkpt lat="45.24189" lon="4.80558">
        <ele>150.20899963379</ele>
        <time>2010-04-06T12:10:37Z</time>
      </trkpt>
      <trkpt lat="45.24212" lon="4.80562">
        <ele>150.42599487305</ele>
        <time>2010-04-06T12:10:41Z</time>
      </trkpt>
      <trkpt lat="45.24222" lon="4.80558">
        <ele>150.00399780273</ele>
        <time>2010-04-06T12:10:45Z</time>
      </trkpt>
      <trkpt lat="45.24221" lon="4.80548">
        <ele>149.89799499512</ele>
        <time>2010-04-06T12:10:48Z</time>
      </trkpt>
      <trkpt lat="45.24223" lon="4.80519">
        <ele>149.53999328613</ele>
        <time>2010-04-06T12:10:54Z</time>
      </trkpt>
      <trkpt lat="45.24223" lon="4.80513">
        <ele>149.63900756836</ele>
        <time>2010-04-06T12:10:55Z</time>
      </trkpt>
      <trkpt lat="45.2422" lon="4.80465">
        <ele>148.47999572754</ele>
        <time>2010-04-06T12:11:02Z</time>
      </trkpt>
      <trkpt lat="45.24215" lon="4.80417">
        <ele>147.63400268555</ele>
        <time>2010-04-06T12:11:08Z</time>
      </trkpt>
      <trkpt lat="45.24213" lon="4.80402">
        <ele>148.11799621582</ele>
        <time>2010-04-06T12:11:10Z</time>
      </trkpt>
      <trkpt lat="45.24216" lon="4.8038">
        <ele>147.85600280762</ele>
        <time>2010-04-06T12:11:14Z</time>
      </trkpt>
      <trkpt lat="45.24217" lon="4.80377">
        <ele>147.50799560547</ele>
        <time>2010-04-06T12:11:15Z</time>
      </trkpt>
      <trkpt lat="45.2422" lon="4.80369">
        <ele>147.78500366211</ele>
        <time>2010-04-06T12:11:17Z</time>
      </trkpt>
      <trkpt lat="45.24217" lon="4.8034">
        <ele>148.30000305176</ele>
        <time>2010-04-06T12:11:22Z</time>
      </trkpt>
      <trkpt lat="45.24219" lon="4.80318">
        <ele>146.80799865723</ele>
        <time>2010-04-06T12:11:25Z</time>
      </trkpt>
      <trkpt lat="45.24221" lon="4.80296">
        <ele>148.66999816894</ele>
        <time>2010-04-06T12:11:28Z</time>
      </trkpt>
      <trkpt lat="45.24222" lon="4.80273">
        <ele>150.49200439453</ele>
        <time>2010-04-06T12:11:31Z</time>
      </trkpt>
      <trkpt lat="45.24227" lon="4.80221">
        <ele>149.33200073242</ele>
        <time>2010-04-06T12:11:37Z</time>
      </trkpt>
      <trkpt lat="45.24229" lon="4.8018">
        <ele>150.13999938965</ele>
        <time>2010-04-06T12:11:42Z</time>
      </trkpt>
      <trkpt lat="45.24233" lon="4.80141">
        <ele>152.93200683594</ele>
        <time>2010-04-06T12:11:47Z</time>
      </trkpt>
      <trkpt lat="45.24234" lon="4.80125">
        <ele>151.80200195312</ele>
        <time>2010-04-06T12:11:49Z</time>
      </trkpt>
      <trkpt lat="45.24239" lon="4.80064">
        <ele>149.57099914551</ele>
        <time>2010-04-06T12:11:56Z</time>
      </trkpt>
      <trkpt lat="45.24241" lon="4.80035">
        <ele>148.85600280762</ele>
        <time>2010-04-06T12:11:59Z</time>
      </trkpt>
      <trkpt lat="45.24245" lon="4.79987">
        <ele>147.61000061035</ele>
        <time>2010-04-06T12:12:04Z</time>
      </trkpt>
      <trkpt lat="45.24246" lon="4.79979">
        <ele>147.52200317383</ele>
        <time>2010-04-06T12:12:05Z</time>
      </trkpt>
      <trkpt lat="45.24248" lon="4.79969">
        <ele>147.69900512695</ele>
        <time>2010-04-06T12:12:07Z</time>
      </trkpt>
      <trkpt lat="45.24257" lon="4.79965">
        <ele>148.6609954834</ele>
        <time>2010-04-06T12:12:11Z</time>
      </trkpt>
      <trkpt lat="45.24266" lon="4.79971">
        <ele>148.7380065918</ele>
        <time>2010-04-06T12:12:13Z</time>
      </trkpt>
      <trkpt lat="45.24282" lon="4.79978">
        <ele>148.59399414062</ele>
        <time>2010-04-06T12:12:16Z</time>
      </trkpt>
      <trkpt lat="45.24293" lon="4.79984">
        <ele>148.18600463867</ele>
        <time>2010-04-06T12:12:18Z</time>
      </trkpt>
      <trkpt lat="45.24306" lon="4.7999">
        <ele>148.36000061035</ele>
        <time>2010-04-06T12:12:20Z</time>
      </trkpt>
      <trkpt lat="45.24348" lon="4.80009">
        <ele>148.29800415039</ele>
        <time>2010-04-06T12:12:26Z</time>
      </trkpt>
      <trkpt lat="45.24369" lon="4.80019">
        <ele>147.84399414062</ele>
        <time>2010-04-06T12:12:29Z</time>
      </trkpt>
      <trkpt lat="45.24425" lon="4.80036">
        <ele>146.37199401856</ele>
        <time>2010-04-06T12:12:36Z</time>
      </trkpt>
      <trkpt lat="45.24488" lon="4.80049">
        <ele>146.00900268555</ele>
        <time>2010-04-06T12:12:43Z</time>
      </trkpt>
      <trkpt lat="45.24544" lon="4.80051">
        <ele>145.92300415039</ele>
        <time>2010-04-06T12:12:49Z</time>
      </trkpt>
      <trkpt lat="45.2463" lon="4.80047">
        <ele>145.27499389648</ele>
        <time>2010-04-06T12:12:58Z</time>
      </trkpt>
      <trkpt lat="45.24712" lon="4.80036">
        <ele>144.73199462891</ele>
        <time>2010-04-06T12:13:07Z</time>
      </trkpt>
      <trkpt lat="45.24807" lon="4.80031">
        <ele>145.06199645996</ele>
        <time>2010-04-06T12:13:18Z</time>
      </trkpt>
      <trkpt lat="45.24862" lon="4.80035">
        <ele>145.9640045166</ele>
        <time>2010-04-06T12:13:25Z</time>
      </trkpt>
      <trkpt lat="45.24909" lon="4.8004">
        <ele>146.8809967041</ele>
        <time>2010-04-06T12:13:32Z</time>
      </trkpt>
      <trkpt lat="45.24927" lon="4.8004">
        <ele>146.91299438477</ele>
        <time>2010-04-06T12:13:35Z</time>
      </trkpt>
      <trkpt lat="45.24983" lon="4.80042">
        <ele>147.35800170898</ele>
        <time>2010-04-06T12:13:45Z</time>
      </trkpt>
      <trkpt lat="45.25017" lon="4.80042">
        <ele>147.34599304199</ele>
        <time>2010-04-06T12:13:51Z</time>
      </trkpt>
      <trkpt lat="45.25028" lon="4.80043">
        <ele>147.21200561523</ele>
        <time>2010-04-06T12:13:53Z</time>
      </trkpt>
      <trkpt lat="45.25084" lon="4.80044">
        <ele>146.53999328613</ele>
        <time>2010-04-06T12:14:02Z</time>
      </trkpt>
      <trkpt lat="45.25153" lon="4.80045">
        <ele>146.59899902344</ele>
        <time>2010-04-06T12:14:12Z</time>
      </trkpt>
      <trkpt lat="45.25219" lon="4.80047">
        <ele>146.74600219727</ele>
        <time>2010-04-06T12:14:21Z</time>
      </trkpt>
      <trkpt lat="45.25293" lon="4.80047">
        <ele>146.99899291992</ele>
        <time>2010-04-06T12:14:31Z</time>
      </trkpt>
      <trkpt lat="45.2537" lon="4.80042">
        <ele>146.97500610352</ele>
        <time>2010-04-06T12:14:41Z</time>
      </trkpt>
      <trkpt lat="45.25431" lon="4.80039">
        <ele>146.80599975586</ele>
        <time>2010-04-06T12:14:49Z</time>
      </trkpt>
      <trkpt lat="45.25515" lon="4.80036">
        <ele>146.87399291992</ele>
        <time>2010-04-06T12:15:00Z</time>
      </trkpt>
      <trkpt lat="45.25587" lon="4.80036">
        <ele>147.56700134277</ele>
        <time>2010-04-06T12:15:09Z</time>
      </trkpt>
      <trkpt lat="45.25655" lon="4.80035">
        <ele>147.25100708008</ele>
        <time>2010-04-06T12:15:17Z</time>
      </trkpt>
      <trkpt lat="45.25753" lon="4.80036">
        <ele>147.59899902344</ele>
        <time>2010-04-06T12:15:28Z</time>
      </trkpt>
      <trkpt lat="45.25827" lon="4.80045">
        <ele>146.61999511719</ele>
        <time>2010-04-06T12:15:36Z</time>
      </trkpt>
      <trkpt lat="45.25924" lon="4.80056">
        <ele>146.80700683594</ele>
        <time>2010-04-06T12:15:46Z</time>
      </trkpt>
      <trkpt lat="45.25986" lon="4.80062">
        <ele>146.97799682617</ele>
        <time>2010-04-06T12:15:53Z</time>
      </trkpt>
      <trkpt lat="45.26065" lon="4.80072">
        <ele>147.60400390625</ele>
        <time>2010-04-06T12:16:02Z</time>
      </trkpt>
      <trkpt lat="45.26158" lon="4.80073">
        <ele>147.32099914551</ele>
        <time>2010-04-06T12:16:12Z</time>
      </trkpt>
      <trkpt lat="45.26254" lon="4.80074">
        <ele>148.96899414062</ele>
        <time>2010-04-06T12:16:22Z</time>
      </trkpt>
      <trkpt lat="45.26319" lon="4.80074">
        <ele>150.18699645996</ele>
        <time>2010-04-06T12:16:29Z</time>
      </trkpt>
      <trkpt lat="45.26397" lon="4.8007">
        <ele>149.28500366211</ele>
        <time>2010-04-06T12:16:37Z</time>
      </trkpt>
      <trkpt lat="45.26476" lon="4.80068">
        <ele>149.06700134277</ele>
        <time>2010-04-06T12:16:45Z</time>
      </trkpt>
      <trkpt lat="45.26573" lon="4.80067">
        <ele>148.75300598144</ele>
        <time>2010-04-06T12:16:55Z</time>
      </trkpt>
      <trkpt lat="45.26651" lon="4.80066">
        <ele>149.65800476074</ele>
        <time>2010-04-06T12:17:03Z</time>
      </trkpt>
      <trkpt lat="45.26732" lon="4.80064">
        <ele>151.04699707031</ele>
        <time>2010-04-06T12:17:12Z</time>
      </trkpt>
      <trkpt lat="45.26806" lon="4.80063">
        <ele>151.2859954834</ele>
        <time>2010-04-06T12:17:20Z</time>
      </trkpt>
      <trkpt lat="45.26879" lon="4.80063">
        <ele>151.08700561523</ele>
        <time>2010-04-06T12:17:28Z</time>
      </trkpt>
      <trkpt lat="45.26942" lon="4.80062">
        <ele>151.31799316406</ele>
        <time>2010-04-06T12:17:35Z</time>
      </trkpt>
      <trkpt lat="45.27012" lon="4.80056">
        <ele>151.59700012207</ele>
        <time>2010-04-06T12:17:43Z</time>
      </trkpt>
      <trkpt lat="45.27074" lon="4.80045">
        <ele>151.48699951172</ele>
        <time>2010-04-06T12:17:50Z</time>
      </trkpt>
      <trkpt lat="45.27134" lon="4.80033">
        <ele>151.89999389648</ele>
        <time>2010-04-06T12:17:57Z</time>
      </trkpt>
      <trkpt lat="45.27195" lon="4.80022">
        <ele>151.92100524902</ele>
        <time>2010-04-06T12:18:04Z</time>
      </trkpt>
      <trkpt lat="45.27273" lon="4.80016">
        <ele>152.5</ele>
        <time>2010-04-06T12:18:13Z</time>
      </trkpt>
      <trkpt lat="45.27351" lon="4.8001">
        <ele>152.78900146484</ele>
        <time>2010-04-06T12:18:22Z</time>
      </trkpt>
      <trkpt lat="45.27412" lon="4.80008">
        <ele>151.92799377441</ele>
        <time>2010-04-06T12:18:29Z</time>
      </trkpt>
      <trkpt lat="45.27475" lon="4.8001">
        <ele>151.55900573731</ele>
        <time>2010-04-06T12:18:36Z</time>
      </trkpt>
      <trkpt lat="45.27542" lon="4.80018">
        <ele>152.56700134277</ele>
        <time>2010-04-06T12:18:44Z</time>
      </trkpt>
      <trkpt lat="45.27619" lon="4.80028">
        <ele>153.53300476074</ele>
        <time>2010-04-06T12:18:53Z</time>
      </trkpt>
      <trkpt lat="45.27688" lon="4.80038">
        <ele>151.17199707031</ele>
        <time>2010-04-06T12:19:00Z</time>
      </trkpt>
      <trkpt lat="45.27779" lon="4.80038">
        <ele>150.41999816894</ele>
        <time>2010-04-06T12:19:09Z</time>
      </trkpt>
      <trkpt lat="45.27863" lon="4.80028">
        <ele>151.11000061035</ele>
        <time>2010-04-06T12:19:17Z</time>
      </trkpt>
      <trkpt lat="45.27945" lon="4.80017">
        <ele>151.22599792481</ele>
        <time>2010-04-06T12:19:25Z</time>
      </trkpt>
      <trkpt lat="45.28017" lon="4.80007">
        <ele>150.42900085449</ele>
        <time>2010-04-06T12:19:32Z</time>
      </trkpt>
      <trkpt lat="45.28109" lon="4.79995">
        <ele>149.7559967041</ele>
        <time>2010-04-06T12:19:41Z</time>
      </trkpt>
      <trkpt lat="45.28189" lon="4.79985">
        <ele>149.85000610352</ele>
        <time>2010-04-06T12:19:49Z</time>
      </trkpt>
      <trkpt lat="45.28279" lon="4.79975">
        <ele>150.76300048828</ele>
        <time>2010-04-06T12:19:58Z</time>
      </trkpt>
      <trkpt lat="45.28358" lon="4.7996">
        <ele>150.30799865723</ele>
        <time>2010-04-06T12:20:06Z</time>
      </trkpt>
      <trkpt lat="45.28436" lon="4.79937">
        <ele>150.80599975586</ele>
        <time>2010-04-06T12:20:14Z</time>
      </trkpt>
      <trkpt lat="45.28494" lon="4.79918">
        <ele>150.32299804688</ele>
        <time>2010-04-06T12:20:20Z</time>
      </trkpt>
      <trkpt lat="45.28596" lon="4.79882">
        <ele>150.71600341797</ele>
        <time>2010-04-06T12:20:30Z</time>
      </trkpt>
      <trkpt lat="45.28733" lon="4.79831">
        <ele>148.58500671387</ele>
        <time>2010-04-06T12:20:43Z</time>
      </trkpt>
      <trkpt lat="45.28755" lon="4.79822">
        <ele>147.88299560547</ele>
        <time>2010-04-06T12:20:45Z</time>
      </trkpt>
      <trkpt lat="45.28809" lon="4.79801">
        <ele>146.67399597168</ele>
        <time>2010-04-06T12:20:50Z</time>
      </trkpt>
      <trkpt lat="45.28854" lon="4.79786">
        <ele>146.16000366211</ele>
        <time>2010-04-06T12:20:54Z</time>
      </trkpt>
      <trkpt lat="45.28913" lon="4.79782">
        <ele>145.5299987793</ele>
        <time>2010-04-06T12:20:59Z</time>
      </trkpt>
      <trkpt lat="45.28983" lon="4.79788">
        <ele>145.80499267578</ele>
        <time>2010-04-06T12:21:05Z</time>
      </trkpt>
      <trkpt lat="45.29058" lon="4.7979">
        <ele>145.74099731445</ele>
        <time>2010-04-06T12:21:12Z</time>
      </trkpt>
      <trkpt lat="45.29133" lon="4.79787">
        <ele>146.13999938965</ele>
        <time>2010-04-06T12:21:19Z</time>
      </trkpt>
      <trkpt lat="45.29218" lon="4.7978">
        <ele>145.07699584961</ele>
        <time>2010-04-06T12:21:27Z</time>
      </trkpt>
      <trkpt lat="45.29296" lon="4.79774">
        <ele>145.10899353027</ele>
        <time>2010-04-06T12:21:34Z</time>
      </trkpt>
      <trkpt lat="45.29338" lon="4.79764">
        <ele>145.22300720215</ele>
        <time>2010-04-06T12:21:38Z</time>
      </trkpt>
      <trkpt lat="45.29456" lon="4.79725">
        <ele>144.88499450684</ele>
        <time>2010-04-06T12:21:49Z</time>
      </trkpt>
      <trkpt lat="45.29563" lon="4.79684">
        <ele>144.57299804688</ele>
        <time>2010-04-06T12:21:59Z</time>
      </trkpt>
      <trkpt lat="45.29613" lon="4.79652">
        <ele>144.22999572754</ele>
        <time>2010-04-06T12:22:04Z</time>
      </trkpt>
      <trkpt lat="45.29648" lon="4.79612">
        <ele>143.55400085449</ele>
        <time>2010-04-06T12:22:08Z</time>
      </trkpt>
      <trkpt lat="45.29691" lon="4.7955">
        <ele>145.85899353027</ele>
        <time>2010-04-06T12:22:14Z</time>
      </trkpt>
      <trkpt lat="45.29718" lon="4.7951">
        <ele>145.10699462891</ele>
        <time>2010-04-06T12:22:18Z</time>
      </trkpt>
      <trkpt lat="45.29731" lon="4.79489">
        <ele>146.09800720215</ele>
        <time>2010-04-06T12:22:20Z</time>
      </trkpt>
      <trkpt lat="45.2975" lon="4.79455">
        <ele>144.46000671387</ele>
        <time>2010-04-06T12:22:23Z</time>
      </trkpt>
      <trkpt lat="45.29781" lon="4.79398">
        <ele>145.38499450684</ele>
        <time>2010-04-06T12:22:28Z</time>
      </trkpt>
      <trkpt lat="45.2984" lon="4.79294">
        <ele>144.87199401856</ele>
        <time>2010-04-06T12:22:37Z</time>
      </trkpt>
      <trkpt lat="45.29865" lon="4.79247">
        <ele>144.61999511719</ele>
        <time>2010-04-06T12:22:41Z</time>
      </trkpt>
      <trkpt lat="45.29876" lon="4.79194">
        <ele>145.59199523926</ele>
        <time>2010-04-06T12:22:45Z</time>
      </trkpt>
      <trkpt lat="45.29882" lon="4.79154">
        <ele>144.78500366211</ele>
        <time>2010-04-06T12:22:48Z</time>
      </trkpt>
      <trkpt lat="45.29901" lon="4.79123">
        <ele>144.04499816894</ele>
        <time>2010-04-06T12:22:51Z</time>
      </trkpt>
      <trkpt lat="45.29963" lon="4.79056">
        <ele>144.87399291992</ele>
        <time>2010-04-06T12:22:59Z</time>
      </trkpt>
      <trkpt lat="45.30017" lon="4.7902">
        <ele>145.74200439453</ele>
        <time>2010-04-06T12:23:05Z</time>
      </trkpt>
      <trkpt lat="45.30102" lon="4.78965">
        <ele>147.47399902344</ele>
        <time>2010-04-06T12:23:15Z</time>
      </trkpt>
      <trkpt lat="45.30165" lon="4.78924">
        <ele>147.60800170898</ele>
        <time>2010-04-06T12:23:22Z</time>
      </trkpt>
      <trkpt lat="45.30253" lon="4.78866">
        <ele>147.48500061035</ele>
        <time>2010-04-06T12:23:32Z</time>
      </trkpt>
      <trkpt lat="45.30288" lon="4.78844">
        <ele>147.29299926758</ele>
        <time>2010-04-06T12:23:36Z</time>
      </trkpt>
      <trkpt lat="45.30316" lon="4.78836">
        <ele>146.44099426269</ele>
        <time>2010-04-06T12:23:39Z</time>
      </trkpt>
      <trkpt lat="45.3035" lon="4.78812">
        <ele>146.66499328613</ele>
        <time>2010-04-06T12:23:43Z</time>
      </trkpt>
      <trkpt lat="45.30392" lon="4.78777">
        <ele>146.70899963379</ele>
        <time>2010-04-06T12:23:48Z</time>
      </trkpt>
      <trkpt lat="45.30462" lon="4.78733">
        <ele>146.80599975586</ele>
        <time>2010-04-06T12:23:56Z</time>
      </trkpt>
      <trkpt lat="45.30499" lon="4.78688">
        <ele>146.07699584961</ele>
        <time>2010-04-06T12:24:01Z</time>
      </trkpt>
      <trkpt lat="45.30505" lon="4.78677">
        <ele>146.55900573731</ele>
        <time>2010-04-06T12:24:02Z</time>
      </trkpt>
      <trkpt lat="45.30548" lon="4.78584">
        <ele>147.29899597168</ele>
        <time>2010-04-06T12:24:10Z</time>
      </trkpt>
      <trkpt lat="45.3057" lon="4.78525">
        <ele>147.31799316406</ele>
        <time>2010-04-06T12:24:15Z</time>
      </trkpt>
      <trkpt lat="45.30581" lon="4.7846">
        <ele>147.12100219727</ele>
        <time>2010-04-06T12:24:20Z</time>
      </trkpt>
      <trkpt lat="45.30596" lon="4.7833">
        <ele>148.00500488281</ele>
        <time>2010-04-06T12:24:30Z</time>
      </trkpt>
      <trkpt lat="45.30618" lon="4.7819">
        <ele>148.04200744629</ele>
        <time>2010-04-06T12:24:41Z</time>
      </trkpt>
      <trkpt lat="45.30627" lon="4.78104">
        <ele>148.69700622559</ele>
        <time>2010-04-06T12:24:48Z</time>
      </trkpt>
      <trkpt lat="45.30624" lon="4.7803">
        <ele>147.63800048828</ele>
        <time>2010-04-06T12:24:54Z</time>
      </trkpt>
      <trkpt lat="45.30623" lon="4.77944">
        <ele>148.36199951172</ele>
        <time>2010-04-06T12:25:01Z</time>
      </trkpt>
      <trkpt lat="45.30638" lon="4.77857">
        <ele>149.21099853516</ele>
        <time>2010-04-06T12:25:08Z</time>
      </trkpt>
      <trkpt lat="45.30658" lon="4.77758">
        <ele>149.28799438477</ele>
        <time>2010-04-06T12:25:16Z</time>
      </trkpt>
      <trkpt lat="45.30679" lon="4.77664">
        <ele>149.64999389648</ele>
        <time>2010-04-06T12:25:24Z</time>
      </trkpt>
      <trkpt lat="45.30703" lon="4.77613">
        <ele>150.3690032959</ele>
        <time>2010-04-06T12:25:29Z</time>
      </trkpt>
      <trkpt lat="45.30748" lon="4.77527">
        <ele>150.87300109863</ele>
        <time>2010-04-06T12:25:38Z</time>
      </trkpt>
      <trkpt lat="45.30793" lon="4.7745">
        <ele>149.31900024414</ele>
        <time>2010-04-06T12:25:46Z</time>
      </trkpt>
      <trkpt lat="45.30825" lon="4.77424">
        <ele>147.44000244141</ele>
        <time>2010-04-06T12:25:50Z</time>
      </trkpt>
      <trkpt lat="45.30835" lon="4.77422">
        <ele>147.15699768066</ele>
        <time>2010-04-06T12:25:51Z</time>
      </trkpt>
      <trkpt lat="45.30854" lon="4.7742">
        <ele>147.27099609375</ele>
        <time>2010-04-06T12:25:53Z</time>
      </trkpt>
      <trkpt lat="45.30893" lon="4.77426">
        <ele>146.10499572754</ele>
        <time>2010-04-06T12:25:57Z</time>
      </trkpt>
      <trkpt lat="45.3093" lon="4.77417">
        <ele>145.91200256348</ele>
        <time>2010-04-06T12:26:01Z</time>
      </trkpt>
      <trkpt lat="45.30991" lon="4.7738">
        <ele>144.92799377441</ele>
        <time>2010-04-06T12:26:08Z</time>
      </trkpt>
      <trkpt lat="45.31039" lon="4.77349">
        <ele>144.44299316406</ele>
        <time>2010-04-06T12:26:14Z</time>
      </trkpt>
      <trkpt lat="45.31076" lon="4.77319">
        <ele>143.91499328613</ele>
        <time>2010-04-06T12:26:19Z</time>
      </trkpt>
      <trkpt lat="45.31135" lon="4.77276">
        <ele>143.96699523926</ele>
        <time>2010-04-06T12:26:27Z</time>
      </trkpt>
      <trkpt lat="45.31182" lon="4.77247">
        <ele>144.75999450684</ele>
        <time>2010-04-06T12:26:33Z</time>
      </trkpt>
      <trkpt lat="45.31219" lon="4.77213">
        <ele>145.82499694824</ele>
        <time>2010-04-06T12:26:38Z</time>
      </trkpt>
      <trkpt lat="45.31269" lon="4.77167">
        <ele>146.05299377441</ele>
        <time>2010-04-06T12:26:45Z</time>
      </trkpt>
      <trkpt lat="45.31322" lon="4.77117">
        <ele>146.28300476074</ele>
        <time>2010-04-06T12:26:52Z</time>
      </trkpt>
      <trkpt lat="45.31376" lon="4.77066">
        <ele>147.21299743652</ele>
        <time>2010-04-06T12:26:59Z</time>
      </trkpt>
      <trkpt lat="45.31413" lon="4.77023">
        <ele>146.63499450684</ele>
        <time>2010-04-06T12:27:04Z</time>
      </trkpt>
      <trkpt lat="45.31448" lon="4.76971">
        <ele>146.30799865723</ele>
        <time>2010-04-06T12:27:09Z</time>
      </trkpt>
      <trkpt lat="45.31496" lon="4.76903">
        <ele>146.19700622559</ele>
        <time>2010-04-06T12:27:16Z</time>
      </trkpt>
      <trkpt lat="45.31565" lon="4.76804">
        <ele>146.71899414062</ele>
        <time>2010-04-06T12:27:27Z</time>
      </trkpt>
      <trkpt lat="45.31609" lon="4.76742">
        <ele>146.61199951172</ele>
        <time>2010-04-06T12:27:34Z</time>
      </trkpt>
      <trkpt lat="45.31652" lon="4.76701">
        <ele>146.96899414062</ele>
        <time>2010-04-06T12:27:40Z</time>
      </trkpt>
      <trkpt lat="45.3168" lon="4.76676">
        <ele>146.67900085449</ele>
        <time>2010-04-06T12:27:44Z</time>
      </trkpt>
      <trkpt lat="45.31734" lon="4.76642">
        <ele>148.08799743652</ele>
        <time>2010-04-06T12:27:51Z</time>
      </trkpt>
      <trkpt lat="45.31768" lon="4.76621">
        <ele>149.71499633789</ele>
        <time>2010-04-06T12:27:56Z</time>
      </trkpt>
      <trkpt lat="45.31781" lon="4.76613">
        <ele>150.46099853516</ele>
        <time>2010-04-06T12:27:58Z</time>
      </trkpt>
      <trkpt lat="45.31813" lon="4.76579">
        <ele>149.125</ele>
        <time>2010-04-06T12:28:03Z</time>
      </trkpt>
      <trkpt lat="45.31849" lon="4.7653">
        <ele>145.92300415039</ele>
        <time>2010-04-06T12:28:08Z</time>
      </trkpt>
      <trkpt lat="45.31898" lon="4.7647">
        <ele>146.34800720215</ele>
        <time>2010-04-06T12:28:14Z</time>
      </trkpt>
      <trkpt lat="45.31962" lon="4.76404">
        <ele>147.6190032959</ele>
        <time>2010-04-06T12:28:22Z</time>
      </trkpt>
      <trkpt lat="45.32006" lon="4.7636">
        <ele>147.47700500488</ele>
        <time>2010-04-06T12:28:28Z</time>
      </trkpt>
      <trkpt lat="45.32032" lon="4.76324">
        <ele>147.52799987793</ele>
        <time>2010-04-06T12:28:32Z</time>
      </trkpt>
      <trkpt lat="45.32057" lon="4.76255">
        <ele>146.33000183106</ele>
        <time>2010-04-06T12:28:38Z</time>
      </trkpt>
      <trkpt lat="45.32064" lon="4.76231">
        <ele>146.41400146484</ele>
        <time>2010-04-06T12:28:40Z</time>
      </trkpt>
      <trkpt lat="45.32102" lon="4.76159">
        <ele>146.93800354004</ele>
        <time>2010-04-06T12:28:47Z</time>
      </trkpt>
      <trkpt lat="45.32124" lon="4.76136">
        <ele>146.9880065918</ele>
        <time>2010-04-06T12:28:50Z</time>
      </trkpt>
      <trkpt lat="45.32182" lon="4.761">
        <ele>147.3630065918</ele>
        <time>2010-04-06T12:28:57Z</time>
      </trkpt>
      <trkpt lat="45.32243" lon="4.76067">
        <ele>146.54800415039</ele>
        <time>2010-04-06T12:29:04Z</time>
      </trkpt>
      <trkpt lat="45.3231" lon="4.7603">
        <ele>147.10099792481</ele>
        <time>2010-04-06T12:29:12Z</time>
      </trkpt>
      <trkpt lat="45.32373" lon="4.75996">
        <ele>148.11199951172</ele>
        <time>2010-04-06T12:29:20Z</time>
      </trkpt>
      <trkpt lat="45.32447" lon="4.75959">
        <ele>149.17599487305</ele>
        <time>2010-04-06T12:29:29Z</time>
      </trkpt>
      <trkpt lat="45.32512" lon="4.75921">
        <ele>149.82200622559</ele>
        <time>2010-04-06T12:29:37Z</time>
      </trkpt>
      <trkpt lat="45.32553" lon="4.75887">
        <ele>150.13000488281</ele>
        <time>2010-04-06T12:29:42Z</time>
      </trkpt>
      <trkpt lat="45.32623" lon="4.75822">
        <ele>151.00799560547</ele>
        <time>2010-04-06T12:29:51Z</time>
      </trkpt>
      <trkpt lat="45.32673" lon="4.75786">
        <ele>150.75300598144</ele>
        <time>2010-04-06T12:29:57Z</time>
      </trkpt>
      <trkpt lat="45.3275" lon="4.75738">
        <ele>150.14799499512</ele>
        <time>2010-04-06T12:30:06Z</time>
      </trkpt>
      <trkpt lat="45.32759" lon="4.75733">
        <ele>149.79600524902</ele>
        <time>2010-04-06T12:30:07Z</time>
      </trkpt>
      <trkpt lat="45.32806" lon="4.75721">
        <ele>149.22399902344</ele>
        <time>2010-04-06T12:30:12Z</time>
      </trkpt>
      <trkpt lat="45.3289" lon="4.75727">
        <ele>149.30000305176</ele>
        <time>2010-04-06T12:30:21Z</time>
      </trkpt>
      <trkpt lat="45.32981" lon="4.75735">
        <ele>148.73100280762</ele>
        <time>2010-04-06T12:30:31Z</time>
      </trkpt>
      <trkpt lat="45.33057" lon="4.75742">
        <ele>148.91499328613</ele>
        <time>2010-04-06T12:30:39Z</time>
      </trkpt>
      <trkpt lat="45.33123" lon="4.75748">
        <ele>148.98199462891</ele>
        <time>2010-04-06T12:30:46Z</time>
      </trkpt>
      <trkpt lat="45.33208" lon="4.75752">
        <ele>149.63299560547</ele>
        <time>2010-04-06T12:30:55Z</time>
      </trkpt>
      <trkpt lat="45.33303" lon="4.75753">
        <ele>148.51699829102</ele>
        <time>2010-04-06T12:31:05Z</time>
      </trkpt>
      <trkpt lat="45.33373" lon="4.75754">
        <ele>148.64999389648</ele>
        <time>2010-04-06T12:31:12Z</time>
      </trkpt>
      <trkpt lat="45.33455" lon="4.75754">
        <ele>147.4049987793</ele>
        <time>2010-04-06T12:31:20Z</time>
      </trkpt>
      <trkpt lat="45.33547" lon="4.75756">
        <ele>147.25900268555</ele>
        <time>2010-04-06T12:31:29Z</time>
      </trkpt>
      <trkpt lat="45.33607" lon="4.75762">
        <ele>147.91200256348</ele>
        <time>2010-04-06T12:31:35Z</time>
      </trkpt>
      <trkpt lat="45.33696" lon="4.7578">
        <ele>148.48300170898</ele>
        <time>2010-04-06T12:31:44Z</time>
      </trkpt>
      <trkpt lat="45.33788" lon="4.75798">
        <ele>148.77900695801</ele>
        <time>2010-04-06T12:31:53Z</time>
      </trkpt>
      <trkpt lat="45.33847" lon="4.7581">
        <ele>148.74800109863</ele>
        <time>2010-04-06T12:31:59Z</time>
      </trkpt>
      <trkpt lat="45.33923" lon="4.75824">
        <ele>149.30000305176</ele>
        <time>2010-04-06T12:32:07Z</time>
      </trkpt>
      <trkpt lat="45.33972" lon="4.75825">
        <ele>149.00199890137</ele>
        <time>2010-04-06T12:32:12Z</time>
      </trkpt>
      <trkpt lat="45.34063" lon="4.75812">
        <ele>148.0890045166</ele>
        <time>2010-04-06T12:32:21Z</time>
      </trkpt>
      <trkpt lat="45.34141" lon="4.75799">
        <ele>148.19299316406</ele>
        <time>2010-04-06T12:32:29Z</time>
      </trkpt>
      <trkpt lat="45.34225" lon="4.75779">
        <ele>148.77000427246</ele>
        <time>2010-04-06T12:32:38Z</time>
      </trkpt>
      <trkpt lat="45.34324" lon="4.75754">
        <ele>149.85600280762</ele>
        <time>2010-04-06T12:32:49Z</time>
      </trkpt>
      <trkpt lat="45.34401" lon="4.75734">
        <ele>150.95700073242</ele>
        <time>2010-04-06T12:32:58Z</time>
      </trkpt>
      <trkpt lat="45.34488" lon="4.75714">
        <ele>152.03999328613</ele>
        <time>2010-04-06T12:33:08Z</time>
      </trkpt>
      <trkpt lat="45.34533" lon="4.75714">
        <ele>151.61399841309</ele>
        <time>2010-04-06T12:33:13Z</time>
      </trkpt>
      <trkpt lat="45.34578" lon="4.75708">
        <ele>150.94799804688</ele>
        <time>2010-04-06T12:33:18Z</time>
      </trkpt>
      <trkpt lat="45.34628" lon="4.75688">
        <ele>152.07299804688</ele>
        <time>2010-04-06T12:33:24Z</time>
      </trkpt>
      <trkpt lat="45.34672" lon="4.75687">
        <ele>150.51699829102</ele>
        <time>2010-04-06T12:33:29Z</time>
      </trkpt>
      <trkpt lat="45.34732" lon="4.75697">
        <ele>150.4880065918</ele>
        <time>2010-04-06T12:33:35Z</time>
      </trkpt>
      <trkpt lat="45.34774" lon="4.75696">
        <ele>151.93600463867</ele>
        <time>2010-04-06T12:33:39Z</time>
      </trkpt>
      <trkpt lat="45.34847" lon="4.75678">
        <ele>152.39900207519</ele>
        <time>2010-04-06T12:33:46Z</time>
      </trkpt>
      <trkpt lat="45.34908" lon="4.75663">
        <ele>152.37100219727</ele>
        <time>2010-04-06T12:33:52Z</time>
      </trkpt>
      <trkpt lat="45.34958" lon="4.75671">
        <ele>151.93299865723</ele>
        <time>2010-04-06T12:33:57Z</time>
      </trkpt>
      <trkpt lat="45.35018" lon="4.75691">
        <ele>149.96499633789</ele>
        <time>2010-04-06T12:34:03Z</time>
      </trkpt>
      <trkpt lat="45.35082" lon="4.75709">
        <ele>148.54800415039</ele>
        <time>2010-04-06T12:34:09Z</time>
      </trkpt>
      <trkpt lat="45.35144" lon="4.7573">
        <ele>150.26400756836</ele>
        <time>2010-04-06T12:34:15Z</time>
      </trkpt>
      <trkpt lat="45.35202" lon="4.75759">
        <ele>150.56900024414</ele>
        <time>2010-04-06T12:34:21Z</time>
      </trkpt>
      <trkpt lat="45.35258" lon="4.75791">
        <ele>150.41600036621</ele>
        <time>2010-04-06T12:34:27Z</time>
      </trkpt>
      <trkpt lat="45.35306" lon="4.75813">
        <ele>151.41000366211</ele>
        <time>2010-04-06T12:34:32Z</time>
      </trkpt>
      <trkpt lat="45.35333" lon="4.75826">
        <ele>153.1369934082</ele>
        <time>2010-04-06T12:34:35Z</time>
      </trkpt>
      <trkpt lat="45.35368" lon="4.75825">
        <ele>153.37800598144</ele>
        <time>2010-04-06T12:34:39Z</time>
      </trkpt>
      <trkpt lat="45.35432" lon="4.75792">
        <ele>152.04100036621</ele>
        <time>2010-04-06T12:34:46Z</time>
      </trkpt>
      <trkpt lat="45.35492" lon="4.7576">
        <ele>150.61399841309</ele>
        <time>2010-04-06T12:34:52Z</time>
      </trkpt>
      <trkpt lat="45.35503" lon="4.75755">
        <ele>150.72900390625</ele>
        <time>2010-04-06T12:34:53Z</time>
      </trkpt>
      <trkpt lat="45.35577" lon="4.75717">
        <ele>148.86500549316</ele>
        <time>2010-04-06T12:35:00Z</time>
      </trkpt>
      <trkpt lat="45.35649" lon="4.75684">
        <ele>148.27799987793</ele>
        <time>2010-04-06T12:35:07Z</time>
      </trkpt>
      <trkpt lat="45.35681" lon="4.75671">
        <ele>147.46800231934</ele>
        <time>2010-04-06T12:35:10Z</time>
      </trkpt>
      <trkpt lat="45.35757" lon="4.75642">
        <ele>148.34899902344</ele>
        <time>2010-04-06T12:35:17Z</time>
      </trkpt>
      <trkpt lat="45.35831" lon="4.75613">
        <ele>148.53799438477</ele>
        <time>2010-04-06T12:35:24Z</time>
      </trkpt>
      <trkpt lat="45.35884" lon="4.75609">
        <ele>147.55900573731</ele>
        <time>2010-04-06T12:35:29Z</time>
      </trkpt>
      <trkpt lat="45.35934" lon="4.75606">
        <ele>148.05499267578</ele>
        <time>2010-04-06T12:35:34Z</time>
      </trkpt>
      <trkpt lat="45.35992" lon="4.75588">
        <ele>148.23899841309</ele>
        <time>2010-04-06T12:35:40Z</time>
      </trkpt>
      <trkpt lat="45.36077" lon="4.75549">
        <ele>149.03300476074</ele>
        <time>2010-04-06T12:35:49Z</time>
      </trkpt>
      <trkpt lat="45.36143" lon="4.75522">
        <ele>149.34899902344</ele>
        <time>2010-04-06T12:35:56Z</time>
      </trkpt>
      <trkpt lat="45.3621" lon="4.75502">
        <ele>150.21600341797</ele>
        <time>2010-04-06T12:36:03Z</time>
      </trkpt>
      <trkpt lat="45.36296" lon="4.75479">
        <ele>150.67399597168</ele>
        <time>2010-04-06T12:36:12Z</time>
      </trkpt>
      <trkpt lat="45.36352" lon="4.75456">
        <ele>151.23100280762</ele>
        <time>2010-04-06T12:36:18Z</time>
      </trkpt>
      <trkpt lat="45.36423" lon="4.7542">
        <ele>151.12899780273</ele>
        <time>2010-04-06T12:36:26Z</time>
      </trkpt>
      <trkpt lat="45.3647" lon="4.75396">
        <ele>149.35000610352</ele>
        <time>2010-04-06T12:36:31Z</time>
      </trkpt>
      <trkpt lat="45.36544" lon="4.75354">
        <ele>148.50399780273</ele>
        <time>2010-04-06T12:36:39Z</time>
      </trkpt>
      <trkpt lat="45.36595" lon="4.75321">
        <ele>151.20599365234</ele>
        <time>2010-04-06T12:36:45Z</time>
      </trkpt>
      <trkpt lat="45.3661" lon="4.75309">
        <ele>152.33599853516</ele>
        <time>2010-04-06T12:36:47Z</time>
      </trkpt>
      <trkpt lat="45.36653" lon="4.75273">
        <ele>153.23199462891</ele>
        <time>2010-04-06T12:36:53Z</time>
      </trkpt>
      <trkpt lat="45.36693" lon="4.75257">
        <ele>154.04299926758</ele>
        <time>2010-04-06T12:36:58Z</time>
      </trkpt>
      <trkpt lat="45.36726" lon="4.75252">
        <ele>155.60200500488</ele>
        <time>2010-04-06T12:37:02Z</time>
      </trkpt>
      <trkpt lat="45.36784" lon="4.75245">
        <ele>156.74899291992</ele>
        <time>2010-04-06T12:37:09Z</time>
      </trkpt>
      <trkpt lat="45.36847" lon="4.75236">
        <ele>158.44900512695</ele>
        <time>2010-04-06T12:37:16Z</time>
      </trkpt>
      <trkpt lat="45.36919" lon="4.7522">
        <ele>160.29699707031</ele>
        <time>2010-04-06T12:37:24Z</time>
      </trkpt>
      <trkpt lat="45.36996" lon="4.75201">
        <ele>161.99499511719</ele>
        <time>2010-04-06T12:37:33Z</time>
      </trkpt>
      <trkpt lat="45.37042" lon="4.75184">
        <ele>160.43499755859</ele>
        <time>2010-04-06T12:37:38Z</time>
      </trkpt>
      <trkpt lat="45.37091" lon="4.75157">
        <ele>158.98599243164</ele>
        <time>2010-04-06T12:37:43Z</time>
      </trkpt>
      <trkpt lat="45.37171" lon="4.75103">
        <ele>157.47700500488</ele>
        <time>2010-04-06T12:37:51Z</time>
      </trkpt>
      <trkpt lat="45.37233" lon="4.75062">
        <ele>155.24499511719</ele>
        <time>2010-04-06T12:37:57Z</time>
      </trkpt>
      <trkpt lat="45.37244" lon="4.75055">
        <ele>154.95700073242</ele>
        <time>2010-04-06T12:37:58Z</time>
      </trkpt>
      <trkpt lat="45.37324" lon="4.75004">
        <ele>150.8450012207</ele>
        <time>2010-04-06T12:38:05Z</time>
      </trkpt>
      <trkpt lat="45.37373" lon="4.74976">
        <ele>149.24800109863</ele>
        <time>2010-04-06T12:38:09Z</time>
      </trkpt>
      <trkpt lat="45.37417" lon="4.7494">
        <ele>149.98300170898</ele>
        <time>2010-04-06T12:38:13Z</time>
      </trkpt>
      <trkpt lat="45.37439" lon="4.74923">
        <ele>149.40299987793</ele>
        <time>2010-04-06T12:38:15Z</time>
      </trkpt>
      <trkpt lat="45.37484" lon="4.74909">
        <ele>149.25</ele>
        <time>2010-04-06T12:38:19Z</time>
      </trkpt>
      <trkpt lat="45.37496" lon="4.74909">
        <ele>149.59300231934</ele>
        <time>2010-04-06T12:38:20Z</time>
      </trkpt>
      <trkpt lat="45.37541" lon="4.74914">
        <ele>150.63400268555</ele>
        <time>2010-04-06T12:38:24Z</time>
      </trkpt>
      <trkpt lat="45.3759" lon="4.74898">
        <ele>153.06700134277</ele>
        <time>2010-04-06T12:38:29Z</time>
      </trkpt>
      <trkpt lat="45.37645" lon="4.74864">
        <ele>152.18699645996</ele>
        <time>2010-04-06T12:38:35Z</time>
      </trkpt>
      <trkpt lat="45.37694" lon="4.74849">
        <ele>152.36700439453</ele>
        <time>2010-04-06T12:38:40Z</time>
      </trkpt>
      <trkpt lat="45.3774" lon="4.74849">
        <ele>154.52299499512</ele>
        <time>2010-04-06T12:38:45Z</time>
      </trkpt>
      <trkpt lat="45.37749" lon="4.74849">
        <ele>154.75199890137</ele>
        <time>2010-04-06T12:38:46Z</time>
      </trkpt>
      <trkpt lat="45.37773" lon="4.7485">
        <ele>156.14999389648</ele>
        <time>2010-04-06T12:38:49Z</time>
      </trkpt>
      <trkpt lat="45.37826" lon="4.74854">
        <ele>158.34800720215</ele>
        <time>2010-04-06T12:38:56Z</time>
      </trkpt>
      <trkpt lat="45.37854" lon="4.74867">
        <ele>159.30499267578</ele>
        <time>2010-04-06T12:39:00Z</time>
      </trkpt>
      <trkpt lat="45.37886" lon="4.74907">
        <ele>160.69700622559</ele>
        <time>2010-04-06T12:39:06Z</time>
      </trkpt>
      <trkpt lat="45.3792" lon="4.74989">
        <ele>164.13200378418</ele>
        <time>2010-04-06T12:39:16Z</time>
      </trkpt>
      <trkpt lat="45.37943" lon="4.75041">
        <ele>166.31700134277</ele>
        <time>2010-04-06T12:39:23Z</time>
      </trkpt>
      <trkpt lat="45.37966" lon="4.7507">
        <ele>166.85699462891</ele>
        <time>2010-04-06T12:39:28Z</time>
      </trkpt>
      <trkpt lat="45.37989" lon="4.75083">
        <ele>167.39900207519</ele>
        <time>2010-04-06T12:39:32Z</time>
      </trkpt>
      <trkpt lat="45.38041" lon="4.75097">
        <ele>169.69099426269</ele>
        <time>2010-04-06T12:39:40Z</time>
      </trkpt>
      <trkpt lat="45.38085" lon="4.75101">
        <ele>170.93299865723</ele>
        <time>2010-04-06T12:39:46Z</time>
      </trkpt>
      <trkpt lat="45.381" lon="4.75096">
        <ele>171.47200012207</ele>
        <time>2010-04-06T12:39:48Z</time>
      </trkpt>
      <trkpt lat="45.38148" lon="4.7506">
        <ele>170.91299438477</ele>
        <time>2010-04-06T12:39:55Z</time>
      </trkpt>
      <trkpt lat="45.38203" lon="4.75006">
        <ele>171.55099487305</ele>
        <time>2010-04-06T12:40:04Z</time>
      </trkpt>
      <trkpt lat="45.38252" lon="4.74961">
        <ele>172.95799255371</ele>
        <time>2010-04-06T12:40:12Z</time>
      </trkpt>
      <trkpt lat="45.38306" lon="4.74909">
        <ele>174.29299926758</ele>
        <time>2010-04-06T12:40:21Z</time>
      </trkpt>
      <trkpt lat="45.38318" lon="4.74899">
        <ele>174.30299377441</ele>
        <time>2010-04-06T12:40:23Z</time>
      </trkpt>
      <trkpt lat="45.38374" lon="4.74865">
        <ele>174.18099975586</ele>
        <time>2010-04-06T12:40:31Z</time>
      </trkpt>
      <trkpt lat="45.38423" lon="4.7483">
        <ele>173.05200195312</ele>
        <time>2010-04-06T12:40:38Z</time>
      </trkpt>
      <trkpt lat="45.38452" lon="4.74801">
        <ele>171.24099731445</ele>
        <time>2010-04-06T12:40:42Z</time>
      </trkpt>
      <trkpt lat="45.38475" lon="4.74759">
        <ele>168.87899780273</ele>
        <time>2010-04-06T12:40:46Z</time>
      </trkpt>
      <trkpt lat="45.3848" lon="4.74747">
        <ele>168.58299255371</ele>
        <time>2010-04-06T12:40:47Z</time>
      </trkpt>
      <trkpt lat="45.38503" lon="4.74717">
        <ele>166.22700500488</ele>
        <time>2010-04-06T12:40:50Z</time>
      </trkpt>
      <trkpt lat="45.38512" lon="4.7471">
        <ele>165.43899536133</ele>
        <time>2010-04-06T12:40:51Z</time>
      </trkpt>
      <trkpt lat="45.3856" lon="4.74673">
        <ele>163.03199768066</ele>
        <time>2010-04-06T12:40:56Z</time>
      </trkpt>
      <trkpt lat="45.38589" lon="4.74652">
        <ele>161.35299682617</ele>
        <time>2010-04-06T12:40:59Z</time>
      </trkpt>
      <trkpt lat="45.38622" lon="4.74635">
        <ele>159.07800292969</ele>
        <time>2010-04-06T12:41:02Z</time>
      </trkpt>
      <trkpt lat="45.38679" lon="4.74615">
        <ele>155.80000305176</ele>
        <time>2010-04-06T12:41:07Z</time>
      </trkpt>
      <trkpt lat="45.38723" lon="4.74597">
        <ele>154.24099731445</ele>
        <time>2010-04-06T12:41:11Z</time>
      </trkpt>
      <trkpt lat="45.38759" lon="4.74573">
        <ele>154.50999450684</ele>
        <time>2010-04-06T12:41:15Z</time>
      </trkpt>
      <trkpt lat="45.38774" lon="4.74561">
        <ele>155.64199829102</ele>
        <time>2010-04-06T12:41:17Z</time>
      </trkpt>
      <trkpt lat="45.38803" lon="4.74544">
        <ele>154.54800415039</ele>
        <time>2010-04-06T12:41:21Z</time>
      </trkpt>
      <trkpt lat="45.38805" lon="4.74522">
        <ele>154.60000610352</ele>
        <time>2010-04-06T12:41:23Z</time>
      </trkpt>
      <trkpt lat="45.38793" lon="4.74511">
        <ele>155.09399414062</ele>
        <time>2010-04-06T12:41:25Z</time>
      </trkpt>
      <trkpt lat="45.38772" lon="4.74511">
        <ele>155.68400573731</ele>
        <time>2010-04-06T12:41:28Z</time>
      </trkpt>
      <trkpt lat="45.38751" lon="4.74505">
        <ele>155.36099243164</ele>
        <time>2010-04-06T12:41:31Z</time>
      </trkpt>
      <trkpt lat="45.38732" lon="4.74491">
        <ele>155.8450012207</ele>
        <time>2010-04-06T12:41:34Z</time>
      </trkpt>
      <trkpt lat="45.38711" lon="4.74465">
        <ele>157.56100463867</ele>
        <time>2010-04-06T12:41:38Z</time>
      </trkpt>
      <trkpt lat="45.38672" lon="4.74407">
        <ele>158.73899841309</ele>
        <time>2010-04-06T12:41:47Z</time>
      </trkpt>
      <trkpt lat="45.38642" lon="4.74357">
        <ele>160.62100219727</ele>
        <time>2010-04-06T12:41:55Z</time>
      </trkpt>
      <trkpt lat="45.38615" lon="4.74316">
        <ele>161.66900634766</ele>
        <time>2010-04-06T12:42:02Z</time>
      </trkpt>
      <trkpt lat="45.38593" lon="4.74272">
        <ele>161.58099365234</ele>
        <time>2010-04-06T12:42:09Z</time>
      </trkpt>
      <trkpt lat="45.38579" lon="4.74227">
        <ele>162.92199707031</ele>
        <time>2010-04-06T12:42:16Z</time>
      </trkpt>
      <trkpt lat="45.38572" lon="4.74181">
        <ele>164.17900085449</ele>
        <time>2010-04-06T12:42:23Z</time>
      </trkpt>
      <trkpt lat="45.38565" lon="4.74122">
        <ele>165.16299438477</ele>
        <time>2010-04-06T12:42:32Z</time>
      </trkpt>
      <trkpt lat="45.38561" lon="4.74096">
        <ele>167.06799316406</ele>
        <time>2010-04-06T12:42:36Z</time>
      </trkpt>
      <trkpt lat="45.38555" lon="4.74051">
        <ele>168.90800476074</ele>
        <time>2010-04-06T12:42:43Z</time>
      </trkpt>
      <trkpt lat="45.38552" lon="4.74025">
        <ele>169.32899475098</ele>
        <time>2010-04-06T12:42:47Z</time>
      </trkpt>
      <trkpt lat="45.38544" lon="4.73968">
        <ele>171.30299377441</ele>
        <time>2010-04-06T12:42:56Z</time>
      </trkpt>
      <trkpt lat="45.38536" lon="4.73904">
        <ele>173.89199829102</ele>
        <time>2010-04-06T12:43:06Z</time>
      </trkpt>
      <trkpt lat="45.38525" lon="4.73847">
        <ele>175.65100097656</ele>
        <time>2010-04-06T12:43:15Z</time>
      </trkpt>
      <trkpt lat="45.38509" lon="4.73816">
        <ele>176.08500671387</ele>
        <time>2010-04-06T12:43:21Z</time>
      </trkpt>
      <trkpt lat="45.38499" lon="4.73803">
        <ele>176.65199279785</ele>
        <time>2010-04-06T12:43:24Z</time>
      </trkpt>
      <trkpt lat="45.38467" lon="4.73781">
        <ele>178.32200622559</ele>
        <time>2010-04-06T12:43:32Z</time>
      </trkpt>
      <trkpt lat="45.38435" lon="4.73777">
        <ele>179.63499450684</ele>
        <time>2010-04-06T12:43:39Z</time>
      </trkpt>
      <trkpt lat="45.38393" lon="4.73773">
        <ele>182.64199829102</ele>
        <time>2010-04-06T12:43:48Z</time>
      </trkpt>
      <trkpt lat="45.38377" lon="4.73763">
        <ele>183.81900024414</ele>
        <time>2010-04-06T12:43:52Z</time>
      </trkpt>
      <trkpt lat="45.38363" lon="4.73747">
        <ele>184.58599853516</ele>
        <time>2010-04-06T12:43:56Z</time>
      </trkpt>
      <trkpt lat="45.38348" lon="4.73703">
        <ele>185.49000549316</ele>
        <time>2010-04-06T12:44:03Z</time>
      </trkpt>
      <trkpt lat="45.38342" lon="4.7367">
        <ele>186.2619934082</ele>
        <time>2010-04-06T12:44:08Z</time>
      </trkpt>
      <trkpt lat="45.3833" lon="4.73611">
        <ele>187.66499328613</ele>
        <time>2010-04-06T12:44:17Z</time>
      </trkpt>
      <trkpt lat="45.38327" lon="4.73591">
        <ele>188.55499267578</ele>
        <time>2010-04-06T12:44:20Z</time>
      </trkpt>
      <trkpt lat="45.38319" lon="4.73523">
        <ele>190.64300537109</ele>
        <time>2010-04-06T12:44:30Z</time>
      </trkpt>
      <trkpt lat="45.38319" lon="4.73496">
        <ele>191.35699462891</ele>
        <time>2010-04-06T12:44:34Z</time>
      </trkpt>
      <trkpt lat="45.38329" lon="4.73444">
        <ele>192.19500732422</ele>
        <time>2010-04-06T12:44:42Z</time>
      </trkpt>
      <trkpt lat="45.38349" lon="4.73405">
        <ele>193.67799377441</ele>
        <time>2010-04-06T12:44:49Z</time>
      </trkpt>
      <trkpt lat="45.38351" lon="4.734">
        <ele>193.72399902344</ele>
        <time>2010-04-06T12:44:50Z</time>
      </trkpt>
      <trkpt lat="45.38363" lon="4.73363">
        <ele>194.78399658203</ele>
        <time>2010-04-06T12:44:56Z</time>
      </trkpt>
      <trkpt lat="45.38364" lon="4.73351">
        <ele>194.78300476074</ele>
        <time>2010-04-06T12:44:58Z</time>
      </trkpt>
      <trkpt lat="45.38363" lon="4.73323">
        <ele>195.85499572754</ele>
        <time>2010-04-06T12:45:02Z</time>
      </trkpt>
      <trkpt lat="45.38349" lon="4.73269">
        <ele>197.93699645996</ele>
        <time>2010-04-06T12:45:10Z</time>
      </trkpt>
      <trkpt lat="45.38327" lon="4.73221">
        <ele>199.6369934082</ele>
        <time>2010-04-06T12:45:18Z</time>
      </trkpt>
      <trkpt lat="45.38298" lon="4.73164">
        <ele>201.33500671387</ele>
        <time>2010-04-06T12:45:28Z</time>
      </trkpt>
      <trkpt lat="45.38269" lon="4.73106">
        <ele>202.19999694824</ele>
        <time>2010-04-06T12:45:38Z</time>
      </trkpt>
      <trkpt lat="45.3824" lon="4.73041">
        <ele>205.11099243164</ele>
        <time>2010-04-06T12:45:49Z</time>
      </trkpt>
      <trkpt lat="45.38211" lon="4.72977">
        <ele>207.0299987793</ele>
        <time>2010-04-06T12:46:00Z</time>
      </trkpt>
      <trkpt lat="45.3819" lon="4.72929">
        <ele>208.00300598144</ele>
        <time>2010-04-06T12:46:08Z</time>
      </trkpt>
      <trkpt lat="45.38174" lon="4.72879">
        <ele>209.93899536133</ele>
        <time>2010-04-06T12:46:16Z</time>
      </trkpt>
      <trkpt lat="45.3817" lon="4.72851">
        <ele>209.87699890137</ele>
        <time>2010-04-06T12:46:20Z</time>
      </trkpt>
      <trkpt lat="45.3817" lon="4.7283">
        <ele>210.51600646973</ele>
        <time>2010-04-06T12:46:23Z</time>
      </trkpt>
      <trkpt lat="45.3818" lon="4.72792">
        <ele>211.75999450684</ele>
        <time>2010-04-06T12:46:29Z</time>
      </trkpt>
      <trkpt lat="45.38182" lon="4.72785">
        <ele>211.78100585938</ele>
        <time>2010-04-06T12:46:30Z</time>
      </trkpt>
      <trkpt lat="45.38182" lon="4.72744">
        <ele>212.25900268555</ele>
        <time>2010-04-06T12:46:36Z</time>
      </trkpt>
      <trkpt lat="45.3817" lon="4.72689">
        <ele>212.90400695801</ele>
        <time>2010-04-06T12:46:44Z</time>
      </trkpt>
      <trkpt lat="45.38169" lon="4.72683">
        <ele>213.02200317383</ele>
        <time>2010-04-06T12:46:45Z</time>
      </trkpt>
      <trkpt lat="45.38179" lon="4.72675">
        <ele>213.89199829102</ele>
        <time>2010-04-06T12:46:49Z</time>
      </trkpt>
      <trkpt lat="45.38184" lon="4.72682">
        <ele>215.44700622559</ele>
        <time>2010-04-06T12:46:51Z</time>
      </trkpt>
      <trkpt lat="45.382" lon="4.72709">
        <ele>215.78100585938</ele>
        <time>2010-04-06T12:46:57Z</time>
      </trkpt>
      <trkpt lat="45.38231" lon="4.72732">
        <ele>217.94500732422</ele>
        <time>2010-04-06T12:47:06Z</time>
      </trkpt>
      <trkpt lat="45.38236" lon="4.72739">
        <ele>218.98899841309</ele>
        <time>2010-04-06T12:47:08Z</time>
      </trkpt>
      <trkpt lat="45.38248" lon="4.72767">
        <ele>219.95300292969</ele>
        <time>2010-04-06T12:47:14Z</time>
      </trkpt>
      <trkpt lat="45.38248" lon="4.72772">
        <ele>220.51699829102</ele>
        <time>2010-04-06T12:47:15Z</time>
      </trkpt>
      <trkpt lat="45.38238" lon="4.72807">
        <ele>222.65199279785</ele>
        <time>2010-04-06T12:47:22Z</time>
      </trkpt>
      <trkpt lat="45.38226" lon="4.72831">
        <ele>225.20500183106</ele>
        <time>2010-04-06T12:47:27Z</time>
      </trkpt>
      <trkpt lat="45.38224" lon="4.72836">
        <ele>225.62800598144</ele>
        <time>2010-04-06T12:47:28Z</time>
      </trkpt>
      <trkpt lat="45.38219" lon="4.72867">
        <ele>227.22599792481</ele>
        <time>2010-04-06T12:47:33Z</time>
      </trkpt>
      <trkpt lat="45.38224" lon="4.72893">
        <ele>228.43299865723</ele>
        <time>2010-04-06T12:47:37Z</time>
      </trkpt>
      <trkpt lat="45.38227" lon="4.72899">
        <ele>228.49800109863</ele>
        <time>2010-04-06T12:47:38Z</time>
      </trkpt>
      <trkpt lat="45.38236" lon="4.72916">
        <ele>229.08700561523</ele>
        <time>2010-04-06T12:47:41Z</time>
      </trkpt>
      <trkpt lat="45.38255" lon="4.72957">
        <ele>231.68299865723</ele>
        <time>2010-04-06T12:47:48Z</time>
      </trkpt>
      <trkpt lat="45.38258" lon="4.72962">
        <ele>231.90800476074</ele>
        <time>2010-04-06T12:47:49Z</time>
      </trkpt>
      <trkpt lat="45.38292" lon="4.73005">
        <ele>234.55499267578</ele>
        <time>2010-04-06T12:47:58Z</time>
      </trkpt>
      <trkpt lat="45.38308" lon="4.73005">
        <ele>235.7619934082</ele>
        <time>2010-04-06T12:48:02Z</time>
      </trkpt>
      <trkpt lat="45.38314" lon="4.72997">
        <ele>236.58000183106</ele>
        <time>2010-04-06T12:48:04Z</time>
      </trkpt>
      <trkpt lat="45.3832" lon="4.7298">
        <ele>236.89599609375</ele>
        <time>2010-04-06T12:48:07Z</time>
      </trkpt>
      <trkpt lat="45.3833" lon="4.72931">
        <ele>239.64999389648</ele>
        <time>2010-04-06T12:48:16Z</time>
      </trkpt>
      <trkpt lat="45.38341" lon="4.72911">
        <ele>241.14100646973</ele>
        <time>2010-04-06T12:48:21Z</time>
      </trkpt>
      <trkpt lat="45.38332" lon="4.72883">
        <ele>243.69299316406</ele>
        <time>2010-04-06T12:48:27Z</time>
      </trkpt>
      <trkpt lat="45.38321" lon="4.72865">
        <ele>244.29400634766</ele>
        <time>2010-04-06T12:48:32Z</time>
      </trkpt>
      <trkpt lat="45.38312" lon="4.72842">
        <ele>245.18499755859</ele>
        <time>2010-04-06T12:48:38Z</time>
      </trkpt>
      <trkpt lat="45.3831" lon="4.72812">
        <ele>247.10600280762</ele>
        <time>2010-04-06T12:48:45Z</time>
      </trkpt>
      <trkpt lat="45.38312" lon="4.72784">
        <ele>247.94999694824</ele>
        <time>2010-04-06T12:48:51Z</time>
      </trkpt>
      <trkpt lat="45.38316" lon="4.72747">
        <ele>249.00999450684</ele>
        <time>2010-04-06T12:48:57Z</time>
      </trkpt>
      <trkpt lat="45.38327" lon="4.72728">
        <ele>249.74099731445</ele>
        <time>2010-04-06T12:49:01Z</time>
      </trkpt>
      <trkpt lat="45.38344" lon="4.72708">
        <ele>248.83099365234</ele>
        <time>2010-04-06T12:49:06Z</time>
      </trkpt>
      <trkpt lat="45.38347" lon="4.72701">
        <ele>248.60699462891</ele>
        <time>2010-04-06T12:49:07Z</time>
      </trkpt>
      <trkpt lat="45.38357" lon="4.72678">
        <ele>246.90400695801</ele>
        <time>2010-04-06T12:49:10Z</time>
      </trkpt>
      <trkpt lat="45.38377" lon="4.7266">
        <ele>245.44000244141</ele>
        <time>2010-04-06T12:49:13Z</time>
      </trkpt>
      <trkpt lat="45.38409" lon="4.72632">
        <ele>245.22799682617</ele>
        <time>2010-04-06T12:49:18Z</time>
      </trkpt>
      <trkpt lat="45.38444" lon="4.72605">
        <ele>245.29200744629</ele>
        <time>2010-04-06T12:49:24Z</time>
      </trkpt>
      <trkpt lat="45.38453" lon="4.72597">
        <ele>246.35699462891</ele>
        <time>2010-04-06T12:49:26Z</time>
      </trkpt>
      <trkpt lat="45.38463" lon="4.72589">
        <ele>246.66299438477</ele>
        <time>2010-04-06T12:49:28Z</time>
      </trkpt>
      <trkpt lat="45.38478" lon="4.72576">
        <ele>246.07600402832</ele>
        <time>2010-04-06T12:49:31Z</time>
      </trkpt>
      <trkpt lat="45.38504" lon="4.72548">
        <ele>247.01899719238</ele>
        <time>2010-04-06T12:49:36Z</time>
      </trkpt>
      <trkpt lat="45.38517" lon="4.72539">
        <ele>247.69400024414</ele>
        <time>2010-04-06T12:49:38Z</time>
      </trkpt>
      <trkpt lat="45.38535" lon="4.72505">
        <ele>249.91799926758</ele>
        <time>2010-04-06T12:49:43Z</time>
      </trkpt>
      <trkpt lat="45.38554" lon="4.72461">
        <ele>252.52600097656</ele>
        <time>2010-04-06T12:49:50Z</time>
      </trkpt>
      <trkpt lat="45.38568" lon="4.72428">
        <ele>254.21600341797</ele>
        <time>2010-04-06T12:49:57Z</time>
      </trkpt>
      <trkpt lat="45.3858" lon="4.72387">
        <ele>256.89001464844</ele>
        <time>2010-04-06T12:50:05Z</time>
      </trkpt>
      <trkpt lat="45.38592" lon="4.72347">
        <ele>259.09899902344</ele>
        <time>2010-04-06T12:50:13Z</time>
      </trkpt>
      <trkpt lat="45.38605" lon="4.72322">
        <ele>260.94799804688</ele>
        <time>2010-04-06T12:50:19Z</time>
      </trkpt>
      <trkpt lat="45.38619" lon="4.72321">
        <ele>261.4700012207</ele>
        <time>2010-04-06T12:50:23Z</time>
      </trkpt>
      <trkpt lat="45.38628" lon="4.72338">
        <ele>262.25299072266</ele>
        <time>2010-04-06T12:50:27Z</time>
      </trkpt>
      <trkpt lat="45.38628" lon="4.72366">
        <ele>261.55599975586</ele>
        <time>2010-04-06T12:50:32Z</time>
      </trkpt>
      <trkpt lat="45.3862" lon="4.72385">
        <ele>264.14498901367</ele>
        <time>2010-04-06T12:50:36Z</time>
      </trkpt>
      <trkpt lat="45.38607" lon="4.72402">
        <ele>265.38800048828</ele>
        <time>2010-04-06T12:50:41Z</time>
      </trkpt>
      <trkpt lat="45.38597" lon="4.72425">
        <ele>267.69000244141</ele>
        <time>2010-04-06T12:50:47Z</time>
      </trkpt>
      <trkpt lat="45.38596" lon="4.72434">
        <ele>268.50799560547</ele>
        <time>2010-04-06T12:50:49Z</time>
      </trkpt>
      <trkpt lat="45.38593" lon="4.72466">
        <ele>264.46398925781</ele>
        <time>2010-04-06T12:50:56Z</time>
      </trkpt>
      <trkpt lat="45.3859" lon="4.72494">
        <ele>266.51699829102</ele>
        <time>2010-04-06T12:51:03Z</time>
      </trkpt>
      <trkpt lat="45.38586" lon="4.72516">
        <ele>270.86801147461</ele>
        <time>2010-04-06T12:51:08Z</time>
      </trkpt>
      <trkpt lat="45.38583" lon="4.72531">
        <ele>272.59298706055</ele>
        <time>2010-04-06T12:51:11Z</time>
      </trkpt>
      <trkpt lat="45.38575" lon="4.72559">
        <ele>272.80700683594</ele>
        <time>2010-04-06T12:51:17Z</time>
      </trkpt>
      <trkpt lat="45.38566" lon="4.72589">
        <ele>273.79901123047</ele>
        <time>2010-04-06T12:51:23Z</time>
      </trkpt>
      <trkpt lat="45.38565" lon="4.72619">
        <ele>275.09399414062</ele>
        <time>2010-04-06T12:51:28Z</time>
      </trkpt>
      <trkpt lat="45.3856" lon="4.72641">
        <ele>277.0710144043</ele>
        <time>2010-04-06T12:51:32Z</time>
      </trkpt>
      <trkpt lat="45.38545" lon="4.7267">
        <ele>276.83200073242</ele>
        <time>2010-04-06T12:51:39Z</time>
      </trkpt>
      <trkpt lat="45.38531" lon="4.72687">
        <ele>279.57598876953</ele>
        <time>2010-04-06T12:51:44Z</time>
      </trkpt>
      <trkpt lat="45.38504" lon="4.72715">
        <ele>282.3219909668</ele>
        <time>2010-04-06T12:51:53Z</time>
      </trkpt>
      <trkpt lat="45.38488" lon="4.72738">
        <ele>284.32901000977</ele>
        <time>2010-04-06T12:51:59Z</time>
      </trkpt>
      <trkpt lat="45.38472" lon="4.72772">
        <ele>286.33898925781</ele>
        <time>2010-04-06T12:52:07Z</time>
      </trkpt>
      <trkpt lat="45.38462" lon="4.728">
        <ele>286.70599365234</ele>
        <time>2010-04-06T12:52:13Z</time>
      </trkpt>
      <trkpt lat="45.38458" lon="4.7284">
        <ele>287.03900146484</ele>
        <time>2010-04-06T12:52:20Z</time>
      </trkpt>
      <trkpt lat="45.38464" lon="4.7286">
        <ele>287.08099365234</ele>
        <time>2010-04-06T12:52:24Z</time>
      </trkpt>
      <trkpt lat="45.38473" lon="4.72857">
        <ele>287.26901245117</ele>
        <time>2010-04-06T12:52:27Z</time>
      </trkpt>
      <trkpt lat="45.38475" lon="4.72847">
        <ele>287.26901245117</ele>
        <time>2010-04-06T12:52:29Z</time>
      </trkpt>
      <trkpt lat="45.38475" lon="4.7281">
        <ele>291.52398681641</ele>
        <time>2010-04-06T12:52:36Z</time>
      </trkpt>
      <trkpt lat="45.38483" lon="4.72786">
        <ele>294.0719909668</ele>
        <time>2010-04-06T12:52:41Z</time>
      </trkpt>
      <trkpt lat="45.38503" lon="4.72759">
        <ele>296.97399902344</ele>
        <time>2010-04-06T12:52:48Z</time>
      </trkpt>
      <trkpt lat="45.38506" lon="4.72755">
        <ele>297.19000244141</ele>
        <time>2010-04-06T12:52:49Z</time>
      </trkpt>
      <trkpt lat="45.38529" lon="4.72734">
        <ele>298.73999023438</ele>
        <time>2010-04-06T12:52:56Z</time>
      </trkpt>
      <trkpt lat="45.38549" lon="4.72727">
        <ele>300.625</ele>
        <time>2010-04-06T12:53:01Z</time>
      </trkpt>
      <trkpt lat="45.38557" lon="4.72723">
        <ele>300.5299987793</ele>
        <time>2010-04-06T12:53:03Z</time>
      </trkpt>
      <trkpt lat="45.38576" lon="4.72708">
        <ele>301.37600708008</ele>
        <time>2010-04-06T12:53:08Z</time>
      </trkpt>
      <trkpt lat="45.38601" lon="4.72695">
        <ele>304.34201049805</ele>
        <time>2010-04-06T12:53:14Z</time>
      </trkpt>
      <trkpt lat="45.38609" lon="4.72693">
        <ele>304.65600585938</ele>
        <time>2010-04-06T12:53:16Z</time>
      </trkpt>
      <trkpt lat="45.38627" lon="4.72676">
        <ele>306.16400146484</ele>
        <time>2010-04-06T12:53:21Z</time>
      </trkpt>
      <trkpt lat="45.38632" lon="4.72655">
        <ele>307.73300170898</ele>
        <time>2010-04-06T12:53:25Z</time>
      </trkpt>
      <trkpt lat="45.38631" lon="4.72616">
        <ele>310.68301391602</ele>
        <time>2010-04-06T12:53:32Z</time>
      </trkpt>
      <trkpt lat="45.38637" lon="4.72578">
        <ele>312.30899047852</ele>
        <time>2010-04-06T12:53:39Z</time>
      </trkpt>
      <trkpt lat="45.38643" lon="4.72571">
        <ele>312.92700195312</ele>
        <time>2010-04-06T12:53:41Z</time>
      </trkpt>
      <trkpt lat="45.38658" lon="4.7257">
        <ele>313.49700927734</ele>
        <time>2010-04-06T12:53:45Z</time>
      </trkpt>
      <trkpt lat="45.38677" lon="4.72584">
        <ele>313.19500732422</ele>
        <time>2010-04-06T12:53:50Z</time>
      </trkpt>
      <trkpt lat="45.38713" lon="4.72606">
        <ele>313.50799560547</ele>
        <time>2010-04-06T12:53:57Z</time>
      </trkpt>
      <trkpt lat="45.38765" lon="4.72631">
        <ele>313.76800537109</ele>
        <time>2010-04-06T12:54:06Z</time>
      </trkpt>
      <trkpt lat="45.38822" lon="4.72657">
        <ele>314.50900268555</ele>
        <time>2010-04-06T12:54:15Z</time>
      </trkpt>
      <trkpt lat="45.3887" lon="4.7268">
        <ele>315.90301513672</ele>
        <time>2010-04-06T12:54:23Z</time>
      </trkpt>
      <trkpt lat="45.38914" lon="4.727">
        <ele>317.82400512695</ele>
        <time>2010-04-06T12:54:31Z</time>
      </trkpt>
      <trkpt lat="45.38942" lon="4.72711">
        <ele>319.59100341797</ele>
        <time>2010-04-06T12:54:36Z</time>
      </trkpt>
      <trkpt lat="45.38971" lon="4.72704">
        <ele>320.2200012207</ele>
        <time>2010-04-06T12:54:41Z</time>
      </trkpt>
      <trkpt lat="45.3898" lon="4.72691">
        <ele>321.14401245117</ele>
        <time>2010-04-06T12:54:43Z</time>
      </trkpt>
      <trkpt lat="45.39007" lon="4.72627">
        <ele>322.60400390625</ele>
        <time>2010-04-06T12:54:52Z</time>
      </trkpt>
      <trkpt lat="45.39015" lon="4.72608">
        <ele>323.98199462891</ele>
        <time>2010-04-06T12:54:55Z</time>
      </trkpt>
      <trkpt lat="45.39033" lon="4.72562">
        <ele>326.93798828125</ele>
        <time>2010-04-06T12:55:03Z</time>
      </trkpt>
      <trkpt lat="45.39051" lon="4.72509">
        <ele>329.45199584961</ele>
        <time>2010-04-06T12:55:12Z</time>
      </trkpt>
      <trkpt lat="45.39058" lon="4.72472">
        <ele>329.43099975586</ele>
        <time>2010-04-06T12:55:18Z</time>
      </trkpt>
      <trkpt lat="45.39061" lon="4.72419">
        <ele>328.93701171875</ele>
        <time>2010-04-06T12:55:26Z</time>
      </trkpt>
      <trkpt lat="45.39061" lon="4.72397">
        <ele>329.11700439453</ele>
        <time>2010-04-06T12:55:29Z</time>
      </trkpt>
      <trkpt lat="45.39061" lon="4.72331">
        <ele>330.95599365234</ele>
        <time>2010-04-06T12:55:38Z</time>
      </trkpt>
      <trkpt lat="45.39066" lon="4.72286">
        <ele>330.51300048828</ele>
        <time>2010-04-06T12:55:44Z</time>
      </trkpt>
      <trkpt lat="45.39082" lon="4.72244">
        <ele>330.82299804688</ele>
        <time>2010-04-06T12:55:50Z</time>
      </trkpt>
      <trkpt lat="45.39119" lon="4.72188">
        <ele>332.11401367188</ele>
        <time>2010-04-06T12:55:59Z</time>
      </trkpt>
      <trkpt lat="45.39151" lon="4.7214">
        <ele>332.1960144043</ele>
        <time>2010-04-06T12:56:07Z</time>
      </trkpt>
      <trkpt lat="45.39179" lon="4.72095">
        <ele>333.63900756836</ele>
        <time>2010-04-06T12:56:15Z</time>
      </trkpt>
      <trkpt lat="45.39189" lon="4.72081">
        <ele>334.99600219727</ele>
        <time>2010-04-06T12:56:18Z</time>
      </trkpt>
      <trkpt lat="45.39214" lon="4.72043">
        <ele>336.77801513672</ele>
        <time>2010-04-06T12:56:26Z</time>
      </trkpt>
      <trkpt lat="45.39246" lon="4.71993">
        <ele>340.03698730469</ele>
        <time>2010-04-06T12:56:37Z</time>
      </trkpt>
      <trkpt lat="45.39258" lon="4.71975">
        <ele>341.33999633789</ele>
        <time>2010-04-06T12:56:41Z</time>
      </trkpt>
      <trkpt lat="45.39281" lon="4.71946">
        <ele>341.51098632812</ele>
        <time>2010-04-06T12:56:48Z</time>
      </trkpt>
      <trkpt lat="45.39285" lon="4.71941">
        <ele>341.7619934082</ele>
        <time>2010-04-06T12:56:49Z</time>
      </trkpt>
      <trkpt lat="45.39318" lon="4.71909">
        <ele>342.06900024414</ele>
        <time>2010-04-06T12:56:57Z</time>
      </trkpt>
      <trkpt lat="45.39351" lon="4.71877">
        <ele>343.29998779297</ele>
        <time>2010-04-06T12:57:05Z</time>
      </trkpt>
      <trkpt lat="45.39383" lon="4.71848">
        <ele>344.18701171875</ele>
        <time>2010-04-06T12:57:13Z</time>
      </trkpt>
      <trkpt lat="45.39414" lon="4.71819">
        <ele>345.97698974609</ele>
        <time>2010-04-06T12:57:21Z</time>
      </trkpt>
      <trkpt lat="45.39421" lon="4.71812">
        <ele>346.27301025391</ele>
        <time>2010-04-06T12:57:23Z</time>
      </trkpt>
      <trkpt lat="45.39429" lon="4.71805">
        <ele>347.34298706055</ele>
        <time>2010-04-06T12:57:25Z</time>
      </trkpt>
      <trkpt lat="45.39436" lon="4.71797">
        <ele>348.21398925781</ele>
        <time>2010-04-06T12:57:27Z</time>
      </trkpt>
      <trkpt lat="45.3945" lon="4.71768">
        <ele>348.89199829102</ele>
        <time>2010-04-06T12:57:32Z</time>
      </trkpt>
      <trkpt lat="45.39468" lon="4.71721">
        <ele>348.88299560547</ele>
        <time>2010-04-06T12:57:39Z</time>
      </trkpt>
      <trkpt lat="45.39489" lon="4.71664">
        <ele>348.74301147461</ele>
        <time>2010-04-06T12:57:47Z</time>
      </trkpt>
      <trkpt lat="45.39506" lon="4.71621">
        <ele>349.92300415039</ele>
        <time>2010-04-06T12:57:53Z</time>
      </trkpt>
      <trkpt lat="45.39532" lon="4.71554">
        <ele>349.46200561523</ele>
        <time>2010-04-06T12:58:02Z</time>
      </trkpt>
      <trkpt lat="45.39557" lon="4.71493">
        <ele>349.34399414062</ele>
        <time>2010-04-06T12:58:10Z</time>
      </trkpt>
      <trkpt lat="45.39583" lon="4.71431">
        <ele>349.98300170898</ele>
        <time>2010-04-06T12:58:18Z</time>
      </trkpt>
      <trkpt lat="45.39604" lon="4.71373">
        <ele>349.71099853516</ele>
        <time>2010-04-06T12:58:25Z</time>
      </trkpt>
      <trkpt lat="45.39629" lon="4.71296">
        <ele>349.94900512695</ele>
        <time>2010-04-06T12:58:34Z</time>
      </trkpt>
      <trkpt lat="45.39641" lon="4.71274">
        <ele>350.40798950195</ele>
        <time>2010-04-06T12:58:37Z</time>
      </trkpt>
      <trkpt lat="45.39671" lon="4.71247">
        <ele>350.74600219727</ele>
        <time>2010-04-06T12:58:42Z</time>
      </trkpt>
      <trkpt lat="45.39724" lon="4.71222">
        <ele>350.38500976562</ele>
        <time>2010-04-06T12:58:50Z</time>
      </trkpt>
      <trkpt lat="45.39746" lon="4.7121">
        <ele>348.88500976562</ele>
        <time>2010-04-06T12:58:53Z</time>
      </trkpt>
      <trkpt lat="45.3976" lon="4.71199">
        <ele>348.08099365234</ele>
        <time>2010-04-06T12:58:55Z</time>
      </trkpt>
      <trkpt lat="45.398" lon="4.71161">
        <ele>345.51000976562</ele>
        <time>2010-04-06T12:59:00Z</time>
      </trkpt>
      <trkpt lat="45.39809" lon="4.71152">
        <ele>344.64599609375</ele>
        <time>2010-04-06T12:59:01Z</time>
      </trkpt>
      <trkpt lat="45.39832" lon="4.7112">
        <ele>343.4049987793</ele>
        <time>2010-04-06T12:59:04Z</time>
      </trkpt>
      <trkpt lat="45.39842" lon="4.71092">
        <ele>340.76400756836</ele>
        <time>2010-04-06T12:59:06Z</time>
      </trkpt>
      <trkpt lat="45.39876" lon="4.71027">
        <ele>337.90399169922</ele>
        <time>2010-04-06T12:59:11Z</time>
      </trkpt>
      <trkpt lat="45.39912" lon="4.70988">
        <ele>338.91198730469</ele>
        <time>2010-04-06T12:59:15Z</time>
      </trkpt>
      <trkpt lat="45.39939" lon="4.70968">
        <ele>338.22900390625</ele>
        <time>2010-04-06T12:59:18Z</time>
      </trkpt>
      <trkpt lat="45.39955" lon="4.7095">
        <ele>338.07598876953</ele>
        <time>2010-04-06T12:59:20Z</time>
      </trkpt>
      <trkpt lat="45.3999" lon="4.70939">
        <ele>339.31698608398</ele>
        <time>2010-04-06T12:59:24Z</time>
      </trkpt>
      <trkpt lat="45.39999" lon="4.7094">
        <ele>339.52801513672</ele>
        <time>2010-04-06T12:59:25Z</time>
      </trkpt>
      <trkpt lat="45.40052" lon="4.70945">
        <ele>340.40100097656</ele>
        <time>2010-04-06T12:59:32Z</time>
      </trkpt>
      <trkpt lat="45.40092" lon="4.70956">
        <ele>342.17401123047</ele>
        <time>2010-04-06T12:59:38Z</time>
      </trkpt>
      <trkpt lat="45.40136" lon="4.7097">
        <ele>343.81100463867</ele>
        <time>2010-04-06T12:59:45Z</time>
      </trkpt>
      <trkpt lat="45.40173" lon="4.70982">
        <ele>345.58499145508</ele>
        <time>2010-04-06T12:59:51Z</time>
      </trkpt>
      <trkpt lat="45.40197" lon="4.70989">
        <ele>346.22799682617</ele>
        <time>2010-04-06T12:59:55Z</time>
      </trkpt>
      <trkpt lat="45.40231" lon="4.7098">
        <ele>345.58200073242</ele>
        <time>2010-04-06T13:00:00Z</time>
      </trkpt>
      <trkpt lat="45.40247" lon="4.70959">
        <ele>344.61199951172</ele>
        <time>2010-04-06T13:00:03Z</time>
      </trkpt>
      <trkpt lat="45.40255" lon="4.7093">
        <ele>343.60198974609</ele>
        <time>2010-04-06T13:00:06Z</time>
      </trkpt>
      <trkpt lat="45.40257" lon="4.7092">
        <ele>344.75299072266</ele>
        <time>2010-04-06T13:00:07Z</time>
      </trkpt>
      <trkpt lat="45.40258" lon="4.70842">
        <ele>344.3630065918</ele>
        <time>2010-04-06T13:00:15Z</time>
      </trkpt>
      <trkpt lat="45.40259" lon="4.70762">
        <ele>345.13900756836</ele>
        <time>2010-04-06T13:00:23Z</time>
      </trkpt>
      <trkpt lat="45.4026" lon="4.70671">
        <ele>343.58599853516</ele>
        <time>2010-04-06T13:00:31Z</time>
      </trkpt>
      <trkpt lat="45.40262" lon="4.70556">
        <ele>343.03900146484</ele>
        <time>2010-04-06T13:00:41Z</time>
      </trkpt>
      <trkpt lat="45.40263" lon="4.70463">
        <ele>343.83401489258</ele>
        <time>2010-04-06T13:00:50Z</time>
      </trkpt>
      <trkpt lat="45.40265" lon="4.70388">
        <ele>345.77301025391</ele>
        <time>2010-04-06T13:00:58Z</time>
      </trkpt>
      <trkpt lat="45.40266" lon="4.70303">
        <ele>346.92098999023</ele>
        <time>2010-04-06T13:01:07Z</time>
      </trkpt>
      <trkpt lat="45.40267" lon="4.70241">
        <ele>345.19900512695</ele>
        <time>2010-04-06T13:01:13Z</time>
      </trkpt>
      <trkpt lat="45.40258" lon="4.70202">
        <ele>344.25100708008</ele>
        <time>2010-04-06T13:01:17Z</time>
      </trkpt>
      <trkpt lat="45.40237" lon="4.70185">
        <ele>343.57901000977</ele>
        <time>2010-04-06T13:01:20Z</time>
      </trkpt>
      <trkpt lat="45.4021" lon="4.70158">
        <ele>342.58499145508</ele>
        <time>2010-04-06T13:01:24Z</time>
      </trkpt>
      <trkpt lat="45.40204" lon="4.7013">
        <ele>341.8330078125</ele>
        <time>2010-04-06T13:01:26Z</time>
      </trkpt>
      <trkpt lat="45.40213" lon="4.7011">
        <ele>340.66500854492</ele>
        <time>2010-04-06T13:01:28Z</time>
      </trkpt>
      <trkpt lat="45.40222" lon="4.70106">
        <ele>340.54299926758</ele>
        <time>2010-04-06T13:01:29Z</time>
      </trkpt>
      <trkpt lat="45.40237" lon="4.70114">
        <ele>341.73001098633</ele>
        <time>2010-04-06T13:01:31Z</time>
      </trkpt>
      <trkpt lat="45.40255" lon="4.70127">
        <ele>343.2799987793</ele>
        <time>2010-04-06T13:01:34Z</time>
      </trkpt>
      <trkpt lat="45.40268" lon="4.70122">
        <ele>344.19198608398</ele>
        <time>2010-04-06T13:01:36Z</time>
      </trkpt>
      <trkpt lat="45.40279" lon="4.70114">
        <ele>344.9469909668</ele>
        <time>2010-04-06T13:01:38Z</time>
      </trkpt>
      <trkpt lat="45.40303" lon="4.7011">
        <ele>345.95901489258</ele>
        <time>2010-04-06T13:01:42Z</time>
      </trkpt>
      <trkpt lat="45.40334" lon="4.70128">
        <ele>348.10400390625</ele>
        <time>2010-04-06T13:01:48Z</time>
      </trkpt>
      <trkpt lat="45.40371" lon="4.70174">
        <ele>350.98400878906</ele>
        <time>2010-04-06T13:01:57Z</time>
      </trkpt>
      <trkpt lat="45.40406" lon="4.70223">
        <ele>353.09698486328</ele>
        <time>2010-04-06T13:02:06Z</time>
      </trkpt>
      <trkpt lat="45.40437" lon="4.7024">
        <ele>355.07299804688</ele>
        <time>2010-04-06T13:02:12Z</time>
      </trkpt>
      <trkpt lat="45.4047" lon="4.70238">
        <ele>356.69900512695</ele>
        <time>2010-04-06T13:02:18Z</time>
      </trkpt>
      <trkpt lat="45.40502" lon="4.70249">
        <ele>359.01901245117</ele>
        <time>2010-04-06T13:02:24Z</time>
      </trkpt>
      <trkpt lat="45.40511" lon="4.70254">
        <ele>360.13900756836</ele>
        <time>2010-04-06T13:02:26Z</time>
      </trkpt>
      <trkpt lat="45.40545" lon="4.70274">
        <ele>361.06900024414</ele>
        <time>2010-04-06T13:02:33Z</time>
      </trkpt>
      <trkpt lat="45.40563" lon="4.70284">
        <ele>362.17599487305</ele>
        <time>2010-04-06T13:02:37Z</time>
      </trkpt>
      <trkpt lat="45.40593" lon="4.70289">
        <ele>363.68600463867</ele>
        <time>2010-04-06T13:02:43Z</time>
      </trkpt>
      <trkpt lat="45.40599" lon="4.70287">
        <ele>364.70300292969</ele>
        <time>2010-04-06T13:02:44Z</time>
      </trkpt>
      <trkpt lat="45.40643" lon="4.70265">
        <ele>367.28900146484</ele>
        <time>2010-04-06T13:02:53Z</time>
      </trkpt>
      <trkpt lat="45.40691" lon="4.7024">
        <ele>369.99600219727</ele>
        <time>2010-04-06T13:03:03Z</time>
      </trkpt>
      <trkpt lat="45.40713" lon="4.70221">
        <ele>370.87899780273</ele>
        <time>2010-04-06T13:03:08Z</time>
      </trkpt>
      <trkpt lat="45.4073" lon="4.70192">
        <ele>371.125</ele>
        <time>2010-04-06T13:03:13Z</time>
      </trkpt>
      <trkpt lat="45.40752" lon="4.70129">
        <ele>371.9289855957</ele>
        <time>2010-04-06T13:03:21Z</time>
      </trkpt>
      <trkpt lat="45.40774" lon="4.70066">
        <ele>371.84100341797</ele>
        <time>2010-04-06T13:03:28Z</time>
      </trkpt>
      <trkpt lat="45.40799" lon="4.69995">
        <ele>372.30599975586</ele>
        <time>2010-04-06T13:03:36Z</time>
      </trkpt>
      <trkpt lat="45.40824" lon="4.69922">
        <ele>372.20999145508</ele>
        <time>2010-04-06T13:03:44Z</time>
      </trkpt>
      <trkpt lat="45.40847" lon="4.69855">
        <ele>371.96798706055</ele>
        <time>2010-04-06T13:03:51Z</time>
      </trkpt>
      <trkpt lat="45.40869" lon="4.6979">
        <ele>372.83401489258</ele>
        <time>2010-04-06T13:03:58Z</time>
      </trkpt>
      <trkpt lat="45.40886" lon="4.69746">
        <ele>373.86099243164</ele>
        <time>2010-04-06T13:04:03Z</time>
      </trkpt>
      <trkpt lat="45.40913" lon="4.69704">
        <ele>374.35900878906</ele>
        <time>2010-04-06T13:04:09Z</time>
      </trkpt>
      <trkpt lat="45.40956" lon="4.69652">
        <ele>375.77099609375</ele>
        <time>2010-04-06T13:04:18Z</time>
      </trkpt>
      <trkpt lat="45.40997" lon="4.69601">
        <ele>377.64898681641</ele>
        <time>2010-04-06T13:04:27Z</time>
      </trkpt>
      <trkpt lat="45.41027" lon="4.69574">
        <ele>378.62298583984</ele>
        <time>2010-04-06T13:04:33Z</time>
      </trkpt>
      <trkpt lat="45.41066" lon="4.69553">
        <ele>380.51901245117</ele>
        <time>2010-04-06T13:04:40Z</time>
      </trkpt>
      <trkpt lat="45.41095" lon="4.69542">
        <ele>381.85900878906</ele>
        <time>2010-04-06T13:04:45Z</time>
      </trkpt>
      <trkpt lat="45.41118" lon="4.69545">
        <ele>382.42700195312</ele>
        <time>2010-04-06T13:04:49Z</time>
      </trkpt>
      <trkpt lat="45.41144" lon="4.69542">
        <ele>383.80999755859</ele>
        <time>2010-04-06T13:04:54Z</time>
      </trkpt>
      <trkpt lat="45.4117" lon="4.69533">
        <ele>385.25201416016</ele>
        <time>2010-04-06T13:05:00Z</time>
      </trkpt>
      <trkpt lat="45.41184" lon="4.69548">
        <ele>386.25500488281</ele>
        <time>2010-04-06T13:05:04Z</time>
      </trkpt>
      <trkpt lat="45.4119" lon="4.69559">
        <ele>386.69900512695</ele>
        <time>2010-04-06T13:05:06Z</time>
      </trkpt>
      <trkpt lat="45.41195" lon="4.69571">
        <ele>386.67401123047</ele>
        <time>2010-04-06T13:05:08Z</time>
      </trkpt>
      <trkpt lat="45.41218" lon="4.69604">
        <ele>387.20300292969</ele>
        <time>2010-04-06T13:05:14Z</time>
      </trkpt>
      <trkpt lat="45.41249" lon="4.69629">
        <ele>388.68301391602</ele>
        <time>2010-04-06T13:05:20Z</time>
      </trkpt>
      <trkpt lat="45.41287" lon="4.69635">
        <ele>389.94900512695</ele>
        <time>2010-04-06T13:05:26Z</time>
      </trkpt>
      <trkpt lat="45.4131" lon="4.69624">
        <ele>391.43798828125</ele>
        <time>2010-04-06T13:05:30Z</time>
      </trkpt>
      <trkpt lat="45.41325" lon="4.69598">
        <ele>392.82400512695</ele>
        <time>2010-04-06T13:05:34Z</time>
      </trkpt>
      <trkpt lat="45.41335" lon="4.69542">
        <ele>394.80499267578</ele>
        <time>2010-04-06T13:05:41Z</time>
      </trkpt>
      <trkpt lat="45.41344" lon="4.69477">
        <ele>397.33200073242</ele>
        <time>2010-04-06T13:05:49Z</time>
      </trkpt>
      <trkpt lat="45.41355" lon="4.69413">
        <ele>399.75299072266</ele>
        <time>2010-04-06T13:05:57Z</time>
      </trkpt>
      <trkpt lat="45.4136" lon="4.69377">
        <ele>402.42401123047</ele>
        <time>2010-04-06T13:06:02Z</time>
      </trkpt>
      <trkpt lat="45.41368" lon="4.69335">
        <ele>405.13400268555</ele>
        <time>2010-04-06T13:06:09Z</time>
      </trkpt>
      <trkpt lat="45.41378" lon="4.69288">
        <ele>407.04000854492</ele>
        <time>2010-04-06T13:06:18Z</time>
      </trkpt>
      <trkpt lat="45.4138" lon="4.69274">
        <ele>408.38400268555</ele>
        <time>2010-04-06T13:06:21Z</time>
      </trkpt>
      <trkpt lat="45.41389" lon="4.6923">
        <ele>410.34298706055</ele>
        <time>2010-04-06T13:06:30Z</time>
      </trkpt>
      <trkpt lat="45.41393" lon="4.69199">
        <ele>411.80200195312</ele>
        <time>2010-04-06T13:06:36Z</time>
      </trkpt>
      <trkpt lat="45.41396" lon="4.69157">
        <ele>413.27899169922</ele>
        <time>2010-04-06T13:06:43Z</time>
      </trkpt>
      <trkpt lat="45.41399" lon="4.69104">
        <ele>413.95999145508</ele>
        <time>2010-04-06T13:06:50Z</time>
      </trkpt>
      <trkpt lat="45.41402" lon="4.69045">
        <ele>413.38900756836</ele>
        <time>2010-04-06T13:06:57Z</time>
      </trkpt>
      <trkpt lat="45.41402" lon="4.68965">
        <ele>412.18499755859</ele>
        <time>2010-04-06T13:07:06Z</time>
      </trkpt>
      <trkpt lat="45.41404" lon="4.68903">
        <ele>411.02099609375</ele>
        <time>2010-04-06T13:07:12Z</time>
      </trkpt>
      <trkpt lat="45.41408" lon="4.68838">
        <ele>409.5299987793</ele>
        <time>2010-04-06T13:07:18Z</time>
      </trkpt>
      <trkpt lat="45.4141" lon="4.68792">
        <ele>408.16000366211</ele>
        <time>2010-04-06T13:07:22Z</time>
      </trkpt>
      <trkpt lat="45.41414" lon="4.68744">
        <ele>407.43200683594</ele>
        <time>2010-04-06T13:07:26Z</time>
      </trkpt>
      <trkpt lat="45.4142" lon="4.68706">
        <ele>404.29800415039</ele>
        <time>2010-04-06T13:07:29Z</time>
      </trkpt>
      <trkpt lat="45.41425" lon="4.68681">
        <ele>403.67599487305</ele>
        <time>2010-04-06T13:07:31Z</time>
      </trkpt>
      <trkpt lat="45.41432" lon="4.68644">
        <ele>402.10598754883</ele>
        <time>2010-04-06T13:07:34Z</time>
      </trkpt>
      <trkpt lat="45.41437" lon="4.68617">
        <ele>401.23001098633</ele>
        <time>2010-04-06T13:07:36Z</time>
      </trkpt>
      <trkpt lat="45.41446" lon="4.68575">
        <ele>399.12701416016</ele>
        <time>2010-04-06T13:07:39Z</time>
      </trkpt>
      <trkpt lat="45.4146" lon="4.6852">
        <ele>396.60800170898</ele>
        <time>2010-04-06T13:07:43Z</time>
      </trkpt>
      <trkpt lat="45.41472" lon="4.68482">
        <ele>394.93301391602</ele>
        <time>2010-04-06T13:07:46Z</time>
      </trkpt>
      <trkpt lat="45.41489" lon="4.68447">
        <ele>392.4169921875</ele>
        <time>2010-04-06T13:07:49Z</time>
      </trkpt>
      <trkpt lat="45.41499" lon="4.68394">
        <ele>390.63800048828</ele>
        <time>2010-04-06T13:07:53Z</time>
      </trkpt>
      <trkpt lat="45.41496" lon="4.68354">
        <ele>389.71798706055</ele>
        <time>2010-04-06T13:07:56Z</time>
      </trkpt>
      <trkpt lat="45.4149" lon="4.6832">
        <ele>388.93701171875</ele>
        <time>2010-04-06T13:07:59Z</time>
      </trkpt>
      <trkpt lat="45.41497" lon="4.68301">
        <ele>386.82000732422</ele>
        <time>2010-04-06T13:08:01Z</time>
      </trkpt>
      <trkpt lat="45.41513" lon="4.68303">
        <ele>385.9469909668</ele>
        <time>2010-04-06T13:08:03Z</time>
      </trkpt>
      <trkpt lat="45.41526" lon="4.68318">
        <ele>385.44799804688</ele>
        <time>2010-04-06T13:08:05Z</time>
      </trkpt>
      <trkpt lat="45.41539" lon="4.6835">
        <ele>383.02398681641</ele>
        <time>2010-04-06T13:08:08Z</time>
      </trkpt>
      <trkpt lat="45.41545" lon="4.68374">
        <ele>382.35501098633</ele>
        <time>2010-04-06T13:08:10Z</time>
      </trkpt>
      <trkpt lat="45.4157" lon="4.6842">
        <ele>378.85501098633</ele>
        <time>2010-04-06T13:08:15Z</time>
      </trkpt>
      <trkpt lat="45.41577" lon="4.68426">
        <ele>378.75299072266</ele>
        <time>2010-04-06T13:08:16Z</time>
      </trkpt>
      <trkpt lat="45.41595" lon="4.68459">
        <ele>379.20599365234</ele>
        <time>2010-04-06T13:08:20Z</time>
      </trkpt>
      <trkpt lat="45.41596" lon="4.68505">
        <ele>379.66598510742</ele>
        <time>2010-04-06T13:08:25Z</time>
      </trkpt>
      <trkpt lat="45.41593" lon="4.68544">
        <ele>380.75698852539</ele>
        <time>2010-04-06T13:08:30Z</time>
      </trkpt>
      <trkpt lat="45.41592" lon="4.6855">
        <ele>381.46600341797</ele>
        <time>2010-04-06T13:08:31Z</time>
      </trkpt>
      <trkpt lat="45.41589" lon="4.68564">
        <ele>382.48599243164</ele>
        <time>2010-04-06T13:08:33Z</time>
      </trkpt>
      <trkpt lat="45.41585" lon="4.68582">
        <ele>382.86099243164</ele>
        <time>2010-04-06T13:08:36Z</time>
      </trkpt>
      <trkpt lat="45.41584" lon="4.68611">
        <ele>383.59899902344</ele>
        <time>2010-04-06T13:08:41Z</time>
      </trkpt>
      <trkpt lat="45.41588" lon="4.68632">
        <ele>384.00500488281</ele>
        <time>2010-04-06T13:08:45Z</time>
      </trkpt>
      <trkpt lat="45.41595" lon="4.68661">
        <ele>387.26400756836</ele>
        <time>2010-04-06T13:08:50Z</time>
      </trkpt>
      <trkpt lat="45.41602" lon="4.6869">
        <ele>388.94500732422</ele>
        <time>2010-04-06T13:08:55Z</time>
      </trkpt>
      <trkpt lat="45.41609" lon="4.68713">
        <ele>389.45999145508</ele>
        <time>2010-04-06T13:08:59Z</time>
      </trkpt>
      <trkpt lat="45.41611" lon="4.68719">
        <ele>390.09298706055</ele>
        <time>2010-04-06T13:09:00Z</time>
      </trkpt>
      <trkpt lat="45.41613" lon="4.68731">
        <ele>392.01000976562</ele>
        <time>2010-04-06T13:09:02Z</time>
      </trkpt>
      <trkpt lat="45.41623" lon="4.68759">
        <ele>392.18701171875</ele>
        <time>2010-04-06T13:09:07Z</time>
      </trkpt>
      <trkpt lat="45.41635" lon="4.68776">
        <ele>393.94400024414</ele>
        <time>2010-04-06T13:09:11Z</time>
      </trkpt>
      <trkpt lat="45.41655" lon="4.68802">
        <ele>392.49099731445</ele>
        <time>2010-04-06T13:09:17Z</time>
      </trkpt>
      <trkpt lat="45.41663" lon="4.68814">
        <ele>392.43399047852</ele>
        <time>2010-04-06T13:09:19Z</time>
      </trkpt>
      <trkpt lat="45.41672" lon="4.68824">
        <ele>392.45599365234</ele>
        <time>2010-04-06T13:09:21Z</time>
      </trkpt>
      <trkpt lat="45.41713" lon="4.68853">
        <ele>391.88500976562</ele>
        <time>2010-04-06T13:09:28Z</time>
      </trkpt>
      <trkpt lat="45.41719" lon="4.68858">
        <ele>391.29699707031</ele>
        <time>2010-04-06T13:09:29Z</time>
      </trkpt>
      <trkpt lat="45.41767" lon="4.68879">
        <ele>389.85800170898</ele>
        <time>2010-04-06T13:09:36Z</time>
      </trkpt>
      <trkpt lat="45.41792" lon="4.68886">
        <ele>389.93200683594</ele>
        <time>2010-04-06T13:09:40Z</time>
      </trkpt>
      <trkpt lat="45.41797" lon="4.68887">
        <ele>389.59799194336</ele>
        <time>2010-04-06T13:09:41Z</time>
      </trkpt>
      <trkpt lat="45.41811" lon="4.68896">
        <ele>390.15100097656</ele>
        <time>2010-04-06T13:09:44Z</time>
      </trkpt>
      <trkpt lat="45.41822" lon="4.68901">
        <ele>389.58801269531</ele>
        <time>2010-04-06T13:09:46Z</time>
      </trkpt>
      <trkpt lat="45.41838" lon="4.68915">
        <ele>389.06500244141</ele>
        <time>2010-04-06T13:09:51Z</time>
      </trkpt>
      <trkpt lat="45.41846" lon="4.68922">
        <ele>389.17401123047</ele>
        <time>2010-04-06T13:09:56Z</time>
      </trkpt>
      <trkpt lat="45.41851" lon="4.68925">
        <ele>389.87799072266</ele>
        <time>2010-04-06T13:09:59Z</time>
      </trkpt>
      <trkpt lat="45.41852" lon="4.68926">
        <ele>389.63900756836</ele>
        <time>2010-04-06T13:10:00Z</time>
      </trkpt>
      <trkpt lat="45.41853" lon="4.68927">
        <ele>389.38400268555</ele>
        <time>2010-04-06T13:10:01Z</time>
      </trkpt>
      <trkpt lat="45.41855" lon="4.68923">
        <ele>388.86099243164</ele>
        <time>2010-04-06T13:10:05Z</time>
      </trkpt>
      <trkpt lat="45.41854" lon="4.68923">
        <ele>389.7799987793</ele>
        <time>2010-04-06T13:10:06Z</time>
      </trkpt>
      <trkpt lat="45.41846" lon="4.68922">
        <ele>388.97601318359</ele>
        <time>2010-04-06T13:10:12Z</time>
      </trkpt>
      <trkpt lat="45.41845" lon="4.68926">
        <ele>388.21600341797</ele>
        <time>2010-04-06T13:10:16Z</time>
      </trkpt>
      <trkpt lat="45.41849" lon="4.68929">
        <ele>389.47799682617</ele>
        <time>2010-04-06T13:10:21Z</time>
      </trkpt>
      <trkpt lat="45.41851" lon="4.68921">
        <ele>389.42401123047</ele>
        <time>2010-04-06T13:10:26Z</time>
      </trkpt>
      <trkpt lat="45.41847" lon="4.6892">
        <ele>389.38198852539</ele>
        <time>2010-04-06T13:10:30Z</time>
      </trkpt>
      <trkpt lat="45.41846" lon="4.68923">
        <ele>388.52499389648</ele>
        <time>2010-04-06T13:10:34Z</time>
      </trkpt>
      <trkpt lat="45.41847" lon="4.68928">
        <ele>388.38400268555</ele>
        <time>2010-04-06T13:13:16Z</time>
      </trkpt>
      <trkpt lat="45.41846" lon="4.6893">
        <ele>388.28900146484</ele>
        <time>2010-04-06T13:13:17Z</time>
      </trkpt>
      <trkpt lat="45.41843" lon="4.68946">
        <ele>387.37399291992</ele>
        <time>2010-04-06T13:13:21Z</time>
      </trkpt>
      <trkpt lat="45.41842" lon="4.68957">
        <ele>387.06799316406</ele>
        <time>2010-04-06T13:13:23Z</time>
      </trkpt>
      <trkpt lat="45.41841" lon="4.6899">
        <ele>385.56201171875</ele>
        <time>2010-04-06T13:13:28Z</time>
      </trkpt>
      <trkpt lat="45.41841" lon="4.68998">
        <ele>385.51000976562</ele>
        <time>2010-04-06T13:13:29Z</time>
      </trkpt>
      <trkpt lat="45.4184" lon="4.69035">
        <ele>384.54901123047</ele>
        <time>2010-04-06T13:13:34Z</time>
      </trkpt>
      <trkpt lat="45.41839" lon="4.6904">
        <ele>385.3630065918</ele>
        <time>2010-04-06T13:13:35Z</time>
      </trkpt>
      <trkpt lat="45.41833" lon="4.69045">
        <ele>385.02398681641</ele>
        <time>2010-04-06T13:13:39Z</time>
      </trkpt>
      <trkpt lat="45.4183" lon="4.69043">
        <ele>384.50601196289</ele>
        <time>2010-04-06T13:13:43Z</time>
      </trkpt>
      <trkpt lat="45.41829" lon="4.6904">
        <ele>383.95401000977</ele>
        <time>2010-04-06T13:13:57Z</time>
      </trkpt>
      <trkpt lat="45.41829" lon="4.6904">
        <ele>384.04501342773</ele>
        <time>2010-04-06T13:13:58Z</time>
      </trkpt>
      <trkpt lat="45.41826" lon="4.69042">
        <ele>383.88800048828</ele>
        <time>2010-04-06T13:15:16Z</time>
      </trkpt>
      <trkpt lat="45.41826" lon="4.69042">
        <ele>383.89801025391</ele>
        <time>2010-04-06T13:15:17Z</time>
      </trkpt>
      <trkpt lat="45.4183" lon="4.69044">
        <ele>383.60000610352</ele>
        <time>2010-04-06T13:17:21Z</time>
      </trkpt>
      <trkpt lat="45.4183" lon="4.69045">
        <ele>383.34399414062</ele>
        <time>2010-04-06T13:17:22Z</time>
      </trkpt>
      <trkpt lat="45.41831" lon="4.69047">
        <ele>383.73199462891</ele>
        <time>2010-04-06T13:17:27Z</time>
      </trkpt>
      <trkpt lat="45.41832" lon="4.69047">
        <ele>383.75399780273</ele>
        <time>2010-04-06T13:17:30Z</time>
      </trkpt>
      <trkpt lat="45.41837" lon="4.69043">
        <ele>383.87399291992</ele>
        <time>2010-04-06T13:18:43Z</time>
      </trkpt>
      <trkpt lat="45.4184" lon="4.69035">
        <ele>383.9700012207</ele>
        <time>2010-04-06T13:18:48Z</time>
      </trkpt>
      <trkpt lat="45.41841" lon="4.69029">
        <ele>384.14099121094</ele>
        <time>2010-04-06T13:18:50Z</time>
      </trkpt>
      <trkpt lat="45.4184" lon="4.69009">
        <ele>384.44100952148</ele>
        <time>2010-04-06T13:18:55Z</time>
      </trkpt>
      <trkpt lat="45.4184" lon="4.68974">
        <ele>385.35800170898</ele>
        <time>2010-04-06T13:19:02Z</time>
      </trkpt>
      <trkpt lat="45.41842" lon="4.6894">
        <ele>386.24700927734</ele>
        <time>2010-04-06T13:19:08Z</time>
      </trkpt>
      <trkpt lat="45.41848" lon="4.68904">
        <ele>386.92300415039</ele>
        <time>2010-04-06T13:19:15Z</time>
      </trkpt>
      <trkpt lat="45.41856" lon="4.68873">
        <ele>389.18099975586</ele>
        <time>2010-04-06T13:19:21Z</time>
      </trkpt>
      <trkpt lat="45.41864" lon="4.68846">
        <ele>390.55499267578</ele>
        <time>2010-04-06T13:19:26Z</time>
      </trkpt>
      <trkpt lat="45.4187" lon="4.68808">
        <ele>391.99398803711</ele>
        <time>2010-04-06T13:19:33Z</time>
      </trkpt>
      <trkpt lat="45.41874" lon="4.68768">
        <ele>393.1369934082</ele>
        <time>2010-04-06T13:19:40Z</time>
      </trkpt>
      <trkpt lat="45.41875" lon="4.68747">
        <ele>394.48199462891</ele>
        <time>2010-04-06T13:19:44Z</time>
      </trkpt>
      <trkpt lat="45.41876" lon="4.68726">
        <ele>396.47399902344</ele>
        <time>2010-04-06T13:19:48Z</time>
      </trkpt>
      <trkpt lat="45.41878" lon="4.68695">
        <ele>396.98199462891</ele>
        <time>2010-04-06T13:19:54Z</time>
      </trkpt>
      <trkpt lat="45.41882" lon="4.68653">
        <ele>398.57000732422</ele>
        <time>2010-04-06T13:20:02Z</time>
      </trkpt>
      <trkpt lat="45.41888" lon="4.68616">
        <ele>401.07501220703</ele>
        <time>2010-04-06T13:20:09Z</time>
      </trkpt>
      <trkpt lat="45.41898" lon="4.68585">
        <ele>403.36599731445</ele>
        <time>2010-04-06T13:20:16Z</time>
      </trkpt>
      <trkpt lat="45.41906" lon="4.68559">
        <ele>406.7919921875</ele>
        <time>2010-04-06T13:20:22Z</time>
      </trkpt>
      <trkpt lat="45.41918" lon="4.68521">
        <ele>409.61199951172</ele>
        <time>2010-04-06T13:20:31Z</time>
      </trkpt>
      <trkpt lat="45.41926" lon="4.68503">
        <ele>411.69198608398</ele>
        <time>2010-04-06T13:20:37Z</time>
      </trkpt>
      <trkpt lat="45.41927" lon="4.685">
        <ele>411.92001342773</ele>
        <time>2010-04-06T13:20:40Z</time>
      </trkpt>
      <trkpt lat="45.41929" lon="4.68497">
        <ele>411.125</ele>
        <time>2010-04-06T13:20:49Z</time>
      </trkpt>
      <trkpt lat="45.41927" lon="4.68485">
        <ele>411.52398681641</ele>
        <time>2010-04-06T13:20:54Z</time>
      </trkpt>
      <trkpt lat="45.41911" lon="4.68454">
        <ele>412.7619934082</ele>
        <time>2010-04-06T13:21:02Z</time>
      </trkpt>
      <trkpt lat="45.41892" lon="4.68417">
        <ele>413.28500366211</ele>
        <time>2010-04-06T13:21:10Z</time>
      </trkpt>
      <trkpt lat="45.41867" lon="4.68371">
        <ele>416.46301269531</ele>
        <time>2010-04-06T13:21:20Z</time>
      </trkpt>
      <trkpt lat="45.41851" lon="4.68336">
        <ele>418.77899169922</ele>
        <time>2010-04-06T13:21:28Z</time>
      </trkpt>
      <trkpt lat="45.41837" lon="4.68303">
        <ele>420.16900634766</ele>
        <time>2010-04-06T13:21:35Z</time>
      </trkpt>
      <trkpt lat="45.41824" lon="4.68264">
        <ele>421.41400146484</ele>
        <time>2010-04-06T13:21:42Z</time>
      </trkpt>
      <trkpt lat="45.41814" lon="4.6824">
        <ele>424.82400512695</ele>
        <time>2010-04-06T13:21:47Z</time>
      </trkpt>
      <trkpt lat="45.41804" lon="4.68211">
        <ele>423.3219909668</ele>
        <time>2010-04-06T13:21:53Z</time>
      </trkpt>
      <trkpt lat="45.41792" lon="4.68176">
        <ele>424.71499633789</ele>
        <time>2010-04-06T13:22:00Z</time>
      </trkpt>
      <trkpt lat="45.41787" lon="4.68152">
        <ele>425.72698974609</ele>
        <time>2010-04-06T13:22:04Z</time>
      </trkpt>
      <trkpt lat="45.41781" lon="4.68117">
        <ele>426.53100585938</ele>
        <time>2010-04-06T13:22:10Z</time>
      </trkpt>
      <trkpt lat="45.41784" lon="4.68106">
        <ele>427.41400146484</ele>
        <time>2010-04-06T13:22:12Z</time>
      </trkpt>
      <trkpt lat="45.41813" lon="4.68042">
        <ele>429.47698974609</ele>
        <time>2010-04-06T13:22:24Z</time>
      </trkpt>
      <trkpt lat="45.41836" lon="4.67992">
        <ele>430.70401000977</ele>
        <time>2010-04-06T13:22:33Z</time>
      </trkpt>
      <trkpt lat="45.41843" lon="4.67975">
        <ele>431.39801025391</ele>
        <time>2010-04-06T13:22:36Z</time>
      </trkpt>
      <trkpt lat="45.41875" lon="4.67911">
        <ele>434.1669921875</ele>
        <time>2010-04-06T13:22:48Z</time>
      </trkpt>
      <trkpt lat="45.41898" lon="4.67859">
        <ele>436.78100585938</ele>
        <time>2010-04-06T13:22:58Z</time>
      </trkpt>
      <trkpt lat="45.41897" lon="4.67831">
        <ele>438.74700927734</ele>
        <time>2010-04-06T13:23:03Z</time>
      </trkpt>
      <trkpt lat="45.41889" lon="4.67818">
        <ele>439.12701416016</ele>
        <time>2010-04-06T13:23:06Z</time>
      </trkpt>
      <trkpt lat="45.4188" lon="4.67806">
        <ele>439.77301025391</ele>
        <time>2010-04-06T13:23:09Z</time>
      </trkpt>
      <trkpt lat="45.41866" lon="4.67802">
        <ele>439.24200439453</ele>
        <time>2010-04-06T13:23:13Z</time>
      </trkpt>
      <trkpt lat="45.41859" lon="4.67811">
        <ele>439.78799438477</ele>
        <time>2010-04-06T13:23:15Z</time>
      </trkpt>
      <trkpt lat="45.41834" lon="4.67845">
        <ele>440.27700805664</ele>
        <time>2010-04-06T13:23:22Z</time>
      </trkpt>
      <trkpt lat="45.41819" lon="4.6786">
        <ele>441.7080078125</ele>
        <time>2010-04-06T13:23:26Z</time>
      </trkpt>
      <trkpt lat="45.41793" lon="4.67873">
        <ele>442.95901489258</ele>
        <time>2010-04-06T13:23:32Z</time>
      </trkpt>
      <trkpt lat="45.41777" lon="4.67874">
        <ele>443.49398803711</ele>
        <time>2010-04-06T13:23:37Z</time>
      </trkpt>
      <trkpt lat="45.41774" lon="4.67873">
        <ele>444.21899414062</ele>
        <time>2010-04-06T13:23:41Z</time>
      </trkpt>
      <trkpt lat="45.41771" lon="4.67873">
        <ele>444.81900024414</ele>
        <time>2010-04-06T13:23:52Z</time>
      </trkpt>
      <trkpt lat="45.41768" lon="4.67872">
        <ele>445.16299438477</ele>
        <time>2010-04-06T13:23:53Z</time>
      </trkpt>
      <trkpt lat="45.41756" lon="4.67866">
        <ele>446.2200012207</ele>
        <time>2010-04-06T13:23:57Z</time>
      </trkpt>
      <trkpt lat="45.41733" lon="4.67846">
        <ele>446.28100585938</ele>
        <time>2010-04-06T13:24:04Z</time>
      </trkpt>
      <trkpt lat="45.4173" lon="4.67842">
        <ele>446.57800292969</ele>
        <time>2010-04-06T13:24:05Z</time>
      </trkpt>
      <trkpt lat="45.4171" lon="4.67797">
        <ele>448.52899169922</ele>
        <time>2010-04-06T13:24:14Z</time>
      </trkpt>
      <trkpt lat="45.41707" lon="4.67791">
        <ele>448.72698974609</ele>
        <time>2010-04-06T13:24:15Z</time>
      </trkpt>
      <trkpt lat="45.41696" lon="4.67751">
        <ele>450.40600585938</ele>
        <time>2010-04-06T13:24:22Z</time>
      </trkpt>
      <trkpt lat="45.41685" lon="4.67711">
        <ele>451.8039855957</ele>
        <time>2010-04-06T13:24:29Z</time>
      </trkpt>
      <trkpt lat="45.41675" lon="4.67672">
        <ele>454.70300292969</ele>
        <time>2010-04-06T13:24:36Z</time>
      </trkpt>
      <trkpt lat="45.41669" lon="4.6765">
        <ele>455.71499633789</ele>
        <time>2010-04-06T13:24:40Z</time>
      </trkpt>
      <trkpt lat="45.41664" lon="4.67628">
        <ele>457.34399414062</ele>
        <time>2010-04-06T13:24:44Z</time>
      </trkpt>
      <trkpt lat="45.41656" lon="4.67593">
        <ele>457.82501220703</ele>
        <time>2010-04-06T13:24:50Z</time>
      </trkpt>
      <trkpt lat="45.4165" lon="4.67564">
        <ele>459.86199951172</ele>
        <time>2010-04-06T13:24:55Z</time>
      </trkpt>
      <trkpt lat="45.41644" lon="4.67518">
        <ele>459.89999389648</ele>
        <time>2010-04-06T13:25:03Z</time>
      </trkpt>
      <trkpt lat="45.4164" lon="4.67473">
        <ele>461.66198730469</ele>
        <time>2010-04-06T13:25:11Z</time>
      </trkpt>
      <trkpt lat="45.41636" lon="4.67419">
        <ele>463.25900268555</ele>
        <time>2010-04-06T13:25:20Z</time>
      </trkpt>
      <trkpt lat="45.41632" lon="4.67351">
        <ele>465.48300170898</ele>
        <time>2010-04-06T13:25:31Z</time>
      </trkpt>
      <trkpt lat="45.41629" lon="4.67304">
        <ele>466.24700927734</ele>
        <time>2010-04-06T13:25:39Z</time>
      </trkpt>
      <trkpt lat="45.41628" lon="4.67261">
        <ele>468.03399658203</ele>
        <time>2010-04-06T13:25:46Z</time>
      </trkpt>
      <trkpt lat="45.41627" lon="4.67255">
        <ele>468.03799438477</ele>
        <time>2010-04-06T13:25:47Z</time>
      </trkpt>
      <trkpt lat="45.41626" lon="4.67224">
        <ele>469.72100830078</ele>
        <time>2010-04-06T13:25:52Z</time>
      </trkpt>
      <trkpt lat="45.41622" lon="4.67161">
        <ele>471.29299926758</ele>
        <time>2010-04-06T13:26:02Z</time>
      </trkpt>
      <trkpt lat="45.4162" lon="4.67111">
        <ele>473.71099853516</ele>
        <time>2010-04-06T13:26:10Z</time>
      </trkpt>
      <trkpt lat="45.41619" lon="4.67079">
        <ele>475.34399414062</ele>
        <time>2010-04-06T13:26:15Z</time>
      </trkpt>
      <trkpt lat="45.41623" lon="4.67044">
        <ele>476.98901367188</ele>
        <time>2010-04-06T13:26:20Z</time>
      </trkpt>
      <trkpt lat="45.41629" lon="4.66986">
        <ele>479.0719909668</ele>
        <time>2010-04-06T13:26:29Z</time>
      </trkpt>
      <trkpt lat="45.41637" lon="4.66921">
        <ele>482.60400390625</ele>
        <time>2010-04-06T13:26:39Z</time>
      </trkpt>
      <trkpt lat="45.41644" lon="4.66876">
        <ele>484.09298706055</ele>
        <time>2010-04-06T13:26:46Z</time>
      </trkpt>
      <trkpt lat="45.41656" lon="4.66859">
        <ele>485.39898681641</ele>
        <time>2010-04-06T13:26:50Z</time>
      </trkpt>
      <trkpt lat="45.41667" lon="4.66866">
        <ele>485.82598876953</ele>
        <time>2010-04-06T13:26:53Z</time>
      </trkpt>
      <trkpt lat="45.41671" lon="4.6689">
        <ele>486.62799072266</ele>
        <time>2010-04-06T13:26:57Z</time>
      </trkpt>
      <trkpt lat="45.41666" lon="4.66971">
        <ele>489.0419921875</ele>
        <time>2010-04-06T13:27:09Z</time>
      </trkpt>
      <trkpt lat="45.4167" lon="4.67019">
        <ele>492.03799438477</ele>
        <time>2010-04-06T13:27:16Z</time>
      </trkpt>
      <trkpt lat="45.41681" lon="4.67068">
        <ele>493.3030090332</ele>
        <time>2010-04-06T13:27:24Z</time>
      </trkpt>
      <trkpt lat="45.41687" lon="4.67086">
        <ele>494.75</ele>
        <time>2010-04-06T13:27:27Z</time>
      </trkpt>
      <trkpt lat="45.41703" lon="4.67112">
        <ele>496.54501342773</ele>
        <time>2010-04-06T13:27:32Z</time>
      </trkpt>
      <trkpt lat="45.41724" lon="4.67139">
        <ele>496.58700561523</ele>
        <time>2010-04-06T13:27:38Z</time>
      </trkpt>
      <trkpt lat="45.41737" lon="4.67149">
        <ele>499.03500366211</ele>
        <time>2010-04-06T13:27:41Z</time>
      </trkpt>
      <trkpt lat="45.41761" lon="4.67149">
        <ele>497.6669921875</ele>
        <time>2010-04-06T13:27:46Z</time>
      </trkpt>
      <trkpt lat="45.4177" lon="4.67144">
        <ele>498.07598876953</ele>
        <time>2010-04-06T13:27:48Z</time>
      </trkpt>
      <trkpt lat="45.41779" lon="4.67136">
        <ele>497.52398681641</ele>
        <time>2010-04-06T13:27:50Z</time>
      </trkpt>
      <trkpt lat="45.41793" lon="4.67109">
        <ele>499.38900756836</ele>
        <time>2010-04-06T13:27:55Z</time>
      </trkpt>
      <trkpt lat="45.41795" lon="4.67096">
        <ele>500.96499633789</ele>
        <time>2010-04-06T13:27:57Z</time>
      </trkpt>
      <trkpt lat="45.41795" lon="4.67074">
        <ele>502.54000854492</ele>
        <time>2010-04-06T13:28:00Z</time>
      </trkpt>
      <trkpt lat="45.41798" lon="4.67018">
        <ele>504.3039855957</ele>
        <time>2010-04-06T13:28:08Z</time>
      </trkpt>
      <trkpt lat="45.41803" lon="4.66967">
        <ele>505.73599243164</ele>
        <time>2010-04-06T13:28:16Z</time>
      </trkpt>
      <trkpt lat="45.41804" lon="4.66921">
        <ele>507.75900268555</ele>
        <time>2010-04-06T13:28:23Z</time>
      </trkpt>
      <trkpt lat="45.41806" lon="4.66851">
        <ele>508.45999145508</ele>
        <time>2010-04-06T13:28:32Z</time>
      </trkpt>
      <trkpt lat="45.41809" lon="4.66778">
        <ele>511.0539855957</ele>
        <time>2010-04-06T13:28:41Z</time>
      </trkpt>
      <trkpt lat="45.41813" lon="4.66723">
        <ele>509.17999267578</ele>
        <time>2010-04-06T13:28:48Z</time>
      </trkpt>
      <trkpt lat="45.41814" lon="4.66708">
        <ele>510.57800292969</ele>
        <time>2010-04-06T13:28:50Z</time>
      </trkpt>
      <trkpt lat="45.41825" lon="4.66655">
        <ele>512.65802001953</ele>
        <time>2010-04-06T13:28:57Z</time>
      </trkpt>
      <trkpt lat="45.41848" lon="4.66609">
        <ele>514.35900878906</ele>
        <time>2010-04-06T13:29:04Z</time>
      </trkpt>
      <trkpt lat="45.41881" lon="4.66575">
        <ele>514.95202636719</ele>
        <time>2010-04-06T13:29:11Z</time>
      </trkpt>
      <trkpt lat="45.41924" lon="4.66533">
        <ele>515.98901367188</ele>
        <time>2010-04-06T13:29:20Z</time>
      </trkpt>
      <trkpt lat="45.41944" lon="4.66504">
        <ele>518.06896972656</ele>
        <time>2010-04-06T13:29:25Z</time>
      </trkpt>
      <trkpt lat="45.41978" lon="4.66438">
        <ele>520.80297851562</ele>
        <time>2010-04-06T13:29:35Z</time>
      </trkpt>
      <trkpt lat="45.42006" lon="4.66378">
        <ele>522.54400634766</ele>
        <time>2010-04-06T13:29:44Z</time>
      </trkpt>
      <trkpt lat="45.42038" lon="4.66327">
        <ele>525.59497070312</ele>
        <time>2010-04-06T13:29:53Z</time>
      </trkpt>
      <trkpt lat="45.42043" lon="4.66323">
        <ele>525.71697998047</ele>
        <time>2010-04-06T13:29:54Z</time>
      </trkpt>
      <trkpt lat="45.42073" lon="4.66309">
        <ele>526.84301757812</ele>
        <time>2010-04-06T13:30:00Z</time>
      </trkpt>
      <trkpt lat="45.42128" lon="4.66307">
        <ele>529.79901123047</ele>
        <time>2010-04-06T13:30:10Z</time>
      </trkpt>
      <trkpt lat="45.42165" lon="4.66294">
        <ele>531.46099853516</ele>
        <time>2010-04-06T13:30:17Z</time>
      </trkpt>
      <trkpt lat="45.42203" lon="4.66266">
        <ele>533.25299072266</ele>
        <time>2010-04-06T13:30:25Z</time>
      </trkpt>
      <trkpt lat="45.42245" lon="4.66235">
        <ele>536.52502441406</ele>
        <time>2010-04-06T13:30:34Z</time>
      </trkpt>
      <trkpt lat="45.42286" lon="4.66214">
        <ele>539.48400878906</ele>
        <time>2010-04-06T13:30:42Z</time>
      </trkpt>
      <trkpt lat="45.42331" lon="4.6621">
        <ele>540.89501953125</ele>
        <time>2010-04-06T13:30:50Z</time>
      </trkpt>
      <trkpt lat="45.42358" lon="4.66209">
        <ele>542.26300048828</ele>
        <time>2010-04-06T13:30:55Z</time>
      </trkpt>
      <trkpt lat="45.42392" lon="4.66195">
        <ele>541.42602539062</ele>
        <time>2010-04-06T13:31:01Z</time>
      </trkpt>
      <trkpt lat="45.42409" lon="4.66167">
        <ele>541.5009765625</ele>
        <time>2010-04-06T13:31:05Z</time>
      </trkpt>
      <trkpt lat="45.42432" lon="4.66103">
        <ele>540.86199951172</ele>
        <time>2010-04-06T13:31:12Z</time>
      </trkpt>
      <trkpt lat="45.42463" lon="4.6607">
        <ele>541.06201171875</ele>
        <time>2010-04-06T13:31:17Z</time>
      </trkpt>
      <trkpt lat="45.4247" lon="4.66066">
        <ele>540.67199707031</ele>
        <time>2010-04-06T13:31:18Z</time>
      </trkpt>
      <trkpt lat="45.42523" lon="4.66046">
        <ele>541.03399658203</ele>
        <time>2010-04-06T13:31:25Z</time>
      </trkpt>
      <trkpt lat="45.42563" lon="4.66043">
        <ele>543.17297363281</ele>
        <time>2010-04-06T13:31:31Z</time>
      </trkpt>
      <trkpt lat="45.42575" lon="4.66043">
        <ele>543.95397949219</ele>
        <time>2010-04-06T13:31:33Z</time>
      </trkpt>
      <trkpt lat="45.42621" lon="4.66047">
        <ele>546.45697021484</ele>
        <time>2010-04-06T13:31:41Z</time>
      </trkpt>
      <trkpt lat="45.42658" lon="4.6606">
        <ele>547.55999755859</ele>
        <time>2010-04-06T13:31:48Z</time>
      </trkpt>
      <trkpt lat="45.42669" lon="4.66064">
        <ele>548.72302246094</ele>
        <time>2010-04-06T13:31:50Z</time>
      </trkpt>
      <trkpt lat="45.42705" lon="4.66082">
        <ele>550.18200683594</ele>
        <time>2010-04-06T13:31:57Z</time>
      </trkpt>
      <trkpt lat="45.42751" lon="4.66128">
        <ele>554.05999755859</ele>
        <time>2010-04-06T13:32:07Z</time>
      </trkpt>
      <trkpt lat="45.42756" lon="4.66132">
        <ele>554.09997558594</ele>
        <time>2010-04-06T13:32:08Z</time>
      </trkpt>
      <trkpt lat="45.42778" lon="4.66136">
        <ele>555.74499511719</ele>
        <time>2010-04-06T13:32:12Z</time>
      </trkpt>
      <trkpt lat="45.42792" lon="4.66124">
        <ele>555.76599121094</ele>
        <time>2010-04-06T13:32:15Z</time>
      </trkpt>
      <trkpt lat="45.42802" lon="4.66094">
        <ele>555.97998046875</ele>
        <time>2010-04-06T13:32:19Z</time>
      </trkpt>
      <trkpt lat="45.42819" lon="4.66025">
        <ele>557.35198974609</ele>
        <time>2010-04-06T13:32:28Z</time>
      </trkpt>
      <trkpt lat="45.42847" lon="4.6596">
        <ele>559.8740234375</ele>
        <time>2010-04-06T13:32:38Z</time>
      </trkpt>
      <trkpt lat="45.42849" lon="4.65954">
        <ele>560.16998291016</ele>
        <time>2010-04-06T13:32:39Z</time>
      </trkpt>
      <trkpt lat="45.42851" lon="4.65929">
        <ele>560.88500976562</ele>
        <time>2010-04-06T13:32:43Z</time>
      </trkpt>
      <trkpt lat="45.42841" lon="4.65927">
        <ele>560.53698730469</ele>
        <time>2010-04-06T13:32:46Z</time>
      </trkpt>
      <trkpt lat="45.42825" lon="4.65943">
        <ele>563.23699951172</ele>
        <time>2010-04-06T13:32:52Z</time>
      </trkpt>
      <trkpt lat="45.42807" lon="4.65969">
        <ele>564.80200195312</ele>
        <time>2010-04-06T13:32:58Z</time>
      </trkpt>
      <trkpt lat="45.42793" lon="4.65983">
        <ele>566.66802978516</ele>
        <time>2010-04-06T13:33:02Z</time>
      </trkpt>
      <trkpt lat="45.42766" lon="4.65994">
        <ele>568.80798339844</ele>
        <time>2010-04-06T13:33:09Z</time>
      </trkpt>
      <trkpt lat="45.42742" lon="4.65994">
        <ele>568.95202636719</ele>
        <time>2010-04-06T13:33:16Z</time>
      </trkpt>
      <trkpt lat="45.42722" lon="4.65983">
        <ele>572.92498779297</ele>
        <time>2010-04-06T13:33:22Z</time>
      </trkpt>
      <trkpt lat="45.42719" lon="4.65982">
        <ele>572.65698242188</ele>
        <time>2010-04-06T13:33:23Z</time>
      </trkpt>
      <trkpt lat="45.42679" lon="4.65961">
        <ele>575.19702148438</ele>
        <time>2010-04-06T13:33:35Z</time>
      </trkpt>
      <trkpt lat="45.42645" lon="4.65944">
        <ele>576.66302490234</ele>
        <time>2010-04-06T13:33:46Z</time>
      </trkpt>
      <trkpt lat="45.42616" lon="4.65933">
        <ele>579.75799560547</ele>
        <time>2010-04-06T13:33:55Z</time>
      </trkpt>
      <trkpt lat="45.42591" lon="4.65926">
        <ele>582.91900634766</ele>
        <time>2010-04-06T13:34:03Z</time>
      </trkpt>
      <trkpt lat="45.42567" lon="4.65907">
        <ele>583.94000244141</ele>
        <time>2010-04-06T13:34:12Z</time>
      </trkpt>
      <trkpt lat="45.42554" lon="4.65894">
        <ele>585.97399902344</ele>
        <time>2010-04-06T13:34:17Z</time>
      </trkpt>
      <trkpt lat="45.42549" lon="4.65889">
        <ele>584.38897705078</ele>
        <time>2010-04-06T13:34:19Z</time>
      </trkpt>
      <trkpt lat="45.42536" lon="4.65876">
        <ele>587.15197753906</ele>
        <time>2010-04-06T13:34:24Z</time>
      </trkpt>
      <trkpt lat="45.42511" lon="4.65848">
        <ele>590.08001708984</ele>
        <time>2010-04-06T13:34:33Z</time>
      </trkpt>
      <trkpt lat="45.4249" lon="4.65819">
        <ele>591.67401123047</ele>
        <time>2010-04-06T13:34:42Z</time>
      </trkpt>
      <trkpt lat="45.42467" lon="4.65781">
        <ele>593.89300537109</ele>
        <time>2010-04-06T13:34:53Z</time>
      </trkpt>
      <trkpt lat="45.42452" lon="4.65745">
        <ele>596.23602294922</ele>
        <time>2010-04-06T13:35:02Z</time>
      </trkpt>
      <trkpt lat="45.42447" lon="4.65732">
        <ele>597.80700683594</ele>
        <time>2010-04-06T13:35:05Z</time>
      </trkpt>
      <trkpt lat="45.42434" lon="4.65696">
        <ele>599.4169921875</ele>
        <time>2010-04-06T13:35:13Z</time>
      </trkpt>
      <trkpt lat="45.4242" lon="4.65655">
        <ele>600.69500732422</ele>
        <time>2010-04-06T13:35:23Z</time>
      </trkpt>
      <trkpt lat="45.42408" lon="4.65617">
        <ele>603.49102783203</ele>
        <time>2010-04-06T13:35:32Z</time>
      </trkpt>
      <trkpt lat="45.42402" lon="4.65594">
        <ele>605.36700439453</ele>
        <time>2010-04-06T13:35:37Z</time>
      </trkpt>
      <trkpt lat="45.42397" lon="4.6556">
        <ele>607.21697998047</ele>
        <time>2010-04-06T13:35:45Z</time>
      </trkpt>
      <trkpt lat="45.42396" lon="4.65556">
        <ele>607.44500732422</ele>
        <time>2010-04-06T13:35:46Z</time>
      </trkpt>
      <trkpt lat="45.42394" lon="4.65543">
        <ele>608.88000488281</ele>
        <time>2010-04-06T13:35:49Z</time>
      </trkpt>
      <trkpt lat="45.4239" lon="4.65496">
        <ele>610.74597167969</ele>
        <time>2010-04-06T13:36:00Z</time>
      </trkpt>
      <trkpt lat="45.42384" lon="4.65456">
        <ele>613.04302978516</ele>
        <time>2010-04-06T13:36:09Z</time>
      </trkpt>
      <trkpt lat="45.42376" lon="4.65411">
        <ele>615.21697998047</ele>
        <time>2010-04-06T13:36:19Z</time>
      </trkpt>
      <trkpt lat="45.42368" lon="4.65384">
        <ele>617.52099609375</ele>
        <time>2010-04-06T13:36:25Z</time>
      </trkpt>
      <trkpt lat="45.42352" lon="4.6534">
        <ele>619.97497558594</ele>
        <time>2010-04-06T13:36:36Z</time>
      </trkpt>
      <trkpt lat="45.4234" lon="4.65294">
        <ele>622.77502441406</ele>
        <time>2010-04-06T13:36:47Z</time>
      </trkpt>
      <trkpt lat="45.42332" lon="4.65256">
        <ele>624.11999511719</ele>
        <time>2010-04-06T13:36:56Z</time>
      </trkpt>
      <trkpt lat="45.42324" lon="4.6522">
        <ele>625.80798339844</ele>
        <time>2010-04-06T13:37:04Z</time>
      </trkpt>
      <trkpt lat="45.42315" lon="4.65177">
        <ele>628.20397949219</ele>
        <time>2010-04-06T13:37:14Z</time>
      </trkpt>
      <trkpt lat="45.42314" lon="4.65172">
        <ele>628.46398925781</ele>
        <time>2010-04-06T13:37:15Z</time>
      </trkpt>
      <trkpt lat="45.42303" lon="4.65117">
        <ele>632.94396972656</ele>
        <time>2010-04-06T13:37:27Z</time>
      </trkpt>
      <trkpt lat="45.42294" lon="4.65063">
        <ele>635.40899658203</ele>
        <time>2010-04-06T13:37:39Z</time>
      </trkpt>
      <trkpt lat="45.42287" lon="4.65029">
        <ele>636.87701416016</ele>
        <time>2010-04-06T13:37:47Z</time>
      </trkpt>
      <trkpt lat="45.42281" lon="4.64992">
        <ele>638.37298583984</ele>
        <time>2010-04-06T13:37:56Z</time>
      </trkpt>
      <trkpt lat="45.42279" lon="4.64947">
        <ele>640.43798828125</ele>
        <time>2010-04-06T13:38:06Z</time>
      </trkpt>
      <trkpt lat="45.42278" lon="4.64914">
        <ele>643.51000976562</ele>
        <time>2010-04-06T13:38:13Z</time>
      </trkpt>
      <trkpt lat="45.42274" lon="4.64854">
        <ele>644.98699951172</ele>
        <time>2010-04-06T13:38:25Z</time>
      </trkpt>
      <trkpt lat="45.42271" lon="4.64821">
        <ele>647.75402832031</ele>
        <time>2010-04-06T13:38:32Z</time>
      </trkpt>
      <trkpt lat="45.42269" lon="4.64785">
        <ele>648.64099121094</ele>
        <time>2010-04-06T13:38:40Z</time>
      </trkpt>
      <trkpt lat="45.42266" lon="4.64747">
        <ele>651.06201171875</ele>
        <time>2010-04-06T13:38:49Z</time>
      </trkpt>
      <trkpt lat="45.42264" lon="4.64708">
        <ele>653.51800537109</ele>
        <time>2010-04-06T13:38:58Z</time>
      </trkpt>
      <trkpt lat="45.42263" lon="4.64678">
        <ele>655.72399902344</ele>
        <time>2010-04-06T13:39:05Z</time>
      </trkpt>
      <trkpt lat="45.42262" lon="4.64661">
        <ele>657.06597900391</ele>
        <time>2010-04-06T13:39:09Z</time>
      </trkpt>
      <trkpt lat="45.42259" lon="4.64623">
        <ele>659.39599609375</ele>
        <time>2010-04-06T13:39:18Z</time>
      </trkpt>
      <trkpt lat="45.42258" lon="4.64619">
        <ele>659.67199707031</ele>
        <time>2010-04-06T13:39:19Z</time>
      </trkpt>
      <trkpt lat="45.42255" lon="4.64582">
        <ele>662.60400390625</ele>
        <time>2010-04-06T13:39:28Z</time>
      </trkpt>
      <trkpt lat="45.42252" lon="4.64539">
        <ele>665.94000244141</ele>
        <time>2010-04-06T13:39:38Z</time>
      </trkpt>
      <trkpt lat="45.42249" lon="4.6451">
        <ele>667.71197509766</ele>
        <time>2010-04-06T13:39:45Z</time>
      </trkpt>
      <trkpt lat="45.42248" lon="4.6447">
        <ele>670.59399414062</ele>
        <time>2010-04-06T13:39:54Z</time>
      </trkpt>
      <trkpt lat="45.42253" lon="4.64427">
        <ele>672.57397460938</ele>
        <time>2010-04-06T13:40:02Z</time>
      </trkpt>
      <trkpt lat="45.42266" lon="4.64385">
        <ele>674.76702880859</ele>
        <time>2010-04-06T13:40:11Z</time>
      </trkpt>
      <trkpt lat="45.42279" lon="4.64344">
        <ele>677.26599121094</ele>
        <time>2010-04-06T13:40:20Z</time>
      </trkpt>
      <trkpt lat="45.42288" lon="4.64319">
        <ele>678.94201660156</ele>
        <time>2010-04-06T13:40:26Z</time>
      </trkpt>
      <trkpt lat="45.42298" lon="4.64291">
        <ele>680.77899169922</ele>
        <time>2010-04-06T13:40:33Z</time>
      </trkpt>
      <trkpt lat="45.42307" lon="4.64268">
        <ele>681.93499755859</ele>
        <time>2010-04-06T13:40:39Z</time>
      </trkpt>
      <trkpt lat="45.42318" lon="4.64229">
        <ele>683.95098876953</ele>
        <time>2010-04-06T13:40:48Z</time>
      </trkpt>
      <trkpt lat="45.42326" lon="4.64201">
        <ele>685.4169921875</ele>
        <time>2010-04-06T13:40:54Z</time>
      </trkpt>
      <trkpt lat="45.42332" lon="4.64175">
        <ele>687.24798583984</ele>
        <time>2010-04-06T13:41:00Z</time>
      </trkpt>
      <trkpt lat="45.4234" lon="4.64137">
        <ele>689.09002685547</ele>
        <time>2010-04-06T13:41:08Z</time>
      </trkpt>
      <trkpt lat="45.42348" lon="4.64101">
        <ele>690.94299316406</ele>
        <time>2010-04-06T13:41:16Z</time>
      </trkpt>
      <trkpt lat="45.42357" lon="4.64057">
        <ele>693.55798339844</ele>
        <time>2010-04-06T13:41:26Z</time>
      </trkpt>
      <trkpt lat="45.42365" lon="4.64023">
        <ele>695.68200683594</ele>
        <time>2010-04-06T13:41:34Z</time>
      </trkpt>
      <trkpt lat="45.42371" lon="4.63993">
        <ele>697.11199951172</ele>
        <time>2010-04-06T13:41:41Z</time>
      </trkpt>
      <trkpt lat="45.42374" lon="4.63968">
        <ele>698.46502685547</ele>
        <time>2010-04-06T13:41:46Z</time>
      </trkpt>
      <trkpt lat="45.42381" lon="4.63927">
        <ele>699.04302978516</ele>
        <time>2010-04-06T13:41:55Z</time>
      </trkpt>
      <trkpt lat="45.42387" lon="4.63886">
        <ele>700.26599121094</ele>
        <time>2010-04-06T13:42:03Z</time>
      </trkpt>
      <trkpt lat="45.42388" lon="4.63838">
        <ele>702.42999267578</ele>
        <time>2010-04-06T13:42:12Z</time>
      </trkpt>
      <trkpt lat="45.42389" lon="4.63794">
        <ele>703.51800537109</ele>
        <time>2010-04-06T13:42:20Z</time>
      </trkpt>
      <trkpt lat="45.42396" lon="4.63761">
        <ele>705.71301269531</ele>
        <time>2010-04-06T13:42:27Z</time>
      </trkpt>
      <trkpt lat="45.42398" lon="4.63726">
        <ele>707.1669921875</ele>
        <time>2010-04-06T13:42:35Z</time>
      </trkpt>
      <trkpt lat="45.42394" lon="4.63688">
        <ele>709.23199462891</ele>
        <time>2010-04-06T13:42:44Z</time>
      </trkpt>
      <trkpt lat="45.42392" lon="4.63648">
        <ele>712.57299804688</ele>
        <time>2010-04-06T13:42:52Z</time>
      </trkpt>
      <trkpt lat="45.42398" lon="4.6361">
        <ele>715.39001464844</ele>
        <time>2010-04-06T13:43:00Z</time>
      </trkpt>
      <trkpt lat="45.42405" lon="4.63583">
        <ele>717.70599365234</ele>
        <time>2010-04-06T13:43:06Z</time>
      </trkpt>
      <trkpt lat="45.42416" lon="4.63547">
        <ele>719.93499755859</ele>
        <time>2010-04-06T13:43:15Z</time>
      </trkpt>
      <trkpt lat="45.42422" lon="4.63522">
        <ele>720.81597900391</ele>
        <time>2010-04-06T13:43:21Z</time>
      </trkpt>
      <trkpt lat="45.42421" lon="4.63493">
        <ele>722.94799804688</ele>
        <time>2010-04-06T13:43:28Z</time>
      </trkpt>
      <trkpt lat="45.42418" lon="4.63465">
        <ele>724.71099853516</ele>
        <time>2010-04-06T13:43:35Z</time>
      </trkpt>
      <trkpt lat="45.42414" lon="4.63432">
        <ele>726.52502441406</ele>
        <time>2010-04-06T13:43:43Z</time>
      </trkpt>
      <trkpt lat="45.42413" lon="4.63397">
        <ele>728.83599853516</ele>
        <time>2010-04-06T13:43:51Z</time>
      </trkpt>
      <trkpt lat="45.42413" lon="4.63362">
        <ele>729.75</ele>
        <time>2010-04-06T13:43:59Z</time>
      </trkpt>
      <trkpt lat="45.42414" lon="4.63329">
        <ele>731.22100830078</ele>
        <time>2010-04-06T13:44:06Z</time>
      </trkpt>
      <trkpt lat="45.42416" lon="4.63292">
        <ele>733.54602050781</ele>
        <time>2010-04-06T13:44:14Z</time>
      </trkpt>
      <trkpt lat="45.42416" lon="4.63258">
        <ele>734.81701660156</ele>
        <time>2010-04-06T13:44:21Z</time>
      </trkpt>
      <trkpt lat="45.42416" lon="4.63223">
        <ele>736.57897949219</ele>
        <time>2010-04-06T13:44:28Z</time>
      </trkpt>
      <trkpt lat="45.42408" lon="4.63196">
        <ele>737.4580078125</ele>
        <time>2010-04-06T13:44:34Z</time>
      </trkpt>
      <trkpt lat="45.42394" lon="4.63173">
        <ele>738.90997314453</ele>
        <time>2010-04-06T13:44:41Z</time>
      </trkpt>
      <trkpt lat="45.4238" lon="4.6315">
        <ele>741.06799316406</ele>
        <time>2010-04-06T13:44:48Z</time>
      </trkpt>
      <trkpt lat="45.42374" lon="4.63135">
        <ele>742.51098632812</ele>
        <time>2010-04-06T13:44:52Z</time>
      </trkpt>
      <trkpt lat="45.42368" lon="4.63111">
        <ele>744.28997802734</ele>
        <time>2010-04-06T13:44:59Z</time>
      </trkpt>
      <trkpt lat="45.42363" lon="4.63089">
        <ele>745.31201171875</ele>
        <time>2010-04-06T13:45:05Z</time>
      </trkpt>
      <trkpt lat="45.42355" lon="4.63047">
        <ele>748.76202392578</ele>
        <time>2010-04-06T13:45:15Z</time>
      </trkpt>
      <trkpt lat="45.42353" lon="4.63022">
        <ele>750.76397705078</ele>
        <time>2010-04-06T13:45:21Z</time>
      </trkpt>
      <trkpt lat="45.42352" lon="4.6299">
        <ele>752.68798828125</ele>
        <time>2010-04-06T13:45:28Z</time>
      </trkpt>
      <trkpt lat="45.42352" lon="4.62957">
        <ele>755.18298339844</ele>
        <time>2010-04-06T13:45:35Z</time>
      </trkpt>
      <trkpt lat="45.4235" lon="4.62929">
        <ele>757.46801757812</ele>
        <time>2010-04-06T13:45:41Z</time>
      </trkpt>
      <trkpt lat="45.42347" lon="4.62893">
        <ele>759.56500244141</ele>
        <time>2010-04-06T13:45:49Z</time>
      </trkpt>
      <trkpt lat="45.42344" lon="4.62855">
        <ele>760.97900390625</ele>
        <time>2010-04-06T13:45:58Z</time>
      </trkpt>
      <trkpt lat="45.42339" lon="4.62821">
        <ele>763.46801757812</ele>
        <time>2010-04-06T13:46:06Z</time>
      </trkpt>
      <trkpt lat="45.42332" lon="4.62787">
        <ele>765.58099365234</ele>
        <time>2010-04-06T13:46:14Z</time>
      </trkpt>
      <trkpt lat="45.42317" lon="4.62749">
        <ele>768.34497070312</ele>
        <time>2010-04-06T13:46:23Z</time>
      </trkpt>
      <trkpt lat="45.42305" lon="4.62741">
        <ele>769.62298583984</ele>
        <time>2010-04-06T13:46:27Z</time>
      </trkpt>
      <trkpt lat="45.42286" lon="4.62744">
        <ele>770.44799804688</ele>
        <time>2010-04-06T13:46:33Z</time>
      </trkpt>
      <trkpt lat="45.42268" lon="4.62758">
        <ele>773.03399658203</ele>
        <time>2010-04-06T13:46:39Z</time>
      </trkpt>
      <trkpt lat="45.42249" lon="4.62777">
        <ele>775.583984375</ele>
        <time>2010-04-06T13:46:46Z</time>
      </trkpt>
      <trkpt lat="45.42222" lon="4.628">
        <ele>777.36297607422</ele>
        <time>2010-04-06T13:46:55Z</time>
      </trkpt>
      <trkpt lat="45.42205" lon="4.62815">
        <ele>779.44097900391</ele>
        <time>2010-04-06T13:47:01Z</time>
      </trkpt>
      <trkpt lat="45.42192" lon="4.62827">
        <ele>780.54901123047</ele>
        <time>2010-04-06T13:47:06Z</time>
      </trkpt>
      <trkpt lat="45.42178" lon="4.62841">
        <ele>781.53399658203</ele>
        <time>2010-04-06T13:47:11Z</time>
      </trkpt>
      <trkpt lat="45.42167" lon="4.6285">
        <ele>782.60797119141</ele>
        <time>2010-04-06T13:47:15Z</time>
      </trkpt>
      <trkpt lat="45.42156" lon="4.62861">
        <ele>783.61199951172</ele>
        <time>2010-04-06T13:47:19Z</time>
      </trkpt>
      <trkpt lat="45.42136" lon="4.6288">
        <ele>785.666015625</ele>
        <time>2010-04-06T13:47:26Z</time>
      </trkpt>
      <trkpt lat="45.42125" lon="4.62887">
        <ele>786.04699707031</ele>
        <time>2010-04-06T13:47:30Z</time>
      </trkpt>
      <trkpt lat="45.42104" lon="4.62891">
        <ele>787.74401855469</ele>
        <time>2010-04-06T13:47:36Z</time>
      </trkpt>
      <trkpt lat="45.42086" lon="4.62886">
        <ele>789.65002441406</ele>
        <time>2010-04-06T13:47:42Z</time>
      </trkpt>
      <trkpt lat="45.42084" lon="4.62886">
        <ele>789.75201416016</ele>
        <time>2010-04-06T13:47:43Z</time>
      </trkpt>
      <trkpt lat="45.42069" lon="4.62878">
        <ele>791.27801513672</ele>
        <time>2010-04-06T13:47:49Z</time>
      </trkpt>
      <trkpt lat="45.42064" lon="4.62876">
        <ele>791.94299316406</ele>
        <time>2010-04-06T13:47:51Z</time>
      </trkpt>
      <trkpt lat="45.42041" lon="4.62866">
        <ele>793.47399902344</ele>
        <time>2010-04-06T13:47:59Z</time>
      </trkpt>
      <trkpt lat="45.42026" lon="4.62863">
        <ele>794.43200683594</ele>
        <time>2010-04-06T13:48:04Z</time>
      </trkpt>
      <trkpt lat="45.4201" lon="4.62867">
        <ele>796.05200195312</ele>
        <time>2010-04-06T13:48:10Z</time>
      </trkpt>
      <trkpt lat="45.41998" lon="4.62881">
        <ele>797.49499511719</ele>
        <time>2010-04-06T13:48:15Z</time>
      </trkpt>
      <trkpt lat="45.41986" lon="4.62903">
        <ele>798.73498535156</ele>
        <time>2010-04-06T13:48:21Z</time>
      </trkpt>
      <trkpt lat="45.41975" lon="4.62931">
        <ele>800.27398681641</ele>
        <time>2010-04-06T13:48:28Z</time>
      </trkpt>
      <trkpt lat="45.41968" lon="4.62952">
        <ele>801.47802734375</ele>
        <time>2010-04-06T13:48:33Z</time>
      </trkpt>
      <trkpt lat="45.41962" lon="4.62979">
        <ele>802.80603027344</ele>
        <time>2010-04-06T13:48:39Z</time>
      </trkpt>
      <trkpt lat="45.41957" lon="4.63005">
        <ele>804.77197265625</ele>
        <time>2010-04-06T13:48:45Z</time>
      </trkpt>
      <trkpt lat="45.41953" lon="4.63028">
        <ele>805.72802734375</ele>
        <time>2010-04-06T13:48:50Z</time>
      </trkpt>
      <trkpt lat="45.41946" lon="4.63061">
        <ele>807.91302490234</ele>
        <time>2010-04-06T13:48:58Z</time>
      </trkpt>
      <trkpt lat="45.41936" lon="4.63088">
        <ele>809.80297851562</ele>
        <time>2010-04-06T13:49:05Z</time>
      </trkpt>
      <trkpt lat="45.41925" lon="4.63118">
        <ele>811.78900146484</ele>
        <time>2010-04-06T13:49:13Z</time>
      </trkpt>
      <trkpt lat="45.41916" lon="4.63142">
        <ele>812.9990234375</ele>
        <time>2010-04-06T13:49:20Z</time>
      </trkpt>
      <trkpt lat="45.41902" lon="4.63172">
        <ele>815.16198730469</ele>
        <time>2010-04-06T13:49:28Z</time>
      </trkpt>
      <trkpt lat="45.4189" lon="4.63204">
        <ele>816.6259765625</ele>
        <time>2010-04-06T13:49:36Z</time>
      </trkpt>
      <trkpt lat="45.41881" lon="4.63232">
        <ele>817.84802246094</ele>
        <time>2010-04-06T13:49:43Z</time>
      </trkpt>
      <trkpt lat="45.41874" lon="4.6325">
        <ele>819.82299804688</ele>
        <time>2010-04-06T13:49:48Z</time>
      </trkpt>
      <trkpt lat="45.41862" lon="4.63296">
        <ele>822.48901367188</ele>
        <time>2010-04-06T13:49:59Z</time>
      </trkpt>
      <trkpt lat="45.41857" lon="4.63328">
        <ele>824.4169921875</ele>
        <time>2010-04-06T13:50:07Z</time>
      </trkpt>
      <trkpt lat="45.41852" lon="4.63338">
        <ele>824.75799560547</ele>
        <time>2010-04-06T13:50:10Z</time>
      </trkpt>
      <trkpt lat="45.41843" lon="4.63334">
        <ele>824.99798583984</ele>
        <time>2010-04-06T13:50:14Z</time>
      </trkpt>
      <trkpt lat="45.41841" lon="4.63325">
        <ele>826.02398681641</ele>
        <time>2010-04-06T13:50:16Z</time>
      </trkpt>
      <trkpt lat="45.41842" lon="4.6329">
        <ele>828.67102050781</ele>
        <time>2010-04-06T13:50:23Z</time>
      </trkpt>
      <trkpt lat="45.41845" lon="4.63252">
        <ele>830.09002685547</ele>
        <time>2010-04-06T13:50:30Z</time>
      </trkpt>
      <trkpt lat="45.41848" lon="4.63227">
        <ele>831.94201660156</ele>
        <time>2010-04-06T13:50:35Z</time>
      </trkpt>
      <trkpt lat="45.41851" lon="4.63186">
        <ele>833.50299072266</ele>
        <time>2010-04-06T13:50:42Z</time>
      </trkpt>
      <trkpt lat="45.41853" lon="4.63165">
        <ele>834.72399902344</ele>
        <time>2010-04-06T13:50:45Z</time>
      </trkpt>
      <trkpt lat="45.41858" lon="4.63132">
        <ele>837.55700683594</ele>
        <time>2010-04-06T13:50:50Z</time>
      </trkpt>
      <trkpt lat="45.41859" lon="4.63106">
        <ele>838.79602050781</ele>
        <time>2010-04-06T13:50:54Z</time>
      </trkpt>
      <trkpt lat="45.41861" lon="4.6306">
        <ele>840.98297119141</ele>
        <time>2010-04-06T13:51:01Z</time>
      </trkpt>
      <trkpt lat="45.41862" lon="4.63027">
        <ele>843.24298095703</ele>
        <time>2010-04-06T13:51:08Z</time>
      </trkpt>
      <trkpt lat="45.41863" lon="4.6299">
        <ele>844.84002685547</ele>
        <time>2010-04-06T13:51:16Z</time>
      </trkpt>
      <trkpt lat="45.41864" lon="4.62959">
        <ele>847.27899169922</ele>
        <time>2010-04-06T13:51:23Z</time>
      </trkpt>
      <trkpt lat="45.41863" lon="4.62923">
        <ele>849.03302001953</ele>
        <time>2010-04-06T13:51:31Z</time>
      </trkpt>
      <trkpt lat="45.41863" lon="4.62894">
        <ele>850.333984375</ele>
        <time>2010-04-06T13:51:38Z</time>
      </trkpt>
      <trkpt lat="45.41863" lon="4.62863">
        <ele>852.01202392578</ele>
        <time>2010-04-06T13:51:45Z</time>
      </trkpt>
      <trkpt lat="45.41863" lon="4.62833">
        <ele>853.83599853516</ele>
        <time>2010-04-06T13:51:52Z</time>
      </trkpt>
      <trkpt lat="45.41863" lon="4.62806">
        <ele>855.20202636719</ele>
        <time>2010-04-06T13:51:58Z</time>
      </trkpt>
      <trkpt lat="45.4186" lon="4.62769">
        <ele>857.17797851562</ele>
        <time>2010-04-06T13:52:07Z</time>
      </trkpt>
      <trkpt lat="45.41857" lon="4.62739">
        <ele>858.83697509766</ele>
        <time>2010-04-06T13:52:15Z</time>
      </trkpt>
      <trkpt lat="45.41852" lon="4.62708">
        <ele>860.22100830078</ele>
        <time>2010-04-06T13:52:22Z</time>
      </trkpt>
      <trkpt lat="45.41848" lon="4.62672">
        <ele>861.96502685547</ele>
        <time>2010-04-06T13:52:30Z</time>
      </trkpt>
      <trkpt lat="45.41845" lon="4.62646">
        <ele>863.24200439453</ele>
        <time>2010-04-06T13:52:36Z</time>
      </trkpt>
      <trkpt lat="45.4184" lon="4.62609">
        <ele>865.96301269531</ele>
        <time>2010-04-06T13:52:45Z</time>
      </trkpt>
      <trkpt lat="45.41837" lon="4.62582">
        <ele>868.06799316406</ele>
        <time>2010-04-06T13:52:52Z</time>
      </trkpt>
      <trkpt lat="45.41839" lon="4.62557">
        <ele>869.83001708984</ele>
        <time>2010-04-06T13:52:58Z</time>
      </trkpt>
      <trkpt lat="45.4185" lon="4.62532">
        <ele>871.28802490234</ele>
        <time>2010-04-06T13:53:05Z</time>
      </trkpt>
      <trkpt lat="45.41865" lon="4.62512">
        <ele>872.14697265625</ele>
        <time>2010-04-06T13:53:11Z</time>
      </trkpt>
      <trkpt lat="45.41879" lon="4.62496">
        <ele>873.88800048828</ele>
        <time>2010-04-06T13:53:17Z</time>
      </trkpt>
      <trkpt lat="45.41896" lon="4.62484">
        <ele>875.60400390625</ele>
        <time>2010-04-06T13:53:23Z</time>
      </trkpt>
      <trkpt lat="45.41915" lon="4.62482">
        <ele>877.20397949219</ele>
        <time>2010-04-06T13:53:29Z</time>
      </trkpt>
      <trkpt lat="45.41935" lon="4.6249">
        <ele>878.13000488281</ele>
        <time>2010-04-06T13:53:35Z</time>
      </trkpt>
      <trkpt lat="45.41948" lon="4.625">
        <ele>879.02197265625</ele>
        <time>2010-04-06T13:53:40Z</time>
      </trkpt>
      <trkpt lat="45.41962" lon="4.62508">
        <ele>879.80700683594</ele>
        <time>2010-04-06T13:53:45Z</time>
      </trkpt>
      <trkpt lat="45.4198" lon="4.62511">
        <ele>880.90502929688</ele>
        <time>2010-04-06T13:53:51Z</time>
      </trkpt>
      <trkpt lat="45.41993" lon="4.62504">
        <ele>881.57000732422</ele>
        <time>2010-04-06T13:53:56Z</time>
      </trkpt>
      <trkpt lat="45.42002" lon="4.62492">
        <ele>881.94396972656</ele>
        <time>2010-04-06T13:54:00Z</time>
      </trkpt>
      <trkpt lat="45.42013" lon="4.6247">
        <ele>883.19799804688</ele>
        <time>2010-04-06T13:54:06Z</time>
      </trkpt>
      <trkpt lat="45.42025" lon="4.62451">
        <ele>884.53002929688</ele>
        <time>2010-04-06T13:54:11Z</time>
      </trkpt>
      <trkpt lat="45.42044" lon="4.62422">
        <ele>887.34899902344</ele>
        <time>2010-04-06T13:54:19Z</time>
      </trkpt>
      <trkpt lat="45.42055" lon="4.62404">
        <ele>889.02301025391</ele>
        <time>2010-04-06T13:54:24Z</time>
      </trkpt>
      <trkpt lat="45.42069" lon="4.62377">
        <ele>890.66101074219</ele>
        <time>2010-04-06T13:54:31Z</time>
      </trkpt>
      <trkpt lat="45.42084" lon="4.62355">
        <ele>892.35900878906</ele>
        <time>2010-04-06T13:54:37Z</time>
      </trkpt>
      <trkpt lat="45.42096" lon="4.62336">
        <ele>893.98901367188</ele>
        <time>2010-04-06T13:54:42Z</time>
      </trkpt>
      <trkpt lat="45.42112" lon="4.62315">
        <ele>895.52899169922</ele>
        <time>2010-04-06T13:54:48Z</time>
      </trkpt>
      <trkpt lat="45.42132" lon="4.62291">
        <ele>897.45300292969</ele>
        <time>2010-04-06T13:54:55Z</time>
      </trkpt>
      <trkpt lat="45.42147" lon="4.6227">
        <ele>899.55999755859</ele>
        <time>2010-04-06T13:55:01Z</time>
      </trkpt>
      <trkpt lat="45.42161" lon="4.62242">
        <ele>901.20397949219</ele>
        <time>2010-04-06T13:55:08Z</time>
      </trkpt>
      <trkpt lat="45.42171" lon="4.62222">
        <ele>902.62799072266</ele>
        <time>2010-04-06T13:55:13Z</time>
      </trkpt>
      <trkpt lat="45.4218" lon="4.62202">
        <ele>903.84301757812</ele>
        <time>2010-04-06T13:55:18Z</time>
      </trkpt>
      <trkpt lat="45.42197" lon="4.62174">
        <ele>905.14801025391</ele>
        <time>2010-04-06T13:55:25Z</time>
      </trkpt>
      <trkpt lat="45.42211" lon="4.62149">
        <ele>906.72198486328</ele>
        <time>2010-04-06T13:55:31Z</time>
      </trkpt>
      <trkpt lat="45.42228" lon="4.62123">
        <ele>908.57598876953</ele>
        <time>2010-04-06T13:55:38Z</time>
      </trkpt>
      <trkpt lat="45.42241" lon="4.62098">
        <ele>910.30102539062</ele>
        <time>2010-04-06T13:55:44Z</time>
      </trkpt>
      <trkpt lat="45.42252" lon="4.62068">
        <ele>911.57800292969</ele>
        <time>2010-04-06T13:55:51Z</time>
      </trkpt>
      <trkpt lat="45.42264" lon="4.6205">
        <ele>913.08502197266</ele>
        <time>2010-04-06T13:55:56Z</time>
      </trkpt>
      <trkpt lat="45.42276" lon="4.62037">
        <ele>915.30999755859</ele>
        <time>2010-04-06T13:56:01Z</time>
      </trkpt>
      <trkpt lat="45.42281" lon="4.62032">
        <ele>916.02697753906</ele>
        <time>2010-04-06T13:56:03Z</time>
      </trkpt>
      <trkpt lat="45.4229" lon="4.6202">
        <ele>917.84100341797</ele>
        <time>2010-04-06T13:56:07Z</time>
      </trkpt>
      <trkpt lat="45.42298" lon="4.62012">
        <ele>919.10198974609</ele>
        <time>2010-04-06T13:56:10Z</time>
      </trkpt>
      <trkpt lat="45.42311" lon="4.61997">
        <ele>920.71697998047</ele>
        <time>2010-04-06T13:56:15Z</time>
      </trkpt>
      <trkpt lat="45.42329" lon="4.61975">
        <ele>922.20098876953</ele>
        <time>2010-04-06T13:56:23Z</time>
      </trkpt>
      <trkpt lat="45.42352" lon="4.61946">
        <ele>924.49200439453</ele>
        <time>2010-04-06T13:56:33Z</time>
      </trkpt>
      <trkpt lat="45.42376" lon="4.61914">
        <ele>926.46997070312</ele>
        <time>2010-04-06T13:56:43Z</time>
      </trkpt>
      <trkpt lat="45.42396" lon="4.6189">
        <ele>928.14599609375</ele>
        <time>2010-04-06T13:56:51Z</time>
      </trkpt>
      <trkpt lat="45.42422" lon="4.61861">
        <ele>930.51501464844</ele>
        <time>2010-04-06T13:57:01Z</time>
      </trkpt>
      <trkpt lat="45.4244" lon="4.61842">
        <ele>932.11700439453</ele>
        <time>2010-04-06T13:57:08Z</time>
      </trkpt>
      <trkpt lat="45.42466" lon="4.61817">
        <ele>934.29998779297</ele>
        <time>2010-04-06T13:57:18Z</time>
      </trkpt>
      <trkpt lat="45.42477" lon="4.61809">
        <ele>936.07501220703</ele>
        <time>2010-04-06T13:57:22Z</time>
      </trkpt>
      <trkpt lat="45.42498" lon="4.618">
        <ele>938.49798583984</ele>
        <time>2010-04-06T13:57:30Z</time>
      </trkpt>
      <trkpt lat="45.42514" lon="4.61795">
        <ele>939.75897216797</ele>
        <time>2010-04-06T13:57:36Z</time>
      </trkpt>
      <trkpt lat="45.42528" lon="4.61779">
        <ele>941.16101074219</ele>
        <time>2010-04-06T13:57:42Z</time>
      </trkpt>
      <trkpt lat="45.42529" lon="4.61759">
        <ele>941.42297363281</ele>
        <time>2010-04-06T13:57:47Z</time>
      </trkpt>
      <trkpt lat="45.42519" lon="4.61744">
        <ele>941.43902587891</ele>
        <time>2010-04-06T13:57:52Z</time>
      </trkpt>
      <trkpt lat="45.42503" lon="4.61737">
        <ele>941.77801513672</ele>
        <time>2010-04-06T13:57:57Z</time>
      </trkpt>
      <trkpt lat="45.42486" lon="4.61745">
        <ele>942.86401367188</ele>
        <time>2010-04-06T13:58:02Z</time>
      </trkpt>
      <trkpt lat="45.42466" lon="4.61753">
        <ele>945.83001708984</ele>
        <time>2010-04-06T13:58:08Z</time>
      </trkpt>
      <trkpt lat="45.42435" lon="4.61765">
        <ele>946.39801025391</ele>
        <time>2010-04-06T13:58:17Z</time>
      </trkpt>
      <trkpt lat="45.42418" lon="4.61774">
        <ele>947.78002929688</ele>
        <time>2010-04-06T13:58:23Z</time>
      </trkpt>
      <trkpt lat="45.42392" lon="4.61795">
        <ele>949.03698730469</ele>
        <time>2010-04-06T13:58:33Z</time>
      </trkpt>
      <trkpt lat="45.42374" lon="4.61809">
        <ele>950.02099609375</ele>
        <time>2010-04-06T13:58:40Z</time>
      </trkpt>
      <trkpt lat="45.4236" lon="4.61815">
        <ele>952.23602294922</ele>
        <time>2010-04-06T13:58:45Z</time>
      </trkpt>
      <trkpt lat="45.42336" lon="4.61823">
        <ele>954.04602050781</ele>
        <time>2010-04-06T13:58:54Z</time>
      </trkpt>
      <trkpt lat="45.42309" lon="4.61831">
        <ele>956.67297363281</ele>
        <time>2010-04-06T13:59:03Z</time>
      </trkpt>
      <trkpt lat="45.42298" lon="4.61836">
        <ele>957.36499023438</ele>
        <time>2010-04-06T13:59:07Z</time>
      </trkpt>
      <trkpt lat="45.42274" lon="4.61851">
        <ele>958.86102294922</ele>
        <time>2010-04-06T13:59:16Z</time>
      </trkpt>
      <trkpt lat="45.42252" lon="4.61867">
        <ele>960.68298339844</ele>
        <time>2010-04-06T13:59:24Z</time>
      </trkpt>
      <trkpt lat="45.42229" lon="4.61885">
        <ele>963.06701660156</ele>
        <time>2010-04-06T13:59:33Z</time>
      </trkpt>
      <trkpt lat="45.42213" lon="4.61897">
        <ele>963.82897949219</ele>
        <time>2010-04-06T13:59:39Z</time>
      </trkpt>
      <trkpt lat="45.422" lon="4.61907">
        <ele>967.42401123047</ele>
        <time>2010-04-06T13:59:44Z</time>
      </trkpt>
      <trkpt lat="45.42176" lon="4.61927">
        <ele>968.09802246094</ele>
        <time>2010-04-06T13:59:53Z</time>
      </trkpt>
      <trkpt lat="45.42154" lon="4.61945">
        <ele>969.75</ele>
        <time>2010-04-06T14:00:01Z</time>
      </trkpt>
      <trkpt lat="45.42139" lon="4.61956">
        <ele>970.7080078125</ele>
        <time>2010-04-06T14:00:07Z</time>
      </trkpt>
      <trkpt lat="45.42119" lon="4.61969">
        <ele>972.20697021484</ele>
        <time>2010-04-06T14:00:15Z</time>
      </trkpt>
      <trkpt lat="45.42094" lon="4.61984">
        <ele>973.36297607422</ele>
        <time>2010-04-06T14:00:24Z</time>
      </trkpt>
      <trkpt lat="45.42074" lon="4.61993">
        <ele>977.60101318359</ele>
        <time>2010-04-06T14:00:31Z</time>
      </trkpt>
      <trkpt lat="45.42051" lon="4.62004">
        <ele>978.43499755859</ele>
        <time>2010-04-06T14:00:39Z</time>
      </trkpt>
      <trkpt lat="45.4203" lon="4.62015">
        <ele>980.29302978516</ele>
        <time>2010-04-06T14:00:47Z</time>
      </trkpt>
      <trkpt lat="45.4201" lon="4.62025">
        <ele>981.89599609375</ele>
        <time>2010-04-06T14:00:54Z</time>
      </trkpt>
      <trkpt lat="45.4199" lon="4.62038">
        <ele>983.45397949219</ele>
        <time>2010-04-06T14:01:02Z</time>
      </trkpt>
      <trkpt lat="45.41978" lon="4.62043">
        <ele>984.42401123047</ele>
        <time>2010-04-06T14:01:07Z</time>
      </trkpt>
      <trkpt lat="45.41959" lon="4.62053">
        <ele>986.19500732422</ele>
        <time>2010-04-06T14:01:14Z</time>
      </trkpt>
      <trkpt lat="45.41948" lon="4.62058">
        <ele>988.10699462891</ele>
        <time>2010-04-06T14:01:18Z</time>
      </trkpt>
      <trkpt lat="45.41933" lon="4.62059">
        <ele>989.48498535156</ele>
        <time>2010-04-06T14:01:23Z</time>
      </trkpt>
      <trkpt lat="45.41906" lon="4.62058">
        <ele>991.86999511719</ele>
        <time>2010-04-06T14:01:31Z</time>
      </trkpt>
      <trkpt lat="45.4188" lon="4.62056">
        <ele>993.47698974609</ele>
        <time>2010-04-06T14:01:39Z</time>
      </trkpt>
      <trkpt lat="45.41864" lon="4.62052">
        <ele>994.55902099609</ele>
        <time>2010-04-06T14:01:45Z</time>
      </trkpt>
      <trkpt lat="45.41847" lon="4.62046">
        <ele>996.3330078125</ele>
        <time>2010-04-06T14:01:51Z</time>
      </trkpt>
      <trkpt lat="45.41824" lon="4.62038">
        <ele>998.28302001953</ele>
        <time>2010-04-06T14:01:58Z</time>
      </trkpt>
      <trkpt lat="45.41801" lon="4.62034">
        <ele>999.69799804688</ele>
        <time>2010-04-06T14:02:05Z</time>
      </trkpt>
      <trkpt lat="45.41782" lon="4.62031">
        <ele>1001.1270141602</ele>
        <time>2010-04-06T14:02:11Z</time>
      </trkpt>
      <trkpt lat="45.41764" lon="4.62031">
        <ele>1002.5609741211</ele>
        <time>2010-04-06T14:02:16Z</time>
      </trkpt>
      <trkpt lat="45.41743" lon="4.62034">
        <ele>1003.3489990234</ele>
        <time>2010-04-06T14:02:22Z</time>
      </trkpt>
      <trkpt lat="45.41713" lon="4.62039">
        <ele>1006.9050292969</ele>
        <time>2010-04-06T14:02:31Z</time>
      </trkpt>
      <trkpt lat="45.41691" lon="4.6204">
        <ele>1008.3510131836</ele>
        <time>2010-04-06T14:02:38Z</time>
      </trkpt>
      <trkpt lat="45.41671" lon="4.62043">
        <ele>1010.6140136719</ele>
        <time>2010-04-06T14:02:44Z</time>
      </trkpt>
      <trkpt lat="45.4164" lon="4.62048">
        <ele>1012.7819824219</ele>
        <time>2010-04-06T14:02:53Z</time>
      </trkpt>
      <trkpt lat="45.41616" lon="4.62064">
        <ele>1014.6079711914</ele>
        <time>2010-04-06T14:03:01Z</time>
      </trkpt>
      <trkpt lat="45.41598" lon="4.62077">
        <ele>1016.2349853516</ele>
        <time>2010-04-06T14:03:07Z</time>
      </trkpt>
      <trkpt lat="45.41584" lon="4.62085">
        <ele>1017.9760131836</ele>
        <time>2010-04-06T14:03:12Z</time>
      </trkpt>
      <trkpt lat="45.41576" lon="4.62093">
        <ele>1018.2319946289</ele>
        <time>2010-04-06T14:03:16Z</time>
      </trkpt>
      <trkpt lat="45.41561" lon="4.62102">
        <ele>1019.4899902344</ele>
        <time>2010-04-06T14:03:22Z</time>
      </trkpt>
      <trkpt lat="45.4155" lon="4.6211">
        <ele>1020.8900146484</ele>
        <time>2010-04-06T14:03:27Z</time>
      </trkpt>
      <trkpt lat="45.41541" lon="4.62121">
        <ele>1022.2709960938</ele>
        <time>2010-04-06T14:03:31Z</time>
      </trkpt>
      <trkpt lat="45.41535" lon="4.62126">
        <ele>1022.9539794922</ele>
        <time>2010-04-06T14:03:33Z</time>
      </trkpt>
      <trkpt lat="45.41521" lon="4.62138">
        <ele>1024.2349853516</ele>
        <time>2010-04-06T14:03:38Z</time>
      </trkpt>
      <trkpt lat="45.415" lon="4.62155">
        <ele>1026.8449707031</ele>
        <time>2010-04-06T14:03:44Z</time>
      </trkpt>
      <trkpt lat="45.4149" lon="4.62162">
        <ele>1028.1729736328</ele>
        <time>2010-04-06T14:03:47Z</time>
      </trkpt>
      <trkpt lat="45.41476" lon="4.62172">
        <ele>1027.0579833984</ele>
        <time>2010-04-06T14:03:52Z</time>
      </trkpt>
      <trkpt lat="45.41455" lon="4.62188">
        <ele>1028.875</ele>
        <time>2010-04-06T14:03:59Z</time>
      </trkpt>
      <trkpt lat="45.41438" lon="4.62203">
        <ele>1030.1949462891</ele>
        <time>2010-04-06T14:04:05Z</time>
      </trkpt>
      <trkpt lat="45.41429" lon="4.62211">
        <ele>1032.2669677734</ele>
        <time>2010-04-06T14:04:08Z</time>
      </trkpt>
      <trkpt lat="45.41414" lon="4.62222">
        <ele>1033.6300048828</ele>
        <time>2010-04-06T14:04:13Z</time>
      </trkpt>
      <trkpt lat="45.41396" lon="4.62238">
        <ele>1034.6169433594</ele>
        <time>2010-04-06T14:04:19Z</time>
      </trkpt>
      <trkpt lat="45.41377" lon="4.62253">
        <ele>1038.3540039062</ele>
        <time>2010-04-06T14:04:26Z</time>
      </trkpt>
      <trkpt lat="45.41367" lon="4.62264">
        <ele>1039.41796875</ele>
        <time>2010-04-06T14:04:30Z</time>
      </trkpt>
      <trkpt lat="45.41354" lon="4.62281">
        <ele>1038.9129638672</ele>
        <time>2010-04-06T14:04:36Z</time>
      </trkpt>
      <trkpt lat="45.41337" lon="4.623">
        <ele>1041.6920166016</ele>
        <time>2010-04-06T14:04:43Z</time>
      </trkpt>
      <trkpt lat="45.41322" lon="4.62319">
        <ele>1042.4449462891</ele>
        <time>2010-04-06T14:04:50Z</time>
      </trkpt>
      <trkpt lat="45.41303" lon="4.62348">
        <ele>1044.3149414062</ele>
        <time>2010-04-06T14:05:00Z</time>
      </trkpt>
      <trkpt lat="45.41288" lon="4.6236">
        <ele>1045.9670410156</ele>
        <time>2010-04-06T14:05:07Z</time>
      </trkpt>
      <trkpt lat="45.41286" lon="4.62361">
        <ele>1046.2409667969</ele>
        <time>2010-04-06T14:05:08Z</time>
      </trkpt>
      <trkpt lat="45.41273" lon="4.62357">
        <ele>1046.8199462891</ele>
        <time>2010-04-06T14:05:13Z</time>
      </trkpt>
      <trkpt lat="45.41257" lon="4.62335">
        <ele>1048.9730224609</ele>
        <time>2010-04-06T14:05:21Z</time>
      </trkpt>
      <trkpt lat="45.41241" lon="4.62308">
        <ele>1049.9620361328</ele>
        <time>2010-04-06T14:05:30Z</time>
      </trkpt>
      <trkpt lat="45.41232" lon="4.62291">
        <ele>1051.375</ele>
        <time>2010-04-06T14:05:36Z</time>
      </trkpt>
      <trkpt lat="45.41218" lon="4.62269">
        <ele>1053.3659667969</ele>
        <time>2010-04-06T14:05:44Z</time>
      </trkpt>
      <trkpt lat="45.41202" lon="4.62248">
        <ele>1055.3950195312</ele>
        <time>2010-04-06T14:05:52Z</time>
      </trkpt>
      <trkpt lat="45.41193" lon="4.62232">
        <ele>1056.6340332031</ele>
        <time>2010-04-06T14:05:58Z</time>
      </trkpt>
      <trkpt lat="45.41181" lon="4.62216">
        <ele>1057.5159912109</ele>
        <time>2010-04-06T14:06:05Z</time>
      </trkpt>
      <trkpt lat="45.41169" lon="4.62193">
        <ele>1059.7550048828</ele>
        <time>2010-04-06T14:06:13Z</time>
      </trkpt>
      <trkpt lat="45.41153" lon="4.62169">
        <ele>1061.4549560547</ele>
        <time>2010-04-06T14:06:22Z</time>
      </trkpt>
      <trkpt lat="45.41144" lon="4.62154">
        <ele>1062.6140136719</ele>
        <time>2010-04-06T14:06:27Z</time>
      </trkpt>
      <trkpt lat="45.41127" lon="4.6213">
        <ele>1064.4830322266</ele>
        <time>2010-04-06T14:06:36Z</time>
      </trkpt>
      <trkpt lat="45.4111" lon="4.62116">
        <ele>1065.8349609375</ele>
        <time>2010-04-06T14:06:43Z</time>
      </trkpt>
      <trkpt lat="45.41088" lon="4.62099">
        <ele>1068.1729736328</ele>
        <time>2010-04-06T14:06:52Z</time>
      </trkpt>
      <trkpt lat="45.41074" lon="4.62091">
        <ele>1068.4909667969</ele>
        <time>2010-04-06T14:06:58Z</time>
      </trkpt>
      <trkpt lat="45.41058" lon="4.62081">
        <ele>1069.8659667969</ele>
        <time>2010-04-06T14:07:05Z</time>
      </trkpt>
      <trkpt lat="45.41052" lon="4.62076">
        <ele>1071.1610107422</ele>
        <time>2010-04-06T14:07:08Z</time>
      </trkpt>
      <trkpt lat="45.41038" lon="4.62064">
        <ele>1072.9530029297</ele>
        <time>2010-04-06T14:07:15Z</time>
      </trkpt>
      <trkpt lat="45.41023" lon="4.62048">
        <ele>1074.0290527344</ele>
        <time>2010-04-06T14:07:22Z</time>
      </trkpt>
      <trkpt lat="45.41011" lon="4.62036">
        <ele>1074.2600097656</ele>
        <time>2010-04-06T14:07:28Z</time>
      </trkpt>
      <trkpt lat="45.40995" lon="4.62018">
        <ele>1075.4849853516</ele>
        <time>2010-04-06T14:07:35Z</time>
      </trkpt>
      <trkpt lat="45.40973" lon="4.61995">
        <ele>1078.8070068359</ele>
        <time>2010-04-06T14:07:45Z</time>
      </trkpt>
      <trkpt lat="45.40955" lon="4.61977">
        <ele>1080.6629638672</ele>
        <time>2010-04-06T14:07:54Z</time>
      </trkpt>
      <trkpt lat="45.40937" lon="4.61964">
        <ele>1080.1309814453</ele>
        <time>2010-04-06T14:08:02Z</time>
      </trkpt>
      <trkpt lat="45.40923" lon="4.61955">
        <ele>1081.3850097656</ele>
        <time>2010-04-06T14:08:08Z</time>
      </trkpt>
      <trkpt lat="45.40911" lon="4.61946">
        <ele>1084.4799804688</ele>
        <time>2010-04-06T14:08:13Z</time>
      </trkpt>
      <trkpt lat="45.40895" lon="4.61933">
        <ele>1085.876953125</ele>
        <time>2010-04-06T14:08:20Z</time>
      </trkpt>
      <trkpt lat="45.40882" lon="4.6192">
        <ele>1086.6970214844</ele>
        <time>2010-04-06T14:08:27Z</time>
      </trkpt>
      <trkpt lat="45.40873" lon="4.61914">
        <ele>1087.9520263672</ele>
        <time>2010-04-06T14:08:31Z</time>
      </trkpt>
      <trkpt lat="45.40863" lon="4.61909">
        <ele>1088.8420410156</ele>
        <time>2010-04-06T14:08:36Z</time>
      </trkpt>
      <trkpt lat="45.40849" lon="4.61901">
        <ele>1090.1450195312</ele>
        <time>2010-04-06T14:08:41Z</time>
      </trkpt>
      <trkpt lat="45.40831" lon="4.6189">
        <ele>1090.8420410156</ele>
        <time>2010-04-06T14:08:47Z</time>
      </trkpt>
      <trkpt lat="45.40807" lon="4.61877">
        <ele>1093.4279785156</ele>
        <time>2010-04-06T14:08:55Z</time>
      </trkpt>
      <trkpt lat="45.40799" lon="4.61872">
        <ele>1094.7419433594</ele>
        <time>2010-04-06T14:08:58Z</time>
      </trkpt>
      <trkpt lat="45.40787" lon="4.61862">
        <ele>1095.7049560547</ele>
        <time>2010-04-06T14:09:03Z</time>
      </trkpt>
      <trkpt lat="45.40773" lon="4.61856">
        <ele>1097.6710205078</ele>
        <time>2010-04-06T14:09:08Z</time>
      </trkpt>
      <trkpt lat="45.40757" lon="4.61853">
        <ele>1099.4479980469</ele>
        <time>2010-04-06T14:09:14Z</time>
      </trkpt>
      <trkpt lat="45.40744" lon="4.61853">
        <ele>1099.5860595703</ele>
        <time>2010-04-06T14:09:19Z</time>
      </trkpt>
      <trkpt lat="45.4073" lon="4.61852">
        <ele>1101.0479736328</ele>
        <time>2010-04-06T14:09:24Z</time>
      </trkpt>
      <trkpt lat="45.40714" lon="4.61848">
        <ele>1104.7810058594</ele>
        <time>2010-04-06T14:09:31Z</time>
      </trkpt>
      <trkpt lat="45.40699" lon="4.61848">
        <ele>1106.4169921875</ele>
        <time>2010-04-06T14:09:36Z</time>
      </trkpt>
      <trkpt lat="45.40679" lon="4.61851">
        <ele>1108.2790527344</ele>
        <time>2010-04-06T14:09:44Z</time>
      </trkpt>
      <trkpt lat="45.4066" lon="4.61852">
        <ele>1108.5260009766</ele>
        <time>2010-04-06T14:09:51Z</time>
      </trkpt>
      <trkpt lat="45.40641" lon="4.61853">
        <ele>1110.3029785156</ele>
        <time>2010-04-06T14:09:58Z</time>
      </trkpt>
      <trkpt lat="45.40636" lon="4.61855">
        <ele>1110.9499511719</ele>
        <time>2010-04-06T14:10:00Z</time>
      </trkpt>
      <trkpt lat="45.4062" lon="4.6186">
        <ele>1111.6030273438</ele>
        <time>2010-04-06T14:10:06Z</time>
      </trkpt>
      <trkpt lat="45.40607" lon="4.6186">
        <ele>1113.0350341797</ele>
        <time>2010-04-06T14:10:11Z</time>
      </trkpt>
      <trkpt lat="45.40605" lon="4.61859">
        <ele>1112.9909667969</ele>
        <time>2010-04-06T14:10:12Z</time>
      </trkpt>
      <trkpt lat="45.40586" lon="4.61857">
        <ele>1116.2679443359</ele>
        <time>2010-04-06T14:10:20Z</time>
      </trkpt>
      <trkpt lat="45.40563" lon="4.61856">
        <ele>1117.8520507812</ele>
        <time>2010-04-06T14:10:28Z</time>
      </trkpt>
      <trkpt lat="45.40533" lon="4.61853">
        <ele>1118.4350585938</ele>
        <time>2010-04-06T14:10:36Z</time>
      </trkpt>
      <trkpt lat="45.40507" lon="4.61848">
        <ele>1120.416015625</ele>
        <time>2010-04-06T14:10:43Z</time>
      </trkpt>
      <trkpt lat="45.40482" lon="4.61842">
        <ele>1123.6800537109</ele>
        <time>2010-04-06T14:10:50Z</time>
      </trkpt>
      <trkpt lat="45.40467" lon="4.61839">
        <ele>1125.7960205078</ele>
        <time>2010-04-06T14:10:55Z</time>
      </trkpt>
      <trkpt lat="45.40444" lon="4.61837">
        <ele>1127.708984375</ele>
        <time>2010-04-06T14:11:02Z</time>
      </trkpt>
      <trkpt lat="45.40427" lon="4.61836">
        <ele>1129.2159423828</ele>
        <time>2010-04-06T14:11:08Z</time>
      </trkpt>
      <trkpt lat="45.40404" lon="4.61829">
        <ele>1131.3699951172</ele>
        <time>2010-04-06T14:11:16Z</time>
      </trkpt>
      <trkpt lat="45.40391" lon="4.61826">
        <ele>1133.4260253906</ele>
        <time>2010-04-06T14:11:21Z</time>
      </trkpt>
      <trkpt lat="45.40378" lon="4.61824">
        <ele>1134.4649658203</ele>
        <time>2010-04-06T14:11:26Z</time>
      </trkpt>
      <trkpt lat="45.40358" lon="4.6182">
        <ele>1134.9880371094</ele>
        <time>2010-04-06T14:11:34Z</time>
      </trkpt>
      <trkpt lat="45.40341" lon="4.61821">
        <ele>1136.7199707031</ele>
        <time>2010-04-06T14:11:40Z</time>
      </trkpt>
      <trkpt lat="45.40326" lon="4.6182">
        <ele>1139.1199951172</ele>
        <time>2010-04-06T14:11:46Z</time>
      </trkpt>
      <trkpt lat="45.40308" lon="4.61824">
        <ele>1141.0209960938</ele>
        <time>2010-04-06T14:11:53Z</time>
      </trkpt>
      <trkpt lat="45.40292" lon="4.61832">
        <ele>1143.0360107422</ele>
        <time>2010-04-06T14:12:01Z</time>
      </trkpt>
      <trkpt lat="45.40281" lon="4.61839">
        <ele>1144.4300537109</ele>
        <time>2010-04-06T14:12:06Z</time>
      </trkpt>
      <trkpt lat="45.4027" lon="4.61844">
        <ele>1145.6459960938</ele>
        <time>2010-04-06T14:12:11Z</time>
      </trkpt>
      <trkpt lat="45.40262" lon="4.61855">
        <ele>1146.6479492188</ele>
        <time>2010-04-06T14:12:16Z</time>
      </trkpt>
      <trkpt lat="45.40253" lon="4.61871">
        <ele>1148.001953125</ele>
        <time>2010-04-06T14:12:22Z</time>
      </trkpt>
      <trkpt lat="45.40246" lon="4.61885">
        <ele>1149.4169921875</ele>
        <time>2010-04-06T14:12:27Z</time>
      </trkpt>
      <trkpt lat="45.40233" lon="4.61902">
        <ele>1150.7769775391</ele>
        <time>2010-04-06T14:12:34Z</time>
      </trkpt>
      <trkpt lat="45.40212" lon="4.61926">
        <ele>1152.8050537109</ele>
        <time>2010-04-06T14:12:44Z</time>
      </trkpt>
      <trkpt lat="45.40196" lon="4.61948">
        <ele>1154.7729492188</ele>
        <time>2010-04-06T14:12:52Z</time>
      </trkpt>
      <trkpt lat="45.4018" lon="4.6197">
        <ele>1156.5050048828</ele>
        <time>2010-04-06T14:13:00Z</time>
      </trkpt>
      <trkpt lat="45.40168" lon="4.61985">
        <ele>1157.5389404297</ele>
        <time>2010-04-06T14:13:05Z</time>
      </trkpt>
      <trkpt lat="45.40158" lon="4.62001">
        <ele>1158.4840087891</ele>
        <time>2010-04-06T14:13:11Z</time>
      </trkpt>
      <trkpt lat="45.40144" lon="4.62018">
        <ele>1160.3879394531</ele>
        <time>2010-04-06T14:13:18Z</time>
      </trkpt>
      <trkpt lat="45.40129" lon="4.6203">
        <ele>1162.8260498047</ele>
        <time>2010-04-06T14:13:25Z</time>
      </trkpt>
      <trkpt lat="45.4011" lon="4.62034">
        <ele>1163.1600341797</ele>
        <time>2010-04-06T14:13:32Z</time>
      </trkpt>
      <trkpt lat="45.40107" lon="4.62034">
        <ele>1163.4239501953</ele>
        <time>2010-04-06T14:13:33Z</time>
      </trkpt>
      <trkpt lat="45.40102" lon="4.62032">
        <ele>1164.5209960938</ele>
        <time>2010-04-06T14:13:35Z</time>
      </trkpt>
      <trkpt lat="45.40095" lon="4.62025">
        <ele>1163.2629394531</ele>
        <time>2010-04-06T14:13:38Z</time>
      </trkpt>
      <trkpt lat="45.40085" lon="4.62012">
        <ele>1166.6429443359</ele>
        <time>2010-04-06T14:13:43Z</time>
      </trkpt>
      <trkpt lat="45.40074" lon="4.61997">
        <ele>1164.7299804688</ele>
        <time>2010-04-06T14:13:49Z</time>
      </trkpt>
      <trkpt lat="45.40062" lon="4.61985">
        <ele>1168.4530029297</ele>
        <time>2010-04-06T14:13:54Z</time>
      </trkpt>
      <trkpt lat="45.40039" lon="4.61969">
        <ele>1168.0340576172</ele>
        <time>2010-04-06T14:14:03Z</time>
      </trkpt>
      <trkpt lat="45.40024" lon="4.61958">
        <ele>1171.3170166016</ele>
        <time>2010-04-06T14:14:10Z</time>
      </trkpt>
      <trkpt lat="45.40007" lon="4.6194">
        <ele>1172.0080566406</ele>
        <time>2010-04-06T14:14:18Z</time>
      </trkpt>
      <trkpt lat="45.39991" lon="4.61912">
        <ele>1173.1510009766</ele>
        <time>2010-04-06T14:14:27Z</time>
      </trkpt>
      <trkpt lat="45.39979" lon="4.61882">
        <ele>1175.6390380859</ele>
        <time>2010-04-06T14:14:35Z</time>
      </trkpt>
      <trkpt lat="45.39972" lon="4.61867">
        <ele>1177.8470458984</ele>
        <time>2010-04-06T14:14:39Z</time>
      </trkpt>
      <trkpt lat="45.3996" lon="4.61841">
        <ele>1178.6820068359</ele>
        <time>2010-04-06T14:14:47Z</time>
      </trkpt>
      <trkpt lat="45.39948" lon="4.6182">
        <ele>1179.6820068359</ele>
        <time>2010-04-06T14:14:54Z</time>
      </trkpt>
      <trkpt lat="45.39938" lon="4.61799">
        <ele>1179.6870117188</ele>
        <time>2010-04-06T14:15:02Z</time>
      </trkpt>
      <trkpt lat="45.39933" lon="4.61792">
        <ele>1181.8229980469</ele>
        <time>2010-04-06T14:15:05Z</time>
      </trkpt>
      <trkpt lat="45.39923" lon="4.61772">
        <ele>1183.1610107422</ele>
        <time>2010-04-06T14:15:12Z</time>
      </trkpt>
      <trkpt lat="45.3991" lon="4.61747">
        <ele>1185.1789550781</ele>
        <time>2010-04-06T14:15:21Z</time>
      </trkpt>
      <trkpt lat="45.399" lon="4.61733">
        <ele>1187.1989746094</ele>
        <time>2010-04-06T14:15:27Z</time>
      </trkpt>
      <trkpt lat="45.39887" lon="4.61718">
        <ele>1187.3969726562</ele>
        <time>2010-04-06T14:15:34Z</time>
      </trkpt>
      <trkpt lat="45.39878" lon="4.61707">
        <ele>1189.5610351562</ele>
        <time>2010-04-06T14:15:39Z</time>
      </trkpt>
      <trkpt lat="45.39861" lon="4.61687">
        <ele>1190.2330322266</ele>
        <time>2010-04-06T14:15:48Z</time>
      </trkpt>
      <trkpt lat="45.39853" lon="4.61674">
        <ele>1191.8160400391</ele>
        <time>2010-04-06T14:15:53Z</time>
      </trkpt>
      <trkpt lat="45.39838" lon="4.61652">
        <ele>1193.3020019531</ele>
        <time>2010-04-06T14:16:02Z</time>
      </trkpt>
      <trkpt lat="45.39822" lon="4.61631">
        <ele>1195.7819824219</ele>
        <time>2010-04-06T14:16:11Z</time>
      </trkpt>
      <trkpt lat="45.39809" lon="4.61618">
        <ele>1197.0080566406</ele>
        <time>2010-04-06T14:16:18Z</time>
      </trkpt>
      <trkpt lat="45.39796" lon="4.61607">
        <ele>1198.9370117188</ele>
        <time>2010-04-06T14:16:25Z</time>
      </trkpt>
      <trkpt lat="45.39779" lon="4.61596">
        <ele>1200.9420166016</ele>
        <time>2010-04-06T14:16:33Z</time>
      </trkpt>
      <trkpt lat="45.39756" lon="4.61585">
        <ele>1202.2790527344</ele>
        <time>2010-04-06T14:16:42Z</time>
      </trkpt>
      <trkpt lat="45.39743" lon="4.61582">
        <ele>1203.3580322266</ele>
        <time>2010-04-06T14:16:47Z</time>
      </trkpt>
      <trkpt lat="45.39724" lon="4.61576">
        <ele>1204.9739990234</ele>
        <time>2010-04-06T14:16:54Z</time>
      </trkpt>
      <trkpt lat="45.39698" lon="4.6157">
        <ele>1206.6490478516</ele>
        <time>2010-04-06T14:17:03Z</time>
      </trkpt>
      <trkpt lat="45.39676" lon="4.61563">
        <ele>1207.123046875</ele>
        <time>2010-04-06T14:17:10Z</time>
      </trkpt>
      <trkpt lat="45.39658" lon="4.61559">
        <ele>1207.1719970703</ele>
        <time>2010-04-06T14:17:15Z</time>
      </trkpt>
      <trkpt lat="45.3964" lon="4.61554">
        <ele>1208.5670166016</ele>
        <time>2010-04-06T14:17:20Z</time>
      </trkpt>
      <trkpt lat="45.39615" lon="4.61544">
        <ele>1208.9799804688</ele>
        <time>2010-04-06T14:17:27Z</time>
      </trkpt>
      <trkpt lat="45.3959" lon="4.61535">
        <ele>1210.3780517578</ele>
        <time>2010-04-06T14:17:34Z</time>
      </trkpt>
      <trkpt lat="45.39579" lon="4.61533">
        <ele>1211.7299804688</ele>
        <time>2010-04-06T14:17:37Z</time>
      </trkpt>
      <trkpt lat="45.3955" lon="4.61531">
        <ele>1212.0129394531</ele>
        <time>2010-04-06T14:17:44Z</time>
      </trkpt>
      <trkpt lat="45.39518" lon="4.6153">
        <ele>1213.6760253906</ele>
        <time>2010-04-06T14:17:51Z</time>
      </trkpt>
      <trkpt lat="45.39476" lon="4.61529">
        <ele>1214.9090576172</ele>
        <time>2010-04-06T14:18:00Z</time>
      </trkpt>
      <trkpt lat="45.39468" lon="4.61529">
        <ele>1215.6800537109</ele>
        <time>2010-04-06T14:18:02Z</time>
      </trkpt>
      <trkpt lat="45.39434" lon="4.61538">
        <ele>1217.1920166016</ele>
        <time>2010-04-06T14:18:10Z</time>
      </trkpt>
      <trkpt lat="45.39389" lon="4.61556">
        <ele>1219.2869873047</ele>
        <time>2010-04-06T14:18:20Z</time>
      </trkpt>
      <trkpt lat="45.39355" lon="4.61568">
        <ele>1219.4620361328</ele>
        <time>2010-04-06T14:18:27Z</time>
      </trkpt>
      <trkpt lat="45.39314" lon="4.61578">
        <ele>1220.4079589844</ele>
        <time>2010-04-06T14:18:36Z</time>
      </trkpt>
      <trkpt lat="45.3927" lon="4.61584">
        <ele>1220.4279785156</ele>
        <time>2010-04-06T14:18:45Z</time>
      </trkpt>
      <trkpt lat="45.39226" lon="4.61581">
        <ele>1219.1469726562</ele>
        <time>2010-04-06T14:18:54Z</time>
      </trkpt>
      <trkpt lat="45.39196" lon="4.61577">
        <ele>1221.0989990234</ele>
        <time>2010-04-06T14:19:00Z</time>
      </trkpt>
      <trkpt lat="45.39191" lon="4.61577">
        <ele>1220.8280029297</ele>
        <time>2010-04-06T14:19:01Z</time>
      </trkpt>
      <trkpt lat="45.39177" lon="4.61575">
        <ele>1221.7629394531</ele>
        <time>2010-04-06T14:19:04Z</time>
      </trkpt>
      <trkpt lat="45.39161" lon="4.61574">
        <ele>1223.125</ele>
        <time>2010-04-06T14:19:07Z</time>
      </trkpt>
      <trkpt lat="45.39128" lon="4.61569">
        <ele>1222.3549804688</ele>
        <time>2010-04-06T14:19:13Z</time>
      </trkpt>
      <trkpt lat="45.391" lon="4.61569">
        <ele>1224.2559814453</ele>
        <time>2010-04-06T14:19:19Z</time>
      </trkpt>
      <trkpt lat="45.39066" lon="4.6157">
        <ele>1224.9830322266</ele>
        <time>2010-04-06T14:19:27Z</time>
      </trkpt>
      <trkpt lat="45.39031" lon="4.61571">
        <ele>1226.4350585938</ele>
        <time>2010-04-06T14:19:35Z</time>
      </trkpt>
      <trkpt lat="45.38996" lon="4.61573">
        <ele>1226.1199951172</ele>
        <time>2010-04-06T14:19:43Z</time>
      </trkpt>
      <trkpt lat="45.38978" lon="4.61574">
        <ele>1227.2409667969</ele>
        <time>2010-04-06T14:19:47Z</time>
      </trkpt>
      <trkpt lat="45.38965" lon="4.61575">
        <ele>1229.0539550781</ele>
        <time>2010-04-06T14:19:50Z</time>
      </trkpt>
      <trkpt lat="45.38915" lon="4.61575">
        <ele>1230.3349609375</ele>
        <time>2010-04-06T14:20:01Z</time>
      </trkpt>
      <trkpt lat="45.38876" lon="4.6157">
        <ele>1228.9260253906</ele>
        <time>2010-04-06T14:20:10Z</time>
      </trkpt>
      <trkpt lat="45.38873" lon="4.61568">
        <ele>1229.2180175781</ele>
        <time>2010-04-06T14:20:11Z</time>
      </trkpt>
      <trkpt lat="45.38857" lon="4.61567">
        <ele>1229.3859863281</ele>
        <time>2010-04-06T14:20:16Z</time>
      </trkpt>
      <trkpt lat="45.38856" lon="4.61566">
        <ele>1230.3990478516</ele>
        <time>2010-04-06T14:20:18Z</time>
      </trkpt>
      <trkpt lat="45.38856" lon="4.61566">
        <ele>1230.1149902344</ele>
        <time>2010-04-06T14:20:19Z</time>
      </trkpt>
      <trkpt lat="45.38858" lon="4.61562">
        <ele>1229.8199462891</ele>
        <time>2010-04-06T14:21:35Z</time>
      </trkpt>
      <trkpt lat="45.38858" lon="4.61562">
        <ele>1230.1040039062</ele>
        <time>2010-04-06T14:21:36Z</time>
      </trkpt>
      <trkpt lat="45.3885" lon="4.61556">
        <ele>1230.583984375</ele>
        <time>2010-04-06T14:24:15Z</time>
      </trkpt>
      <trkpt lat="45.38846" lon="4.61536">
        <ele>1229.1149902344</ele>
        <time>2010-04-06T14:24:21Z</time>
      </trkpt>
      <trkpt lat="45.38844" lon="4.61506">
        <ele>1225.4100341797</ele>
        <time>2010-04-06T14:24:27Z</time>
      </trkpt>
      <trkpt lat="45.38845" lon="4.61461">
        <ele>1224.9670410156</ele>
        <time>2010-04-06T14:24:33Z</time>
      </trkpt>
      <trkpt lat="45.38845" lon="4.61451">
        <ele>1224.3959960938</ele>
        <time>2010-04-06T14:24:34Z</time>
      </trkpt>
      <trkpt lat="45.38833" lon="4.61417">
        <ele>1220.958984375</ele>
        <time>2010-04-06T14:24:38Z</time>
      </trkpt>
      <trkpt lat="45.38818" lon="4.61412">
        <ele>1217.6750488281</ele>
        <time>2010-04-06T14:24:40Z</time>
      </trkpt>
      <trkpt lat="45.3881" lon="4.61415">
        <ele>1218.5699462891</ele>
        <time>2010-04-06T14:24:41Z</time>
      </trkpt>
      <trkpt lat="45.38797" lon="4.61427">
        <ele>1219.9119873047</ele>
        <time>2010-04-06T14:24:43Z</time>
      </trkpt>
      <trkpt lat="45.38784" lon="4.61442">
        <ele>1218.6040039062</ele>
        <time>2010-04-06T14:24:45Z</time>
      </trkpt>
      <trkpt lat="45.38754" lon="4.61463">
        <ele>1214.4759521484</ele>
        <time>2010-04-06T14:24:49Z</time>
      </trkpt>
      <trkpt lat="45.38737" lon="4.61473">
        <ele>1212.208984375</ele>
        <time>2010-04-06T14:24:51Z</time>
      </trkpt>
      <trkpt lat="45.38711" lon="4.61486">
        <ele>1209.7650146484</ele>
        <time>2010-04-06T14:24:54Z</time>
      </trkpt>
      <trkpt lat="45.38683" lon="4.61497">
        <ele>1206.1479492188</ele>
        <time>2010-04-06T14:24:57Z</time>
      </trkpt>
      <trkpt lat="45.38654" lon="4.61501">
        <ele>1204.6180419922</ele>
        <time>2010-04-06T14:25:00Z</time>
      </trkpt>
      <trkpt lat="45.38625" lon="4.61505">
        <ele>1202.0610351562</ele>
        <time>2010-04-06T14:25:03Z</time>
      </trkpt>
      <trkpt lat="45.38567" lon="4.61525">
        <ele>1199.1259765625</ele>
        <time>2010-04-06T14:25:09Z</time>
      </trkpt>
      <trkpt lat="45.38549" lon="4.61535">
        <ele>1200.0240478516</ele>
        <time>2010-04-06T14:25:11Z</time>
      </trkpt>
      <trkpt lat="45.38529" lon="4.6153">
        <ele>1196.7220458984</ele>
        <time>2010-04-06T14:25:14Z</time>
      </trkpt>
      <trkpt lat="45.38523" lon="4.61513">
        <ele>1196.958984375</ele>
        <time>2010-04-06T14:25:16Z</time>
      </trkpt>
      <trkpt lat="45.38531" lon="4.61496">
        <ele>1196.6579589844</ele>
        <time>2010-04-06T14:25:18Z</time>
      </trkpt>
      <trkpt lat="45.38552" lon="4.61482">
        <ele>1197.2180175781</ele>
        <time>2010-04-06T14:25:21Z</time>
      </trkpt>
      <trkpt lat="45.38597" lon="4.6145">
        <ele>1193.0329589844</ele>
        <time>2010-04-06T14:25:27Z</time>
      </trkpt>
      <trkpt lat="45.38603" lon="4.6144">
        <ele>1193.3129882812</ele>
        <time>2010-04-06T14:25:28Z</time>
      </trkpt>
      <trkpt lat="45.38643" lon="4.61382">
        <ele>1191.875</ele>
        <time>2010-04-06T14:25:34Z</time>
      </trkpt>
      <trkpt lat="45.38662" lon="4.61334">
        <ele>1188.2569580078</ele>
        <time>2010-04-06T14:25:38Z</time>
      </trkpt>
      <trkpt lat="45.38665" lon="4.61305">
        <ele>1186.7060546875</ele>
        <time>2010-04-06T14:25:40Z</time>
      </trkpt>
      <trkpt lat="45.38666" lon="4.61261">
        <ele>1184.0520019531</ele>
        <time>2010-04-06T14:25:43Z</time>
      </trkpt>
      <trkpt lat="45.38668" lon="4.612">
        <ele>1181.2320556641</ele>
        <time>2010-04-06T14:25:47Z</time>
      </trkpt>
      <trkpt lat="45.38657" lon="4.61158">
        <ele>1177.8669433594</ele>
        <time>2010-04-06T14:25:50Z</time>
      </trkpt>
      <trkpt lat="45.38629" lon="4.61134">
        <ele>1175.2600097656</ele>
        <time>2010-04-06T14:25:53Z</time>
      </trkpt>
      <trkpt lat="45.3858" lon="4.61102">
        <ele>1173.5959472656</ele>
        <time>2010-04-06T14:25:58Z</time>
      </trkpt>
      <trkpt lat="45.38535" lon="4.61053">
        <ele>1169.7080078125</ele>
        <time>2010-04-06T14:26:03Z</time>
      </trkpt>
      <trkpt lat="45.38503" lon="4.61007">
        <ele>1166.8549804688</ele>
        <time>2010-04-06T14:26:07Z</time>
      </trkpt>
      <trkpt lat="45.38433" lon="4.60916">
        <ele>1159.6929931641</ele>
        <time>2010-04-06T14:26:15Z</time>
      </trkpt>
      <trkpt lat="45.38415" lon="4.60894">
        <ele>1157.1190185547</ele>
        <time>2010-04-06T14:26:17Z</time>
      </trkpt>
      <trkpt lat="45.38375" lon="4.60837">
        <ele>1154.2750244141</ele>
        <time>2010-04-06T14:26:22Z</time>
      </trkpt>
      <trkpt lat="45.38335" lon="4.60755">
        <ele>1148.6149902344</ele>
        <time>2010-04-06T14:26:28Z</time>
      </trkpt>
      <trkpt lat="45.38323" lon="4.60726">
        <ele>1146.0880126953</ele>
        <time>2010-04-06T14:26:30Z</time>
      </trkpt>
      <trkpt lat="45.38308" lon="4.60664">
        <ele>1140.1280517578</ele>
        <time>2010-04-06T14:26:34Z</time>
      </trkpt>
      <trkpt lat="45.38305" lon="4.60647">
        <ele>1140.5460205078</ele>
        <time>2010-04-06T14:26:35Z</time>
      </trkpt>
      <trkpt lat="45.38291" lon="4.60584">
        <ele>1139.3580322266</ele>
        <time>2010-04-06T14:26:39Z</time>
      </trkpt>
      <trkpt lat="45.38266" lon="4.60472">
        <ele>1134.6929931641</ele>
        <time>2010-04-06T14:26:46Z</time>
      </trkpt>
      <trkpt lat="45.38258" lon="4.6042">
        <ele>1133.0500488281</ele>
        <time>2010-04-06T14:26:49Z</time>
      </trkpt>
      <trkpt lat="45.38252" lon="4.60368">
        <ele>1129.4379882812</ele>
        <time>2010-04-06T14:26:52Z</time>
      </trkpt>
      <trkpt lat="45.3823" lon="4.60337">
        <ele>1128.125</ele>
        <time>2010-04-06T14:26:55Z</time>
      </trkpt>
      <trkpt lat="45.38207" lon="4.60344">
        <ele>1125.6689453125</ele>
        <time>2010-04-06T14:26:57Z</time>
      </trkpt>
      <trkpt lat="45.38197" lon="4.6035">
        <ele>1125.4930419922</ele>
        <time>2010-04-06T14:26:58Z</time>
      </trkpt>
      <trkpt lat="45.38142" lon="4.6038">
        <ele>1121.0279541016</ele>
        <time>2010-04-06T14:27:03Z</time>
      </trkpt>
      <trkpt lat="45.38083" lon="4.60397">
        <ele>1116.6020507812</ele>
        <time>2010-04-06T14:27:08Z</time>
      </trkpt>
      <trkpt lat="45.38036" lon="4.60396">
        <ele>1114.0219726562</ele>
        <time>2010-04-06T14:27:12Z</time>
      </trkpt>
      <trkpt lat="45.38" lon="4.60388">
        <ele>1111.2869873047</ele>
        <time>2010-04-06T14:27:15Z</time>
      </trkpt>
      <trkpt lat="45.37989" lon="4.60384">
        <ele>1111.3389892578</ele>
        <time>2010-04-06T14:27:16Z</time>
      </trkpt>
      <trkpt lat="45.37948" lon="4.6035">
        <ele>1107.3409423828</ele>
        <time>2010-04-06T14:27:20Z</time>
      </trkpt>
      <trkpt lat="45.37939" lon="4.60339">
        <ele>1106.5550537109</ele>
        <time>2010-04-06T14:27:21Z</time>
      </trkpt>
      <trkpt lat="45.37902" lon="4.60269">
        <ele>1101.9689941406</ele>
        <time>2010-04-06T14:27:26Z</time>
      </trkpt>
      <trkpt lat="45.37892" lon="4.60237">
        <ele>1099.1369628906</ele>
        <time>2010-04-06T14:27:28Z</time>
      </trkpt>
      <trkpt lat="45.37886" lon="4.60204">
        <ele>1097.3349609375</ele>
        <time>2010-04-06T14:27:30Z</time>
      </trkpt>
      <trkpt lat="45.3788" lon="4.60118">
        <ele>1096.7740478516</ele>
        <time>2010-04-06T14:27:35Z</time>
      </trkpt>
      <trkpt lat="45.3788" lon="4.60102">
        <ele>1096.8149414062</ele>
        <time>2010-04-06T14:27:36Z</time>
      </trkpt>
      <trkpt lat="45.37864" lon="4.60068">
        <ele>1092.8879394531</ele>
        <time>2010-04-06T14:27:39Z</time>
      </trkpt>
      <trkpt lat="45.37843" lon="4.60065">
        <ele>1091.9060058594</ele>
        <time>2010-04-06T14:27:41Z</time>
      </trkpt>
      <trkpt lat="45.37764" lon="4.60075">
        <ele>1086.1669921875</ele>
        <time>2010-04-06T14:27:48Z</time>
      </trkpt>
      <trkpt lat="45.37741" lon="4.60073">
        <ele>1085.0200195312</ele>
        <time>2010-04-06T14:27:50Z</time>
      </trkpt>
      <trkpt lat="45.37729" lon="4.60071">
        <ele>1084.8039550781</ele>
        <time>2010-04-06T14:27:51Z</time>
      </trkpt>
      <trkpt lat="45.37706" lon="4.60062">
        <ele>1082.1999511719</ele>
        <time>2010-04-06T14:27:53Z</time>
      </trkpt>
      <trkpt lat="45.37662" lon="4.60028">
        <ele>1077.6590576172</ele>
        <time>2010-04-06T14:27:57Z</time>
      </trkpt>
      <trkpt lat="45.37653" lon="4.60016">
        <ele>1077.3800048828</ele>
        <time>2010-04-06T14:27:58Z</time>
      </trkpt>
      <trkpt lat="45.37628" lon="4.59975">
        <ele>1074.9289550781</ele>
        <time>2010-04-06T14:28:01Z</time>
      </trkpt>
      <trkpt lat="45.37614" lon="4.59926">
        <ele>1073.5749511719</ele>
        <time>2010-04-06T14:28:04Z</time>
      </trkpt>
      <trkpt lat="45.37612" lon="4.59908">
        <ele>1073.2259521484</ele>
        <time>2010-04-06T14:28:05Z</time>
      </trkpt>
      <trkpt lat="45.37602" lon="4.59774">
        <ele>1066.9969482422</ele>
        <time>2010-04-06T14:28:12Z</time>
      </trkpt>
      <trkpt lat="45.37603" lon="4.59714">
        <ele>1063.3189697266</ele>
        <time>2010-04-06T14:28:15Z</time>
      </trkpt>
      <trkpt lat="45.37613" lon="4.5966">
        <ele>1063.4909667969</ele>
        <time>2010-04-06T14:28:18Z</time>
      </trkpt>
      <trkpt lat="45.37608" lon="4.59625">
        <ele>1061.0069580078</ele>
        <time>2010-04-06T14:28:21Z</time>
      </trkpt>
      <trkpt lat="45.3759" lon="4.59626">
        <ele>1059.2969970703</ele>
        <time>2010-04-06T14:28:23Z</time>
      </trkpt>
      <trkpt lat="45.37581" lon="4.59632">
        <ele>1058.0209960938</ele>
        <time>2010-04-06T14:28:24Z</time>
      </trkpt>
      <trkpt lat="45.37523" lon="4.59669">
        <ele>1054.3220214844</ele>
        <time>2010-04-06T14:28:30Z</time>
      </trkpt>
      <trkpt lat="45.3748" lon="4.59692">
        <ele>1049.9110107422</ele>
        <time>2010-04-06T14:28:34Z</time>
      </trkpt>
      <trkpt lat="45.37411" lon="4.59719">
        <ele>1044.2840576172</ele>
        <time>2010-04-06T14:28:40Z</time>
      </trkpt>
      <trkpt lat="45.374" lon="4.59724">
        <ele>1044.4000244141</ele>
        <time>2010-04-06T14:28:41Z</time>
      </trkpt>
      <trkpt lat="45.37342" lon="4.59744">
        <ele>1039.2810058594</ele>
        <time>2010-04-06T14:28:46Z</time>
      </trkpt>
      <trkpt lat="45.37305" lon="4.59738">
        <ele>1037.8979492188</ele>
        <time>2010-04-06T14:28:49Z</time>
      </trkpt>
      <trkpt lat="45.37294" lon="4.5973">
        <ele>1037.8039550781</ele>
        <time>2010-04-06T14:28:50Z</time>
      </trkpt>
      <trkpt lat="45.37259" lon="4.5972">
        <ele>1035.4079589844</ele>
        <time>2010-04-06T14:28:53Z</time>
      </trkpt>
      <trkpt lat="45.37246" lon="4.59725">
        <ele>1034.9460449219</ele>
        <time>2010-04-06T14:28:54Z</time>
      </trkpt>
      <trkpt lat="45.37209" lon="4.59742">
        <ele>1032.9739990234</ele>
        <time>2010-04-06T14:28:57Z</time>
      </trkpt>
      <trkpt lat="45.37172" lon="4.59739">
        <ele>1031.1190185547</ele>
        <time>2010-04-06T14:29:00Z</time>
      </trkpt>
      <trkpt lat="45.37152" lon="4.59745">
        <ele>1029.8869628906</ele>
        <time>2010-04-06T14:29:02Z</time>
      </trkpt>
      <trkpt lat="45.37142" lon="4.59772">
        <ele>1028.3420410156</ele>
        <time>2010-04-06T14:29:04Z</time>
      </trkpt>
      <trkpt lat="45.37134" lon="4.59802">
        <ele>1027.5389404297</ele>
        <time>2010-04-06T14:29:06Z</time>
      </trkpt>
      <trkpt lat="45.37114" lon="4.59863">
        <ele>1023.4990234375</ele>
        <time>2010-04-06T14:29:10Z</time>
      </trkpt>
      <trkpt lat="45.3708" lon="4.59912">
        <ele>1019.5289916992</ele>
        <time>2010-04-06T14:29:14Z</time>
      </trkpt>
      <trkpt lat="45.37036" lon="4.59952">
        <ele>1016.491027832</ele>
        <time>2010-04-06T14:29:18Z</time>
      </trkpt>
      <trkpt lat="45.37012" lon="4.59968">
        <ele>1014.3499755859</ele>
        <time>2010-04-06T14:29:20Z</time>
      </trkpt>
      <trkpt lat="45.3699" lon="4.59989">
        <ele>1013.2730102539</ele>
        <time>2010-04-06T14:29:22Z</time>
      </trkpt>
      <trkpt lat="45.36948" lon="4.60034">
        <ele>1008.9169921875</ele>
        <time>2010-04-06T14:29:26Z</time>
      </trkpt>
      <trkpt lat="45.36891" lon="4.60082">
        <ele>1004.7349853516</ele>
        <time>2010-04-06T14:29:31Z</time>
      </trkpt>
      <trkpt lat="45.36854" lon="4.60106">
        <ele>1001.7979736328</ele>
        <time>2010-04-06T14:29:34Z</time>
      </trkpt>
      <trkpt lat="45.36808" lon="4.60146">
        <ele>997.47399902344</ele>
        <time>2010-04-06T14:29:38Z</time>
      </trkpt>
      <trkpt lat="45.36746" lon="4.60191">
        <ele>993.80603027344</ele>
        <time>2010-04-06T14:29:43Z</time>
      </trkpt>
      <trkpt lat="45.36687" lon="4.60251">
        <ele>988.98199462891</ele>
        <time>2010-04-06T14:29:48Z</time>
      </trkpt>
      <trkpt lat="45.36652" lon="4.60312">
        <ele>985.09100341797</ele>
        <time>2010-04-06T14:29:52Z</time>
      </trkpt>
      <trkpt lat="45.36644" lon="4.60328">
        <ele>983.26501464844</ele>
        <time>2010-04-06T14:29:53Z</time>
      </trkpt>
      <trkpt lat="45.36609" lon="4.60368">
        <ele>980.66497802734</ele>
        <time>2010-04-06T14:29:56Z</time>
      </trkpt>
      <trkpt lat="45.36571" lon="4.6037">
        <ele>976.56298828125</ele>
        <time>2010-04-06T14:29:59Z</time>
      </trkpt>
      <trkpt lat="45.36542" lon="4.60357">
        <ele>974.1669921875</ele>
        <time>2010-04-06T14:30:01Z</time>
      </trkpt>
      <trkpt lat="45.36529" lon="4.60349">
        <ele>973.86602783203</ele>
        <time>2010-04-06T14:30:02Z</time>
      </trkpt>
      <trkpt lat="45.3651" lon="4.60316">
        <ele>972.57800292969</ele>
        <time>2010-04-06T14:30:04Z</time>
      </trkpt>
      <trkpt lat="45.36494" lon="4.60283">
        <ele>971.47399902344</ele>
        <time>2010-04-06T14:30:06Z</time>
      </trkpt>
      <trkpt lat="45.36425" lon="4.60174">
        <ele>964.96099853516</ele>
        <time>2010-04-06T14:30:14Z</time>
      </trkpt>
      <trkpt lat="45.36399" lon="4.60138">
        <ele>964.34197998047</ele>
        <time>2010-04-06T14:30:17Z</time>
      </trkpt>
      <trkpt lat="45.36371" lon="4.60068">
        <ele>963.68597412109</ele>
        <time>2010-04-06T14:30:22Z</time>
      </trkpt>
      <trkpt lat="45.36367" lon="4.60053">
        <ele>963.43499755859</ele>
        <time>2010-04-06T14:30:23Z</time>
      </trkpt>
      <trkpt lat="45.36362" lon="4.60039">
        <ele>962.31097412109</ele>
        <time>2010-04-06T14:30:24Z</time>
      </trkpt>
      <trkpt lat="45.3633" lon="4.59999">
        <ele>960.34497070312</ele>
        <time>2010-04-06T14:30:28Z</time>
      </trkpt>
      <trkpt lat="45.3632" lon="4.59993">
        <ele>960.79699707031</ele>
        <time>2010-04-06T14:30:29Z</time>
      </trkpt>
      <trkpt lat="45.36247" lon="4.59955">
        <ele>957.46002197266</ele>
        <time>2010-04-06T14:30:36Z</time>
      </trkpt>
      <trkpt lat="45.36227" lon="4.59941">
        <ele>955.15802001953</ele>
        <time>2010-04-06T14:30:38Z</time>
      </trkpt>
      <trkpt lat="45.36205" lon="4.5993">
        <ele>953.9580078125</ele>
        <time>2010-04-06T14:30:40Z</time>
      </trkpt>
      <trkpt lat="45.36183" lon="4.59934">
        <ele>953.13702392578</ele>
        <time>2010-04-06T14:30:42Z</time>
      </trkpt>
      <trkpt lat="45.36123" lon="4.59941">
        <ele>946.98999023438</ele>
        <time>2010-04-06T14:30:47Z</time>
      </trkpt>
      <trkpt lat="45.36111" lon="4.59937">
        <ele>945.71600341797</ele>
        <time>2010-04-06T14:30:48Z</time>
      </trkpt>
      <trkpt lat="45.36039" lon="4.59929">
        <ele>941.2490234375</ele>
        <time>2010-04-06T14:30:54Z</time>
      </trkpt>
      <trkpt lat="45.36015" lon="4.59933">
        <ele>938.77600097656</ele>
        <time>2010-04-06T14:30:56Z</time>
      </trkpt>
      <trkpt lat="45.3597" lon="4.59958">
        <ele>936.33599853516</ele>
        <time>2010-04-06T14:31:00Z</time>
      </trkpt>
      <trkpt lat="45.35897" lon="4.60024">
        <ele>930.48400878906</ele>
        <time>2010-04-06T14:31:07Z</time>
      </trkpt>
      <trkpt lat="45.35876" lon="4.60038">
        <ele>929.58801269531</ele>
        <time>2010-04-06T14:31:09Z</time>
      </trkpt>
      <trkpt lat="45.35808" lon="4.60077">
        <ele>924.75598144531</ele>
        <time>2010-04-06T14:31:15Z</time>
      </trkpt>
      <trkpt lat="45.35779" lon="4.6011">
        <ele>923.11102294922</ele>
        <time>2010-04-06T14:31:18Z</time>
      </trkpt>
      <trkpt lat="45.35723" lon="4.60182">
        <ele>916.96600341797</ele>
        <time>2010-04-06T14:31:24Z</time>
      </trkpt>
      <trkpt lat="45.35694" lon="4.60216">
        <ele>915.03900146484</ele>
        <time>2010-04-06T14:31:27Z</time>
      </trkpt>
      <trkpt lat="45.35632" lon="4.60264">
        <ele>910.30902099609</ele>
        <time>2010-04-06T14:31:33Z</time>
      </trkpt>
      <trkpt lat="45.356" lon="4.60285">
        <ele>908.57098388672</ele>
        <time>2010-04-06T14:31:36Z</time>
      </trkpt>
      <trkpt lat="45.35537" lon="4.60353">
        <ele>905.15197753906</ele>
        <time>2010-04-06T14:31:43Z</time>
      </trkpt>
      <trkpt lat="45.3548" lon="4.6041">
        <ele>900.62799072266</ele>
        <time>2010-04-06T14:31:49Z</time>
      </trkpt>
      <trkpt lat="45.35434" lon="4.60466">
        <ele>897.27899169922</ele>
        <time>2010-04-06T14:31:54Z</time>
      </trkpt>
      <trkpt lat="45.35405" lon="4.60486">
        <ele>894.458984375</ele>
        <time>2010-04-06T14:31:57Z</time>
      </trkpt>
      <trkpt lat="45.35381" lon="4.6048">
        <ele>893.58801269531</ele>
        <time>2010-04-06T14:31:59Z</time>
      </trkpt>
      <trkpt lat="45.35313" lon="4.60459">
        <ele>888.67297363281</ele>
        <time>2010-04-06T14:32:05Z</time>
      </trkpt>
      <trkpt lat="45.35244" lon="4.60449">
        <ele>882.39697265625</ele>
        <time>2010-04-06T14:32:11Z</time>
      </trkpt>
      <trkpt lat="45.35199" lon="4.60435">
        <ele>878.97302246094</ele>
        <time>2010-04-06T14:32:15Z</time>
      </trkpt>
      <trkpt lat="45.3517" lon="4.6041">
        <ele>876.94201660156</ele>
        <time>2010-04-06T14:32:18Z</time>
      </trkpt>
      <trkpt lat="45.35154" lon="4.60387">
        <ele>876.13800048828</ele>
        <time>2010-04-06T14:32:20Z</time>
      </trkpt>
      <trkpt lat="45.35107" lon="4.60336">
        <ele>872.60302734375</ele>
        <time>2010-04-06T14:32:25Z</time>
      </trkpt>
      <trkpt lat="45.35096" lon="4.60332">
        <ele>872.92401123047</ele>
        <time>2010-04-06T14:32:26Z</time>
      </trkpt>
      <trkpt lat="45.35072" lon="4.6034">
        <ele>871.50799560547</ele>
        <time>2010-04-06T14:32:28Z</time>
      </trkpt>
      <trkpt lat="45.35061" lon="4.60349">
        <ele>869.92700195312</ele>
        <time>2010-04-06T14:32:29Z</time>
      </trkpt>
      <trkpt lat="45.35002" lon="4.60385">
        <ele>865.01800537109</ele>
        <time>2010-04-06T14:32:34Z</time>
      </trkpt>
      <trkpt lat="45.3495" lon="4.60388">
        <ele>861.07598876953</ele>
        <time>2010-04-06T14:32:38Z</time>
      </trkpt>
      <trkpt lat="45.34914" lon="4.6037">
        <ele>857.65100097656</ele>
        <time>2010-04-06T14:32:41Z</time>
      </trkpt>
      <trkpt lat="45.34857" lon="4.60332">
        <ele>853.59997558594</ele>
        <time>2010-04-06T14:32:46Z</time>
      </trkpt>
      <trkpt lat="45.34798" lon="4.60301">
        <ele>850.07397460938</ele>
        <time>2010-04-06T14:32:51Z</time>
      </trkpt>
      <trkpt lat="45.34776" lon="4.60286">
        <ele>847.32598876953</ele>
        <time>2010-04-06T14:32:53Z</time>
      </trkpt>
      <trkpt lat="45.34716" lon="4.60269">
        <ele>845.88598632812</ele>
        <time>2010-04-06T14:32:58Z</time>
      </trkpt>
      <trkpt lat="45.34692" lon="4.60266">
        <ele>844.18402099609</ele>
        <time>2010-04-06T14:33:00Z</time>
      </trkpt>
      <trkpt lat="45.34663" lon="4.60286">
        <ele>844.33898925781</ele>
        <time>2010-04-06T14:33:03Z</time>
      </trkpt>
      <trkpt lat="45.34657" lon="4.60319">
        <ele>842.61499023438</ele>
        <time>2010-04-06T14:33:05Z</time>
      </trkpt>
      <trkpt lat="45.34658" lon="4.60336">
        <ele>841.89898681641</ele>
        <time>2010-04-06T14:33:06Z</time>
      </trkpt>
      <trkpt lat="45.34658" lon="4.60369">
        <ele>839.86297607422</ele>
        <time>2010-04-06T14:33:08Z</time>
      </trkpt>
      <trkpt lat="45.34642" lon="4.60409">
        <ele>836.40600585938</ele>
        <time>2010-04-06T14:33:11Z</time>
      </trkpt>
      <trkpt lat="45.34632" lon="4.60416">
        <ele>835.63800048828</ele>
        <time>2010-04-06T14:33:12Z</time>
      </trkpt>
      <trkpt lat="45.34594" lon="4.60452">
        <ele>834.15100097656</ele>
        <time>2010-04-06T14:33:16Z</time>
      </trkpt>
      <trkpt lat="45.34562" lon="4.60467">
        <ele>828.33197021484</ele>
        <time>2010-04-06T14:33:19Z</time>
      </trkpt>
      <trkpt lat="45.3455" lon="4.60467">
        <ele>826.91400146484</ele>
        <time>2010-04-06T14:33:20Z</time>
      </trkpt>
      <trkpt lat="45.34509" lon="4.60452">
        <ele>825.91101074219</ele>
        <time>2010-04-06T14:33:24Z</time>
      </trkpt>
      <trkpt lat="45.345" lon="4.60443">
        <ele>826.73901367188</ele>
        <time>2010-04-06T14:33:25Z</time>
      </trkpt>
      <trkpt lat="45.34475" lon="4.60418">
        <ele>824.64898681641</ele>
        <time>2010-04-06T14:33:28Z</time>
      </trkpt>
      <trkpt lat="45.34446" lon="4.60387">
        <ele>825.94598388672</ele>
        <time>2010-04-06T14:33:32Z</time>
      </trkpt>
      <trkpt lat="45.34425" lon="4.60364">
        <ele>824.79998779297</ele>
        <time>2010-04-06T14:33:35Z</time>
      </trkpt>
      <trkpt lat="45.34407" lon="4.60327">
        <ele>824.43499755859</ele>
        <time>2010-04-06T14:33:39Z</time>
      </trkpt>
      <trkpt lat="45.34407" lon="4.60291">
        <ele>824.48297119141</ele>
        <time>2010-04-06T14:33:42Z</time>
      </trkpt>
      <trkpt lat="45.34419" lon="4.60207">
        <ele>825.21899414062</ele>
        <time>2010-04-06T14:33:49Z</time>
      </trkpt>
      <trkpt lat="45.34419" lon="4.60182">
        <ele>822.2509765625</ele>
        <time>2010-04-06T14:33:51Z</time>
      </trkpt>
      <trkpt lat="45.34415" lon="4.60156">
        <ele>821.59197998047</ele>
        <time>2010-04-06T14:33:53Z</time>
      </trkpt>
      <trkpt lat="45.34399" lon="4.60082">
        <ele>819.35302734375</ele>
        <time>2010-04-06T14:33:59Z</time>
      </trkpt>
      <trkpt lat="45.3438" lon="4.6004">
        <ele>818.33599853516</ele>
        <time>2010-04-06T14:34:03Z</time>
      </trkpt>
      <trkpt lat="45.34373" lon="4.60033">
        <ele>817.07397460938</ele>
        <time>2010-04-06T14:34:04Z</time>
      </trkpt>
      <trkpt lat="45.34332" lon="4.60002">
        <ele>815.89099121094</ele>
        <time>2010-04-06T14:34:09Z</time>
      </trkpt>
      <trkpt lat="45.34316" lon="4.59993">
        <ele>814.47900390625</ele>
        <time>2010-04-06T14:34:11Z</time>
      </trkpt>
      <trkpt lat="45.34291" lon="4.59978">
        <ele>814.19702148438</ele>
        <time>2010-04-06T14:34:14Z</time>
      </trkpt>
      <trkpt lat="45.3426" lon="4.59935">
        <ele>813.93402099609</ele>
        <time>2010-04-06T14:34:19Z</time>
      </trkpt>
      <trkpt lat="45.34253" lon="4.59912">
        <ele>813.07897949219</ele>
        <time>2010-04-06T14:34:21Z</time>
      </trkpt>
      <trkpt lat="45.34231" lon="4.59822">
        <ele>810.74700927734</ele>
        <time>2010-04-06T14:34:28Z</time>
      </trkpt>
      <trkpt lat="45.34216" lon="4.59787">
        <ele>808.26599121094</ele>
        <time>2010-04-06T14:34:31Z</time>
      </trkpt>
      <trkpt lat="45.34188" lon="4.59749">
        <ele>807.61798095703</ele>
        <time>2010-04-06T14:34:35Z</time>
      </trkpt>
      <trkpt lat="45.34171" lon="4.59716">
        <ele>805.49102783203</ele>
        <time>2010-04-06T14:34:38Z</time>
      </trkpt>
      <trkpt lat="45.34166" lon="4.59689">
        <ele>804.43298339844</ele>
        <time>2010-04-06T14:34:40Z</time>
      </trkpt>
      <trkpt lat="45.34156" lon="4.59621">
        <ele>804.41302490234</ele>
        <time>2010-04-06T14:34:45Z</time>
      </trkpt>
      <trkpt lat="45.34131" lon="4.59589">
        <ele>805.36602783203</ele>
        <time>2010-04-06T14:34:49Z</time>
      </trkpt>
      <trkpt lat="45.34106" lon="4.59597">
        <ele>803.13098144531</ele>
        <time>2010-04-06T14:34:52Z</time>
      </trkpt>
      <trkpt lat="45.34089" lon="4.59621">
        <ele>804.38702392578</ele>
        <time>2010-04-06T14:34:55Z</time>
      </trkpt>
      <trkpt lat="45.34081" lon="4.59641">
        <ele>805.26202392578</ele>
        <time>2010-04-06T14:34:57Z</time>
      </trkpt>
      <trkpt lat="45.34061" lon="4.59705">
        <ele>804.40698242188</ele>
        <time>2010-04-06T14:35:03Z</time>
      </trkpt>
      <trkpt lat="45.34052" lon="4.59751">
        <ele>805.16400146484</ele>
        <time>2010-04-06T14:35:07Z</time>
      </trkpt>
      <trkpt lat="45.34053" lon="4.5981">
        <ele>804.93701171875</ele>
        <time>2010-04-06T14:35:12Z</time>
      </trkpt>
      <trkpt lat="45.34053" lon="4.59822">
        <ele>804.77301025391</ele>
        <time>2010-04-06T14:35:13Z</time>
      </trkpt>
      <trkpt lat="45.34042" lon="4.59877">
        <ele>803.60900878906</ele>
        <time>2010-04-06T14:35:18Z</time>
      </trkpt>
      <trkpt lat="45.34019" lon="4.5995">
        <ele>803.47900390625</ele>
        <time>2010-04-06T14:35:25Z</time>
      </trkpt>
      <trkpt lat="45.33991" lon="4.6002">
        <ele>803.63897705078</ele>
        <time>2010-04-06T14:35:32Z</time>
      </trkpt>
      <trkpt lat="45.33953" lon="4.60081">
        <ele>802.65100097656</ele>
        <time>2010-04-06T14:35:39Z</time>
      </trkpt>
      <trkpt lat="45.33932" lon="4.60111">
        <ele>803.89001464844</ele>
        <time>2010-04-06T14:35:43Z</time>
      </trkpt>
      <trkpt lat="45.33921" lon="4.60125">
        <ele>803.41900634766</ele>
        <time>2010-04-06T14:35:45Z</time>
      </trkpt>
      <trkpt lat="45.33892" lon="4.60153">
        <ele>803.26000976562</ele>
        <time>2010-04-06T14:35:50Z</time>
      </trkpt>
      <trkpt lat="45.33886" lon="4.60157">
        <ele>802.52001953125</ele>
        <time>2010-04-06T14:35:51Z</time>
      </trkpt>
      <trkpt lat="45.33869" lon="4.60174">
        <ele>802.85400390625</ele>
        <time>2010-04-06T14:35:54Z</time>
      </trkpt>
      <trkpt lat="45.33855" lon="4.602">
        <ele>800.46502685547</ele>
        <time>2010-04-06T14:35:57Z</time>
      </trkpt>
      <trkpt lat="45.33832" lon="4.60221">
        <ele>798.70697021484</ele>
        <time>2010-04-06T14:36:01Z</time>
      </trkpt>
      <trkpt lat="45.33821" lon="4.60226">
        <ele>799.21502685547</ele>
        <time>2010-04-06T14:36:04Z</time>
      </trkpt>
      <trkpt lat="45.33817" lon="4.60248">
        <ele>798.291015625</ele>
        <time>2010-04-06T14:36:07Z</time>
      </trkpt>
      <trkpt lat="45.33804" lon="4.60272">
        <ele>795.16998291016</ele>
        <time>2010-04-06T14:36:10Z</time>
      </trkpt>
      <trkpt lat="45.33787" lon="4.60274">
        <ele>791.30798339844</ele>
        <time>2010-04-06T14:36:12Z</time>
      </trkpt>
      <trkpt lat="45.33764" lon="4.60254">
        <ele>789.15698242188</ele>
        <time>2010-04-06T14:36:15Z</time>
      </trkpt>
      <trkpt lat="45.33744" lon="4.60206">
        <ele>785.6259765625</ele>
        <time>2010-04-06T14:36:19Z</time>
      </trkpt>
      <trkpt lat="45.33738" lon="4.60179">
        <ele>784.80700683594</ele>
        <time>2010-04-06T14:36:21Z</time>
      </trkpt>
      <trkpt lat="45.33717" lon="4.60126">
        <ele>782.72698974609</ele>
        <time>2010-04-06T14:36:25Z</time>
      </trkpt>
      <trkpt lat="45.33683" lon="4.60085">
        <ele>778.6669921875</ele>
        <time>2010-04-06T14:36:29Z</time>
      </trkpt>
      <trkpt lat="45.3365" lon="4.60077">
        <ele>777.18200683594</ele>
        <time>2010-04-06T14:36:32Z</time>
      </trkpt>
      <trkpt lat="45.33631" lon="4.60093">
        <ele>775.28900146484</ele>
        <time>2010-04-06T14:36:34Z</time>
      </trkpt>
      <trkpt lat="45.33623" lon="4.60105">
        <ele>774.44201660156</ele>
        <time>2010-04-06T14:36:35Z</time>
      </trkpt>
      <trkpt lat="45.33585" lon="4.60167">
        <ele>771.44097900391</ele>
        <time>2010-04-06T14:36:40Z</time>
      </trkpt>
      <trkpt lat="45.33554" lon="4.60218">
        <ele>768.22900390625</ele>
        <time>2010-04-06T14:36:44Z</time>
      </trkpt>
      <trkpt lat="45.33546" lon="4.6023">
        <ele>767.86999511719</ele>
        <time>2010-04-06T14:36:45Z</time>
      </trkpt>
      <trkpt lat="45.33516" lon="4.60255">
        <ele>763.39099121094</ele>
        <time>2010-04-06T14:36:48Z</time>
      </trkpt>
      <trkpt lat="45.33492" lon="4.60247">
        <ele>761.59497070312</ele>
        <time>2010-04-06T14:36:50Z</time>
      </trkpt>
      <trkpt lat="45.33474" lon="4.60222">
        <ele>758.79797363281</ele>
        <time>2010-04-06T14:36:52Z</time>
      </trkpt>
      <trkpt lat="45.33469" lon="4.60206">
        <ele>758.15502929688</ele>
        <time>2010-04-06T14:36:53Z</time>
      </trkpt>
      <trkpt lat="45.33459" lon="4.60174">
        <ele>757.78601074219</ele>
        <time>2010-04-06T14:36:55Z</time>
      </trkpt>
      <trkpt lat="45.33452" lon="4.60104">
        <ele>755.27099609375</ele>
        <time>2010-04-06T14:36:59Z</time>
      </trkpt>
      <trkpt lat="45.3344" lon="4.60035">
        <ele>751.51599121094</ele>
        <time>2010-04-06T14:37:03Z</time>
      </trkpt>
      <trkpt lat="45.33406" lon="4.59955">
        <ele>747.01702880859</ele>
        <time>2010-04-06T14:37:08Z</time>
      </trkpt>
      <trkpt lat="45.3339" lon="4.59926">
        <ele>744.58197021484</ele>
        <time>2010-04-06T14:37:10Z</time>
      </trkpt>
      <trkpt lat="45.33359" lon="4.5984">
        <ele>741.76300048828</ele>
        <time>2010-04-06T14:37:15Z</time>
      </trkpt>
      <trkpt lat="45.33339" lon="4.59766">
        <ele>738.91998291016</ele>
        <time>2010-04-06T14:37:19Z</time>
      </trkpt>
      <trkpt lat="45.33307" lon="4.59695">
        <ele>734.07299804688</ele>
        <time>2010-04-06T14:37:23Z</time>
      </trkpt>
      <trkpt lat="45.33276" lon="4.5965">
        <ele>732.95501708984</ele>
        <time>2010-04-06T14:37:26Z</time>
      </trkpt>
      <trkpt lat="45.33241" lon="4.59638">
        <ele>731.70202636719</ele>
        <time>2010-04-06T14:37:29Z</time>
      </trkpt>
      <trkpt lat="45.33223" lon="4.59656">
        <ele>730.14697265625</ele>
        <time>2010-04-06T14:37:31Z</time>
      </trkpt>
      <trkpt lat="45.33215" lon="4.59685">
        <ele>728.53302001953</ele>
        <time>2010-04-06T14:37:33Z</time>
      </trkpt>
      <trkpt lat="45.33217" lon="4.59713">
        <ele>727.52398681641</ele>
        <time>2010-04-06T14:37:35Z</time>
      </trkpt>
      <trkpt lat="45.33222" lon="4.59742">
        <ele>726.83099365234</ele>
        <time>2010-04-06T14:37:37Z</time>
      </trkpt>
      <trkpt lat="45.33227" lon="4.59821">
        <ele>722.02697753906</ele>
        <time>2010-04-06T14:37:42Z</time>
      </trkpt>
      <trkpt lat="45.3322" lon="4.59875">
        <ele>718.71801757812</ele>
        <time>2010-04-06T14:37:45Z</time>
      </trkpt>
      <trkpt lat="45.33217" lon="4.59909">
        <ele>717.05102539062</ele>
        <time>2010-04-06T14:37:47Z</time>
      </trkpt>
      <trkpt lat="45.33219" lon="4.59985">
        <ele>712.75201416016</ele>
        <time>2010-04-06T14:37:51Z</time>
      </trkpt>
      <trkpt lat="45.33221" lon="4.60004">
        <ele>711.59899902344</ele>
        <time>2010-04-06T14:37:52Z</time>
      </trkpt>
      <trkpt lat="45.3322" lon="4.60079">
        <ele>707.67297363281</ele>
        <time>2010-04-06T14:37:56Z</time>
      </trkpt>
      <trkpt lat="45.33211" lon="4.60136">
        <ele>705.18200683594</ele>
        <time>2010-04-06T14:37:59Z</time>
      </trkpt>
      <trkpt lat="45.3319" lon="4.60248">
        <ele>699.00598144531</ele>
        <time>2010-04-06T14:38:05Z</time>
      </trkpt>
      <trkpt lat="45.33185" lon="4.60266">
        <ele>697.49102783203</ele>
        <time>2010-04-06T14:38:06Z</time>
      </trkpt>
      <trkpt lat="45.33159" lon="4.60312">
        <ele>695.44702148438</ele>
        <time>2010-04-06T14:38:09Z</time>
      </trkpt>
      <trkpt lat="45.33121" lon="4.60335">
        <ele>693.96099853516</ele>
        <time>2010-04-06T14:38:12Z</time>
      </trkpt>
      <trkpt lat="45.33107" lon="4.60339">
        <ele>692.65399169922</ele>
        <time>2010-04-06T14:38:13Z</time>
      </trkpt>
      <trkpt lat="45.33079" lon="4.60347">
        <ele>692.10101318359</ele>
        <time>2010-04-06T14:38:15Z</time>
      </trkpt>
      <trkpt lat="45.33027" lon="4.60382">
        <ele>687.13201904297</ele>
        <time>2010-04-06T14:38:19Z</time>
      </trkpt>
      <trkpt lat="45.32994" lon="4.60424">
        <ele>683.34997558594</ele>
        <time>2010-04-06T14:38:22Z</time>
      </trkpt>
      <trkpt lat="45.32968" lon="4.60473">
        <ele>680.2509765625</ele>
        <time>2010-04-06T14:38:25Z</time>
      </trkpt>
      <trkpt lat="45.32961" lon="4.60487">
        <ele>680.83697509766</ele>
        <time>2010-04-06T14:38:26Z</time>
      </trkpt>
      <trkpt lat="45.32934" lon="4.6051">
        <ele>679.01397705078</ele>
        <time>2010-04-06T14:38:29Z</time>
      </trkpt>
      <trkpt lat="45.32912" lon="4.60506">
        <ele>676.8330078125</ele>
        <time>2010-04-06T14:38:31Z</time>
      </trkpt>
      <trkpt lat="45.32903" lon="4.60501">
        <ele>675.03497314453</ele>
        <time>2010-04-06T14:38:32Z</time>
      </trkpt>
      <trkpt lat="45.32859" lon="4.60482">
        <ele>673.02001953125</ele>
        <time>2010-04-06T14:38:36Z</time>
      </trkpt>
      <trkpt lat="45.32846" lon="4.6048">
        <ele>671.81500244141</ele>
        <time>2010-04-06T14:38:37Z</time>
      </trkpt>
      <trkpt lat="45.32798" lon="4.60496">
        <ele>666.416015625</ele>
        <time>2010-04-06T14:38:41Z</time>
      </trkpt>
      <trkpt lat="45.32748" lon="4.60521">
        <ele>661.71697998047</ele>
        <time>2010-04-06T14:38:45Z</time>
      </trkpt>
      <trkpt lat="45.32685" lon="4.6055">
        <ele>657.67401123047</ele>
        <time>2010-04-06T14:38:50Z</time>
      </trkpt>
      <trkpt lat="45.32672" lon="4.60555">
        <ele>657.59497070312</ele>
        <time>2010-04-06T14:38:51Z</time>
      </trkpt>
      <trkpt lat="45.32642" lon="4.60584">
        <ele>655.16302490234</ele>
        <time>2010-04-06T14:38:54Z</time>
      </trkpt>
      <trkpt lat="45.32635" lon="4.6062">
        <ele>652.34600830078</ele>
        <time>2010-04-06T14:38:56Z</time>
      </trkpt>
      <trkpt lat="45.32635" lon="4.60638">
        <ele>650.11999511719</ele>
        <time>2010-04-06T14:38:57Z</time>
      </trkpt>
      <trkpt lat="45.32629" lon="4.60711">
        <ele>646.37799072266</ele>
        <time>2010-04-06T14:39:01Z</time>
      </trkpt>
      <trkpt lat="45.32613" lon="4.6074">
        <ele>643.67700195312</ele>
        <time>2010-04-06T14:39:03Z</time>
      </trkpt>
      <trkpt lat="45.32589" lon="4.60756">
        <ele>642.16802978516</ele>
        <time>2010-04-06T14:39:05Z</time>
      </trkpt>
      <trkpt lat="45.32552" lon="4.60765">
        <ele>639.07202148438</ele>
        <time>2010-04-06T14:39:08Z</time>
      </trkpt>
      <trkpt lat="45.32539" lon="4.60764">
        <ele>637.68103027344</ele>
        <time>2010-04-06T14:39:09Z</time>
      </trkpt>
      <trkpt lat="45.32513" lon="4.6076">
        <ele>635.40899658203</ele>
        <time>2010-04-06T14:39:11Z</time>
      </trkpt>
      <trkpt lat="45.32487" lon="4.60762">
        <ele>634.02801513672</ele>
        <time>2010-04-06T14:39:13Z</time>
      </trkpt>
      <trkpt lat="45.32437" lon="4.60781">
        <ele>628.80401611328</ele>
        <time>2010-04-06T14:39:17Z</time>
      </trkpt>
      <trkpt lat="45.32402" lon="4.60803">
        <ele>627.23602294922</ele>
        <time>2010-04-06T14:39:20Z</time>
      </trkpt>
      <trkpt lat="45.32381" lon="4.60822">
        <ele>625.99102783203</ele>
        <time>2010-04-06T14:39:22Z</time>
      </trkpt>
      <trkpt lat="45.32345" lon="4.60875">
        <ele>623.43103027344</ele>
        <time>2010-04-06T14:39:26Z</time>
      </trkpt>
      <trkpt lat="45.32314" lon="4.60935">
        <ele>619.79699707031</ele>
        <time>2010-04-06T14:39:30Z</time>
      </trkpt>
      <trkpt lat="45.32309" lon="4.60991">
        <ele>616.28399658203</ele>
        <time>2010-04-06T14:39:33Z</time>
      </trkpt>
      <trkpt lat="45.32321" lon="4.61025">
        <ele>614.458984375</ele>
        <time>2010-04-06T14:39:35Z</time>
      </trkpt>
      <trkpt lat="45.32353" lon="4.61057">
        <ele>612.44598388672</ele>
        <time>2010-04-06T14:39:38Z</time>
      </trkpt>
      <trkpt lat="45.3242" lon="4.61082">
        <ele>608.62097167969</ele>
        <time>2010-04-06T14:39:43Z</time>
      </trkpt>
      <trkpt lat="45.3246" lon="4.61091">
        <ele>606.42498779297</ele>
        <time>2010-04-06T14:39:46Z</time>
      </trkpt>
      <trkpt lat="45.32487" lon="4.61111">
        <ele>604.03802490234</ele>
        <time>2010-04-06T14:39:49Z</time>
      </trkpt>
      <trkpt lat="45.32488" lon="4.61137">
        <ele>600.47302246094</ele>
        <time>2010-04-06T14:39:51Z</time>
      </trkpt>
      <trkpt lat="45.32483" lon="4.6115">
        <ele>600.43200683594</ele>
        <time>2010-04-06T14:39:52Z</time>
      </trkpt>
      <trkpt lat="45.32477" lon="4.61162">
        <ele>599.9580078125</ele>
        <time>2010-04-06T14:39:53Z</time>
      </trkpt>
      <trkpt lat="45.32457" lon="4.61194">
        <ele>597.65502929688</ele>
        <time>2010-04-06T14:39:56Z</time>
      </trkpt>
      <trkpt lat="45.32424" lon="4.61241">
        <ele>595.60797119141</ele>
        <time>2010-04-06T14:40:01Z</time>
      </trkpt>
      <trkpt lat="45.32386" lon="4.61278">
        <ele>594.55902099609</ele>
        <time>2010-04-06T14:40:06Z</time>
      </trkpt>
      <trkpt lat="45.32332" lon="4.61336">
        <ele>591.62701416016</ele>
        <time>2010-04-06T14:40:13Z</time>
      </trkpt>
      <trkpt lat="45.32308" lon="4.61362">
        <ele>589.78302001953</ele>
        <time>2010-04-06T14:40:16Z</time>
      </trkpt>
      <trkpt lat="45.32291" lon="4.61378">
        <ele>588.24401855469</ele>
        <time>2010-04-06T14:40:18Z</time>
      </trkpt>
      <trkpt lat="45.32269" lon="4.61401">
        <ele>590.73901367188</ele>
        <time>2010-04-06T14:40:22Z</time>
      </trkpt>
      <trkpt lat="45.32267" lon="4.61406">
        <ele>590.82000732422</ele>
        <time>2010-04-06T14:40:25Z</time>
      </trkpt>
      <trkpt lat="45.32268" lon="4.61408">
        <ele>591.12298583984</ele>
        <time>2010-04-06T14:40:26Z</time>
      </trkpt>
      <trkpt lat="45.32271" lon="4.6141">
        <ele>590.30499267578</ele>
        <time>2010-04-06T14:40:34Z</time>
      </trkpt>
      <trkpt lat="45.32269" lon="4.61423">
        <ele>589.9990234375</ele>
        <time>2010-04-06T14:40:38Z</time>
      </trkpt>
      <trkpt lat="45.32266" lon="4.61436">
        <ele>589.63201904297</ele>
        <time>2010-04-06T14:40:43Z</time>
      </trkpt>
      <trkpt lat="45.32263" lon="4.61439">
        <ele>589.08801269531</ele>
        <time>2010-04-06T14:40:45Z</time>
      </trkpt>
      <trkpt lat="45.3226" lon="4.61434">
        <ele>589.57897949219</ele>
        <time>2010-04-06T14:40:50Z</time>
      </trkpt>
      <trkpt lat="45.32249" lon="4.6143">
        <ele>588.24401855469</ele>
        <time>2010-04-06T14:40:59Z</time>
      </trkpt>
      <trkpt lat="45.32246" lon="4.61441">
        <ele>588.69702148438</ele>
        <time>2010-04-06T14:41:04Z</time>
      </trkpt>
      <trkpt lat="45.3225" lon="4.61438">
        <ele>588.98199462891</ele>
        <time>2010-04-06T14:41:07Z</time>
      </trkpt>
      <trkpt lat="45.32253" lon="4.6143">
        <ele>589.02502441406</ele>
        <time>2010-04-06T14:41:10Z</time>
      </trkpt>
      <trkpt lat="45.32259" lon="4.61428">
        <ele>589.56201171875</ele>
        <time>2010-04-06T14:41:15Z</time>
      </trkpt>
      <trkpt lat="45.32258" lon="4.61432">
        <ele>588.80102539062</ele>
        <time>2010-04-06T14:41:21Z</time>
      </trkpt>
      <trkpt lat="45.32257" lon="4.61428">
        <ele>589.46398925781</ele>
        <time>2010-04-06T14:41:25Z</time>
      </trkpt>
      <trkpt lat="45.32253" lon="4.6142">
        <ele>588.11700439453</ele>
        <time>2010-04-06T14:43:54Z</time>
      </trkpt>
      <trkpt lat="45.32248" lon="4.61423">
        <ele>587.98297119141</ele>
        <time>2010-04-06T14:43:56Z</time>
      </trkpt>
      <trkpt lat="45.32235" lon="4.61435">
        <ele>587.13500976562</ele>
        <time>2010-04-06T14:44:00Z</time>
      </trkpt>
      <trkpt lat="45.32219" lon="4.61447">
        <ele>586.71801757812</ele>
        <time>2010-04-06T14:44:04Z</time>
      </trkpt>
      <trkpt lat="45.32206" lon="4.61455">
        <ele>586.59802246094</ele>
        <time>2010-04-06T14:44:07Z</time>
      </trkpt>
      <trkpt lat="45.32192" lon="4.61469">
        <ele>586.71697998047</ele>
        <time>2010-04-06T14:44:11Z</time>
      </trkpt>
      <trkpt lat="45.32196" lon="4.61496">
        <ele>584.9169921875</ele>
        <time>2010-04-06T14:44:15Z</time>
      </trkpt>
      <trkpt lat="45.32202" lon="4.61512">
        <ele>583.66101074219</ele>
        <time>2010-04-06T14:44:17Z</time>
      </trkpt>
      <trkpt lat="45.32212" lon="4.61538">
        <ele>582.03100585938</ele>
        <time>2010-04-06T14:44:20Z</time>
      </trkpt>
      <trkpt lat="45.32221" lon="4.61588">
        <ele>584.00598144531</ele>
        <time>2010-04-06T14:44:25Z</time>
      </trkpt>
      <trkpt lat="45.32215" lon="4.61616">
        <ele>582.15502929688</ele>
        <time>2010-04-06T14:44:29Z</time>
      </trkpt>
      <trkpt lat="45.32206" lon="4.6163">
        <ele>580.8740234375</ele>
        <time>2010-04-06T14:44:31Z</time>
      </trkpt>
      <trkpt lat="45.32186" lon="4.6167">
        <ele>581.60498046875</ele>
        <time>2010-04-06T14:44:36Z</time>
      </trkpt>
      <trkpt lat="45.32161" lon="4.61709">
        <ele>581.46002197266</ele>
        <time>2010-04-06T14:44:42Z</time>
      </trkpt>
      <trkpt lat="45.32137" lon="4.6176">
        <ele>582.00701904297</ele>
        <time>2010-04-06T14:44:49Z</time>
      </trkpt>
      <trkpt lat="45.32127" lon="4.61781">
        <ele>582.05401611328</ele>
        <time>2010-04-06T14:44:52Z</time>
      </trkpt>
      <trkpt lat="45.32113" lon="4.61826">
        <ele>582.89697265625</ele>
        <time>2010-04-06T14:44:58Z</time>
      </trkpt>
      <trkpt lat="45.32106" lon="4.61888">
        <ele>582.25402832031</ele>
        <time>2010-04-06T14:45:05Z</time>
      </trkpt>
      <trkpt lat="45.32097" lon="4.61961">
        <ele>581.78900146484</ele>
        <time>2010-04-06T14:45:13Z</time>
      </trkpt>
      <trkpt lat="45.32085" lon="4.62018">
        <ele>580.98797607422</ele>
        <time>2010-04-06T14:45:19Z</time>
      </trkpt>
      <trkpt lat="45.32056" lon="4.62107">
        <ele>579.81799316406</ele>
        <time>2010-04-06T14:45:28Z</time>
      </trkpt>
      <trkpt lat="45.3203" lon="4.62188">
        <ele>579.34399414062</ele>
        <time>2010-04-06T14:45:36Z</time>
      </trkpt>
      <trkpt lat="45.31997" lon="4.62295">
        <ele>578.57000732422</ele>
        <time>2010-04-06T14:45:46Z</time>
      </trkpt>
      <trkpt lat="45.31966" lon="4.62395">
        <ele>577.09002685547</ele>
        <time>2010-04-06T14:45:55Z</time>
      </trkpt>
      <trkpt lat="45.3195" lon="4.62457">
        <ele>574.27301025391</ele>
        <time>2010-04-06T14:46:00Z</time>
      </trkpt>
      <trkpt lat="45.31946" lon="4.62499">
        <ele>573.3330078125</ele>
        <time>2010-04-06T14:46:03Z</time>
      </trkpt>
      <trkpt lat="45.31932" lon="4.62551">
        <ele>569.94702148438</ele>
        <time>2010-04-06T14:46:07Z</time>
      </trkpt>
      <trkpt lat="45.31915" lon="4.62604">
        <ele>566.57000732422</ele>
        <time>2010-04-06T14:46:11Z</time>
      </trkpt>
      <trkpt lat="45.31905" lon="4.62646">
        <ele>565.85998535156</ele>
        <time>2010-04-06T14:46:14Z</time>
      </trkpt>
      <trkpt lat="45.31899" lon="4.62674">
        <ele>565.2509765625</ele>
        <time>2010-04-06T14:46:16Z</time>
      </trkpt>
      <trkpt lat="45.31894" lon="4.62701">
        <ele>564.4580078125</ele>
        <time>2010-04-06T14:46:18Z</time>
      </trkpt>
      <trkpt lat="45.31889" lon="4.62752">
        <ele>565.92102050781</ele>
        <time>2010-04-06T14:46:22Z</time>
      </trkpt>
      <trkpt lat="45.31894" lon="4.6282">
        <ele>565.04602050781</ele>
        <time>2010-04-06T14:46:28Z</time>
      </trkpt>
      <trkpt lat="45.31899" lon="4.62895">
        <ele>563.61700439453</ele>
        <time>2010-04-06T14:46:35Z</time>
      </trkpt>
      <trkpt lat="45.31894" lon="4.62956">
        <ele>562.85198974609</ele>
        <time>2010-04-06T14:46:40Z</time>
      </trkpt>
      <trkpt lat="45.3188" lon="4.63056">
        <ele>560.18597412109</ele>
        <time>2010-04-06T14:46:48Z</time>
      </trkpt>
      <trkpt lat="45.31869" lon="4.63158">
        <ele>558.10498046875</ele>
        <time>2010-04-06T14:46:56Z</time>
      </trkpt>
      <trkpt lat="45.31858" lon="4.63241">
        <ele>558.39599609375</ele>
        <time>2010-04-06T14:47:03Z</time>
      </trkpt>
      <trkpt lat="45.31853" lon="4.63269">
        <ele>558.41302490234</ele>
        <time>2010-04-06T14:47:06Z</time>
      </trkpt>
      <trkpt lat="45.31843" lon="4.6329">
        <ele>558.01599121094</ele>
        <time>2010-04-06T14:47:11Z</time>
      </trkpt>
      <trkpt lat="45.31842" lon="4.63294">
        <ele>558.51300048828</ele>
        <time>2010-04-06T14:47:12Z</time>
      </trkpt>
      <trkpt lat="45.31842" lon="4.63322">
        <ele>559.04302978516</ele>
        <time>2010-04-06T14:47:18Z</time>
      </trkpt>
      <trkpt lat="45.31843" lon="4.63327">
        <ele>559.40002441406</ele>
        <time>2010-04-06T14:47:19Z</time>
      </trkpt>
      <trkpt lat="45.31842" lon="4.63353">
        <ele>558.91198730469</ele>
        <time>2010-04-06T14:47:23Z</time>
      </trkpt>
      <trkpt lat="45.31831" lon="4.63394">
        <ele>558.89202880859</ele>
        <time>2010-04-06T14:47:29Z</time>
      </trkpt>
      <trkpt lat="45.31822" lon="4.63419">
        <ele>561.45599365234</ele>
        <time>2010-04-06T14:47:33Z</time>
      </trkpt>
      <trkpt lat="45.3182" lon="4.63426">
        <ele>561.52899169922</ele>
        <time>2010-04-06T14:47:34Z</time>
      </trkpt>
      <trkpt lat="45.31806" lon="4.63467">
        <ele>562.34197998047</ele>
        <time>2010-04-06T14:47:41Z</time>
      </trkpt>
      <trkpt lat="45.31796" lon="4.63498">
        <ele>565.19299316406</ele>
        <time>2010-04-06T14:47:46Z</time>
      </trkpt>
      <trkpt lat="45.31789" lon="4.63516">
        <ele>563.85998535156</ele>
        <time>2010-04-06T14:47:49Z</time>
      </trkpt>
      <trkpt lat="45.31781" lon="4.63539">
        <ele>564.31402587891</ele>
        <time>2010-04-06T14:47:53Z</time>
      </trkpt>
      <trkpt lat="45.3176" lon="4.63584">
        <ele>565.92498779297</ele>
        <time>2010-04-06T14:48:02Z</time>
      </trkpt>
      <trkpt lat="45.3174" lon="4.63634">
        <ele>566.86798095703</ele>
        <time>2010-04-06T14:48:11Z</time>
      </trkpt>
      <trkpt lat="45.31729" lon="4.63685">
        <ele>568.63897705078</ele>
        <time>2010-04-06T14:48:19Z</time>
      </trkpt>
      <trkpt lat="45.31728" lon="4.63725">
        <ele>569.44097900391</ele>
        <time>2010-04-06T14:48:25Z</time>
      </trkpt>
      <trkpt lat="45.31728" lon="4.63775">
        <ele>569.53997802734</ele>
        <time>2010-04-06T14:48:33Z</time>
      </trkpt>
      <trkpt lat="45.31728" lon="4.63829">
        <ele>572.04602050781</ele>
        <time>2010-04-06T14:48:42Z</time>
      </trkpt>
      <trkpt lat="45.3173" lon="4.63873">
        <ele>573.04498291016</ele>
        <time>2010-04-06T14:48:49Z</time>
      </trkpt>
      <trkpt lat="45.31736" lon="4.63931">
        <ele>574.31500244141</ele>
        <time>2010-04-06T14:48:58Z</time>
      </trkpt>
      <trkpt lat="45.31743" lon="4.63999">
        <ele>575.88000488281</ele>
        <time>2010-04-06T14:49:08Z</time>
      </trkpt>
      <trkpt lat="45.31747" lon="4.64031">
        <ele>577.49200439453</ele>
        <time>2010-04-06T14:49:13Z</time>
      </trkpt>
      <trkpt lat="45.31753" lon="4.6409">
        <ele>579.31597900391</ele>
        <time>2010-04-06T14:49:22Z</time>
      </trkpt>
      <trkpt lat="45.31754" lon="4.64097">
        <ele>579.12298583984</ele>
        <time>2010-04-06T14:49:23Z</time>
      </trkpt>
      <trkpt lat="45.31763" lon="4.64142">
        <ele>580.30297851562</ele>
        <time>2010-04-06T14:49:30Z</time>
      </trkpt>
      <trkpt lat="45.3178" lon="4.64183">
        <ele>581.82397460938</ele>
        <time>2010-04-06T14:49:37Z</time>
      </trkpt>
      <trkpt lat="45.31804" lon="4.64226">
        <ele>583.29797363281</ele>
        <time>2010-04-06T14:49:45Z</time>
      </trkpt>
      <trkpt lat="45.31814" lon="4.64251">
        <ele>584.07800292969</ele>
        <time>2010-04-06T14:49:49Z</time>
      </trkpt>
      <trkpt lat="45.31818" lon="4.64278">
        <ele>584.416015625</ele>
        <time>2010-04-06T14:49:53Z</time>
      </trkpt>
      <trkpt lat="45.31809" lon="4.6431">
        <ele>584.79699707031</ele>
        <time>2010-04-06T14:49:58Z</time>
      </trkpt>
      <trkpt lat="45.31802" lon="4.64321">
        <ele>584.93499755859</ele>
        <time>2010-04-06T14:50:00Z</time>
      </trkpt>
      <trkpt lat="45.31769" lon="4.64347">
        <ele>586.90301513672</ele>
        <time>2010-04-06T14:50:07Z</time>
      </trkpt>
      <trkpt lat="45.31725" lon="4.64374">
        <ele>588.75402832031</ele>
        <time>2010-04-06T14:50:17Z</time>
      </trkpt>
      <trkpt lat="45.31692" lon="4.64391">
        <ele>589.62200927734</ele>
        <time>2010-04-06T14:50:25Z</time>
      </trkpt>
      <trkpt lat="45.31671" lon="4.64402">
        <ele>590.53002929688</ele>
        <time>2010-04-06T14:50:30Z</time>
      </trkpt>
      <trkpt lat="45.31633" lon="4.64423">
        <ele>590.79498291016</ele>
        <time>2010-04-06T14:50:39Z</time>
      </trkpt>
      <trkpt lat="45.31604" lon="4.6444">
        <ele>593.41101074219</ele>
        <time>2010-04-06T14:50:46Z</time>
      </trkpt>
      <trkpt lat="45.31575" lon="4.64466">
        <ele>593.77197265625</ele>
        <time>2010-04-06T14:50:53Z</time>
      </trkpt>
      <trkpt lat="45.31548" lon="4.64503">
        <ele>593.41497802734</ele>
        <time>2010-04-06T14:51:00Z</time>
      </trkpt>
      <trkpt lat="45.31508" lon="4.64563">
        <ele>590.90698242188</ele>
        <time>2010-04-06T14:51:09Z</time>
      </trkpt>
      <trkpt lat="45.31469" lon="4.64619">
        <ele>590.47601318359</ele>
        <time>2010-04-06T14:51:17Z</time>
      </trkpt>
      <trkpt lat="45.31438" lon="4.64665">
        <ele>586.53302001953</ele>
        <time>2010-04-06T14:51:23Z</time>
      </trkpt>
      <trkpt lat="45.31398" lon="4.64718">
        <ele>587.13598632812</ele>
        <time>2010-04-06T14:51:31Z</time>
      </trkpt>
      <trkpt lat="45.31353" lon="4.64775">
        <ele>585.71697998047</ele>
        <time>2010-04-06T14:51:39Z</time>
      </trkpt>
      <trkpt lat="45.31319" lon="4.64812">
        <ele>584.12701416016</ele>
        <time>2010-04-06T14:51:45Z</time>
      </trkpt>
      <trkpt lat="45.31296" lon="4.64834">
        <ele>585.11901855469</ele>
        <time>2010-04-06T14:51:49Z</time>
      </trkpt>
      <trkpt lat="45.31249" lon="4.64879">
        <ele>584.57702636719</ele>
        <time>2010-04-06T14:51:57Z</time>
      </trkpt>
      <trkpt lat="45.31195" lon="4.64929">
        <ele>583.26098632812</ele>
        <time>2010-04-06T14:52:06Z</time>
      </trkpt>
      <trkpt lat="45.31136" lon="4.64981">
        <ele>583.42901611328</ele>
        <time>2010-04-06T14:52:16Z</time>
      </trkpt>
      <trkpt lat="45.31073" lon="4.6504">
        <ele>584.46398925781</ele>
        <time>2010-04-06T14:52:27Z</time>
      </trkpt>
      <trkpt lat="45.31008" lon="4.651">
        <ele>584.05499267578</ele>
        <time>2010-04-06T14:52:38Z</time>
      </trkpt>
      <trkpt lat="45.30941" lon="4.65162">
        <ele>581.05297851562</ele>
        <time>2010-04-06T14:52:49Z</time>
      </trkpt>
      <trkpt lat="45.30878" lon="4.65223">
        <ele>582.7509765625</ele>
        <time>2010-04-06T14:52:59Z</time>
      </trkpt>
      <trkpt lat="45.30857" lon="4.65254">
        <ele>579.84301757812</ele>
        <time>2010-04-06T14:53:03Z</time>
      </trkpt>
      <trkpt lat="45.30833" lon="4.65309">
        <ele>580.51000976562</ele>
        <time>2010-04-06T14:53:09Z</time>
      </trkpt>
      <trkpt lat="45.30821" lon="4.65335">
        <ele>580.05102539062</ele>
        <time>2010-04-06T14:53:12Z</time>
      </trkpt>
      <trkpt lat="45.30795" lon="4.65363">
        <ele>578.74700927734</ele>
        <time>2010-04-06T14:53:17Z</time>
      </trkpt>
      <trkpt lat="45.30753" lon="4.65397">
        <ele>581.24102783203</ele>
        <time>2010-04-06T14:53:25Z</time>
      </trkpt>
      <trkpt lat="45.30744" lon="4.65406">
        <ele>581.91198730469</ele>
        <time>2010-04-06T14:53:27Z</time>
      </trkpt>
      <trkpt lat="45.307" lon="4.65453">
        <ele>582.44897460938</ele>
        <time>2010-04-06T14:53:37Z</time>
      </trkpt>
      <trkpt lat="45.30669" lon="4.65481">
        <ele>584.16497802734</ele>
        <time>2010-04-06T14:53:44Z</time>
      </trkpt>
      <trkpt lat="45.30652" lon="4.65496">
        <ele>582.0419921875</ele>
        <time>2010-04-06T14:53:48Z</time>
      </trkpt>
      <trkpt lat="45.30627" lon="4.65521">
        <ele>585.08898925781</ele>
        <time>2010-04-06T14:53:55Z</time>
      </trkpt>
      <trkpt lat="45.30614" lon="4.65541">
        <ele>585.11602783203</ele>
        <time>2010-04-06T14:53:59Z</time>
      </trkpt>
      <trkpt lat="45.30601" lon="4.65579">
        <ele>585.78399658203</ele>
        <time>2010-04-06T14:54:05Z</time>
      </trkpt>
      <trkpt lat="45.30594" lon="4.65621">
        <ele>586.21997070312</ele>
        <time>2010-04-06T14:54:11Z</time>
      </trkpt>
      <trkpt lat="45.30585" lon="4.65686">
        <ele>587.98297119141</ele>
        <time>2010-04-06T14:54:20Z</time>
      </trkpt>
      <trkpt lat="45.30584" lon="4.65693">
        <ele>587.5</ele>
        <time>2010-04-06T14:54:21Z</time>
      </trkpt>
      <trkpt lat="45.30583" lon="4.65738">
        <ele>587.61700439453</ele>
        <time>2010-04-06T14:54:27Z</time>
      </trkpt>
      <trkpt lat="45.3059" lon="4.65784">
        <ele>588.88397216797</ele>
        <time>2010-04-06T14:54:33Z</time>
      </trkpt>
      <trkpt lat="45.30604" lon="4.65837">
        <ele>590.20300292969</ele>
        <time>2010-04-06T14:54:40Z</time>
      </trkpt>
      <trkpt lat="45.30605" lon="4.65844">
        <ele>590.33898925781</ele>
        <time>2010-04-06T14:54:41Z</time>
      </trkpt>
      <trkpt lat="45.30605" lon="4.65882">
        <ele>591.71997070312</ele>
        <time>2010-04-06T14:54:46Z</time>
      </trkpt>
      <trkpt lat="45.30596" lon="4.65903">
        <ele>592.31799316406</ele>
        <time>2010-04-06T14:54:49Z</time>
      </trkpt>
      <trkpt lat="45.30561" lon="4.65943">
        <ele>592.93298339844</ele>
        <time>2010-04-06T14:54:57Z</time>
      </trkpt>
      <trkpt lat="45.30557" lon="4.65949">
        <ele>592.77099609375</ele>
        <time>2010-04-06T14:54:58Z</time>
      </trkpt>
      <trkpt lat="45.30549" lon="4.65962">
        <ele>593.22399902344</ele>
        <time>2010-04-06T14:55:00Z</time>
      </trkpt>
      <trkpt lat="45.30534" lon="4.66009">
        <ele>595.53802490234</ele>
        <time>2010-04-06T14:55:06Z</time>
      </trkpt>
      <trkpt lat="45.3053" lon="4.66061">
        <ele>595.18798828125</ele>
        <time>2010-04-06T14:55:12Z</time>
      </trkpt>
      <trkpt lat="45.30531" lon="4.66078">
        <ele>596.2080078125</ele>
        <time>2010-04-06T14:55:14Z</time>
      </trkpt>
      <trkpt lat="45.30541" lon="4.66117">
        <ele>597.77600097656</ele>
        <time>2010-04-06T14:55:19Z</time>
      </trkpt>
      <trkpt lat="45.30561" lon="4.6615">
        <ele>598.28900146484</ele>
        <time>2010-04-06T14:55:24Z</time>
      </trkpt>
      <trkpt lat="45.3059" lon="4.66181">
        <ele>599.88598632812</ele>
        <time>2010-04-06T14:55:30Z</time>
      </trkpt>
      <trkpt lat="45.30627" lon="4.66212">
        <ele>600.39898681641</ele>
        <time>2010-04-06T14:55:37Z</time>
      </trkpt>
      <trkpt lat="45.30678" lon="4.66257">
        <ele>601.62799072266</ele>
        <time>2010-04-06T14:55:47Z</time>
      </trkpt>
      <trkpt lat="45.30688" lon="4.66266">
        <ele>602.87902832031</ele>
        <time>2010-04-06T14:55:49Z</time>
      </trkpt>
      <trkpt lat="45.30706" lon="4.66298">
        <ele>602.60302734375</ele>
        <time>2010-04-06T14:55:54Z</time>
      </trkpt>
      <trkpt lat="45.30704" lon="4.66324">
        <ele>602.42199707031</ele>
        <time>2010-04-06T14:55:57Z</time>
      </trkpt>
      <trkpt lat="45.30692" lon="4.66339">
        <ele>603.81701660156</ele>
        <time>2010-04-06T14:56:00Z</time>
      </trkpt>
      <trkpt lat="45.30676" lon="4.66339">
        <ele>604.48101806641</ele>
        <time>2010-04-06T14:56:03Z</time>
      </trkpt>
      <trkpt lat="45.30638" lon="4.66326">
        <ele>605.32098388672</ele>
        <time>2010-04-06T14:56:11Z</time>
      </trkpt>
      <trkpt lat="45.30613" lon="4.66321">
        <ele>607.71002197266</ele>
        <time>2010-04-06T14:56:17Z</time>
      </trkpt>
      <trkpt lat="45.30589" lon="4.66323">
        <ele>608.54602050781</ele>
        <time>2010-04-06T14:56:22Z</time>
      </trkpt>
      <trkpt lat="45.30579" lon="4.66326">
        <ele>609.34301757812</ele>
        <time>2010-04-06T14:56:24Z</time>
      </trkpt>
      <trkpt lat="45.30568" lon="4.6633">
        <ele>609.32397460938</ele>
        <time>2010-04-06T14:56:26Z</time>
      </trkpt>
      <trkpt lat="45.30552" lon="4.66346">
        <ele>610.58599853516</ele>
        <time>2010-04-06T14:56:30Z</time>
      </trkpt>
      <trkpt lat="45.30525" lon="4.66389">
        <ele>612.76098632812</ele>
        <time>2010-04-06T14:56:39Z</time>
      </trkpt>
      <trkpt lat="45.30505" lon="4.66427">
        <ele>614.75598144531</ele>
        <time>2010-04-06T14:56:47Z</time>
      </trkpt>
      <trkpt lat="45.30497" lon="4.66455">
        <ele>615.53302001953</ele>
        <time>2010-04-06T14:56:52Z</time>
      </trkpt>
      <trkpt lat="45.30501" lon="4.665">
        <ele>616.0009765625</ele>
        <time>2010-04-06T14:56:58Z</time>
      </trkpt>
      <trkpt lat="45.30522" lon="4.66557">
        <ele>616.1669921875</ele>
        <time>2010-04-06T14:57:05Z</time>
      </trkpt>
      <trkpt lat="45.3055" lon="4.66625">
        <ele>616.67700195312</ele>
        <time>2010-04-06T14:57:13Z</time>
      </trkpt>
      <trkpt lat="45.3057" lon="4.667">
        <ele>616.45001220703</ele>
        <time>2010-04-06T14:57:21Z</time>
      </trkpt>
      <trkpt lat="45.30579" lon="4.66769">
        <ele>615.96002197266</ele>
        <time>2010-04-06T14:57:28Z</time>
      </trkpt>
      <trkpt lat="45.30596" lon="4.66838">
        <ele>615.34100341797</ele>
        <time>2010-04-06T14:57:35Z</time>
      </trkpt>
      <trkpt lat="45.30617" lon="4.66892">
        <ele>614.49401855469</ele>
        <time>2010-04-06T14:57:41Z</time>
      </trkpt>
      <trkpt lat="45.30654" lon="4.66996">
        <ele>614</ele>
        <time>2010-04-06T14:57:52Z</time>
      </trkpt>
      <trkpt lat="45.30665" lon="4.6706">
        <ele>614.44000244141</ele>
        <time>2010-04-06T14:57:58Z</time>
      </trkpt>
      <trkpt lat="45.30669" lon="4.67106">
        <ele>613.73699951172</ele>
        <time>2010-04-06T14:58:02Z</time>
      </trkpt>
      <trkpt lat="45.30661" lon="4.67151">
        <ele>613.53997802734</ele>
        <time>2010-04-06T14:58:06Z</time>
      </trkpt>
      <trkpt lat="45.30656" lon="4.67161">
        <ele>614.17498779297</ele>
        <time>2010-04-06T14:58:07Z</time>
      </trkpt>
      <trkpt lat="45.30646" lon="4.67178">
        <ele>614.07299804688</ele>
        <time>2010-04-06T14:58:09Z</time>
      </trkpt>
      <trkpt lat="45.30636" lon="4.67219">
        <ele>614.54998779297</ele>
        <time>2010-04-06T14:58:13Z</time>
      </trkpt>
      <trkpt lat="45.30641" lon="4.67251">
        <ele>614.75299072266</ele>
        <time>2010-04-06T14:58:16Z</time>
      </trkpt>
      <trkpt lat="45.30667" lon="4.67319">
        <ele>615.03997802734</ele>
        <time>2010-04-06T14:58:23Z</time>
      </trkpt>
      <trkpt lat="45.3071" lon="4.67377">
        <ele>614.34100341797</ele>
        <time>2010-04-06T14:58:30Z</time>
      </trkpt>
      <trkpt lat="45.30753" lon="4.67427">
        <ele>614.30798339844</ele>
        <time>2010-04-06T14:58:37Z</time>
      </trkpt>
      <trkpt lat="45.30816" lon="4.67505">
        <ele>614.86297607422</ele>
        <time>2010-04-06T14:58:47Z</time>
      </trkpt>
      <trkpt lat="45.30845" lon="4.67556">
        <ele>614.04400634766</ele>
        <time>2010-04-06T14:58:52Z</time>
      </trkpt>
      <trkpt lat="45.30868" lon="4.67597">
        <ele>614.35101318359</ele>
        <time>2010-04-06T14:58:56Z</time>
      </trkpt>
      <trkpt lat="45.30899" lon="4.6762">
        <ele>614.84497070312</ele>
        <time>2010-04-06T14:59:00Z</time>
      </trkpt>
      <trkpt lat="45.30917" lon="4.67615">
        <ele>614.38598632812</ele>
        <time>2010-04-06T14:59:02Z</time>
      </trkpt>
      <trkpt lat="45.30949" lon="4.67621">
        <ele>614.12298583984</ele>
        <time>2010-04-06T14:59:06Z</time>
      </trkpt>
      <trkpt lat="45.30953" lon="4.67643">
        <ele>612.56402587891</ele>
        <time>2010-04-06T14:59:08Z</time>
      </trkpt>
      <trkpt lat="45.30948" lon="4.67665">
        <ele>610.79302978516</ele>
        <time>2010-04-06T14:59:10Z</time>
      </trkpt>
      <trkpt lat="45.30915" lon="4.67774">
        <ele>610.76501464844</ele>
        <time>2010-04-06T14:59:20Z</time>
      </trkpt>
      <trkpt lat="45.30887" lon="4.67871">
        <ele>610.52398681641</ele>
        <time>2010-04-06T14:59:28Z</time>
      </trkpt>
      <trkpt lat="45.30867" lon="4.67918">
        <ele>609.19097900391</ele>
        <time>2010-04-06T14:59:32Z</time>
      </trkpt>
      <trkpt lat="45.30839" lon="4.67969">
        <ele>607.17999267578</ele>
        <time>2010-04-06T14:59:37Z</time>
      </trkpt>
      <trkpt lat="45.30827" lon="4.68015">
        <ele>607.01599121094</ele>
        <time>2010-04-06T14:59:41Z</time>
      </trkpt>
      <trkpt lat="45.30825" lon="4.68027">
        <ele>607.1669921875</ele>
        <time>2010-04-06T14:59:42Z</time>
      </trkpt>
      <trkpt lat="45.30831" lon="4.68076">
        <ele>608.96801757812</ele>
        <time>2010-04-06T14:59:47Z</time>
      </trkpt>
      <trkpt lat="45.30836" lon="4.68098">
        <ele>610.19097900391</ele>
        <time>2010-04-06T14:59:50Z</time>
      </trkpt>
      <trkpt lat="45.30843" lon="4.68132">
        <ele>611.33801269531</ele>
        <time>2010-04-06T14:59:55Z</time>
      </trkpt>
      <trkpt lat="45.30843" lon="4.68159">
        <ele>611.98699951172</ele>
        <time>2010-04-06T14:59:59Z</time>
      </trkpt>
      <trkpt lat="45.30837" lon="4.68211">
        <ele>614.40802001953</ele>
        <time>2010-04-06T15:00:08Z</time>
      </trkpt>
      <trkpt lat="45.30836" lon="4.68223">
        <ele>614.59301757812</ele>
        <time>2010-04-06T15:00:10Z</time>
      </trkpt>
      <trkpt lat="45.30838" lon="4.68242">
        <ele>615.59497070312</ele>
        <time>2010-04-06T15:00:13Z</time>
      </trkpt>
      <trkpt lat="45.30851" lon="4.68271">
        <ele>615.68798828125</ele>
        <time>2010-04-06T15:00:18Z</time>
      </trkpt>
      <trkpt lat="45.30861" lon="4.68298">
        <ele>615.92498779297</ele>
        <time>2010-04-06T15:00:22Z</time>
      </trkpt>
      <trkpt lat="45.30869" lon="4.68326">
        <ele>616.34802246094</ele>
        <time>2010-04-06T15:00:26Z</time>
      </trkpt>
      <trkpt lat="45.30872" lon="4.68355">
        <ele>616.87097167969</ele>
        <time>2010-04-06T15:00:30Z</time>
      </trkpt>
      <trkpt lat="45.30872" lon="4.68378">
        <ele>616.16302490234</ele>
        <time>2010-04-06T15:00:33Z</time>
      </trkpt>
      <trkpt lat="45.30862" lon="4.68432">
        <ele>614.86602783203</ele>
        <time>2010-04-06T15:00:39Z</time>
      </trkpt>
      <trkpt lat="45.30843" lon="4.6849">
        <ele>612.21398925781</ele>
        <time>2010-04-06T15:00:45Z</time>
      </trkpt>
      <trkpt lat="45.30838" lon="4.685">
        <ele>612.75500488281</ele>
        <time>2010-04-06T15:00:46Z</time>
      </trkpt>
      <trkpt lat="45.30822" lon="4.68537">
        <ele>612.55297851562</ele>
        <time>2010-04-06T15:00:50Z</time>
      </trkpt>
      <trkpt lat="45.30817" lon="4.68545">
        <ele>612.40197753906</ele>
        <time>2010-04-06T15:00:51Z</time>
      </trkpt>
      <trkpt lat="45.3079" lon="4.68583">
        <ele>612.31500244141</ele>
        <time>2010-04-06T15:00:57Z</time>
      </trkpt>
      <trkpt lat="45.30779" lon="4.68599">
        <ele>612.00500488281</ele>
        <time>2010-04-06T15:01:00Z</time>
      </trkpt>
      <trkpt lat="45.30771" lon="4.68607">
        <ele>612.02801513672</ele>
        <time>2010-04-06T15:01:02Z</time>
      </trkpt>
      <trkpt lat="45.30764" lon="4.68615">
        <ele>611.83099365234</ele>
        <time>2010-04-06T15:01:04Z</time>
      </trkpt>
      <trkpt lat="45.30746" lon="4.68626">
        <ele>610.98797607422</ele>
        <time>2010-04-06T15:01:08Z</time>
      </trkpt>
      <trkpt lat="45.30738" lon="4.68629">
        <ele>611.666015625</ele>
        <time>2010-04-06T15:01:10Z</time>
      </trkpt>
      <trkpt lat="45.30726" lon="4.68631">
        <ele>611.11199951172</ele>
        <time>2010-04-06T15:01:13Z</time>
      </trkpt>
      <trkpt lat="45.30717" lon="4.68634">
        <ele>610.24597167969</ele>
        <time>2010-04-06T15:01:15Z</time>
      </trkpt>
      <trkpt lat="45.30701" lon="4.68645">
        <ele>612.21002197266</ele>
        <time>2010-04-06T15:01:19Z</time>
      </trkpt>
      <trkpt lat="45.30684" lon="4.68666">
        <ele>612.34002685547</ele>
        <time>2010-04-06T15:01:25Z</time>
      </trkpt>
      <trkpt lat="45.30673" lon="4.68682">
        <ele>612.66302490234</ele>
        <time>2010-04-06T15:01:31Z</time>
      </trkpt>
      <trkpt lat="45.3067" lon="4.68687">
        <ele>611.43597412109</ele>
        <time>2010-04-06T15:01:33Z</time>
      </trkpt>
      <trkpt lat="45.30663" lon="4.68707">
        <ele>612.31799316406</ele>
        <time>2010-04-06T15:01:39Z</time>
      </trkpt>
      <trkpt lat="45.30658" lon="4.6873">
        <ele>613.78601074219</ele>
        <time>2010-04-06T15:01:45Z</time>
      </trkpt>
      <trkpt lat="45.3065" lon="4.68766">
        <ele>614.11199951172</ele>
        <time>2010-04-06T15:01:52Z</time>
      </trkpt>
      <trkpt lat="45.30644" lon="4.6878">
        <ele>613.15802001953</ele>
        <time>2010-04-06T15:01:55Z</time>
      </trkpt>
      <trkpt lat="45.30638" lon="4.68788">
        <ele>612.25500488281</ele>
        <time>2010-04-06T15:01:57Z</time>
      </trkpt>
      <trkpt lat="45.30621" lon="4.68807">
        <ele>612.78698730469</ele>
        <time>2010-04-06T15:02:02Z</time>
      </trkpt>
      <trkpt lat="45.3061" lon="4.68816">
        <ele>612.28997802734</ele>
        <time>2010-04-06T15:02:05Z</time>
      </trkpt>
      <trkpt lat="45.30594" lon="4.68829">
        <ele>611.67297363281</ele>
        <time>2010-04-06T15:02:09Z</time>
      </trkpt>
      <trkpt lat="45.30577" lon="4.68842">
        <ele>612.67199707031</ele>
        <time>2010-04-06T15:02:13Z</time>
      </trkpt>
      <trkpt lat="45.30546" lon="4.68872">
        <ele>612.35998535156</ele>
        <time>2010-04-06T15:02:21Z</time>
      </trkpt>
      <trkpt lat="45.30535" lon="4.68886">
        <ele>612.66900634766</ele>
        <time>2010-04-06T15:02:24Z</time>
      </trkpt>
      <trkpt lat="45.30529" lon="4.68897">
        <ele>612.43200683594</ele>
        <time>2010-04-06T15:02:26Z</time>
      </trkpt>
      <trkpt lat="45.30522" lon="4.68931">
        <ele>611.98101806641</ele>
        <time>2010-04-06T15:02:31Z</time>
      </trkpt>
      <trkpt lat="45.30524" lon="4.68988">
        <ele>612.70300292969</ele>
        <time>2010-04-06T15:02:38Z</time>
      </trkpt>
      <trkpt lat="45.30527" lon="4.69023">
        <ele>613.80603027344</ele>
        <time>2010-04-06T15:02:42Z</time>
      </trkpt>
      <trkpt lat="45.30527" lon="4.69074">
        <ele>611.93200683594</ele>
        <time>2010-04-06T15:02:48Z</time>
      </trkpt>
      <trkpt lat="45.30526" lon="4.69083">
        <ele>611.96197509766</ele>
        <time>2010-04-06T15:02:49Z</time>
      </trkpt>
      <trkpt lat="45.30523" lon="4.69108">
        <ele>611</ele>
        <time>2010-04-06T15:02:52Z</time>
      </trkpt>
      <trkpt lat="45.30505" lon="4.69169">
        <ele>608.35198974609</ele>
        <time>2010-04-06T15:02:59Z</time>
      </trkpt>
      <trkpt lat="45.30499" lon="4.69201">
        <ele>606.28399658203</ele>
        <time>2010-04-06T15:03:02Z</time>
      </trkpt>
      <trkpt lat="45.30497" lon="4.69212">
        <ele>606.81896972656</ele>
        <time>2010-04-06T15:03:03Z</time>
      </trkpt>
      <trkpt lat="45.30479" lon="4.69247">
        <ele>604.51397705078</ele>
        <time>2010-04-06T15:03:07Z</time>
      </trkpt>
      <trkpt lat="45.30452" lon="4.69267">
        <ele>602.58502197266</ele>
        <time>2010-04-06T15:03:11Z</time>
      </trkpt>
      <trkpt lat="45.30423" lon="4.69281">
        <ele>600.80499267578</ele>
        <time>2010-04-06T15:03:15Z</time>
      </trkpt>
      <trkpt lat="45.30399" lon="4.69284">
        <ele>598.27301025391</ele>
        <time>2010-04-06T15:03:18Z</time>
      </trkpt>
      <trkpt lat="45.30392" lon="4.69284">
        <ele>598.62298583984</ele>
        <time>2010-04-06T15:03:19Z</time>
      </trkpt>
      <trkpt lat="45.30363" lon="4.69297">
        <ele>598.44799804688</ele>
        <time>2010-04-06T15:03:23Z</time>
      </trkpt>
      <trkpt lat="45.30346" lon="4.69321">
        <ele>598.67498779297</ele>
        <time>2010-04-06T15:03:26Z</time>
      </trkpt>
      <trkpt lat="45.30338" lon="4.69353">
        <ele>598.41198730469</ele>
        <time>2010-04-06T15:03:29Z</time>
      </trkpt>
      <trkpt lat="45.30322" lon="4.69379">
        <ele>597.06298828125</ele>
        <time>2010-04-06T15:03:32Z</time>
      </trkpt>
      <trkpt lat="45.30305" lon="4.69382">
        <ele>594.73400878906</ele>
        <time>2010-04-06T15:03:34Z</time>
      </trkpt>
      <trkpt lat="45.30273" lon="4.69391">
        <ele>593.39099121094</ele>
        <time>2010-04-06T15:03:38Z</time>
      </trkpt>
      <trkpt lat="45.30266" lon="4.69398">
        <ele>594.12200927734</ele>
        <time>2010-04-06T15:03:39Z</time>
      </trkpt>
      <trkpt lat="45.30254" lon="4.69414">
        <ele>593.46197509766</ele>
        <time>2010-04-06T15:03:41Z</time>
      </trkpt>
      <trkpt lat="45.30223" lon="4.69428">
        <ele>592.94702148438</ele>
        <time>2010-04-06T15:03:45Z</time>
      </trkpt>
      <trkpt lat="45.30207" lon="4.69421">
        <ele>591.71002197266</ele>
        <time>2010-04-06T15:03:47Z</time>
      </trkpt>
      <trkpt lat="45.30192" lon="4.69411">
        <ele>591.58898925781</ele>
        <time>2010-04-06T15:03:49Z</time>
      </trkpt>
      <trkpt lat="45.30159" lon="4.69404">
        <ele>589.34301757812</ele>
        <time>2010-04-06T15:03:53Z</time>
      </trkpt>
      <trkpt lat="45.30151" lon="4.69404">
        <ele>589.27697753906</ele>
        <time>2010-04-06T15:03:54Z</time>
      </trkpt>
      <trkpt lat="45.30124" lon="4.69385">
        <ele>587.60699462891</ele>
        <time>2010-04-06T15:03:58Z</time>
      </trkpt>
      <trkpt lat="45.3012" lon="4.69374">
        <ele>587.34997558594</ele>
        <time>2010-04-06T15:03:59Z</time>
      </trkpt>
      <trkpt lat="45.30121" lon="4.6935">
        <ele>588.71801757812</ele>
        <time>2010-04-06T15:04:01Z</time>
      </trkpt>
      <trkpt lat="45.30129" lon="4.69274">
        <ele>587.09399414062</ele>
        <time>2010-04-06T15:04:07Z</time>
      </trkpt>
      <trkpt lat="45.3013" lon="4.6926">
        <ele>586.55700683594</ele>
        <time>2010-04-06T15:04:08Z</time>
      </trkpt>
      <trkpt lat="45.30122" lon="4.69208">
        <ele>585.36499023438</ele>
        <time>2010-04-06T15:04:12Z</time>
      </trkpt>
      <trkpt lat="45.30116" lon="4.69197">
        <ele>585.90600585938</ele>
        <time>2010-04-06T15:04:13Z</time>
      </trkpt>
      <trkpt lat="45.30085" lon="4.69144">
        <ele>581.0009765625</ele>
        <time>2010-04-06T15:04:18Z</time>
      </trkpt>
      <trkpt lat="45.30048" lon="4.69114">
        <ele>578.90502929688</ele>
        <time>2010-04-06T15:04:23Z</time>
      </trkpt>
      <trkpt lat="45.30002" lon="4.69099">
        <ele>579.08898925781</ele>
        <time>2010-04-06T15:04:29Z</time>
      </trkpt>
      <trkpt lat="45.2995" lon="4.69107">
        <ele>574.35498046875</ele>
        <time>2010-04-06T15:04:36Z</time>
      </trkpt>
      <trkpt lat="45.29912" lon="4.69127">
        <ele>574.42700195312</ele>
        <time>2010-04-06T15:04:41Z</time>
      </trkpt>
      <trkpt lat="45.29884" lon="4.69152">
        <ele>570.87902832031</ele>
        <time>2010-04-06T15:04:45Z</time>
      </trkpt>
      <trkpt lat="45.29849" lon="4.69188">
        <ele>567.82000732422</ele>
        <time>2010-04-06T15:04:50Z</time>
      </trkpt>
      <trkpt lat="45.29815" lon="4.6923">
        <ele>566.09301757812</ele>
        <time>2010-04-06T15:04:55Z</time>
      </trkpt>
      <trkpt lat="45.29803" lon="4.69253">
        <ele>562.67901611328</ele>
        <time>2010-04-06T15:04:57Z</time>
      </trkpt>
      <trkpt lat="45.29796" lon="4.69265">
        <ele>561.46697998047</ele>
        <time>2010-04-06T15:04:58Z</time>
      </trkpt>
      <trkpt lat="45.29765" lon="4.69301">
        <ele>560.48901367188</ele>
        <time>2010-04-06T15:05:02Z</time>
      </trkpt>
      <trkpt lat="45.29747" lon="4.69307">
        <ele>558.97998046875</ele>
        <time>2010-04-06T15:05:04Z</time>
      </trkpt>
      <trkpt lat="45.29731" lon="4.69306">
        <ele>555.94396972656</ele>
        <time>2010-04-06T15:05:06Z</time>
      </trkpt>
      <trkpt lat="45.2968" lon="4.69298">
        <ele>552.31201171875</ele>
        <time>2010-04-06T15:05:13Z</time>
      </trkpt>
      <trkpt lat="45.29673" lon="4.69296">
        <ele>552.13397216797</ele>
        <time>2010-04-06T15:05:14Z</time>
      </trkpt>
      <trkpt lat="45.29655" lon="4.69293">
        <ele>550.72198486328</ele>
        <time>2010-04-06T15:05:17Z</time>
      </trkpt>
      <trkpt lat="45.29642" lon="4.69291">
        <ele>550.66497802734</ele>
        <time>2010-04-06T15:05:20Z</time>
      </trkpt>
      <trkpt lat="45.29629" lon="4.69289">
        <ele>550.23797607422</ele>
        <time>2010-04-06T15:05:24Z</time>
      </trkpt>
      <trkpt lat="45.29623" lon="4.69285">
        <ele>551.96301269531</ele>
        <time>2010-04-06T15:05:26Z</time>
      </trkpt>
      <trkpt lat="45.2962" lon="4.69263">
        <ele>551.11102294922</ele>
        <time>2010-04-06T15:05:31Z</time>
      </trkpt>
      <trkpt lat="45.29625" lon="4.6925">
        <ele>549.82501220703</ele>
        <time>2010-04-06T15:05:34Z</time>
      </trkpt>
      <trkpt lat="45.29628" lon="4.69246">
        <ele>549.85699462891</ele>
        <time>2010-04-06T15:05:35Z</time>
      </trkpt>
      <trkpt lat="45.29636" lon="4.69218">
        <ele>548.69702148438</ele>
        <time>2010-04-06T15:05:41Z</time>
      </trkpt>
      <trkpt lat="45.29645" lon="4.69206">
        <ele>548.93402099609</ele>
        <time>2010-04-06T15:05:45Z</time>
      </trkpt>
      <trkpt lat="45.2965" lon="4.69208">
        <ele>549.21997070312</ele>
        <time>2010-04-06T15:05:50Z</time>
      </trkpt>
      <trkpt lat="45.29655" lon="4.69206">
        <ele>550.04797363281</ele>
        <time>2010-04-06T15:05:56Z</time>
      </trkpt>
      <trkpt lat="45.2965" lon="4.6921">
        <ele>549.07702636719</ele>
        <time>2010-04-06T15:06:00Z</time>
      </trkpt>
      <trkpt lat="45.29643" lon="4.69209">
        <ele>549.24597167969</ele>
        <time>2010-04-06T15:06:04Z</time>
      </trkpt>
      <trkpt lat="45.29642" lon="4.69186">
        <ele>549.19396972656</ele>
        <time>2010-04-06T15:06:10Z</time>
      </trkpt>
      <trkpt lat="45.29648" lon="4.69156">
        <ele>549.54498291016</ele>
        <time>2010-04-06T15:06:16Z</time>
      </trkpt>
      <trkpt lat="45.29649" lon="4.69146">
        <ele>548.27001953125</ele>
        <time>2010-04-06T15:06:18Z</time>
      </trkpt>
      <trkpt lat="45.29641" lon="4.69138">
        <ele>547.9990234375</ele>
        <time>2010-04-06T15:06:23Z</time>
      </trkpt>
      <trkpt lat="45.29639" lon="4.69137">
        <ele>547</ele>
        <time>2010-04-06T15:06:25Z</time>
      </trkpt>
      <trkpt lat="45.29632" lon="4.69142">
        <ele>552.02697753906</ele>
        <time>2010-04-06T15:06:31Z</time>
      </trkpt>
      <trkpt lat="45.29628" lon="4.69149">
        <ele>548.76397705078</ele>
        <time>2010-04-06T15:06:34Z</time>
      </trkpt>
      <trkpt lat="45.29625" lon="4.69158">
        <ele>546.06500244141</ele>
        <time>2010-04-06T15:06:37Z</time>
      </trkpt>
      <trkpt lat="45.29624" lon="4.69161">
        <ele>546.24298095703</ele>
        <time>2010-04-06T15:06:38Z</time>
      </trkpt>
      <trkpt lat="45.29623" lon="4.69166">
        <ele>547.81201171875</ele>
        <time>2010-04-06T15:06:40Z</time>
      </trkpt>
      <trkpt lat="45.29619" lon="4.69166">
        <ele>547.38702392578</ele>
        <time>2010-04-06T15:06:44Z</time>
      </trkpt>
      <trkpt lat="45.29626" lon="4.6916">
        <ele>546.59497070312</ele>
        <time>2010-04-06T15:06:48Z</time>
      </trkpt>
      <trkpt lat="45.29629" lon="4.69153">
        <ele>547.34002685547</ele>
        <time>2010-04-06T15:06:50Z</time>
      </trkpt>
      <trkpt lat="45.29631" lon="4.69142">
        <ele>549.88897705078</ele>
        <time>2010-04-06T15:06:53Z</time>
      </trkpt>
      <trkpt lat="45.29643" lon="4.69141">
        <ele>549.52801513672</ele>
        <time>2010-04-06T15:06:57Z</time>
      </trkpt>
      <trkpt lat="45.29647" lon="4.69159">
        <ele>548.03802490234</ele>
        <time>2010-04-06T15:07:01Z</time>
      </trkpt>
      <trkpt lat="45.29646" lon="4.69165">
        <ele>547.375</ele>
        <time>2010-04-06T15:07:02Z</time>
      </trkpt>
      <trkpt lat="45.29641" lon="4.69183">
        <ele>548.09802246094</ele>
        <time>2010-04-06T15:07:05Z</time>
      </trkpt>
      <trkpt lat="45.29642" lon="4.69212">
        <ele>548.80798339844</ele>
        <time>2010-04-06T15:07:10Z</time>
      </trkpt>
      <trkpt lat="45.29639" lon="4.69216">
        <ele>548.43798828125</ele>
        <time>2010-04-06T15:07:11Z</time>
      </trkpt>
      <trkpt lat="45.29632" lon="4.69237">
        <ele>549.40197753906</ele>
        <time>2010-04-06T15:07:16Z</time>
      </trkpt>
      <trkpt lat="45.29633" lon="4.69244">
        <ele>550.0419921875</ele>
        <time>2010-04-06T15:07:20Z</time>
      </trkpt>
      <trkpt lat="45.29634" lon="4.69244">
        <ele>549.10797119141</ele>
        <time>2010-04-06T15:07:47Z</time>
      </trkpt>
      <trkpt lat="45.29634" lon="4.69244">
        <ele>549.16302490234</ele>
        <time>2010-04-06T15:07:48Z</time>
      </trkpt>
      <trkpt lat="45.29628" lon="4.69246">
        <ele>548.70697021484</ele>
        <time>2010-04-06T15:09:21Z</time>
      </trkpt>
      <trkpt lat="45.29622" lon="4.69256">
        <ele>548.32501220703</ele>
        <time>2010-04-06T15:09:26Z</time>
      </trkpt>
      <trkpt lat="45.29621" lon="4.69258">
        <ele>548.375</ele>
        <time>2010-04-06T15:09:27Z</time>
      </trkpt>
      <trkpt lat="45.29622" lon="4.69272">
        <ele>549.25201416016</ele>
        <time>2010-04-06T15:09:31Z</time>
      </trkpt>
      <trkpt lat="45.29619" lon="4.69298">
        <ele>550.05603027344</ele>
        <time>2010-04-06T15:09:38Z</time>
      </trkpt>
      <trkpt lat="45.2961" lon="4.69311">
        <ele>548.94702148438</ele>
        <time>2010-04-06T15:09:42Z</time>
      </trkpt>
      <trkpt lat="45.29571" lon="4.69322">
        <ele>546.11901855469</ele>
        <time>2010-04-06T15:09:50Z</time>
      </trkpt>
      <trkpt lat="45.29566" lon="4.69323">
        <ele>545.89300537109</ele>
        <time>2010-04-06T15:09:51Z</time>
      </trkpt>
      <trkpt lat="45.29555" lon="4.69325">
        <ele>545.34002685547</ele>
        <time>2010-04-06T15:09:53Z</time>
      </trkpt>
      <trkpt lat="45.29544" lon="4.69327">
        <ele>544.83898925781</ele>
        <time>2010-04-06T15:09:55Z</time>
      </trkpt>
      <trkpt lat="45.2952" lon="4.69327">
        <ele>543.49102783203</ele>
        <time>2010-04-06T15:09:59Z</time>
      </trkpt>
      <trkpt lat="45.29491" lon="4.69346">
        <ele>542.27502441406</ele>
        <time>2010-04-06T15:10:04Z</time>
      </trkpt>
      <trkpt lat="45.29486" lon="4.69353">
        <ele>542.41198730469</ele>
        <time>2010-04-06T15:10:05Z</time>
      </trkpt>
      <trkpt lat="45.2944" lon="4.69419">
        <ele>535.73101806641</ele>
        <time>2010-04-06T15:10:13Z</time>
      </trkpt>
      <trkpt lat="45.29435" lon="4.69428">
        <ele>535.49200439453</ele>
        <time>2010-04-06T15:10:14Z</time>
      </trkpt>
      <trkpt lat="45.29398" lon="4.69484">
        <ele>532.291015625</ele>
        <time>2010-04-06T15:10:20Z</time>
      </trkpt>
      <trkpt lat="45.29385" lon="4.69503">
        <ele>531.35998535156</ele>
        <time>2010-04-06T15:10:22Z</time>
      </trkpt>
      <trkpt lat="45.29379" lon="4.69512">
        <ele>531.44201660156</ele>
        <time>2010-04-06T15:10:23Z</time>
      </trkpt>
      <trkpt lat="45.29353" lon="4.69528">
        <ele>529.11297607422</ele>
        <time>2010-04-06T15:10:26Z</time>
      </trkpt>
      <trkpt lat="45.29344" lon="4.69527">
        <ele>529.01000976562</ele>
        <time>2010-04-06T15:10:27Z</time>
      </trkpt>
      <trkpt lat="45.29335" lon="4.69524">
        <ele>527.03601074219</ele>
        <time>2010-04-06T15:10:28Z</time>
      </trkpt>
      <trkpt lat="45.29316" lon="4.69514">
        <ele>525.90100097656</ele>
        <time>2010-04-06T15:10:30Z</time>
      </trkpt>
      <trkpt lat="45.29262" lon="4.6948">
        <ele>521.3740234375</ele>
        <time>2010-04-06T15:10:36Z</time>
      </trkpt>
      <trkpt lat="45.29227" lon="4.69458">
        <ele>518.73400878906</ele>
        <time>2010-04-06T15:10:40Z</time>
      </trkpt>
      <trkpt lat="45.29193" lon="4.69441">
        <ele>517.98901367188</ele>
        <time>2010-04-06T15:10:44Z</time>
      </trkpt>
      <trkpt lat="45.29176" lon="4.69432">
        <ele>517.42401123047</ele>
        <time>2010-04-06T15:10:46Z</time>
      </trkpt>
      <trkpt lat="45.29168" lon="4.69427">
        <ele>516.80499267578</ele>
        <time>2010-04-06T15:10:47Z</time>
      </trkpt>
      <trkpt lat="45.29136" lon="4.69411">
        <ele>514.65802001953</ele>
        <time>2010-04-06T15:10:51Z</time>
      </trkpt>
      <trkpt lat="45.29104" lon="4.69412">
        <ele>516.48797607422</ele>
        <time>2010-04-06T15:10:55Z</time>
      </trkpt>
      <trkpt lat="45.2909" lon="4.69419">
        <ele>516.58801269531</ele>
        <time>2010-04-06T15:10:57Z</time>
      </trkpt>
      <trkpt lat="45.29083" lon="4.69422">
        <ele>517.52099609375</ele>
        <time>2010-04-06T15:10:58Z</time>
      </trkpt>
      <trkpt lat="45.29029" lon="4.69451">
        <ele>515.60900878906</ele>
        <time>2010-04-06T15:11:06Z</time>
      </trkpt>
      <trkpt lat="45.29" lon="4.69453">
        <ele>511.98098754883</ele>
        <time>2010-04-06T15:11:10Z</time>
      </trkpt>
      <trkpt lat="45.28993" lon="4.69453">
        <ele>513.53601074219</ele>
        <time>2010-04-06T15:11:11Z</time>
      </trkpt>
      <trkpt lat="45.28967" lon="4.69463">
        <ele>515.37799072266</ele>
        <time>2010-04-06T15:11:15Z</time>
      </trkpt>
      <trkpt lat="45.28928" lon="4.69491">
        <ele>512.75500488281</ele>
        <time>2010-04-06T15:11:21Z</time>
      </trkpt>
      <trkpt lat="45.28922" lon="4.69496">
        <ele>512.35101318359</ele>
        <time>2010-04-06T15:11:22Z</time>
      </trkpt>
      <trkpt lat="45.28908" lon="4.69508">
        <ele>511.47399902344</ele>
        <time>2010-04-06T15:11:24Z</time>
      </trkpt>
      <trkpt lat="45.28887" lon="4.69524">
        <ele>509.26800537109</ele>
        <time>2010-04-06T15:11:27Z</time>
      </trkpt>
      <trkpt lat="45.28865" lon="4.69542">
        <ele>507.64099121094</ele>
        <time>2010-04-06T15:11:30Z</time>
      </trkpt>
      <trkpt lat="45.28843" lon="4.69562">
        <ele>505.87799072266</ele>
        <time>2010-04-06T15:11:33Z</time>
      </trkpt>
      <trkpt lat="45.28835" lon="4.69569">
        <ele>505.53201293945</ele>
        <time>2010-04-06T15:11:34Z</time>
      </trkpt>
      <trkpt lat="45.28819" lon="4.69583">
        <ele>504.375</ele>
        <time>2010-04-06T15:11:36Z</time>
      </trkpt>
      <trkpt lat="45.28811" lon="4.69591">
        <ele>503.70999145508</ele>
        <time>2010-04-06T15:11:37Z</time>
      </trkpt>
      <trkpt lat="45.28803" lon="4.69598">
        <ele>503.81900024414</ele>
        <time>2010-04-06T15:11:38Z</time>
      </trkpt>
      <trkpt lat="45.28794" lon="4.69606">
        <ele>502.85501098633</ele>
        <time>2010-04-06T15:11:39Z</time>
      </trkpt>
      <trkpt lat="45.28754" lon="4.69643">
        <ele>501.78201293945</ele>
        <time>2010-04-06T15:11:44Z</time>
      </trkpt>
      <trkpt lat="45.2874" lon="4.69658">
        <ele>502.60598754883</ele>
        <time>2010-04-06T15:11:46Z</time>
      </trkpt>
      <trkpt lat="45.28717" lon="4.69693">
        <ele>502.37100219727</ele>
        <time>2010-04-06T15:11:50Z</time>
      </trkpt>
      <trkpt lat="45.28698" lon="4.69746">
        <ele>502.97799682617</ele>
        <time>2010-04-06T15:11:55Z</time>
      </trkpt>
      <trkpt lat="45.2868" lon="4.69764">
        <ele>500.89599609375</ele>
        <time>2010-04-06T15:11:58Z</time>
      </trkpt>
      <trkpt lat="45.28666" lon="4.6976">
        <ele>499.71600341797</ele>
        <time>2010-04-06T15:12:00Z</time>
      </trkpt>
      <trkpt lat="45.28659" lon="4.69754">
        <ele>499.97399902344</ele>
        <time>2010-04-06T15:12:01Z</time>
      </trkpt>
      <trkpt lat="45.28627" lon="4.69715">
        <ele>499.07400512695</ele>
        <time>2010-04-06T15:12:06Z</time>
      </trkpt>
      <trkpt lat="45.28608" lon="4.69689">
        <ele>498.85400390625</ele>
        <time>2010-04-06T15:12:09Z</time>
      </trkpt>
      <trkpt lat="45.28601" lon="4.69681">
        <ele>498.04699707031</ele>
        <time>2010-04-06T15:12:10Z</time>
      </trkpt>
      <trkpt lat="45.28581" lon="4.69661">
        <ele>497.62799072266</ele>
        <time>2010-04-06T15:12:13Z</time>
      </trkpt>
      <trkpt lat="45.2855" lon="4.69646">
        <ele>497.4580078125</ele>
        <time>2010-04-06T15:12:17Z</time>
      </trkpt>
      <trkpt lat="45.28505" lon="4.69637">
        <ele>491.33099365234</ele>
        <time>2010-04-06T15:12:22Z</time>
      </trkpt>
      <trkpt lat="45.28487" lon="4.6963">
        <ele>489.60900878906</ele>
        <time>2010-04-06T15:12:24Z</time>
      </trkpt>
      <trkpt lat="45.28477" lon="4.69626">
        <ele>488.43301391602</ele>
        <time>2010-04-06T15:12:25Z</time>
      </trkpt>
      <trkpt lat="45.28468" lon="4.69623">
        <ele>487.52099609375</ele>
        <time>2010-04-06T15:12:26Z</time>
      </trkpt>
      <trkpt lat="45.28451" lon="4.69615">
        <ele>485.26300048828</ele>
        <time>2010-04-06T15:12:28Z</time>
      </trkpt>
      <trkpt lat="45.28433" lon="4.69611">
        <ele>484.80099487305</ele>
        <time>2010-04-06T15:12:30Z</time>
      </trkpt>
      <trkpt lat="45.28416" lon="4.69615">
        <ele>483.89498901367</ele>
        <time>2010-04-06T15:12:32Z</time>
      </trkpt>
      <trkpt lat="45.28407" lon="4.6962">
        <ele>484.10400390625</ele>
        <time>2010-04-06T15:12:33Z</time>
      </trkpt>
      <trkpt lat="45.28382" lon="4.69635">
        <ele>482.93301391602</ele>
        <time>2010-04-06T15:12:36Z</time>
      </trkpt>
      <trkpt lat="45.28365" lon="4.6964">
        <ele>483.10000610352</ele>
        <time>2010-04-06T15:12:38Z</time>
      </trkpt>
      <trkpt lat="45.28357" lon="4.69642">
        <ele>482.99398803711</ele>
        <time>2010-04-06T15:12:39Z</time>
      </trkpt>
      <trkpt lat="45.28322" lon="4.69647">
        <ele>481.66299438477</ele>
        <time>2010-04-06T15:12:43Z</time>
      </trkpt>
      <trkpt lat="45.28305" lon="4.6965">
        <ele>480.67401123047</ele>
        <time>2010-04-06T15:12:45Z</time>
      </trkpt>
      <trkpt lat="45.28297" lon="4.69651">
        <ele>481.71798706055</ele>
        <time>2010-04-06T15:12:46Z</time>
      </trkpt>
      <trkpt lat="45.28268" lon="4.69655">
        <ele>483.96899414062</ele>
        <time>2010-04-06T15:12:50Z</time>
      </trkpt>
      <trkpt lat="45.28216" lon="4.69658">
        <ele>486.3219909668</ele>
        <time>2010-04-06T15:12:58Z</time>
      </trkpt>
      <trkpt lat="45.28197" lon="4.69658">
        <ele>486.52700805664</ele>
        <time>2010-04-06T15:13:01Z</time>
      </trkpt>
      <trkpt lat="45.28184" lon="4.69658">
        <ele>487.71600341797</ele>
        <time>2010-04-06T15:13:03Z</time>
      </trkpt>
      <trkpt lat="45.28159" lon="4.69662">
        <ele>488.04098510742</ele>
        <time>2010-04-06T15:13:07Z</time>
      </trkpt>
      <trkpt lat="45.2813" lon="4.69676">
        <ele>486.41500854492</ele>
        <time>2010-04-06T15:13:12Z</time>
      </trkpt>
      <trkpt lat="45.28101" lon="4.69697">
        <ele>486.41598510742</ele>
        <time>2010-04-06T15:13:17Z</time>
      </trkpt>
      <trkpt lat="45.2808" lon="4.6972">
        <ele>486.7619934082</ele>
        <time>2010-04-06T15:13:21Z</time>
      </trkpt>
      <trkpt lat="45.28044" lon="4.69781">
        <ele>486.00500488281</ele>
        <time>2010-04-06T15:13:29Z</time>
      </trkpt>
      <trkpt lat="45.2802" lon="4.69824">
        <ele>488.29901123047</ele>
        <time>2010-04-06T15:13:35Z</time>
      </trkpt>
      <trkpt lat="45.28013" lon="4.69837">
        <ele>487.56600952148</ele>
        <time>2010-04-06T15:13:37Z</time>
      </trkpt>
      <trkpt lat="45.27985" lon="4.69862">
        <ele>487.65399169922</ele>
        <time>2010-04-06T15:13:43Z</time>
      </trkpt>
      <trkpt lat="45.2798" lon="4.69863">
        <ele>487.42401123047</ele>
        <time>2010-04-06T15:13:44Z</time>
      </trkpt>
      <trkpt lat="45.27938" lon="4.69868">
        <ele>484.75399780273</ele>
        <time>2010-04-06T15:13:50Z</time>
      </trkpt>
      <trkpt lat="45.27908" lon="4.69875">
        <ele>483.39001464844</ele>
        <time>2010-04-06T15:13:54Z</time>
      </trkpt>
      <trkpt lat="45.27851" lon="4.69902">
        <ele>482.85000610352</ele>
        <time>2010-04-06T15:14:02Z</time>
      </trkpt>
      <trkpt lat="45.27807" lon="4.69931">
        <ele>484.22799682617</ele>
        <time>2010-04-06T15:14:09Z</time>
      </trkpt>
      <trkpt lat="45.27777" lon="4.69953">
        <ele>485.63900756836</ele>
        <time>2010-04-06T15:14:15Z</time>
      </trkpt>
      <trkpt lat="45.27737" lon="4.69982">
        <ele>487.30599975586</ele>
        <time>2010-04-06T15:14:24Z</time>
      </trkpt>
      <trkpt lat="45.27714" lon="4.69997">
        <ele>489.25399780273</ele>
        <time>2010-04-06T15:14:30Z</time>
      </trkpt>
      <trkpt lat="45.27711" lon="4.69999">
        <ele>489.14700317383</ele>
        <time>2010-04-06T15:14:31Z</time>
      </trkpt>
      <trkpt lat="45.2769" lon="4.70013">
        <ele>491.09201049805</ele>
        <time>2010-04-06T15:14:38Z</time>
      </trkpt>
      <trkpt lat="45.27667" lon="4.70035">
        <ele>492.88500976562</ele>
        <time>2010-04-06T15:14:45Z</time>
      </trkpt>
      <trkpt lat="45.27647" lon="4.70041">
        <ele>493.62298583984</ele>
        <time>2010-04-06T15:14:49Z</time>
      </trkpt>
      <trkpt lat="45.27613" lon="4.70031">
        <ele>493.60501098633</ele>
        <time>2010-04-06T15:14:56Z</time>
      </trkpt>
      <trkpt lat="45.27599" lon="4.70022">
        <ele>492.28601074219</ele>
        <time>2010-04-06T15:14:59Z</time>
      </trkpt>
      <trkpt lat="45.27582" lon="4.70015">
        <ele>491.20498657227</ele>
        <time>2010-04-06T15:15:02Z</time>
      </trkpt>
      <trkpt lat="45.27569" lon="4.70013">
        <ele>490.56900024414</ele>
        <time>2010-04-06T15:15:04Z</time>
      </trkpt>
      <trkpt lat="45.27533" lon="4.70014">
        <ele>490.5419921875</ele>
        <time>2010-04-06T15:15:09Z</time>
      </trkpt>
      <trkpt lat="45.27492" lon="4.70015">
        <ele>490.53100585938</ele>
        <time>2010-04-06T15:15:14Z</time>
      </trkpt>
      <trkpt lat="45.27456" lon="4.70016">
        <ele>484.77899169922</ele>
        <time>2010-04-06T15:15:18Z</time>
      </trkpt>
      <trkpt lat="45.27437" lon="4.70017">
        <ele>481.29901123047</ele>
        <time>2010-04-06T15:15:20Z</time>
      </trkpt>
      <trkpt lat="45.27428" lon="4.70017">
        <ele>480.10299682617</ele>
        <time>2010-04-06T15:15:21Z</time>
      </trkpt>
      <trkpt lat="45.27364" lon="4.70011">
        <ele>479.17999267578</ele>
        <time>2010-04-06T15:15:28Z</time>
      </trkpt>
      <trkpt lat="45.27314" lon="4.70011">
        <ele>477.75299072266</ele>
        <time>2010-04-06T15:15:34Z</time>
      </trkpt>
      <trkpt lat="45.27282" lon="4.70012">
        <ele>478.125</ele>
        <time>2010-04-06T15:15:38Z</time>
      </trkpt>
      <trkpt lat="45.27257" lon="4.70012">
        <ele>477.65701293945</ele>
        <time>2010-04-06T15:15:41Z</time>
      </trkpt>
      <trkpt lat="45.2724" lon="4.70013">
        <ele>474.80599975586</ele>
        <time>2010-04-06T15:15:43Z</time>
      </trkpt>
      <trkpt lat="45.27232" lon="4.70013">
        <ele>475.22601318359</ele>
        <time>2010-04-06T15:15:44Z</time>
      </trkpt>
      <trkpt lat="45.27216" lon="4.70014">
        <ele>476.05999755859</ele>
        <time>2010-04-06T15:15:46Z</time>
      </trkpt>
      <trkpt lat="45.27167" lon="4.70015">
        <ele>475.4469909668</ele>
        <time>2010-04-06T15:15:52Z</time>
      </trkpt>
      <trkpt lat="45.27108" lon="4.70018">
        <ele>473.64801025391</ele>
        <time>2010-04-06T15:15:59Z</time>
      </trkpt>
      <trkpt lat="45.27077" lon="4.7002">
        <ele>475.07299804688</ele>
        <time>2010-04-06T15:16:03Z</time>
      </trkpt>
      <trkpt lat="45.2702" lon="4.70035">
        <ele>472.85998535156</ele>
        <time>2010-04-06T15:16:10Z</time>
      </trkpt>
      <trkpt lat="45.27012" lon="4.70039">
        <ele>472.75900268555</ele>
        <time>2010-04-06T15:16:11Z</time>
      </trkpt>
      <trkpt lat="45.26988" lon="4.70059">
        <ele>471.09298706055</ele>
        <time>2010-04-06T15:16:14Z</time>
      </trkpt>
      <trkpt lat="45.26929" lon="4.7012">
        <ele>468.25601196289</ele>
        <time>2010-04-06T15:16:22Z</time>
      </trkpt>
      <trkpt lat="45.26899" lon="4.70155">
        <ele>463.17599487305</ele>
        <time>2010-04-06T15:16:26Z</time>
      </trkpt>
      <trkpt lat="45.26891" lon="4.70163">
        <ele>463.17599487305</ele>
        <time>2010-04-06T15:16:27Z</time>
      </trkpt>
      <trkpt lat="45.26869" lon="4.70189">
        <ele>465.7080078125</ele>
        <time>2010-04-06T15:16:30Z</time>
      </trkpt>
      <trkpt lat="45.26846" lon="4.70215">
        <ele>462.94900512695</ele>
        <time>2010-04-06T15:16:33Z</time>
      </trkpt>
      <trkpt lat="45.26801" lon="4.70266">
        <ele>459.19500732422</ele>
        <time>2010-04-06T15:16:39Z</time>
      </trkpt>
      <trkpt lat="45.26783" lon="4.70279">
        <ele>457.92098999023</ele>
        <time>2010-04-06T15:16:41Z</time>
      </trkpt>
      <trkpt lat="45.26757" lon="4.70293">
        <ele>456.35198974609</ele>
        <time>2010-04-06T15:16:44Z</time>
      </trkpt>
      <trkpt lat="45.26685" lon="4.70326">
        <ele>450.93798828125</ele>
        <time>2010-04-06T15:16:52Z</time>
      </trkpt>
      <trkpt lat="45.26625" lon="4.70353">
        <ele>448.56298828125</ele>
        <time>2010-04-06T15:16:59Z</time>
      </trkpt>
      <trkpt lat="45.26576" lon="4.70374">
        <ele>447.75100708008</ele>
        <time>2010-04-06T15:17:05Z</time>
      </trkpt>
      <trkpt lat="45.26525" lon="4.70386">
        <ele>446.45599365234</ele>
        <time>2010-04-06T15:17:11Z</time>
      </trkpt>
      <trkpt lat="45.26482" lon="4.70395">
        <ele>444.90399169922</ele>
        <time>2010-04-06T15:17:16Z</time>
      </trkpt>
      <trkpt lat="45.26427" lon="4.70406">
        <ele>444.39898681641</ele>
        <time>2010-04-06T15:17:23Z</time>
      </trkpt>
      <trkpt lat="45.26375" lon="4.70417">
        <ele>443.97500610352</ele>
        <time>2010-04-06T15:17:30Z</time>
      </trkpt>
      <trkpt lat="45.2636" lon="4.70421">
        <ele>443.25601196289</ele>
        <time>2010-04-06T15:17:32Z</time>
      </trkpt>
      <trkpt lat="45.2634" lon="4.70434">
        <ele>441.51699829102</ele>
        <time>2010-04-06T15:17:35Z</time>
      </trkpt>
      <trkpt lat="45.26326" lon="4.70456">
        <ele>442.24398803711</ele>
        <time>2010-04-06T15:17:38Z</time>
      </trkpt>
      <trkpt lat="45.26319" lon="4.70486">
        <ele>442.17401123047</ele>
        <time>2010-04-06T15:17:41Z</time>
      </trkpt>
      <trkpt lat="45.26316" lon="4.70517">
        <ele>442.77301025391</ele>
        <time>2010-04-06T15:17:44Z</time>
      </trkpt>
      <trkpt lat="45.26314" lon="4.70592">
        <ele>441.51998901367</ele>
        <time>2010-04-06T15:17:52Z</time>
      </trkpt>
      <trkpt lat="45.2631" lon="4.70645">
        <ele>439.33200073242</ele>
        <time>2010-04-06T15:17:57Z</time>
      </trkpt>
      <trkpt lat="45.26307" lon="4.70667">
        <ele>438.63000488281</ele>
        <time>2010-04-06T15:17:59Z</time>
      </trkpt>
      <trkpt lat="45.26295" lon="4.70691">
        <ele>437.55099487305</ele>
        <time>2010-04-06T15:18:02Z</time>
      </trkpt>
      <trkpt lat="45.26282" lon="4.70699">
        <ele>437.39401245117</ele>
        <time>2010-04-06T15:18:06Z</time>
      </trkpt>
      <trkpt lat="45.26273" lon="4.70691">
        <ele>437.77899169922</ele>
        <time>2010-04-06T15:18:11Z</time>
      </trkpt>
      <trkpt lat="45.2627" lon="4.70682">
        <ele>438.30099487305</ele>
        <time>2010-04-06T15:18:13Z</time>
      </trkpt>
      <trkpt lat="45.26262" lon="4.70667">
        <ele>436.94500732422</ele>
        <time>2010-04-06T15:18:16Z</time>
      </trkpt>
      <trkpt lat="45.26239" lon="4.7065">
        <ele>438.49798583984</ele>
        <time>2010-04-06T15:18:21Z</time>
      </trkpt>
      <trkpt lat="45.26223" lon="4.70651">
        <ele>439.40200805664</ele>
        <time>2010-04-06T15:18:24Z</time>
      </trkpt>
      <trkpt lat="45.26214" lon="4.70657">
        <ele>439.58401489258</ele>
        <time>2010-04-06T15:18:26Z</time>
      </trkpt>
      <trkpt lat="45.26199" lon="4.70681">
        <ele>438.7380065918</ele>
        <time>2010-04-06T15:18:30Z</time>
      </trkpt>
      <trkpt lat="45.26186" lon="4.70696">
        <ele>437.88800048828</ele>
        <time>2010-04-06T15:18:33Z</time>
      </trkpt>
      <trkpt lat="45.26174" lon="4.70695">
        <ele>437.00500488281</ele>
        <time>2010-04-06T15:18:35Z</time>
      </trkpt>
      <trkpt lat="45.26158" lon="4.70694">
        <ele>437.37399291992</ele>
        <time>2010-04-06T15:18:39Z</time>
      </trkpt>
      <trkpt lat="45.26158" lon="4.70694">
        <ele>437.76098632812</ele>
        <time>2010-04-06T15:18:41Z</time>
      </trkpt>
      <trkpt lat="45.2616" lon="4.70696">
        <ele>437.8210144043</ele>
        <time>2010-04-06T15:19:12Z</time>
      </trkpt>
      <trkpt lat="45.26161" lon="4.70695">
        <ele>437.78601074219</ele>
        <time>2010-04-06T15:19:13Z</time>
      </trkpt>
      <trkpt lat="45.26162" lon="4.70695">
        <ele>437.85400390625</ele>
        <time>2010-04-06T15:19:14Z</time>
      </trkpt>
      <trkpt lat="45.26164" lon="4.70683">
        <ele>437.86898803711</ele>
        <time>2010-04-06T15:19:20Z</time>
      </trkpt>
      <trkpt lat="45.26163" lon="4.70667">
        <ele>438.20498657227</ele>
        <time>2010-04-06T15:19:25Z</time>
      </trkpt>
      <trkpt lat="45.26155" lon="4.70639">
        <ele>438.38400268555</ele>
        <time>2010-04-06T15:19:31Z</time>
      </trkpt>
      <trkpt lat="45.26153" lon="4.70627">
        <ele>438.43701171875</ele>
        <time>2010-04-06T15:19:33Z</time>
      </trkpt>
      <trkpt lat="45.2615" lon="4.70609">
        <ele>438.87600708008</ele>
        <time>2010-04-06T15:19:36Z</time>
      </trkpt>
      <trkpt lat="45.26138" lon="4.70593">
        <ele>439.04800415039</ele>
        <time>2010-04-06T15:19:40Z</time>
      </trkpt>
      <trkpt lat="45.26131" lon="4.70593">
        <ele>439.82901000977</ele>
        <time>2010-04-06T15:19:42Z</time>
      </trkpt>
      <trkpt lat="45.26111" lon="4.70594">
        <ele>440.10800170898</ele>
        <time>2010-04-06T15:19:48Z</time>
      </trkpt>
      <trkpt lat="45.26101" lon="4.70597">
        <ele>439.70700073242</ele>
        <time>2010-04-06T15:19:53Z</time>
      </trkpt>
      <trkpt lat="45.26101" lon="4.70597">
        <ele>440.34899902344</ele>
        <time>2010-04-06T15:19:55Z</time>
      </trkpt>
      <trkpt lat="45.26097" lon="4.7062">
        <ele>439.83200073242</ele>
        <time>2010-04-06T15:20:30Z</time>
      </trkpt>
      <trkpt lat="45.26096" lon="4.70649">
        <ele>437.50698852539</ele>
        <time>2010-04-06T15:20:34Z</time>
      </trkpt>
      <trkpt lat="45.26094" lon="4.70665">
        <ele>436.50799560547</ele>
        <time>2010-04-06T15:20:36Z</time>
      </trkpt>
      <trkpt lat="45.26094" lon="4.70692">
        <ele>435.15100097656</ele>
        <time>2010-04-06T15:20:39Z</time>
      </trkpt>
      <trkpt lat="45.26092" lon="4.70723">
        <ele>433.7380065918</ele>
        <time>2010-04-06T15:20:42Z</time>
      </trkpt>
      <trkpt lat="45.2609" lon="4.70757">
        <ele>432.53698730469</ele>
        <time>2010-04-06T15:20:45Z</time>
      </trkpt>
      <trkpt lat="45.26075" lon="4.70813">
        <ele>431.51599121094</ele>
        <time>2010-04-06T15:20:50Z</time>
      </trkpt>
      <trkpt lat="45.26057" lon="4.70886">
        <ele>428.53399658203</ele>
        <time>2010-04-06T15:20:56Z</time>
      </trkpt>
      <trkpt lat="45.26038" lon="4.70966">
        <ele>426.16900634766</ele>
        <time>2010-04-06T15:21:02Z</time>
      </trkpt>
      <trkpt lat="45.26028" lon="4.71007">
        <ele>425.72799682617</ele>
        <time>2010-04-06T15:21:05Z</time>
      </trkpt>
      <trkpt lat="45.26025" lon="4.71021">
        <ele>425.71398925781</ele>
        <time>2010-04-06T15:21:06Z</time>
      </trkpt>
      <trkpt lat="45.26011" lon="4.71088">
        <ele>425.14700317383</ele>
        <time>2010-04-06T15:21:11Z</time>
      </trkpt>
      <trkpt lat="45.25991" lon="4.71166">
        <ele>423.62100219727</ele>
        <time>2010-04-06T15:21:17Z</time>
      </trkpt>
      <trkpt lat="45.25967" lon="4.71234">
        <ele>423.07598876953</ele>
        <time>2010-04-06T15:21:23Z</time>
      </trkpt>
      <trkpt lat="45.25945" lon="4.7129">
        <ele>422.26599121094</ele>
        <time>2010-04-06T15:21:28Z</time>
      </trkpt>
      <trkpt lat="45.2594" lon="4.71301">
        <ele>422.42700195312</ele>
        <time>2010-04-06T15:21:29Z</time>
      </trkpt>
      <trkpt lat="45.25898" lon="4.71381">
        <ele>421.27700805664</ele>
        <time>2010-04-06T15:21:37Z</time>
      </trkpt>
      <trkpt lat="45.25871" lon="4.71428">
        <ele>418.60800170898</ele>
        <time>2010-04-06T15:21:42Z</time>
      </trkpt>
      <trkpt lat="45.25858" lon="4.71462">
        <ele>416.92098999023</ele>
        <time>2010-04-06T15:21:45Z</time>
      </trkpt>
      <trkpt lat="45.25828" lon="4.71511">
        <ele>415.68499755859</ele>
        <time>2010-04-06T15:21:50Z</time>
      </trkpt>
      <trkpt lat="45.25813" lon="4.71527">
        <ele>414.80099487305</ele>
        <time>2010-04-06T15:21:52Z</time>
      </trkpt>
      <trkpt lat="45.25757" lon="4.71581">
        <ele>411.98498535156</ele>
        <time>2010-04-06T15:21:59Z</time>
      </trkpt>
      <trkpt lat="45.25698" lon="4.71642">
        <ele>411.92401123047</ele>
        <time>2010-04-06T15:22:07Z</time>
      </trkpt>
      <trkpt lat="45.25653" lon="4.71689">
        <ele>411.72198486328</ele>
        <time>2010-04-06T15:22:14Z</time>
      </trkpt>
      <trkpt lat="45.2564" lon="4.71697">
        <ele>412.79998779297</ele>
        <time>2010-04-06T15:22:17Z</time>
      </trkpt>
      <trkpt lat="45.25637" lon="4.71698">
        <ele>413.28799438477</ele>
        <time>2010-04-06T15:22:21Z</time>
      </trkpt>
      <trkpt lat="45.25634" lon="4.71699">
        <ele>412.57598876953</ele>
        <time>2010-04-06T15:22:37Z</time>
      </trkpt>
      <trkpt lat="45.25632" lon="4.71701">
        <ele>412.83401489258</ele>
        <time>2010-04-06T15:22:38Z</time>
      </trkpt>
      <trkpt lat="45.25626" lon="4.71711">
        <ele>412.02801513672</ele>
        <time>2010-04-06T15:22:41Z</time>
      </trkpt>
      <trkpt lat="45.25612" lon="4.7175">
        <ele>412.88299560547</ele>
        <time>2010-04-06T15:22:47Z</time>
      </trkpt>
      <trkpt lat="45.25605" lon="4.71767">
        <ele>412.07000732422</ele>
        <time>2010-04-06T15:22:49Z</time>
      </trkpt>
      <trkpt lat="45.25583" lon="4.71793">
        <ele>409.10198974609</ele>
        <time>2010-04-06T15:22:53Z</time>
      </trkpt>
      <trkpt lat="45.2556" lon="4.71813">
        <ele>410.53900146484</ele>
        <time>2010-04-06T15:22:57Z</time>
      </trkpt>
      <trkpt lat="45.25554" lon="4.7183">
        <ele>411.08599853516</ele>
        <time>2010-04-06T15:22:59Z</time>
      </trkpt>
      <trkpt lat="45.25539" lon="4.71864">
        <ele>410.1669921875</ele>
        <time>2010-04-06T15:23:03Z</time>
      </trkpt>
      <trkpt lat="45.25529" lon="4.71891">
        <ele>410.36999511719</ele>
        <time>2010-04-06T15:23:06Z</time>
      </trkpt>
      <trkpt lat="45.2553" lon="4.71912">
        <ele>409.75299072266</ele>
        <time>2010-04-06T15:23:08Z</time>
      </trkpt>
      <trkpt lat="45.25534" lon="4.71969">
        <ele>408.35800170898</ele>
        <time>2010-04-06T15:23:13Z</time>
      </trkpt>
      <trkpt lat="45.25526" lon="4.72012">
        <ele>407.53100585938</ele>
        <time>2010-04-06T15:23:17Z</time>
      </trkpt>
      <trkpt lat="45.25496" lon="4.721">
        <ele>406.75900268555</ele>
        <time>2010-04-06T15:23:25Z</time>
      </trkpt>
      <trkpt lat="45.25463" lon="4.72199">
        <ele>406.85400390625</ele>
        <time>2010-04-06T15:23:34Z</time>
      </trkpt>
      <trkpt lat="45.25445" lon="4.72255">
        <ele>405.08801269531</ele>
        <time>2010-04-06T15:23:39Z</time>
      </trkpt>
      <trkpt lat="45.25418" lon="4.72335">
        <ele>404.45999145508</ele>
        <time>2010-04-06T15:23:46Z</time>
      </trkpt>
      <trkpt lat="45.25388" lon="4.72425">
        <ele>403.17498779297</ele>
        <time>2010-04-06T15:23:54Z</time>
      </trkpt>
      <trkpt lat="45.25356" lon="4.7252">
        <ele>400.42001342773</ele>
        <time>2010-04-06T15:24:02Z</time>
      </trkpt>
      <trkpt lat="45.25327" lon="4.72608">
        <ele>399.11199951172</ele>
        <time>2010-04-06T15:24:09Z</time>
      </trkpt>
      <trkpt lat="45.25306" lon="4.72669">
        <ele>396.48999023438</ele>
        <time>2010-04-06T15:24:14Z</time>
      </trkpt>
      <trkpt lat="45.25279" lon="4.7275">
        <ele>397.77099609375</ele>
        <time>2010-04-06T15:24:21Z</time>
      </trkpt>
      <trkpt lat="45.25252" lon="4.72832">
        <ele>399.64801025391</ele>
        <time>2010-04-06T15:24:29Z</time>
      </trkpt>
      <trkpt lat="45.25227" lon="4.72906">
        <ele>400.39099121094</ele>
        <time>2010-04-06T15:24:37Z</time>
      </trkpt>
      <trkpt lat="45.25215" lon="4.72944">
        <ele>398.94900512695</ele>
        <time>2010-04-06T15:24:41Z</time>
      </trkpt>
      <trkpt lat="45.25208" lon="4.72997">
        <ele>398.62701416016</ele>
        <time>2010-04-06T15:24:47Z</time>
      </trkpt>
      <trkpt lat="45.25204" lon="4.73031">
        <ele>396.91101074219</ele>
        <time>2010-04-06T15:24:51Z</time>
      </trkpt>
      <trkpt lat="45.25201" lon="4.7306">
        <ele>395.1960144043</ele>
        <time>2010-04-06T15:24:55Z</time>
      </trkpt>
      <trkpt lat="45.25199" lon="4.73072">
        <ele>394.05801391602</ele>
        <time>2010-04-06T15:24:57Z</time>
      </trkpt>
      <trkpt lat="45.25194" lon="4.73097">
        <ele>392.30099487305</ele>
        <time>2010-04-06T15:25:02Z</time>
      </trkpt>
      <trkpt lat="45.25186" lon="4.73143">
        <ele>392.40701293945</ele>
        <time>2010-04-06T15:25:08Z</time>
      </trkpt>
      <trkpt lat="45.25173" lon="4.73201">
        <ele>392.91598510742</ele>
        <time>2010-04-06T15:25:15Z</time>
      </trkpt>
      <trkpt lat="45.2516" lon="4.73248">
        <ele>391.97698974609</ele>
        <time>2010-04-06T15:25:21Z</time>
      </trkpt>
      <trkpt lat="45.25153" lon="4.73276">
        <ele>390.73001098633</ele>
        <time>2010-04-06T15:25:24Z</time>
      </trkpt>
      <trkpt lat="45.25135" lon="4.73337">
        <ele>386.8450012207</ele>
        <time>2010-04-06T15:25:30Z</time>
      </trkpt>
      <trkpt lat="45.2512" lon="4.73391">
        <ele>385.28900146484</ele>
        <time>2010-04-06T15:25:35Z</time>
      </trkpt>
      <trkpt lat="45.25101" lon="4.73459">
        <ele>382.68099975586</ele>
        <time>2010-04-06T15:25:41Z</time>
      </trkpt>
      <trkpt lat="45.25073" lon="4.73556">
        <ele>379.29998779297</ele>
        <time>2010-04-06T15:25:49Z</time>
      </trkpt>
      <trkpt lat="45.25038" lon="4.73676">
        <ele>374.57299804688</ele>
        <time>2010-04-06T15:25:58Z</time>
      </trkpt>
      <trkpt lat="45.25034" lon="4.7369">
        <ele>374.95498657227</ele>
        <time>2010-04-06T15:25:59Z</time>
      </trkpt>
      <trkpt lat="45.25007" lon="4.73785">
        <ele>372.39599609375</ele>
        <time>2010-04-06T15:26:06Z</time>
      </trkpt>
      <trkpt lat="45.24994" lon="4.73836">
        <ele>372.44500732422</ele>
        <time>2010-04-06T15:26:10Z</time>
      </trkpt>
      <trkpt lat="45.24978" lon="4.73891">
        <ele>373.25299072266</ele>
        <time>2010-04-06T15:26:15Z</time>
      </trkpt>
      <trkpt lat="45.24969" lon="4.73923">
        <ele>374.10900878906</ele>
        <time>2010-04-06T15:26:18Z</time>
      </trkpt>
      <trkpt lat="45.24963" lon="4.73943">
        <ele>374.48599243164</ele>
        <time>2010-04-06T15:26:20Z</time>
      </trkpt>
      <trkpt lat="45.24944" lon="4.74011">
        <ele>375.10998535156</ele>
        <time>2010-04-06T15:26:27Z</time>
      </trkpt>
      <trkpt lat="45.24939" lon="4.7403">
        <ele>375.91198730469</ele>
        <time>2010-04-06T15:26:29Z</time>
      </trkpt>
      <trkpt lat="45.24924" lon="4.74081">
        <ele>378.40899658203</ele>
        <time>2010-04-06T15:26:35Z</time>
      </trkpt>
      <trkpt lat="45.24911" lon="4.74126">
        <ele>379.59698486328</ele>
        <time>2010-04-06T15:26:41Z</time>
      </trkpt>
      <trkpt lat="45.24901" lon="4.7416">
        <ele>379.59100341797</ele>
        <time>2010-04-06T15:26:46Z</time>
      </trkpt>
      <trkpt lat="45.2489" lon="4.74195">
        <ele>379.66799926758</ele>
        <time>2010-04-06T15:26:51Z</time>
      </trkpt>
      <trkpt lat="45.24869" lon="4.74223">
        <ele>380.04998779297</ele>
        <time>2010-04-06T15:26:56Z</time>
      </trkpt>
      <trkpt lat="45.24866" lon="4.74229">
        <ele>380.35000610352</ele>
        <time>2010-04-06T15:26:57Z</time>
      </trkpt>
      <trkpt lat="45.24864" lon="4.74252">
        <ele>380.51998901367</ele>
        <time>2010-04-06T15:27:00Z</time>
      </trkpt>
      <trkpt lat="45.24862" lon="4.74298">
        <ele>379.57998657227</ele>
        <time>2010-04-06T15:27:05Z</time>
      </trkpt>
      <trkpt lat="45.24842" lon="4.74374">
        <ele>377.86999511719</ele>
        <time>2010-04-06T15:27:13Z</time>
      </trkpt>
      <trkpt lat="45.24813" lon="4.74468">
        <ele>375.05999755859</ele>
        <time>2010-04-06T15:27:22Z</time>
      </trkpt>
      <trkpt lat="45.24793" lon="4.74537">
        <ele>372.96398925781</ele>
        <time>2010-04-06T15:27:28Z</time>
      </trkpt>
      <trkpt lat="45.24772" lon="4.74627">
        <ele>369.54098510742</ele>
        <time>2010-04-06T15:27:35Z</time>
      </trkpt>
      <trkpt lat="45.24767" lon="4.747">
        <ele>366.0830078125</ele>
        <time>2010-04-06T15:27:40Z</time>
      </trkpt>
      <trkpt lat="45.24769" lon="4.74764">
        <ele>364.07000732422</ele>
        <time>2010-04-06T15:27:44Z</time>
      </trkpt>
      <trkpt lat="45.24776" lon="4.74814">
        <ele>361.81900024414</ele>
        <time>2010-04-06T15:27:47Z</time>
      </trkpt>
      <trkpt lat="45.24784" lon="4.74847">
        <ele>360.04299926758</ele>
        <time>2010-04-06T15:27:49Z</time>
      </trkpt>
      <trkpt lat="45.24814" lon="4.7493">
        <ele>356.24301147461</ele>
        <time>2010-04-06T15:27:54Z</time>
      </trkpt>
      <trkpt lat="45.2486" lon="4.75034">
        <ele>348.62200927734</ele>
        <time>2010-04-06T15:28:00Z</time>
      </trkpt>
      <trkpt lat="45.24883" lon="4.75089">
        <ele>346.12600708008</ele>
        <time>2010-04-06T15:28:03Z</time>
      </trkpt>
      <trkpt lat="45.2494" lon="4.75219">
        <ele>339.40399169922</ele>
        <time>2010-04-06T15:28:10Z</time>
      </trkpt>
      <trkpt lat="45.24998" lon="4.75352">
        <ele>331.56298828125</ele>
        <time>2010-04-06T15:28:17Z</time>
      </trkpt>
      <trkpt lat="45.25039" lon="4.75419">
        <ele>329.55599975586</ele>
        <time>2010-04-06T15:28:21Z</time>
      </trkpt>
      <trkpt lat="45.25119" lon="4.75522">
        <ele>325.28298950195</ele>
        <time>2010-04-06T15:28:28Z</time>
      </trkpt>
      <trkpt lat="45.25232" lon="4.75671">
        <ele>315.75100708008</ele>
        <time>2010-04-06T15:28:38Z</time>
      </trkpt>
      <trkpt lat="45.25262" lon="4.75746">
        <ele>312.98599243164</ele>
        <time>2010-04-06T15:28:42Z</time>
      </trkpt>
      <trkpt lat="45.25262" lon="4.75791">
        <ele>308.63598632812</ele>
        <time>2010-04-06T15:28:44Z</time>
      </trkpt>
      <trkpt lat="45.25256" lon="4.75812">
        <ele>308.84201049805</ele>
        <time>2010-04-06T15:28:45Z</time>
      </trkpt>
      <trkpt lat="45.25247" lon="4.75854">
        <ele>306.71899414062</ele>
        <time>2010-04-06T15:28:47Z</time>
      </trkpt>
      <trkpt lat="45.25247" lon="4.75939">
        <ele>303.15399169922</ele>
        <time>2010-04-06T15:28:51Z</time>
      </trkpt>
      <trkpt lat="45.25249" lon="4.75981">
        <ele>299.56600952148</ele>
        <time>2010-04-06T15:28:53Z</time>
      </trkpt>
      <trkpt lat="45.25276" lon="4.76056">
        <ele>297.33898925781</ele>
        <time>2010-04-06T15:28:57Z</time>
      </trkpt>
      <trkpt lat="45.25297" lon="4.76087">
        <ele>294.18200683594</ele>
        <time>2010-04-06T15:28:59Z</time>
      </trkpt>
      <trkpt lat="45.25315" lon="4.76146">
        <ele>290.00201416016</ele>
        <time>2010-04-06T15:29:02Z</time>
      </trkpt>
      <trkpt lat="45.25314" lon="4.76189">
        <ele>288.85198974609</ele>
        <time>2010-04-06T15:29:04Z</time>
      </trkpt>
      <trkpt lat="45.25305" lon="4.76318">
        <ele>282.34600830078</ele>
        <time>2010-04-06T15:29:10Z</time>
      </trkpt>
      <trkpt lat="45.25291" lon="4.76442">
        <ele>275.50299072266</ele>
        <time>2010-04-06T15:29:16Z</time>
      </trkpt>
      <trkpt lat="45.25286" lon="4.76483">
        <ele>276.24301147461</ele>
        <time>2010-04-06T15:29:18Z</time>
      </trkpt>
      <trkpt lat="45.25295" lon="4.76565">
        <ele>270.87799072266</ele>
        <time>2010-04-06T15:29:22Z</time>
      </trkpt>
      <trkpt lat="45.25314" lon="4.76648">
        <ele>267.1969909668</ele>
        <time>2010-04-06T15:29:26Z</time>
      </trkpt>
      <trkpt lat="45.25316" lon="4.76735">
        <ele>262.62701416016</ele>
        <time>2010-04-06T15:29:30Z</time>
      </trkpt>
      <trkpt lat="45.25316" lon="4.7682">
        <ele>259.74398803711</ele>
        <time>2010-04-06T15:29:34Z</time>
      </trkpt>
      <trkpt lat="45.25324" lon="4.76882">
        <ele>256.38000488281</ele>
        <time>2010-04-06T15:29:37Z</time>
      </trkpt>
      <trkpt lat="45.25315" lon="4.76936">
        <ele>253.16299438477</ele>
        <time>2010-04-06T15:29:40Z</time>
      </trkpt>
      <trkpt lat="45.25294" lon="4.76959">
        <ele>251.11500549316</ele>
        <time>2010-04-06T15:29:42Z</time>
      </trkpt>
      <trkpt lat="45.2526" lon="4.76991">
        <ele>251.18299865723</ele>
        <time>2010-04-06T15:29:45Z</time>
      </trkpt>
      <trkpt lat="45.25219" lon="4.77004">
        <ele>245.71000671387</ele>
        <time>2010-04-06T15:29:48Z</time>
      </trkpt>
      <trkpt lat="45.25193" lon="4.76992">
        <ele>245.72799682617</ele>
        <time>2010-04-06T15:29:50Z</time>
      </trkpt>
      <trkpt lat="45.25159" lon="4.76964">
        <ele>243.80900573731</ele>
        <time>2010-04-06T15:29:53Z</time>
      </trkpt>
      <trkpt lat="45.25123" lon="4.76957">
        <ele>242.16299438477</ele>
        <time>2010-04-06T15:29:56Z</time>
      </trkpt>
      <trkpt lat="45.251" lon="4.76975">
        <ele>242.37199401856</ele>
        <time>2010-04-06T15:29:58Z</time>
      </trkpt>
      <trkpt lat="45.25086" lon="4.7701">
        <ele>239.59800720215</ele>
        <time>2010-04-06T15:30:00Z</time>
      </trkpt>
      <trkpt lat="45.25085" lon="4.77048">
        <ele>236.40699768066</ele>
        <time>2010-04-06T15:30:02Z</time>
      </trkpt>
      <trkpt lat="45.25068" lon="4.77113">
        <ele>228.71000671387</ele>
        <time>2010-04-06T15:30:06Z</time>
      </trkpt>
      <trkpt lat="45.25042" lon="4.77117">
        <ele>226.65699768066</ele>
        <time>2010-04-06T15:30:08Z</time>
      </trkpt>
      <trkpt lat="45.24977" lon="4.7713">
        <ele>222.61500549316</ele>
        <time>2010-04-06T15:30:13Z</time>
      </trkpt>
      <trkpt lat="45.24964" lon="4.77138">
        <ele>221.57400512695</ele>
        <time>2010-04-06T15:30:14Z</time>
      </trkpt>
      <trkpt lat="45.24942" lon="4.77158">
        <ele>219.46299743652</ele>
        <time>2010-04-06T15:30:16Z</time>
      </trkpt>
      <trkpt lat="45.24928" lon="4.77195">
        <ele>217.99200439453</ele>
        <time>2010-04-06T15:30:18Z</time>
      </trkpt>
      <trkpt lat="45.24924" lon="4.77238">
        <ele>216.08299255371</ele>
        <time>2010-04-06T15:30:20Z</time>
      </trkpt>
      <trkpt lat="45.24925" lon="4.77258">
        <ele>215.05900573731</ele>
        <time>2010-04-06T15:30:21Z</time>
      </trkpt>
      <trkpt lat="45.24934" lon="4.77401">
        <ele>211.14900207519</ele>
        <time>2010-04-06T15:30:28Z</time>
      </trkpt>
      <trkpt lat="45.24937" lon="4.7748">
        <ele>209.30000305176</ele>
        <time>2010-04-06T15:30:32Z</time>
      </trkpt>
      <trkpt lat="45.24926" lon="4.77553">
        <ele>205.49000549316</ele>
        <time>2010-04-06T15:30:36Z</time>
      </trkpt>
      <trkpt lat="45.249" lon="4.77594">
        <ele>202.96600341797</ele>
        <time>2010-04-06T15:30:39Z</time>
      </trkpt>
      <trkpt lat="45.24867" lon="4.77619">
        <ele>202.06399536133</ele>
        <time>2010-04-06T15:30:42Z</time>
      </trkpt>
      <trkpt lat="45.24833" lon="4.77639">
        <ele>201.15899658203</ele>
        <time>2010-04-06T15:30:45Z</time>
      </trkpt>
      <trkpt lat="45.24804" lon="4.77669">
        <ele>199.20799255371</ele>
        <time>2010-04-06T15:30:48Z</time>
      </trkpt>
      <trkpt lat="45.24788" lon="4.77713">
        <ele>197.89300537109</ele>
        <time>2010-04-06T15:30:51Z</time>
      </trkpt>
      <trkpt lat="45.24786" lon="4.77748">
        <ele>196.63800048828</ele>
        <time>2010-04-06T15:30:53Z</time>
      </trkpt>
      <trkpt lat="45.24793" lon="4.77877">
        <ele>190.15199279785</ele>
        <time>2010-04-06T15:31:00Z</time>
      </trkpt>
      <trkpt lat="45.24797" lon="4.77935">
        <ele>187.06700134277</ele>
        <time>2010-04-06T15:31:03Z</time>
      </trkpt>
      <trkpt lat="45.248" lon="4.77974">
        <ele>185.80799865723</ele>
        <time>2010-04-06T15:31:05Z</time>
      </trkpt>
      <trkpt lat="45.24805" lon="4.78054">
        <ele>183.25199890137</ele>
        <time>2010-04-06T15:31:09Z</time>
      </trkpt>
      <trkpt lat="45.24803" lon="4.78117">
        <ele>177.94200134277</ele>
        <time>2010-04-06T15:31:12Z</time>
      </trkpt>
      <trkpt lat="45.24797" lon="4.78158">
        <ele>175.16400146484</ele>
        <time>2010-04-06T15:31:14Z</time>
      </trkpt>
      <trkpt lat="45.24765" lon="4.78221">
        <ele>171.85000610352</ele>
        <time>2010-04-06T15:31:18Z</time>
      </trkpt>
      <trkpt lat="45.24739" lon="4.78229">
        <ele>169.06100463867</ele>
        <time>2010-04-06T15:31:20Z</time>
      </trkpt>
      <trkpt lat="45.24714" lon="4.78232">
        <ele>168.39599609375</ele>
        <time>2010-04-06T15:31:22Z</time>
      </trkpt>
      <trkpt lat="45.24669" lon="4.78255">
        <ele>167.46000671387</ele>
        <time>2010-04-06T15:31:26Z</time>
      </trkpt>
      <trkpt lat="45.24625" lon="4.78296">
        <ele>167.52200317383</ele>
        <time>2010-04-06T15:31:31Z</time>
      </trkpt>
      <trkpt lat="45.24593" lon="4.78335">
        <ele>165.9940032959</ele>
        <time>2010-04-06T15:31:36Z</time>
      </trkpt>
      <trkpt lat="45.24584" lon="4.78349">
        <ele>167.44099426269</ele>
        <time>2010-04-06T15:31:39Z</time>
      </trkpt>
      <trkpt lat="45.24579" lon="4.78357">
        <ele>168.61500549316</ele>
        <time>2010-04-06T15:31:43Z</time>
      </trkpt>
      <trkpt lat="45.24579" lon="4.78357">
        <ele>168.37399291992</ele>
        <time>2010-04-06T15:31:44Z</time>
      </trkpt>
      <trkpt lat="45.24574" lon="4.78366">
        <ele>169.43299865723</ele>
        <time>2010-04-06T15:32:09Z</time>
      </trkpt>
      <trkpt lat="45.24564" lon="4.78382">
        <ele>170.46600341797</ele>
        <time>2010-04-06T15:32:15Z</time>
      </trkpt>
      <trkpt lat="45.24557" lon="4.78394">
        <ele>169.98500061035</ele>
        <time>2010-04-06T15:32:19Z</time>
      </trkpt>
      <trkpt lat="45.24542" lon="4.78419">
        <ele>170.3809967041</ele>
        <time>2010-04-06T15:32:24Z</time>
      </trkpt>
      <trkpt lat="45.24516" lon="4.78463">
        <ele>171.65199279785</ele>
        <time>2010-04-06T15:32:31Z</time>
      </trkpt>
      <trkpt lat="45.24493" lon="4.78502">
        <ele>172.40199279785</ele>
        <time>2010-04-06T15:32:37Z</time>
      </trkpt>
      <trkpt lat="45.24472" lon="4.78543">
        <ele>172.44099426269</ele>
        <time>2010-04-06T15:32:43Z</time>
      </trkpt>
      <trkpt lat="45.24462" lon="4.78567">
        <ele>171.15299987793</ele>
        <time>2010-04-06T15:32:46Z</time>
      </trkpt>
      <trkpt lat="45.24446" lon="4.786">
        <ele>170.19000244141</ele>
        <time>2010-04-06T15:32:50Z</time>
      </trkpt>
      <trkpt lat="45.24439" lon="4.78617">
        <ele>168.77299499512</ele>
        <time>2010-04-06T15:32:52Z</time>
      </trkpt>
      <trkpt lat="45.24425" lon="4.78652">
        <ele>168.76800537109</ele>
        <time>2010-04-06T15:32:56Z</time>
      </trkpt>
      <trkpt lat="45.24394" lon="4.78723">
        <ele>167.36000061035</ele>
        <time>2010-04-06T15:33:04Z</time>
      </trkpt>
      <trkpt lat="45.24369" lon="4.78779">
        <ele>167.97500610352</ele>
        <time>2010-04-06T15:33:10Z</time>
      </trkpt>
      <trkpt lat="45.24364" lon="4.78789">
        <ele>167.22900390625</ele>
        <time>2010-04-06T15:33:11Z</time>
      </trkpt>
      <trkpt lat="45.24323" lon="4.78886">
        <ele>164.73899841309</ele>
        <time>2010-04-06T15:33:20Z</time>
      </trkpt>
      <trkpt lat="45.24286" lon="4.78977">
        <ele>162.85000610352</ele>
        <time>2010-04-06T15:33:28Z</time>
      </trkpt>
      <trkpt lat="45.24253" lon="4.79064">
        <ele>162.25</ele>
        <time>2010-04-06T15:33:36Z</time>
      </trkpt>
      <trkpt lat="45.24245" lon="4.79101">
        <ele>161.02600097656</ele>
        <time>2010-04-06T15:33:39Z</time>
      </trkpt>
      <trkpt lat="45.2424" lon="4.79127">
        <ele>159.60400390625</ele>
        <time>2010-04-06T15:33:41Z</time>
      </trkpt>
      <trkpt lat="45.24228" lon="4.79182">
        <ele>157.75999450684</ele>
        <time>2010-04-06T15:33:45Z</time>
      </trkpt>
      <trkpt lat="45.24203" lon="4.7925">
        <ele>156.18099975586</ele>
        <time>2010-04-06T15:33:50Z</time>
      </trkpt>
      <trkpt lat="45.24168" lon="4.79339">
        <ele>154.61799621582</ele>
        <time>2010-04-06T15:33:57Z</time>
      </trkpt>
      <trkpt lat="45.24144" lon="4.794">
        <ele>152.41299438477</ele>
        <time>2010-04-06T15:34:02Z</time>
      </trkpt>
      <trkpt lat="45.24126" lon="4.79446">
        <ele>151.88200378418</ele>
        <time>2010-04-06T15:34:06Z</time>
      </trkpt>
      <trkpt lat="45.24099" lon="4.79513">
        <ele>150.72900390625</ele>
        <time>2010-04-06T15:34:12Z</time>
      </trkpt>
      <trkpt lat="45.24067" lon="4.79558">
        <ele>150.50799560547</ele>
        <time>2010-04-06T15:34:17Z</time>
      </trkpt>
      <trkpt lat="45.24008" lon="4.79608">
        <ele>146.89199829102</ele>
        <time>2010-04-06T15:34:24Z</time>
      </trkpt>
      <trkpt lat="45.23986" lon="4.7964">
        <ele>145.78999328613</ele>
        <time>2010-04-06T15:34:27Z</time>
      </trkpt>
      <trkpt lat="45.23959" lon="4.79663">
        <ele>143.91499328613</ele>
        <time>2010-04-06T15:34:30Z</time>
      </trkpt>
      <trkpt lat="45.23938" lon="4.79663">
        <ele>142.47700500488</ele>
        <time>2010-04-06T15:34:32Z</time>
      </trkpt>
      <trkpt lat="45.23907" lon="4.7966">
        <ele>141.97200012207</ele>
        <time>2010-04-06T15:34:35Z</time>
      </trkpt>
      <trkpt lat="45.23887" lon="4.79663">
        <ele>140.93899536133</ele>
        <time>2010-04-06T15:34:37Z</time>
      </trkpt>
      <trkpt lat="45.23852" lon="4.79684">
        <ele>139.29899597168</ele>
        <time>2010-04-06T15:34:41Z</time>
      </trkpt>
      <trkpt lat="45.23826" lon="4.79703">
        <ele>136.61399841309</ele>
        <time>2010-04-06T15:34:44Z</time>
      </trkpt>
      <trkpt lat="45.23764" lon="4.79741">
        <ele>136.55299377441</ele>
        <time>2010-04-06T15:34:51Z</time>
      </trkpt>
      <trkpt lat="45.23701" lon="4.79779">
        <ele>137.80499267578</ele>
        <time>2010-04-06T15:34:59Z</time>
      </trkpt>
      <trkpt lat="45.23663" lon="4.79802">
        <ele>137.2859954834</ele>
        <time>2010-04-06T15:35:04Z</time>
      </trkpt>
      <trkpt lat="45.23615" lon="4.79834">
        <ele>136.24600219727</ele>
        <time>2010-04-06T15:35:10Z</time>
      </trkpt>
      <trkpt lat="45.23594" lon="4.79844">
        <ele>138.04200744629</ele>
        <time>2010-04-06T15:35:13Z</time>
      </trkpt>
      <trkpt lat="45.23553" lon="4.79849">
        <ele>138.18899536133</ele>
        <time>2010-04-06T15:35:19Z</time>
      </trkpt>
      <trkpt lat="45.23539" lon="4.7985">
        <ele>137.27000427246</ele>
        <time>2010-04-06T15:35:21Z</time>
      </trkpt>
      <trkpt lat="45.23504" lon="4.79862">
        <ele>138.30700683594</ele>
        <time>2010-04-06T15:35:26Z</time>
      </trkpt>
      <trkpt lat="45.23471" lon="4.79889">
        <ele>138.66200256348</ele>
        <time>2010-04-06T15:35:31Z</time>
      </trkpt>
      <trkpt lat="45.23424" lon="4.79928">
        <ele>138.27000427246</ele>
        <time>2010-04-06T15:35:38Z</time>
      </trkpt>
      <trkpt lat="45.23384" lon="4.79947">
        <ele>137.43200683594</ele>
        <time>2010-04-06T15:35:43Z</time>
      </trkpt>
      <trkpt lat="45.23332" lon="4.79958">
        <ele>136.5059967041</ele>
        <time>2010-04-06T15:35:49Z</time>
      </trkpt>
      <trkpt lat="45.23286" lon="4.79964">
        <ele>135.78100585938</ele>
        <time>2010-04-06T15:35:55Z</time>
      </trkpt>
      <trkpt lat="45.23231" lon="4.79971">
        <ele>135.92100524902</ele>
        <time>2010-04-06T15:36:02Z</time>
      </trkpt>
      <trkpt lat="45.2317" lon="4.7998">
        <ele>136.39199829102</ele>
        <time>2010-04-06T15:36:10Z</time>
      </trkpt>
      <trkpt lat="45.23104" lon="4.79989">
        <ele>136.61700439453</ele>
        <time>2010-04-06T15:36:19Z</time>
      </trkpt>
      <trkpt lat="45.23051" lon="4.79993">
        <ele>136.19599914551</ele>
        <time>2010-04-06T15:36:27Z</time>
      </trkpt>
      <trkpt lat="45.22993" lon="4.79996">
        <ele>136.51800537109</ele>
        <time>2010-04-06T15:36:36Z</time>
      </trkpt>
      <trkpt lat="45.22931" lon="4.80001">
        <ele>137.00399780273</ele>
        <time>2010-04-06T15:36:45Z</time>
      </trkpt>
      <trkpt lat="45.22875" lon="4.80013">
        <ele>136.86000061035</ele>
        <time>2010-04-06T15:36:53Z</time>
      </trkpt>
      <trkpt lat="45.22803" lon="4.8003">
        <ele>137.18699645996</ele>
        <time>2010-04-06T15:37:03Z</time>
      </trkpt>
      <trkpt lat="45.22749" lon="4.80049">
        <ele>137.56100463867</ele>
        <time>2010-04-06T15:37:11Z</time>
      </trkpt>
      <trkpt lat="45.22683" lon="4.80078">
        <ele>137.19200134277</ele>
        <time>2010-04-06T15:37:21Z</time>
      </trkpt>
      <trkpt lat="45.22623" lon="4.8011">
        <ele>137.26100158691</ele>
        <time>2010-04-06T15:37:30Z</time>
      </trkpt>
      <trkpt lat="45.22565" lon="4.80145">
        <ele>137.22399902344</ele>
        <time>2010-04-06T15:37:39Z</time>
      </trkpt>
      <trkpt lat="45.22507" lon="4.80184">
        <ele>139.67100524902</ele>
        <time>2010-04-06T15:37:49Z</time>
      </trkpt>
      <trkpt lat="45.22462" lon="4.80218">
        <ele>140.15600585938</ele>
        <time>2010-04-06T15:37:57Z</time>
      </trkpt>
      <trkpt lat="45.22415" lon="4.80249">
        <ele>141.33500671387</ele>
        <time>2010-04-06T15:38:05Z</time>
      </trkpt>
      <trkpt lat="45.22354" lon="4.80276">
        <ele>143.18299865723</ele>
        <time>2010-04-06T15:38:15Z</time>
      </trkpt>
      <trkpt lat="45.223" lon="4.80303">
        <ele>142.45300292969</ele>
        <time>2010-04-06T15:38:23Z</time>
      </trkpt>
      <trkpt lat="45.22252" lon="4.8032">
        <ele>141.16299438477</ele>
        <time>2010-04-06T15:38:30Z</time>
      </trkpt>
      <trkpt lat="45.22194" lon="4.80329">
        <ele>140.42199707031</ele>
        <time>2010-04-06T15:38:38Z</time>
      </trkpt>
      <trkpt lat="45.22144" lon="4.80328">
        <ele>139.01600646973</ele>
        <time>2010-04-06T15:38:45Z</time>
      </trkpt>
      <trkpt lat="45.22081" lon="4.80328">
        <ele>138.13900756836</ele>
        <time>2010-04-06T15:38:53Z</time>
      </trkpt>
      <trkpt lat="45.22017" lon="4.80326">
        <ele>137.64300537109</ele>
        <time>2010-04-06T15:39:01Z</time>
      </trkpt>
      <trkpt lat="45.21939" lon="4.80323">
        <ele>137.32699584961</ele>
        <time>2010-04-06T15:39:11Z</time>
      </trkpt>
      <trkpt lat="45.2183" lon="4.80321">
        <ele>139.11199951172</ele>
        <time>2010-04-06T15:39:25Z</time>
      </trkpt>
      <trkpt lat="45.2173" lon="4.8032">
        <ele>138.73300170898</ele>
        <time>2010-04-06T15:39:38Z</time>
      </trkpt>
      <trkpt lat="45.2165" lon="4.80319">
        <ele>139.04100036621</ele>
        <time>2010-04-06T15:39:49Z</time>
      </trkpt>
      <trkpt lat="45.21564" lon="4.80319">
        <ele>139.71699523926</ele>
        <time>2010-04-06T15:40:01Z</time>
      </trkpt>
      <trkpt lat="45.21487" lon="4.80318">
        <ele>139.66700744629</ele>
        <time>2010-04-06T15:40:12Z</time>
      </trkpt>
      <trkpt lat="45.21408" lon="4.80318">
        <ele>139.01100158691</ele>
        <time>2010-04-06T15:40:23Z</time>
      </trkpt>
      <trkpt lat="45.21349" lon="4.80317">
        <ele>137.96699523926</ele>
        <time>2010-04-06T15:40:31Z</time>
      </trkpt>
      <trkpt lat="45.21288" lon="4.80317">
        <ele>138.58399963379</ele>
        <time>2010-04-06T15:40:40Z</time>
      </trkpt>
      <trkpt lat="45.21232" lon="4.80318">
        <ele>136.85099792481</ele>
        <time>2010-04-06T15:40:48Z</time>
      </trkpt>
      <trkpt lat="45.21162" lon="4.80317">
        <ele>135.69299316406</ele>
        <time>2010-04-06T15:40:58Z</time>
      </trkpt>
      <trkpt lat="45.21148" lon="4.80316">
        <ele>136.66999816894</ele>
        <time>2010-04-06T15:41:00Z</time>
      </trkpt>
      <trkpt lat="45.21134" lon="4.80317">
        <ele>138.10499572754</ele>
        <time>2010-04-06T15:41:02Z</time>
      </trkpt>
      <trkpt lat="45.21043" lon="4.80316">
        <ele>135.67599487305</ele>
        <time>2010-04-06T15:41:14Z</time>
      </trkpt>
      <trkpt lat="45.21035" lon="4.80316">
        <ele>135.44599914551</ele>
        <time>2010-04-06T15:41:15Z</time>
      </trkpt>
      <trkpt lat="45.20952" lon="4.80313">
        <ele>135.18400573731</ele>
        <time>2010-04-06T15:41:26Z</time>
      </trkpt>
      <trkpt lat="45.20894" lon="4.80307">
        <ele>134.74899291992</ele>
        <time>2010-04-06T15:41:34Z</time>
      </trkpt>
      <trkpt lat="45.20824" lon="4.80285">
        <ele>134.74499511719</ele>
        <time>2010-04-06T15:41:44Z</time>
      </trkpt>
      <trkpt lat="45.20797" lon="4.80277">
        <ele>136.35099792481</ele>
        <time>2010-04-06T15:41:48Z</time>
      </trkpt>
      <trkpt lat="45.20728" lon="4.80256">
        <ele>136.56599426269</ele>
        <time>2010-04-06T15:41:58Z</time>
      </trkpt>
      <trkpt lat="45.20657" lon="4.80233">
        <ele>136.15600585938</ele>
        <time>2010-04-06T15:42:08Z</time>
      </trkpt>
      <trkpt lat="45.20604" lon="4.80216">
        <ele>135.04800415039</ele>
        <time>2010-04-06T15:42:15Z</time>
      </trkpt>
      <trkpt lat="45.2053" lon="4.80196">
        <ele>132.78799438477</ele>
        <time>2010-04-06T15:42:24Z</time>
      </trkpt>
      <trkpt lat="45.20495" lon="4.80192">
        <ele>131.25</ele>
        <time>2010-04-06T15:42:28Z</time>
      </trkpt>
      <trkpt lat="45.20427" lon="4.80186">
        <ele>130.79299926758</ele>
        <time>2010-04-06T15:42:36Z</time>
      </trkpt>
      <trkpt lat="45.2033" lon="4.80178">
        <ele>130.97300720215</ele>
        <time>2010-04-06T15:42:48Z</time>
      </trkpt>
      <trkpt lat="45.20238" lon="4.80169">
        <ele>131.43800354004</ele>
        <time>2010-04-06T15:42:59Z</time>
      </trkpt>
      <trkpt lat="45.20189" lon="4.80165">
        <ele>129.32699584961</ele>
        <time>2010-04-06T15:43:05Z</time>
      </trkpt>
      <trkpt lat="45.20122" lon="4.80159">
        <ele>131.32600402832</ele>
        <time>2010-04-06T15:43:14Z</time>
      </trkpt>
      <trkpt lat="45.20063" lon="4.80154">
        <ele>130.04899597168</ele>
        <time>2010-04-06T15:43:22Z</time>
      </trkpt>
      <trkpt lat="45.20006" lon="4.80148">
        <ele>130.89300537109</ele>
        <time>2010-04-06T15:43:30Z</time>
      </trkpt>
      <trkpt lat="45.19941" lon="4.80143">
        <ele>130.66900634766</ele>
        <time>2010-04-06T15:43:39Z</time>
      </trkpt>
      <trkpt lat="45.1989" lon="4.80139">
        <ele>131.62699890137</ele>
        <time>2010-04-06T15:43:46Z</time>
      </trkpt>
      <trkpt lat="45.19835" lon="4.80134">
        <ele>130.58399963379</ele>
        <time>2010-04-06T15:43:54Z</time>
      </trkpt>
      <trkpt lat="45.19778" lon="4.80128">
        <ele>130.94700622559</ele>
        <time>2010-04-06T15:44:02Z</time>
      </trkpt>
      <trkpt lat="45.19712" lon="4.80122">
        <ele>129.7619934082</ele>
        <time>2010-04-06T15:44:11Z</time>
      </trkpt>
      <trkpt lat="45.19648" lon="4.80117">
        <ele>128.06399536133</ele>
        <time>2010-04-06T15:44:20Z</time>
      </trkpt>
      <trkpt lat="45.19632" lon="4.80116">
        <ele>127.35399627685</ele>
        <time>2010-04-06T15:44:22Z</time>
      </trkpt>
      <trkpt lat="45.1958" lon="4.8011">
        <ele>127.19599914551</ele>
        <time>2010-04-06T15:44:29Z</time>
      </trkpt>
      <trkpt lat="45.19544" lon="4.80107">
        <ele>128.49000549316</ele>
        <time>2010-04-06T15:44:34Z</time>
      </trkpt>
      <trkpt lat="45.19482" lon="4.80101">
        <ele>128.22700500488</ele>
        <time>2010-04-06T15:44:42Z</time>
      </trkpt>
      <trkpt lat="45.19404" lon="4.80093">
        <ele>128.00300598144</ele>
        <time>2010-04-06T15:44:52Z</time>
      </trkpt>
      <trkpt lat="45.19362" lon="4.80079">
        <ele>127.77300262451</ele>
        <time>2010-04-06T15:44:58Z</time>
      </trkpt>
      <trkpt lat="45.1932" lon="4.80054">
        <ele>126.7919998169</ele>
        <time>2010-04-06T15:45:05Z</time>
      </trkpt>
      <trkpt lat="45.19287" lon="4.80019">
        <ele>128.29800415039</ele>
        <time>2010-04-06T15:45:12Z</time>
      </trkpt>
      <trkpt lat="45.1925" lon="4.79972">
        <ele>130.18299865723</ele>
        <time>2010-04-06T15:45:21Z</time>
      </trkpt>
      <trkpt lat="45.19212" lon="4.79923">
        <ele>130.11599731445</ele>
        <time>2010-04-06T15:45:30Z</time>
      </trkpt>
      <trkpt lat="45.19164" lon="4.7986">
        <ele>130.61700439453</ele>
        <time>2010-04-06T15:45:41Z</time>
      </trkpt>
      <trkpt lat="45.19141" lon="4.79832">
        <ele>130.42100524902</ele>
        <time>2010-04-06T15:45:46Z</time>
      </trkpt>
      <trkpt lat="45.19113" lon="4.79813">
        <ele>130.00300598144</ele>
        <time>2010-04-06T15:45:51Z</time>
      </trkpt>
      <trkpt lat="45.19094" lon="4.79812">
        <ele>130.91900634766</ele>
        <time>2010-04-06T15:45:54Z</time>
      </trkpt>
      <trkpt lat="45.19028" lon="4.79826">
        <ele>129.6549987793</ele>
        <time>2010-04-06T15:46:04Z</time>
      </trkpt>
      <trkpt lat="45.18977" lon="4.79836">
        <ele>129.40600585938</ele>
        <time>2010-04-06T15:46:12Z</time>
      </trkpt>
      <trkpt lat="45.18927" lon="4.79847">
        <ele>129.45300292969</ele>
        <time>2010-04-06T15:46:20Z</time>
      </trkpt>
      <trkpt lat="45.18861" lon="4.79861">
        <ele>130.45300292969</ele>
        <time>2010-04-06T15:46:31Z</time>
      </trkpt>
      <trkpt lat="45.18804" lon="4.79872">
        <ele>130.75900268555</ele>
        <time>2010-04-06T15:46:40Z</time>
      </trkpt>
      <trkpt lat="45.18736" lon="4.79885">
        <ele>131.6309967041</ele>
        <time>2010-04-06T15:46:51Z</time>
      </trkpt>
      <trkpt lat="45.18689" lon="4.79899">
        <ele>132.22300720215</ele>
        <time>2010-04-06T15:46:58Z</time>
      </trkpt>
      <trkpt lat="45.18677" lon="4.79902">
        <ele>132.63000488281</ele>
        <time>2010-04-06T15:47:00Z</time>
      </trkpt>
      <trkpt lat="45.1866" lon="4.7992">
        <ele>133.23100280762</ele>
        <time>2010-04-06T15:47:04Z</time>
      </trkpt>
      <trkpt lat="45.18661" lon="4.79937">
        <ele>133.47099304199</ele>
        <time>2010-04-06T15:47:06Z</time>
      </trkpt>
      <trkpt lat="45.18664" lon="4.80012">
        <ele>131.16400146484</ele>
        <time>2010-04-06T15:47:15Z</time>
      </trkpt>
      <trkpt lat="45.18664" lon="4.80037">
        <ele>131.69599914551</ele>
        <time>2010-04-06T15:47:18Z</time>
      </trkpt>
      <trkpt lat="45.18664" lon="4.80064">
        <ele>131.6130065918</ele>
        <time>2010-04-06T15:47:21Z</time>
      </trkpt>
      <trkpt lat="45.18665" lon="4.80073">
        <ele>130.96899414062</ele>
        <time>2010-04-06T15:47:22Z</time>
      </trkpt>
      <trkpt lat="45.18664" lon="4.801">
        <ele>130.76699829102</ele>
        <time>2010-04-06T15:47:25Z</time>
      </trkpt>
      <trkpt lat="45.18652" lon="4.80142">
        <ele>130.62800598144</ele>
        <time>2010-04-06T15:47:30Z</time>
      </trkpt>
      <trkpt lat="45.18631" lon="4.8019">
        <ele>131.61099243164</ele>
        <time>2010-04-06T15:47:37Z</time>
      </trkpt>
      <trkpt lat="45.18618" lon="4.8022">
        <ele>131.40699768066</ele>
        <time>2010-04-06T15:47:42Z</time>
      </trkpt>
      <trkpt lat="45.18603" lon="4.80255">
        <ele>130.48699951172</ele>
        <time>2010-04-06T15:47:47Z</time>
      </trkpt>
      <trkpt lat="45.18576" lon="4.8032">
        <ele>130.11500549316</ele>
        <time>2010-04-06T15:47:55Z</time>
      </trkpt>
      <trkpt lat="45.18542" lon="4.80403">
        <ele>127.50900268555</ele>
        <time>2010-04-06T15:48:04Z</time>
      </trkpt>
      <trkpt lat="45.18528" lon="4.80439">
        <ele>129.11199951172</ele>
        <time>2010-04-06T15:48:08Z</time>
      </trkpt>
      <trkpt lat="45.18491" lon="4.80529">
        <ele>128.07299804688</ele>
        <time>2010-04-06T15:48:18Z</time>
      </trkpt>
      <trkpt lat="45.18456" lon="4.80617">
        <ele>128.93400573731</ele>
        <time>2010-04-06T15:48:28Z</time>
      </trkpt>
      <trkpt lat="45.18424" lon="4.80694">
        <ele>128.78199768066</ele>
        <time>2010-04-06T15:48:37Z</time>
      </trkpt>
      <trkpt lat="45.18407" lon="4.80733">
        <ele>129.3809967041</ele>
        <time>2010-04-06T15:48:42Z</time>
      </trkpt>
      <trkpt lat="45.18393" lon="4.8075">
        <ele>129.0890045166</ele>
        <time>2010-04-06T15:48:45Z</time>
      </trkpt>
      <trkpt lat="45.18381" lon="4.80781">
        <ele>129.83999633789</ele>
        <time>2010-04-06T15:48:49Z</time>
      </trkpt>
      <trkpt lat="45.18372" lon="4.80832">
        <ele>130.60699462891</ele>
        <time>2010-04-06T15:48:55Z</time>
      </trkpt>
      <trkpt lat="45.18362" lon="4.80884">
        <ele>131.88800048828</ele>
        <time>2010-04-06T15:49:02Z</time>
      </trkpt>
      <trkpt lat="45.18361" lon="4.8093">
        <ele>132.48300170898</ele>
        <time>2010-04-06T15:49:08Z</time>
      </trkpt>
      <trkpt lat="45.18364" lon="4.80982">
        <ele>133.63900756836</ele>
        <time>2010-04-06T15:49:15Z</time>
      </trkpt>
      <trkpt lat="45.18373" lon="4.81038">
        <ele>135.72099304199</ele>
        <time>2010-04-06T15:49:22Z</time>
      </trkpt>
      <trkpt lat="45.18386" lon="4.81102">
        <ele>137.48399353027</ele>
        <time>2010-04-06T15:49:29Z</time>
      </trkpt>
      <trkpt lat="45.18395" lon="4.81149">
        <ele>141.03500366211</ele>
        <time>2010-04-06T15:49:34Z</time>
      </trkpt>
      <trkpt lat="45.18405" lon="4.812">
        <ele>142.07200622559</ele>
        <time>2010-04-06T15:49:40Z</time>
      </trkpt>
      <trkpt lat="45.18406" lon="4.81209">
        <ele>142.06300354004</ele>
        <time>2010-04-06T15:49:41Z</time>
      </trkpt>
      <trkpt lat="45.1842" lon="4.81283">
        <ele>143.59199523926</ele>
        <time>2010-04-06T15:49:49Z</time>
      </trkpt>
      <trkpt lat="45.18431" lon="4.81342">
        <ele>137.14700317383</ele>
        <time>2010-04-06T15:49:55Z</time>
      </trkpt>
      <trkpt lat="45.18432" lon="4.8135">
        <ele>137.55299377441</ele>
        <time>2010-04-06T15:49:56Z</time>
      </trkpt>
      <trkpt lat="45.18427" lon="4.81379">
        <ele>135.34899902344</ele>
        <time>2010-04-06T15:50:00Z</time>
      </trkpt>
      <trkpt lat="45.18423" lon="4.81395">
        <ele>135.14999389648</ele>
        <time>2010-04-06T15:50:02Z</time>
      </trkpt>
      <trkpt lat="45.18406" lon="4.81413">
        <ele>134.10299682617</ele>
        <time>2010-04-06T15:50:06Z</time>
      </trkpt>
      <trkpt lat="45.18394" lon="4.81414">
        <ele>134.14599609375</ele>
        <time>2010-04-06T15:50:08Z</time>
      </trkpt>
      <trkpt lat="45.18383" lon="4.81415">
        <ele>134.7559967041</ele>
        <time>2010-04-06T15:50:10Z</time>
      </trkpt>
      <trkpt lat="45.18358" lon="4.81418">
        <ele>134.02099609375</ele>
        <time>2010-04-06T15:50:15Z</time>
      </trkpt>
      <trkpt lat="45.18315" lon="4.81428">
        <ele>134.03300476074</ele>
        <time>2010-04-06T15:50:23Z</time>
      </trkpt>
      <trkpt lat="45.18276" lon="4.81436">
        <ele>133.53100585938</ele>
        <time>2010-04-06T15:50:30Z</time>
      </trkpt>
      <trkpt lat="45.18239" lon="4.81446">
        <ele>133.80200195312</ele>
        <time>2010-04-06T15:50:36Z</time>
      </trkpt>
      <trkpt lat="45.182" lon="4.81453">
        <ele>133.4640045166</ele>
        <time>2010-04-06T15:50:42Z</time>
      </trkpt>
      <trkpt lat="45.18141" lon="4.81467">
        <ele>132.44700622559</ele>
        <time>2010-04-06T15:50:51Z</time>
      </trkpt>
      <trkpt lat="45.18102" lon="4.81476">
        <ele>132.24200439453</ele>
        <time>2010-04-06T15:50:57Z</time>
      </trkpt>
      <trkpt lat="45.18089" lon="4.81479">
        <ele>132.94400024414</ele>
        <time>2010-04-06T15:50:59Z</time>
      </trkpt>
      <trkpt lat="45.18064" lon="4.81476">
        <ele>133.43699645996</ele>
        <time>2010-04-06T15:51:03Z</time>
      </trkpt>
      <trkpt lat="45.1806" lon="4.81474">
        <ele>133.28300476074</ele>
        <time>2010-04-06T15:51:04Z</time>
      </trkpt>
      <trkpt lat="45.18052" lon="4.81467">
        <ele>132.47399902344</ele>
        <time>2010-04-06T15:51:06Z</time>
      </trkpt>
      <trkpt lat="45.18036" lon="4.81447">
        <ele>133.22300720215</ele>
        <time>2010-04-06T15:51:11Z</time>
      </trkpt>
      <trkpt lat="45.18034" lon="4.81445">
        <ele>133.41200256348</ele>
        <time>2010-04-06T15:51:12Z</time>
      </trkpt>
      <trkpt lat="45.18022" lon="4.81435">
        <ele>133.06399536133</ele>
        <time>2010-04-06T15:51:15Z</time>
      </trkpt>
      <trkpt lat="45.1799" lon="4.81415">
        <ele>132.73399353027</ele>
        <time>2010-04-06T15:51:21Z</time>
      </trkpt>
      <trkpt lat="45.17953" lon="4.81401">
        <ele>130.91000366211</ele>
        <time>2010-04-06T15:51:27Z</time>
      </trkpt>
      <trkpt lat="45.17923" lon="4.81393">
        <ele>129.26499938965</ele>
        <time>2010-04-06T15:51:32Z</time>
      </trkpt>
      <trkpt lat="45.17913" lon="4.81391">
        <ele>131.2200012207</ele>
        <time>2010-04-06T15:51:34Z</time>
      </trkpt>
      <trkpt lat="45.17884" lon="4.81386">
        <ele>128.77200317383</ele>
        <time>2010-04-06T15:51:40Z</time>
      </trkpt>
      <trkpt lat="45.1786" lon="4.81381">
        <ele>128.23199462891</ele>
        <time>2010-04-06T15:51:44Z</time>
      </trkpt>
      <trkpt lat="45.17822" lon="4.81388">
        <ele>127.09899902344</ele>
        <time>2010-04-06T15:51:50Z</time>
      </trkpt>
      <trkpt lat="45.17791" lon="4.81397">
        <ele>126.50099945068</ele>
        <time>2010-04-06T15:51:55Z</time>
      </trkpt>
      <trkpt lat="45.17776" lon="4.81406">
        <ele>129.42399597168</ele>
        <time>2010-04-06T15:51:58Z</time>
      </trkpt>
      <trkpt lat="45.17772" lon="4.8141">
        <ele>129.20599365234</ele>
        <time>2010-04-06T15:51:59Z</time>
      </trkpt>
      <trkpt lat="45.17745" lon="4.81434">
        <ele>129.66400146484</ele>
        <time>2010-04-06T15:52:07Z</time>
      </trkpt>
      <trkpt lat="45.1773" lon="4.81452">
        <ele>128.49899291992</ele>
        <time>2010-04-06T15:52:12Z</time>
      </trkpt>
      <trkpt lat="45.17731" lon="4.81472">
        <ele>127.55500030518</ele>
        <time>2010-04-06T15:52:15Z</time>
      </trkpt>
      <trkpt lat="45.1773" lon="4.81479">
        <ele>127.27899932861</ele>
        <time>2010-04-06T15:52:16Z</time>
      </trkpt>
      <trkpt lat="45.17724" lon="4.815">
        <ele>128.6190032959</ele>
        <time>2010-04-06T15:52:19Z</time>
      </trkpt>
      <trkpt lat="45.1771" lon="4.81559">
        <ele>128.39300537109</ele>
        <time>2010-04-06T15:52:26Z</time>
      </trkpt>
      <trkpt lat="45.17707" lon="4.81598">
        <ele>127.11799621582</ele>
        <time>2010-04-06T15:52:30Z</time>
      </trkpt>
      <trkpt lat="45.17709" lon="4.81617">
        <ele>127.48600006103</ele>
        <time>2010-04-06T15:52:32Z</time>
      </trkpt>
      <trkpt lat="45.17709" lon="4.81637">
        <ele>127.44200134277</ele>
        <time>2010-04-06T15:52:34Z</time>
      </trkpt>
      <trkpt lat="45.17712" lon="4.81666">
        <ele>127.18099975586</ele>
        <time>2010-04-06T15:52:37Z</time>
      </trkpt>
      <trkpt lat="45.17712" lon="4.81722">
        <ele>127.17600250244</ele>
        <time>2010-04-06T15:52:43Z</time>
      </trkpt>
      <trkpt lat="45.1771" lon="4.81756">
        <ele>126.66500091553</ele>
        <time>2010-04-06T15:52:47Z</time>
      </trkpt>
      <trkpt lat="45.17696" lon="4.81794">
        <ele>127.52500152588</ele>
        <time>2010-04-06T15:52:52Z</time>
      </trkpt>
      <trkpt lat="45.17678" lon="4.81861">
        <ele>128.0359954834</ele>
        <time>2010-04-06T15:53:00Z</time>
      </trkpt>
      <trkpt lat="45.17664" lon="4.81904">
        <ele>129.05599975586</ele>
        <time>2010-04-06T15:53:06Z</time>
      </trkpt>
      <trkpt lat="45.1766" lon="4.81912">
        <ele>128.7559967041</ele>
        <time>2010-04-06T15:53:08Z</time>
      </trkpt>
      <trkpt lat="45.17636" lon="4.81943">
        <ele>129.10200500488</ele>
        <time>2010-04-06T15:53:15Z</time>
      </trkpt>
      <trkpt lat="45.17607" lon="4.81989">
        <ele>128.99000549316</ele>
        <time>2010-04-06T15:53:23Z</time>
      </trkpt>
      <trkpt lat="45.17585" lon="4.82037">
        <ele>128.54299926758</ele>
        <time>2010-04-06T15:53:30Z</time>
      </trkpt>
      <trkpt lat="45.17563" lon="4.82075">
        <ele>129.41900634766</ele>
        <time>2010-04-06T15:53:36Z</time>
      </trkpt>
      <trkpt lat="45.17536" lon="4.82105">
        <ele>130.19400024414</ele>
        <time>2010-04-06T15:53:42Z</time>
      </trkpt>
      <trkpt lat="45.17513" lon="4.82114">
        <ele>132.19099426269</ele>
        <time>2010-04-06T15:53:46Z</time>
      </trkpt>
      <trkpt lat="45.175" lon="4.82129">
        <ele>130.85099792481</ele>
        <time>2010-04-06T15:53:49Z</time>
      </trkpt>
      <trkpt lat="45.17489" lon="4.82147">
        <ele>131.8869934082</ele>
        <time>2010-04-06T15:53:52Z</time>
      </trkpt>
      <trkpt lat="45.17442" lon="4.8218">
        <ele>132.54400634766</ele>
        <time>2010-04-06T15:54:01Z</time>
      </trkpt>
      <trkpt lat="45.17399" lon="4.82212">
        <ele>134.71200561523</ele>
        <time>2010-04-06T15:54:09Z</time>
      </trkpt>
      <trkpt lat="45.17356" lon="4.82245">
        <ele>136.02699279785</ele>
        <time>2010-04-06T15:54:17Z</time>
      </trkpt>
      <trkpt lat="45.1732" lon="4.82278">
        <ele>136.41000366211</ele>
        <time>2010-04-06T15:54:24Z</time>
      </trkpt>
      <trkpt lat="45.173" lon="4.82318">
        <ele>135.88900756836</ele>
        <time>2010-04-06T15:54:29Z</time>
      </trkpt>
      <trkpt lat="45.17295" lon="4.82327">
        <ele>135.59199523926</ele>
        <time>2010-04-06T15:54:30Z</time>
      </trkpt>
      <trkpt lat="45.17284" lon="4.82343">
        <ele>134.80200195312</ele>
        <time>2010-04-06T15:54:32Z</time>
      </trkpt>
      <trkpt lat="45.17278" lon="4.82374">
        <ele>134.24299621582</ele>
        <time>2010-04-06T15:54:35Z</time>
      </trkpt>
      <trkpt lat="45.1729" lon="4.82389">
        <ele>134.05200195312</ele>
        <time>2010-04-06T15:54:37Z</time>
      </trkpt>
      <trkpt lat="45.17315" lon="4.82411">
        <ele>134.10099792481</ele>
        <time>2010-04-06T15:54:41Z</time>
      </trkpt>
      <trkpt lat="45.17319" lon="4.8242">
        <ele>134.19299316406</ele>
        <time>2010-04-06T15:54:42Z</time>
      </trkpt>
      <trkpt lat="45.17349" lon="4.82484">
        <ele>134.45300292969</ele>
        <time>2010-04-06T15:54:49Z</time>
      </trkpt>
      <trkpt lat="45.1738" lon="4.82535">
        <ele>134.10099792481</ele>
        <time>2010-04-06T15:54:55Z</time>
      </trkpt>
      <trkpt lat="45.1741" lon="4.82585">
        <ele>134.01600646973</ele>
        <time>2010-04-06T15:55:01Z</time>
      </trkpt>
      <trkpt lat="45.17421" lon="4.82636">
        <ele>136.36099243164</ele>
        <time>2010-04-06T15:55:06Z</time>
      </trkpt>
      <trkpt lat="45.17418" lon="4.82667">
        <ele>137.56199645996</ele>
        <time>2010-04-06T15:55:09Z</time>
      </trkpt>
      <trkpt lat="45.1741" lon="4.82697">
        <ele>138.25500488281</ele>
        <time>2010-04-06T15:55:12Z</time>
      </trkpt>
      <trkpt lat="45.17387" lon="4.82758">
        <ele>140.02099609375</ele>
        <time>2010-04-06T15:55:19Z</time>
      </trkpt>
      <trkpt lat="45.17369" lon="4.82827">
        <ele>141.48300170898</ele>
        <time>2010-04-06T15:55:27Z</time>
      </trkpt>
      <trkpt lat="45.17361" lon="4.8288">
        <ele>142.9640045166</ele>
        <time>2010-04-06T15:55:33Z</time>
      </trkpt>
      <trkpt lat="45.17367" lon="4.82923">
        <ele>143.80400085449</ele>
        <time>2010-04-06T15:55:38Z</time>
      </trkpt>
      <trkpt lat="45.1737" lon="4.82931">
        <ele>143.88600158691</ele>
        <time>2010-04-06T15:55:39Z</time>
      </trkpt>
      <trkpt lat="45.17403" lon="4.82979">
        <ele>144.66799926758</ele>
        <time>2010-04-06T15:55:46Z</time>
      </trkpt>
      <trkpt lat="45.17444" lon="4.8301">
        <ele>144.51800537109</ele>
        <time>2010-04-06T15:55:53Z</time>
      </trkpt>
      <trkpt lat="45.17476" lon="4.83023">
        <ele>143.30700683594</ele>
        <time>2010-04-06T15:55:58Z</time>
      </trkpt>
      <trkpt lat="45.17511" lon="4.83016">
        <ele>142.40699768066</ele>
        <time>2010-04-06T15:56:03Z</time>
      </trkpt>
      <trkpt lat="45.17525" lon="4.83009">
        <ele>141.5059967041</ele>
        <time>2010-04-06T15:56:05Z</time>
      </trkpt>
      <trkpt lat="45.17579" lon="4.82991">
        <ele>139.37100219727</ele>
        <time>2010-04-06T15:56:12Z</time>
      </trkpt>
      <trkpt lat="45.17629" lon="4.82969">
        <ele>140.02400207519</ele>
        <time>2010-04-06T15:56:18Z</time>
      </trkpt>
      <trkpt lat="45.17665" lon="4.82968">
        <ele>139.91000366211</ele>
        <time>2010-04-06T15:56:22Z</time>
      </trkpt>
      <trkpt lat="45.17689" lon="4.82984">
        <ele>140.46699523926</ele>
        <time>2010-04-06T15:56:25Z</time>
      </trkpt>
      <trkpt lat="45.17702" lon="4.83016">
        <ele>141.44799804688</ele>
        <time>2010-04-06T15:56:28Z</time>
      </trkpt>
      <trkpt lat="45.17704" lon="4.83028">
        <ele>141.57400512695</ele>
        <time>2010-04-06T15:56:29Z</time>
      </trkpt>
      <trkpt lat="45.17718" lon="4.83141">
        <ele>140.98599243164</ele>
        <time>2010-04-06T15:56:38Z</time>
      </trkpt>
      <trkpt lat="45.17736" lon="4.83209">
        <ele>141.23100280762</ele>
        <time>2010-04-06T15:56:44Z</time>
      </trkpt>
      <trkpt lat="45.17757" lon="4.83273">
        <ele>142.51400756836</ele>
        <time>2010-04-06T15:56:50Z</time>
      </trkpt>
      <trkpt lat="45.1778" lon="4.83318">
        <ele>143.02900695801</ele>
        <time>2010-04-06T15:56:55Z</time>
      </trkpt>
      <trkpt lat="45.17808" lon="4.83339">
        <ele>141.3690032959</ele>
        <time>2010-04-06T15:56:59Z</time>
      </trkpt>
      <trkpt lat="45.17846" lon="4.83346">
        <ele>143.16499328613</ele>
        <time>2010-04-06T15:57:04Z</time>
      </trkpt>
      <trkpt lat="45.17891" lon="4.83339">
        <ele>143.85800170898</ele>
        <time>2010-04-06T15:57:10Z</time>
      </trkpt>
      <trkpt lat="45.17932" lon="4.83319">
        <ele>145.10000610352</ele>
        <time>2010-04-06T15:57:16Z</time>
      </trkpt>
      <trkpt lat="45.17951" lon="4.83309">
        <ele>146.14700317383</ele>
        <time>2010-04-06T15:57:19Z</time>
      </trkpt>
      <trkpt lat="45.17971" lon="4.83304">
        <ele>147.44999694824</ele>
        <time>2010-04-06T15:57:22Z</time>
      </trkpt>
      <trkpt lat="45.17991" lon="4.83312">
        <ele>148.00300598144</ele>
        <time>2010-04-06T15:57:25Z</time>
      </trkpt>
      <trkpt lat="45.18007" lon="4.83329">
        <ele>148.08799743652</ele>
        <time>2010-04-06T15:57:28Z</time>
      </trkpt>
      <trkpt lat="45.18044" lon="4.83383">
        <ele>146.45599365234</ele>
        <time>2010-04-06T15:57:35Z</time>
      </trkpt>
      <trkpt lat="45.18078" lon="4.83424">
        <ele>145.36399841309</ele>
        <time>2010-04-06T15:57:40Z</time>
      </trkpt>
      <trkpt lat="45.18098" lon="4.8347">
        <ele>144.00300598144</ele>
        <time>2010-04-06T15:57:44Z</time>
      </trkpt>
      <trkpt lat="45.18094" lon="4.835">
        <ele>143.8630065918</ele>
        <time>2010-04-06T15:57:46Z</time>
      </trkpt>
      <trkpt lat="45.18081" lon="4.83524">
        <ele>143.8450012207</ele>
        <time>2010-04-06T15:57:48Z</time>
      </trkpt>
      <trkpt lat="45.18062" lon="4.83543">
        <ele>143.67799377441</ele>
        <time>2010-04-06T15:57:50Z</time>
      </trkpt>
      <trkpt lat="45.18017" lon="4.83588">
        <ele>143.89599609375</ele>
        <time>2010-04-06T15:57:55Z</time>
      </trkpt>
      <trkpt lat="45.17997" lon="4.83615">
        <ele>144.42100524902</ele>
        <time>2010-04-06T15:57:58Z</time>
      </trkpt>
      <trkpt lat="45.17974" lon="4.83666">
        <ele>144.83200073242</ele>
        <time>2010-04-06T15:58:03Z</time>
      </trkpt>
      <trkpt lat="45.17956" lon="4.83717">
        <ele>145.45899963379</ele>
        <time>2010-04-06T15:58:08Z</time>
      </trkpt>
      <trkpt lat="45.17941" lon="4.83766">
        <ele>145.93400573731</ele>
        <time>2010-04-06T15:58:13Z</time>
      </trkpt>
      <trkpt lat="45.17921" lon="4.83833">
        <ele>147.35000610352</ele>
        <time>2010-04-06T15:58:20Z</time>
      </trkpt>
      <trkpt lat="45.17902" lon="4.83916">
        <ele>149.19700622559</ele>
        <time>2010-04-06T15:58:29Z</time>
      </trkpt>
      <trkpt lat="45.17893" lon="4.83967">
        <ele>150.08200073242</ele>
        <time>2010-04-06T15:58:35Z</time>
      </trkpt>
      <trkpt lat="45.17892" lon="4.83992">
        <ele>151.27699279785</ele>
        <time>2010-04-06T15:58:38Z</time>
      </trkpt>
      <trkpt lat="45.17898" lon="4.84043">
        <ele>153.25300598144</ele>
        <time>2010-04-06T15:58:44Z</time>
      </trkpt>
      <trkpt lat="45.17912" lon="4.84099">
        <ele>155.21600341797</ele>
        <time>2010-04-06T15:58:51Z</time>
      </trkpt>
      <trkpt lat="45.17897" lon="4.84193">
        <ele>158.78799438477</ele>
        <time>2010-04-06T15:59:03Z</time>
      </trkpt>
      <trkpt lat="45.17883" lon="4.84235">
        <ele>160.51300048828</ele>
        <time>2010-04-06T15:59:09Z</time>
      </trkpt>
      <trkpt lat="45.17879" lon="4.84242">
        <ele>160.3390045166</ele>
        <time>2010-04-06T15:59:10Z</time>
      </trkpt>
      <trkpt lat="45.17862" lon="4.84278">
        <ele>160.97900390625</ele>
        <time>2010-04-06T15:59:15Z</time>
      </trkpt>
      <trkpt lat="45.17854" lon="4.84322">
        <ele>161.30999755859</ele>
        <time>2010-04-06T15:59:20Z</time>
      </trkpt>
      <trkpt lat="45.17854" lon="4.84332">
        <ele>161.08299255371</ele>
        <time>2010-04-06T15:59:21Z</time>
      </trkpt>
      <trkpt lat="45.17865" lon="4.84406">
        <ele>160.31599426269</ele>
        <time>2010-04-06T15:59:28Z</time>
      </trkpt>
      <trkpt lat="45.17881" lon="4.84474">
        <ele>160.33599853516</ele>
        <time>2010-04-06T15:59:35Z</time>
      </trkpt>
      <trkpt lat="45.17907" lon="4.84541">
        <ele>159.63900756836</ele>
        <time>2010-04-06T15:59:42Z</time>
      </trkpt>
      <trkpt lat="45.17933" lon="4.84609">
        <ele>158.75700378418</ele>
        <time>2010-04-06T15:59:49Z</time>
      </trkpt>
      <trkpt lat="45.17955" lon="4.84672">
        <ele>159.55200195312</ele>
        <time>2010-04-06T15:59:56Z</time>
      </trkpt>
      <trkpt lat="45.17978" lon="4.8474">
        <ele>160.49000549316</ele>
        <time>2010-04-06T16:00:04Z</time>
      </trkpt>
      <trkpt lat="45.17983" lon="4.84787">
        <ele>161.47099304199</ele>
        <time>2010-04-06T16:00:09Z</time>
      </trkpt>
      <trkpt lat="45.17983" lon="4.84856">
        <ele>162.45399475098</ele>
        <time>2010-04-06T16:00:16Z</time>
      </trkpt>
      <trkpt lat="45.17979" lon="4.84902">
        <ele>163.77299499512</ele>
        <time>2010-04-06T16:00:21Z</time>
      </trkpt>
      <trkpt lat="45.1798" lon="4.84937">
        <ele>164.05200195312</ele>
        <time>2010-04-06T16:00:25Z</time>
      </trkpt>
      <trkpt lat="45.17973" lon="4.85035">
        <ele>164.84399414062</ele>
        <time>2010-04-06T16:00:36Z</time>
      </trkpt>
      <trkpt lat="45.17972" lon="4.85043">
        <ele>164.80700683594</ele>
        <time>2010-04-06T16:00:37Z</time>
      </trkpt>
      <trkpt lat="45.17965" lon="4.85071">
        <ele>166.19900512695</ele>
        <time>2010-04-06T16:00:41Z</time>
      </trkpt>
      <trkpt lat="45.17945" lon="4.85109">
        <ele>167.70500183106</ele>
        <time>2010-04-06T16:00:48Z</time>
      </trkpt>
      <trkpt lat="45.17917" lon="4.85147">
        <ele>169.20599365234</ele>
        <time>2010-04-06T16:00:54Z</time>
      </trkpt>
      <trkpt lat="45.17892" lon="4.85181">
        <ele>171.04299926758</ele>
        <time>2010-04-06T16:00:59Z</time>
      </trkpt>
      <trkpt lat="45.17876" lon="4.85208">
        <ele>171.85699462891</ele>
        <time>2010-04-06T16:01:03Z</time>
      </trkpt>
      <trkpt lat="45.17862" lon="4.85257">
        <ele>173.49600219727</ele>
        <time>2010-04-06T16:01:09Z</time>
      </trkpt>
      <trkpt lat="45.17856" lon="4.85311">
        <ele>174.6609954834</ele>
        <time>2010-04-06T16:01:16Z</time>
      </trkpt>
      <trkpt lat="45.1786" lon="4.85354">
        <ele>175.80900573731</ele>
        <time>2010-04-06T16:01:22Z</time>
      </trkpt>
      <trkpt lat="45.1787" lon="4.85405">
        <ele>176.6130065918</ele>
        <time>2010-04-06T16:01:29Z</time>
      </trkpt>
      <trkpt lat="45.17877" lon="4.85458">
        <ele>176.90100097656</ele>
        <time>2010-04-06T16:01:36Z</time>
      </trkpt>
      <trkpt lat="45.17866" lon="4.85504">
        <ele>174.35499572754</ele>
        <time>2010-04-06T16:01:41Z</time>
      </trkpt>
      <trkpt lat="45.17831" lon="4.85573">
        <ele>171.23399353027</ele>
        <time>2010-04-06T16:01:48Z</time>
      </trkpt>
      <trkpt lat="45.17825" lon="4.85583">
        <ele>170.96200561523</ele>
        <time>2010-04-06T16:01:49Z</time>
      </trkpt>
      <trkpt lat="45.17781" lon="4.85633">
        <ele>169.25500488281</ele>
        <time>2010-04-06T16:01:55Z</time>
      </trkpt>
      <trkpt lat="45.17729" lon="4.85682">
        <ele>168.46099853516</ele>
        <time>2010-04-06T16:02:02Z</time>
      </trkpt>
      <trkpt lat="45.17676" lon="4.8572">
        <ele>168.30799865723</ele>
        <time>2010-04-06T16:02:09Z</time>
      </trkpt>
      <trkpt lat="45.17639" lon="4.85741">
        <ele>166.75799560547</ele>
        <time>2010-04-06T16:02:14Z</time>
      </trkpt>
      <trkpt lat="45.17631" lon="4.85746">
        <ele>167.1369934082</ele>
        <time>2010-04-06T16:02:15Z</time>
      </trkpt>
      <trkpt lat="45.17617" lon="4.85757">
        <ele>166.33999633789</ele>
        <time>2010-04-06T16:02:17Z</time>
      </trkpt>
      <trkpt lat="45.17593" lon="4.85792">
        <ele>164.6369934082</ele>
        <time>2010-04-06T16:02:21Z</time>
      </trkpt>
      <trkpt lat="45.17587" lon="4.85816">
        <ele>164.45799255371</ele>
        <time>2010-04-06T16:02:23Z</time>
      </trkpt>
      <trkpt lat="45.17577" lon="4.85862">
        <ele>163.52400207519</ele>
        <time>2010-04-06T16:02:27Z</time>
      </trkpt>
      <trkpt lat="45.17558" lon="4.85927">
        <ele>162.52299499512</ele>
        <time>2010-04-06T16:02:33Z</time>
      </trkpt>
      <trkpt lat="45.17534" lon="4.85976">
        <ele>164.02400207519</ele>
        <time>2010-04-06T16:02:39Z</time>
      </trkpt>
      <trkpt lat="45.17502" lon="4.86037">
        <ele>165.81900024414</ele>
        <time>2010-04-06T16:02:47Z</time>
      </trkpt>
      <trkpt lat="45.17479" lon="4.86083">
        <ele>167.3390045166</ele>
        <time>2010-04-06T16:02:53Z</time>
      </trkpt>
      <trkpt lat="45.17439" lon="4.86157">
        <ele>168.50799560547</ele>
        <time>2010-04-06T16:03:03Z</time>
      </trkpt>
      <trkpt lat="45.17405" lon="4.8621">
        <ele>168.32699584961</ele>
        <time>2010-04-06T16:03:10Z</time>
      </trkpt>
      <trkpt lat="45.17374" lon="4.86281">
        <ele>168.30599975586</ele>
        <time>2010-04-06T16:03:18Z</time>
      </trkpt>
      <trkpt lat="45.17344" lon="4.86359">
        <ele>168.65400695801</ele>
        <time>2010-04-06T16:03:27Z</time>
      </trkpt>
      <trkpt lat="45.17317" lon="4.86432">
        <ele>169.06500244141</ele>
        <time>2010-04-06T16:03:35Z</time>
      </trkpt>
      <trkpt lat="45.17291" lon="4.86494">
        <ele>169.6609954834</ele>
        <time>2010-04-06T16:03:42Z</time>
      </trkpt>
      <trkpt lat="45.17257" lon="4.86578">
        <ele>170.25900268555</ele>
        <time>2010-04-06T16:03:52Z</time>
      </trkpt>
      <trkpt lat="45.17232" lon="4.86635">
        <ele>170.62600708008</ele>
        <time>2010-04-06T16:03:59Z</time>
      </trkpt>
      <trkpt lat="45.17208" lon="4.86694">
        <ele>171.07000732422</ele>
        <time>2010-04-06T16:04:06Z</time>
      </trkpt>
      <trkpt lat="45.17177" lon="4.86765">
        <ele>170.11599731445</ele>
        <time>2010-04-06T16:04:15Z</time>
      </trkpt>
      <trkpt lat="45.17152" lon="4.86825">
        <ele>169.69299316406</ele>
        <time>2010-04-06T16:04:22Z</time>
      </trkpt>
      <trkpt lat="45.17125" lon="4.86889">
        <ele>170.66200256348</ele>
        <time>2010-04-06T16:04:29Z</time>
      </trkpt>
      <trkpt lat="45.17093" lon="4.86967">
        <ele>169.8809967041</ele>
        <time>2010-04-06T16:04:37Z</time>
      </trkpt>
      <trkpt lat="45.17056" lon="4.87056">
        <ele>169.12399291992</ele>
        <time>2010-04-06T16:04:46Z</time>
      </trkpt>
      <trkpt lat="45.17022" lon="4.87138">
        <ele>169.58299255371</ele>
        <time>2010-04-06T16:04:55Z</time>
      </trkpt>
      <trkpt lat="45.17002" lon="4.87187">
        <ele>171.58500671387</ele>
        <time>2010-04-06T16:05:01Z</time>
      </trkpt>
      <trkpt lat="45.16998" lon="4.87198">
        <ele>171.58500671387</ele>
        <time>2010-04-06T16:05:02Z</time>
      </trkpt>
      <trkpt lat="45.16999" lon="4.87241">
        <ele>170.52299499512</ele>
        <time>2010-04-06T16:05:07Z</time>
      </trkpt>
      <trkpt lat="45.17006" lon="4.87306">
        <ele>170.3809967041</ele>
        <time>2010-04-06T16:05:14Z</time>
      </trkpt>
      <trkpt lat="45.1701" lon="4.87353">
        <ele>169.91600036621</ele>
        <time>2010-04-06T16:05:19Z</time>
      </trkpt>
      <trkpt lat="45.17015" lon="4.87422">
        <ele>168.92399597168</ele>
        <time>2010-04-06T16:05:26Z</time>
      </trkpt>
      <trkpt lat="45.17015" lon="4.87431">
        <ele>167.65400695801</ele>
        <time>2010-04-06T16:05:27Z</time>
      </trkpt>
      <trkpt lat="45.17022" lon="4.87515">
        <ele>168.45799255371</ele>
        <time>2010-04-06T16:05:35Z</time>
      </trkpt>
      <trkpt lat="45.17024" lon="4.87556">
        <ele>168.57800292969</ele>
        <time>2010-04-06T16:05:39Z</time>
      </trkpt>
      <trkpt lat="45.1702" lon="4.87637">
        <ele>168.53100585938</ele>
        <time>2010-04-06T16:05:47Z</time>
      </trkpt>
      <trkpt lat="45.17009" lon="4.87701">
        <ele>168.55599975586</ele>
        <time>2010-04-06T16:05:54Z</time>
      </trkpt>
      <trkpt lat="45.16994" lon="4.87729">
        <ele>168.02400207519</ele>
        <time>2010-04-06T16:05:58Z</time>
      </trkpt>
      <trkpt lat="45.16991" lon="4.87754">
        <ele>169.32000732422</ele>
        <time>2010-04-06T16:06:01Z</time>
      </trkpt>
      <trkpt lat="45.16991" lon="4.87771">
        <ele>169.09100341797</ele>
        <time>2010-04-06T16:06:03Z</time>
      </trkpt>
      <trkpt lat="45.16983" lon="4.8784">
        <ele>169.98300170898</ele>
        <time>2010-04-06T16:06:11Z</time>
      </trkpt>
      <trkpt lat="45.16972" lon="4.87899">
        <ele>170.60899353027</ele>
        <time>2010-04-06T16:06:18Z</time>
      </trkpt>
      <trkpt lat="45.16966" lon="4.87977">
        <ele>170.86999511719</ele>
        <time>2010-04-06T16:06:27Z</time>
      </trkpt>
      <trkpt lat="45.1697" lon="4.88045">
        <ele>171.52200317383</ele>
        <time>2010-04-06T16:06:35Z</time>
      </trkpt>
      <trkpt lat="45.16976" lon="4.88118">
        <ele>172.57400512695</ele>
        <time>2010-04-06T16:06:44Z</time>
      </trkpt>
      <trkpt lat="45.16983" lon="4.88191">
        <ele>173.11500549316</ele>
        <time>2010-04-06T16:06:53Z</time>
      </trkpt>
      <trkpt lat="45.16985" lon="4.88259">
        <ele>174.15899658203</ele>
        <time>2010-04-06T16:07:01Z</time>
      </trkpt>
      <trkpt lat="45.16976" lon="4.88323">
        <ele>174.84599304199</ele>
        <time>2010-04-06T16:07:09Z</time>
      </trkpt>
      <trkpt lat="45.16961" lon="4.88402">
        <ele>174.83599853516</ele>
        <time>2010-04-06T16:07:18Z</time>
      </trkpt>
      <trkpt lat="45.16946" lon="4.88492">
        <ele>176.14999389648</ele>
        <time>2010-04-06T16:07:28Z</time>
      </trkpt>
      <trkpt lat="45.16935" lon="4.88551">
        <ele>177.42199707031</ele>
        <time>2010-04-06T16:07:35Z</time>
      </trkpt>
      <trkpt lat="45.16927" lon="4.88601">
        <ele>178.66200256348</ele>
        <time>2010-04-06T16:07:42Z</time>
      </trkpt>
      <trkpt lat="45.16919" lon="4.88639">
        <ele>180.66000366211</ele>
        <time>2010-04-06T16:07:48Z</time>
      </trkpt>
      <trkpt lat="45.1691" lon="4.88688">
        <ele>182.81900024414</ele>
        <time>2010-04-06T16:07:56Z</time>
      </trkpt>
      <trkpt lat="45.16909" lon="4.88695">
        <ele>183.00900268555</ele>
        <time>2010-04-06T16:07:57Z</time>
      </trkpt>
      <trkpt lat="45.169" lon="4.88748">
        <ele>184.59100341797</ele>
        <time>2010-04-06T16:08:04Z</time>
      </trkpt>
      <trkpt lat="45.16895" lon="4.88775">
        <ele>186.32000732422</ele>
        <time>2010-04-06T16:08:07Z</time>
      </trkpt>
      <trkpt lat="45.16893" lon="4.88785">
        <ele>186.39100646973</ele>
        <time>2010-04-06T16:08:08Z</time>
      </trkpt>
      <trkpt lat="45.16886" lon="4.88824">
        <ele>187.0359954834</ele>
        <time>2010-04-06T16:08:12Z</time>
      </trkpt>
      <trkpt lat="45.16881" lon="4.88851">
        <ele>189.04100036621</ele>
        <time>2010-04-06T16:08:15Z</time>
      </trkpt>
      <trkpt lat="45.16878" lon="4.88866">
        <ele>189.93499755859</ele>
        <time>2010-04-06T16:08:17Z</time>
      </trkpt>
      <trkpt lat="45.16867" lon="4.88926">
        <ele>191.16000366211</ele>
        <time>2010-04-06T16:08:26Z</time>
      </trkpt>
      <trkpt lat="45.16858" lon="4.88975">
        <ele>192.2200012207</ele>
        <time>2010-04-06T16:08:34Z</time>
      </trkpt>
      <trkpt lat="45.16845" lon="4.89044">
        <ele>192.3690032959</ele>
        <time>2010-04-06T16:08:45Z</time>
      </trkpt>
      <trkpt lat="45.16837" lon="4.89068">
        <ele>192.00100708008</ele>
        <time>2010-04-06T16:08:49Z</time>
      </trkpt>
      <trkpt lat="45.16813" lon="4.89114">
        <ele>191.48699951172</ele>
        <time>2010-04-06T16:08:57Z</time>
      </trkpt>
      <trkpt lat="45.16771" lon="4.89151">
        <ele>191.55499267578</ele>
        <time>2010-04-06T16:09:06Z</time>
      </trkpt>
      <trkpt lat="45.16732" lon="4.89166">
        <ele>191.33999633789</ele>
        <time>2010-04-06T16:09:13Z</time>
      </trkpt>
      <trkpt lat="45.16663" lon="4.89186">
        <ele>191.58000183106</ele>
        <time>2010-04-06T16:09:25Z</time>
      </trkpt>
      <trkpt lat="45.16616" lon="4.89209">
        <ele>191.55099487305</ele>
        <time>2010-04-06T16:09:33Z</time>
      </trkpt>
      <trkpt lat="45.1659" lon="4.89235">
        <ele>190.78100585938</ele>
        <time>2010-04-06T16:09:38Z</time>
      </trkpt>
      <trkpt lat="45.16565" lon="4.89278">
        <ele>191.35099792481</ele>
        <time>2010-04-06T16:09:44Z</time>
      </trkpt>
      <trkpt lat="45.16549" lon="4.8933">
        <ele>190.72900390625</ele>
        <time>2010-04-06T16:09:50Z</time>
      </trkpt>
      <trkpt lat="45.16533" lon="4.89399">
        <ele>192.63200378418</ele>
        <time>2010-04-06T16:09:58Z</time>
      </trkpt>
      <trkpt lat="45.16521" lon="4.89449">
        <ele>194.49499511719</ele>
        <time>2010-04-06T16:10:05Z</time>
      </trkpt>
      <trkpt lat="45.1651" lon="4.89498">
        <ele>195.7200012207</ele>
        <time>2010-04-06T16:10:13Z</time>
      </trkpt>
      <trkpt lat="45.16497" lon="4.8955">
        <ele>197.80299377441</ele>
        <time>2010-04-06T16:10:22Z</time>
      </trkpt>
      <trkpt lat="45.16488" lon="4.89592">
        <ele>199.64999389648</ele>
        <time>2010-04-06T16:10:28Z</time>
      </trkpt>
      <trkpt lat="45.16484" lon="4.89606">
        <ele>200.75100708008</ele>
        <time>2010-04-06T16:10:30Z</time>
      </trkpt>
      <trkpt lat="45.16471" lon="4.89661">
        <ele>202.51499938965</ele>
        <time>2010-04-06T16:10:38Z</time>
      </trkpt>
      <trkpt lat="45.16454" lon="4.89732">
        <ele>204.96499633789</ele>
        <time>2010-04-06T16:10:49Z</time>
      </trkpt>
      <trkpt lat="45.16437" lon="4.89804">
        <ele>207.3630065918</ele>
        <time>2010-04-06T16:11:01Z</time>
      </trkpt>
      <trkpt lat="45.16425" lon="4.8984">
        <ele>208.52600097656</ele>
        <time>2010-04-06T16:11:07Z</time>
      </trkpt>
      <trkpt lat="45.16409" lon="4.89883">
        <ele>209.00900268555</ele>
        <time>2010-04-06T16:11:12Z</time>
      </trkpt>
      <trkpt lat="45.16405" lon="4.8989">
        <ele>209.2140045166</ele>
        <time>2010-04-06T16:11:13Z</time>
      </trkpt>
      <trkpt lat="45.16383" lon="4.89947">
        <ele>210.49099731445</ele>
        <time>2010-04-06T16:11:21Z</time>
      </trkpt>
      <trkpt lat="45.16357" lon="4.90009">
        <ele>209.66499328613</ele>
        <time>2010-04-06T16:11:30Z</time>
      </trkpt>
      <trkpt lat="45.16333" lon="4.90054">
        <ele>209.29600524902</ele>
        <time>2010-04-06T16:11:37Z</time>
      </trkpt>
      <trkpt lat="45.16304" lon="4.90099">
        <ele>210.52200317383</ele>
        <time>2010-04-06T16:11:45Z</time>
      </trkpt>
      <trkpt lat="45.16272" lon="4.9015">
        <ele>212.2619934082</ele>
        <time>2010-04-06T16:11:54Z</time>
      </trkpt>
      <trkpt lat="45.16236" lon="4.90207">
        <ele>213.60099792481</ele>
        <time>2010-04-06T16:12:04Z</time>
      </trkpt>
      <trkpt lat="45.16204" lon="4.9027">
        <ele>215.06900024414</ele>
        <time>2010-04-06T16:12:14Z</time>
      </trkpt>
      <trkpt lat="45.16175" lon="4.90334">
        <ele>215.96200561523</ele>
        <time>2010-04-06T16:12:24Z</time>
      </trkpt>
      <trkpt lat="45.16147" lon="4.90391">
        <ele>217.27499389648</ele>
        <time>2010-04-06T16:12:33Z</time>
      </trkpt>
      <trkpt lat="45.16116" lon="4.90454">
        <ele>218.66000366211</ele>
        <time>2010-04-06T16:12:43Z</time>
      </trkpt>
      <trkpt lat="45.16089" lon="4.90513">
        <ele>220.75700378418</ele>
        <time>2010-04-06T16:12:52Z</time>
      </trkpt>
      <trkpt lat="45.16071" lon="4.9057">
        <ele>222.47099304199</ele>
        <time>2010-04-06T16:13:00Z</time>
      </trkpt>
      <trkpt lat="45.16055" lon="4.90628">
        <ele>224.72500610352</ele>
        <time>2010-04-06T16:13:08Z</time>
      </trkpt>
      <trkpt lat="45.16027" lon="4.90707">
        <ele>225.72099304199</ele>
        <time>2010-04-06T16:13:19Z</time>
      </trkpt>
      <trkpt lat="45.15995" lon="4.90795">
        <ele>227.43499755859</ele>
        <time>2010-04-06T16:13:31Z</time>
      </trkpt>
      <trkpt lat="45.15969" lon="4.90867">
        <ele>228.57600402832</ele>
        <time>2010-04-06T16:13:41Z</time>
      </trkpt>
      <trkpt lat="45.15943" lon="4.90921">
        <ele>229.80999755859</ele>
        <time>2010-04-06T16:13:49Z</time>
      </trkpt>
      <trkpt lat="45.15904" lon="4.90975">
        <ele>231.55499267578</ele>
        <time>2010-04-06T16:13:58Z</time>
      </trkpt>
      <trkpt lat="45.15865" lon="4.9101">
        <ele>233.39100646973</ele>
        <time>2010-04-06T16:14:06Z</time>
      </trkpt>
      <trkpt lat="45.15813" lon="4.91042">
        <ele>235.1309967041</ele>
        <time>2010-04-06T16:14:17Z</time>
      </trkpt>
      <trkpt lat="45.15783" lon="4.91063">
        <ele>237.07800292969</ele>
        <time>2010-04-06T16:14:24Z</time>
      </trkpt>
      <trkpt lat="45.15742" lon="4.9109">
        <ele>238.89799499512</ele>
        <time>2010-04-06T16:14:33Z</time>
      </trkpt>
      <trkpt lat="45.15699" lon="4.9112">
        <ele>240.62300109863</ele>
        <time>2010-04-06T16:14:42Z</time>
      </trkpt>
      <trkpt lat="45.15663" lon="4.91146">
        <ele>242.51699829102</ele>
        <time>2010-04-06T16:14:50Z</time>
      </trkpt>
      <trkpt lat="45.15626" lon="4.91173">
        <ele>244.43200683594</ele>
        <time>2010-04-06T16:14:58Z</time>
      </trkpt>
      <trkpt lat="45.15592" lon="4.91204">
        <ele>245.76499938965</ele>
        <time>2010-04-06T16:15:06Z</time>
      </trkpt>
      <trkpt lat="45.15556" lon="4.91245">
        <ele>246.32200622559</ele>
        <time>2010-04-06T16:15:15Z</time>
      </trkpt>
      <trkpt lat="45.15522" lon="4.91283">
        <ele>244.81700134277</ele>
        <time>2010-04-06T16:15:23Z</time>
      </trkpt>
      <trkpt lat="45.15513" lon="4.91294">
        <ele>243.99099731445</ele>
        <time>2010-04-06T16:15:25Z</time>
      </trkpt>
      <trkpt lat="45.15475" lon="4.91343">
        <ele>242.32699584961</ele>
        <time>2010-04-06T16:15:33Z</time>
      </trkpt>
      <trkpt lat="45.15464" lon="4.91358">
        <ele>241.14100646973</ele>
        <time>2010-04-06T16:15:35Z</time>
      </trkpt>
      <trkpt lat="45.15459" lon="4.91365">
        <ele>240.75999450684</ele>
        <time>2010-04-06T16:15:36Z</time>
      </trkpt>
      <trkpt lat="45.1544" lon="4.91382">
        <ele>239.49099731445</ele>
        <time>2010-04-06T16:15:39Z</time>
      </trkpt>
      <trkpt lat="45.15434" lon="4.91383">
        <ele>239.56399536133</ele>
        <time>2010-04-06T16:15:40Z</time>
      </trkpt>
      <trkpt lat="45.15409" lon="4.91402">
        <ele>238.45899963379</ele>
        <time>2010-04-06T16:15:45Z</time>
      </trkpt>
      <trkpt lat="45.15408" lon="4.91411">
        <ele>238.39999389648</ele>
        <time>2010-04-06T16:15:46Z</time>
      </trkpt>
      <trkpt lat="45.15396" lon="4.91454">
        <ele>237.56900024414</ele>
        <time>2010-04-06T16:15:51Z</time>
      </trkpt>
      <trkpt lat="45.1536" lon="4.91507">
        <ele>235.08200073242</ele>
        <time>2010-04-06T16:15:59Z</time>
      </trkpt>
      <trkpt lat="45.15331" lon="4.91547">
        <ele>234.26499938965</ele>
        <time>2010-04-06T16:16:05Z</time>
      </trkpt>
      <trkpt lat="45.15297" lon="4.91596">
        <ele>234.23899841309</ele>
        <time>2010-04-06T16:16:12Z</time>
      </trkpt>
      <trkpt lat="45.15247" lon="4.91667">
        <ele>233.28900146484</ele>
        <time>2010-04-06T16:16:22Z</time>
      </trkpt>
      <trkpt lat="45.15193" lon="4.91744">
        <ele>232.67799377441</ele>
        <time>2010-04-06T16:16:33Z</time>
      </trkpt>
      <trkpt lat="45.15152" lon="4.91806">
        <ele>232.8869934082</ele>
        <time>2010-04-06T16:16:42Z</time>
      </trkpt>
      <trkpt lat="45.15111" lon="4.91875">
        <ele>231.24000549316</ele>
        <time>2010-04-06T16:16:51Z</time>
      </trkpt>
      <trkpt lat="45.15069" lon="4.91956">
        <ele>231.63800048828</ele>
        <time>2010-04-06T16:17:01Z</time>
      </trkpt>
      <trkpt lat="45.15049" lon="4.92">
        <ele>231.31599426269</ele>
        <time>2010-04-06T16:17:06Z</time>
      </trkpt>
      <trkpt lat="45.15016" lon="4.92076">
        <ele>230.89500427246</ele>
        <time>2010-04-06T16:17:15Z</time>
      </trkpt>
      <trkpt lat="45.14981" lon="4.92154">
        <ele>231.25999450684</ele>
        <time>2010-04-06T16:17:25Z</time>
      </trkpt>
      <trkpt lat="45.14972" lon="4.92175">
        <ele>232.62899780273</ele>
        <time>2010-04-06T16:17:28Z</time>
      </trkpt>
      <trkpt lat="45.14944" lon="4.92236">
        <ele>233.39100646973</ele>
        <time>2010-04-06T16:17:37Z</time>
      </trkpt>
      <trkpt lat="45.14929" lon="4.92269">
        <ele>234.05599975586</ele>
        <time>2010-04-06T16:17:42Z</time>
      </trkpt>
      <trkpt lat="45.14897" lon="4.92342">
        <ele>235.82099914551</ele>
        <time>2010-04-06T16:17:53Z</time>
      </trkpt>
      <trkpt lat="45.14869" lon="4.92403">
        <ele>235.78500366211</ele>
        <time>2010-04-06T16:18:03Z</time>
      </trkpt>
      <trkpt lat="45.14864" lon="4.92415">
        <ele>236.16799926758</ele>
        <time>2010-04-06T16:18:05Z</time>
      </trkpt>
      <trkpt lat="45.14848" lon="4.92451">
        <ele>238.40400695801</ele>
        <time>2010-04-06T16:18:11Z</time>
      </trkpt>
      <trkpt lat="45.14827" lon="4.925">
        <ele>239.27200317383</ele>
        <time>2010-04-06T16:18:20Z</time>
      </trkpt>
      <trkpt lat="45.1481" lon="4.92538">
        <ele>239.74899291992</ele>
        <time>2010-04-06T16:18:27Z</time>
      </trkpt>
      <trkpt lat="45.14799" lon="4.9257">
        <ele>241.53999328613</ele>
        <time>2010-04-06T16:18:32Z</time>
      </trkpt>
      <trkpt lat="45.1478" lon="4.92622">
        <ele>241.60499572754</ele>
        <time>2010-04-06T16:18:39Z</time>
      </trkpt>
      <trkpt lat="45.14755" lon="4.92688">
        <ele>242.12800598144</ele>
        <time>2010-04-06T16:18:47Z</time>
      </trkpt>
      <trkpt lat="45.14727" lon="4.92766">
        <ele>242.84800720215</ele>
        <time>2010-04-06T16:18:57Z</time>
      </trkpt>
      <trkpt lat="45.14698" lon="4.92846">
        <ele>243.43600463867</ele>
        <time>2010-04-06T16:19:08Z</time>
      </trkpt>
      <trkpt lat="45.14673" lon="4.92907">
        <ele>243.1190032959</ele>
        <time>2010-04-06T16:19:17Z</time>
      </trkpt>
      <trkpt lat="45.14642" lon="4.9296">
        <ele>244.75700378418</ele>
        <time>2010-04-06T16:19:26Z</time>
      </trkpt>
      <trkpt lat="45.14601" lon="4.93023">
        <ele>246.30599975586</ele>
        <time>2010-04-06T16:19:37Z</time>
      </trkpt>
      <trkpt lat="45.14567" lon="4.93072">
        <ele>247.01899719238</ele>
        <time>2010-04-06T16:19:46Z</time>
      </trkpt>
      <trkpt lat="45.14533" lon="4.93123">
        <ele>248.47900390625</ele>
        <time>2010-04-06T16:19:55Z</time>
      </trkpt>
      <trkpt lat="45.14495" lon="4.93181">
        <ele>249.29899597168</ele>
        <time>2010-04-06T16:20:05Z</time>
      </trkpt>
      <trkpt lat="45.14452" lon="4.93245">
        <ele>250.2380065918</ele>
        <time>2010-04-06T16:20:16Z</time>
      </trkpt>
      <trkpt lat="45.14416" lon="4.93299">
        <ele>251.65800476074</ele>
        <time>2010-04-06T16:20:26Z</time>
      </trkpt>
      <trkpt lat="45.14383" lon="4.93348">
        <ele>252.66799926758</ele>
        <time>2010-04-06T16:20:36Z</time>
      </trkpt>
      <trkpt lat="45.14353" lon="4.93392">
        <ele>253.80099487305</ele>
        <time>2010-04-06T16:20:45Z</time>
      </trkpt>
      <trkpt lat="45.1432" lon="4.93447">
        <ele>255.26699829102</ele>
        <time>2010-04-06T16:20:55Z</time>
      </trkpt>
      <trkpt lat="45.14294" lon="4.93494">
        <ele>256.35900878906</ele>
        <time>2010-04-06T16:21:04Z</time>
      </trkpt>
      <trkpt lat="45.14289" lon="4.93504">
        <ele>256.89401245117</ele>
        <time>2010-04-06T16:21:06Z</time>
      </trkpt>
      <trkpt lat="45.14281" lon="4.93517">
        <ele>256.52099609375</ele>
        <time>2010-04-06T16:21:09Z</time>
      </trkpt>
      <trkpt lat="45.14254" lon="4.93564">
        <ele>259.0950012207</ele>
        <time>2010-04-06T16:21:19Z</time>
      </trkpt>
      <trkpt lat="45.14237" lon="4.93593">
        <ele>259.23001098633</ele>
        <time>2010-04-06T16:21:25Z</time>
      </trkpt>
      <trkpt lat="45.14215" lon="4.9363">
        <ele>261.65701293945</ele>
        <time>2010-04-06T16:21:33Z</time>
      </trkpt>
      <trkpt lat="45.14194" lon="4.93667">
        <ele>261.26098632812</ele>
        <time>2010-04-06T16:21:41Z</time>
      </trkpt>
      <trkpt lat="45.14183" lon="4.93687">
        <ele>263.31100463867</ele>
        <time>2010-04-06T16:21:45Z</time>
      </trkpt>
      <trkpt lat="45.14163" lon="4.93725">
        <ele>263.96701049805</ele>
        <time>2010-04-06T16:21:51Z</time>
      </trkpt>
      <trkpt lat="45.14143" lon="4.93768">
        <ele>266.37600708008</ele>
        <time>2010-04-06T16:21:58Z</time>
      </trkpt>
      <trkpt lat="45.14128" lon="4.93803">
        <ele>267.80801391602</ele>
        <time>2010-04-06T16:22:04Z</time>
      </trkpt>
      <trkpt lat="45.14106" lon="4.93857">
        <ele>270.6780090332</ele>
        <time>2010-04-06T16:22:14Z</time>
      </trkpt>
      <trkpt lat="45.14091" lon="4.93893">
        <ele>271.85299682617</ele>
        <time>2010-04-06T16:22:21Z</time>
      </trkpt>
      <trkpt lat="45.14087" lon="4.93902">
        <ele>272.71798706055</ele>
        <time>2010-04-06T16:22:23Z</time>
      </trkpt>
      <trkpt lat="45.14074" lon="4.93933">
        <ele>273.53799438477</ele>
        <time>2010-04-06T16:22:30Z</time>
      </trkpt>
      <trkpt lat="45.14069" lon="4.93947">
        <ele>274.66299438477</ele>
        <time>2010-04-06T16:22:33Z</time>
      </trkpt>
      <trkpt lat="45.1406" lon="4.93967">
        <ele>275.42700195312</ele>
        <time>2010-04-06T16:22:37Z</time>
      </trkpt>
      <trkpt lat="45.14037" lon="4.94021">
        <ele>277.45199584961</ele>
        <time>2010-04-06T16:22:47Z</time>
      </trkpt>
      <trkpt lat="45.1403" lon="4.94036">
        <ele>277.70700073242</ele>
        <time>2010-04-06T16:22:50Z</time>
      </trkpt>
      <trkpt lat="45.14024" lon="4.94051">
        <ele>279.06100463867</ele>
        <time>2010-04-06T16:22:53Z</time>
      </trkpt>
      <trkpt lat="45.14005" lon="4.94098">
        <ele>280.75299072266</ele>
        <time>2010-04-06T16:23:02Z</time>
      </trkpt>
      <trkpt lat="45.13987" lon="4.94142">
        <ele>283.67599487305</ele>
        <time>2010-04-06T16:23:10Z</time>
      </trkpt>
      <trkpt lat="45.13985" lon="4.94148">
        <ele>283.95700073242</ele>
        <time>2010-04-06T16:23:11Z</time>
      </trkpt>
      <trkpt lat="45.13968" lon="4.94182">
        <ele>284.16198730469</ele>
        <time>2010-04-06T16:23:16Z</time>
      </trkpt>
      <trkpt lat="45.13926" lon="4.94233">
        <ele>284.39898681641</ele>
        <time>2010-04-06T16:23:25Z</time>
      </trkpt>
      <trkpt lat="45.13883" lon="4.94282">
        <ele>283.79901123047</ele>
        <time>2010-04-06T16:23:33Z</time>
      </trkpt>
      <trkpt lat="45.13851" lon="4.94321">
        <ele>281.83898925781</ele>
        <time>2010-04-06T16:23:39Z</time>
      </trkpt>
      <trkpt lat="45.13821" lon="4.94378">
        <ele>283.51501464844</ele>
        <time>2010-04-06T16:23:46Z</time>
      </trkpt>
      <trkpt lat="45.13801" lon="4.94435">
        <ele>281.78698730469</ele>
        <time>2010-04-06T16:23:52Z</time>
      </trkpt>
      <trkpt lat="45.13774" lon="4.94512">
        <ele>281.43301391602</ele>
        <time>2010-04-06T16:24:00Z</time>
      </trkpt>
      <trkpt lat="45.13744" lon="4.94588">
        <ele>281.39498901367</ele>
        <time>2010-04-06T16:24:08Z</time>
      </trkpt>
      <trkpt lat="45.13719" lon="4.94633">
        <ele>282.44198608398</ele>
        <time>2010-04-06T16:24:14Z</time>
      </trkpt>
      <trkpt lat="45.13685" lon="4.94683">
        <ele>283.20098876953</ele>
        <time>2010-04-06T16:24:22Z</time>
      </trkpt>
      <trkpt lat="45.1365" lon="4.94726">
        <ele>284.76300048828</ele>
        <time>2010-04-06T16:24:30Z</time>
      </trkpt>
      <trkpt lat="45.13611" lon="4.94761">
        <ele>286.16299438477</ele>
        <time>2010-04-06T16:24:38Z</time>
      </trkpt>
      <trkpt lat="45.13587" lon="4.94778">
        <ele>287.60198974609</ele>
        <time>2010-04-06T16:24:43Z</time>
      </trkpt>
      <trkpt lat="45.13578" lon="4.94782">
        <ele>288.25100708008</ele>
        <time>2010-04-06T16:24:45Z</time>
      </trkpt>
      <trkpt lat="45.1356" lon="4.9479">
        <ele>286.52600097656</ele>
        <time>2010-04-06T16:24:49Z</time>
      </trkpt>
      <trkpt lat="45.13527" lon="4.94806">
        <ele>285.88198852539</ele>
        <time>2010-04-06T16:24:56Z</time>
      </trkpt>
      <trkpt lat="45.13517" lon="4.9481">
        <ele>286.34899902344</ele>
        <time>2010-04-06T16:24:58Z</time>
      </trkpt>
      <trkpt lat="45.13494" lon="4.94809">
        <ele>285.50299072266</ele>
        <time>2010-04-06T16:25:02Z</time>
      </trkpt>
      <trkpt lat="45.13449" lon="4.94809">
        <ele>283.29400634766</ele>
        <time>2010-04-06T16:25:09Z</time>
      </trkpt>
      <trkpt lat="45.13419" lon="4.94811">
        <ele>282.81900024414</ele>
        <time>2010-04-06T16:25:14Z</time>
      </trkpt>
      <trkpt lat="45.13403" lon="4.94808">
        <ele>281.70901489258</ele>
        <time>2010-04-06T16:25:18Z</time>
      </trkpt>
      <trkpt lat="45.13397" lon="4.94804">
        <ele>282.34899902344</ele>
        <time>2010-04-06T16:25:20Z</time>
      </trkpt>
      <trkpt lat="45.13394" lon="4.94807">
        <ele>282.60699462891</ele>
        <time>2010-04-06T16:25:24Z</time>
      </trkpt>
      <trkpt lat="45.13393" lon="4.94814">
        <ele>283.48400878906</ele>
        <time>2010-04-06T16:27:16Z</time>
      </trkpt>
      <trkpt lat="45.1339" lon="4.94817">
        <ele>283.63800048828</ele>
        <time>2010-04-06T16:27:20Z</time>
      </trkpt>
      <trkpt lat="45.13379" lon="4.94823">
        <ele>282.61199951172</ele>
        <time>2010-04-06T16:27:27Z</time>
      </trkpt>
      <trkpt lat="45.1336" lon="4.9483">
        <ele>281.67199707031</ele>
        <time>2010-04-06T16:27:34Z</time>
      </trkpt>
      <trkpt lat="45.13345" lon="4.9484">
        <ele>281.39300537109</ele>
        <time>2010-04-06T16:27:39Z</time>
      </trkpt>
      <trkpt lat="45.13341" lon="4.94842">
        <ele>281.50500488281</ele>
        <time>2010-04-06T16:27:40Z</time>
      </trkpt>
      <trkpt lat="45.1332" lon="4.94861">
        <ele>279.63400268555</ele>
        <time>2010-04-06T16:27:46Z</time>
      </trkpt>
      <trkpt lat="45.13305" lon="4.94893">
        <ele>277.49398803711</ele>
        <time>2010-04-06T16:27:51Z</time>
      </trkpt>
      <trkpt lat="45.13302" lon="4.9491">
        <ele>276.77301025391</ele>
        <time>2010-04-06T16:27:53Z</time>
      </trkpt>
      <trkpt lat="45.13297" lon="4.9496">
        <ele>275.25399780273</ele>
        <time>2010-04-06T16:27:58Z</time>
      </trkpt>
      <trkpt lat="45.13294" lon="4.94982">
        <ele>274.56698608398</ele>
        <time>2010-04-06T16:28:00Z</time>
      </trkpt>
      <trkpt lat="45.13283" lon="4.95014">
        <ele>272.45001220703</ele>
        <time>2010-04-06T16:28:03Z</time>
      </trkpt>
      <trkpt lat="45.13258" lon="4.95049">
        <ele>270.99301147461</ele>
        <time>2010-04-06T16:28:07Z</time>
      </trkpt>
      <trkpt lat="45.13235" lon="4.95067">
        <ele>269.52200317383</ele>
        <time>2010-04-06T16:28:10Z</time>
      </trkpt>
      <trkpt lat="45.13189" lon="4.95099">
        <ele>267.52398681641</ele>
        <time>2010-04-06T16:28:16Z</time>
      </trkpt>
      <trkpt lat="45.1316" lon="4.95142">
        <ele>266.01098632812</ele>
        <time>2010-04-06T16:28:21Z</time>
      </trkpt>
      <trkpt lat="45.13154" lon="4.9518">
        <ele>264.58999633789</ele>
        <time>2010-04-06T16:28:24Z</time>
      </trkpt>
      <trkpt lat="45.13142" lon="4.95266">
        <ele>260.64700317383</ele>
        <time>2010-04-06T16:28:30Z</time>
      </trkpt>
      <trkpt lat="45.13139" lon="4.95282">
        <ele>260.35400390625</ele>
        <time>2010-04-06T16:28:31Z</time>
      </trkpt>
      <trkpt lat="45.13129" lon="4.95328">
        <ele>256.95098876953</ele>
        <time>2010-04-06T16:28:34Z</time>
      </trkpt>
      <trkpt lat="45.13107" lon="4.95378">
        <ele>258.60699462891</ele>
        <time>2010-04-06T16:28:38Z</time>
      </trkpt>
      <trkpt lat="45.131" lon="4.95387">
        <ele>260.00201416016</ele>
        <time>2010-04-06T16:28:39Z</time>
      </trkpt>
      <trkpt lat="45.13063" lon="4.95419">
        <ele>262.05499267578</ele>
        <time>2010-04-06T16:28:44Z</time>
      </trkpt>
      <trkpt lat="45.13055" lon="4.95424">
        <ele>262.29901123047</ele>
        <time>2010-04-06T16:28:45Z</time>
      </trkpt>
      <trkpt lat="45.13034" lon="4.95435">
        <ele>263.58099365234</ele>
        <time>2010-04-06T16:28:48Z</time>
      </trkpt>
      <trkpt lat="45.13008" lon="4.95447">
        <ele>264.28100585938</ele>
        <time>2010-04-06T16:28:52Z</time>
      </trkpt>
      <trkpt lat="45.12989" lon="4.95455">
        <ele>264.89599609375</ele>
        <time>2010-04-06T16:28:55Z</time>
      </trkpt>
      <trkpt lat="45.12949" lon="4.95472">
        <ele>266.69400024414</ele>
        <time>2010-04-06T16:29:02Z</time>
      </trkpt>
      <trkpt lat="45.12917" lon="4.95485">
        <ele>267.10198974609</ele>
        <time>2010-04-06T16:29:09Z</time>
      </trkpt>
      <trkpt lat="45.12891" lon="4.95497">
        <ele>269.59600830078</ele>
        <time>2010-04-06T16:29:16Z</time>
      </trkpt>
      <trkpt lat="45.12863" lon="4.9551">
        <ele>270.16400146484</ele>
        <time>2010-04-06T16:29:24Z</time>
      </trkpt>
      <trkpt lat="45.12838" lon="4.95527">
        <ele>271.44198608398</ele>
        <time>2010-04-06T16:29:31Z</time>
      </trkpt>
      <trkpt lat="45.12819" lon="4.95542">
        <ele>272.72198486328</ele>
        <time>2010-04-06T16:29:36Z</time>
      </trkpt>
      <trkpt lat="45.12794" lon="4.95568">
        <ele>273.1960144043</ele>
        <time>2010-04-06T16:29:43Z</time>
      </trkpt>
      <trkpt lat="45.12762" lon="4.95606">
        <ele>271.55099487305</ele>
        <time>2010-04-06T16:29:51Z</time>
      </trkpt>
      <trkpt lat="45.12749" lon="4.95622">
        <ele>270.30899047852</ele>
        <time>2010-04-06T16:29:54Z</time>
      </trkpt>
      <trkpt lat="45.12714" lon="4.95662">
        <ele>267.95001220703</ele>
        <time>2010-04-06T16:30:01Z</time>
      </trkpt>
      <trkpt lat="45.12702" lon="4.95673">
        <ele>266.15600585938</ele>
        <time>2010-04-06T16:30:03Z</time>
      </trkpt>
      <trkpt lat="45.12688" lon="4.95682">
        <ele>265.18099975586</ele>
        <time>2010-04-06T16:30:05Z</time>
      </trkpt>
      <trkpt lat="45.12674" lon="4.95689">
        <ele>263.76098632812</ele>
        <time>2010-04-06T16:30:07Z</time>
      </trkpt>
      <trkpt lat="45.12633" lon="4.95704">
        <ele>262.54598999023</ele>
        <time>2010-04-06T16:30:12Z</time>
      </trkpt>
      <trkpt lat="45.12604" lon="4.95734">
        <ele>262.2799987793</ele>
        <time>2010-04-06T16:30:16Z</time>
      </trkpt>
      <trkpt lat="45.12598" lon="4.95744">
        <ele>261.40600585938</ele>
        <time>2010-04-06T16:30:17Z</time>
      </trkpt>
      <trkpt lat="45.12571" lon="4.95803">
        <ele>257.83401489258</ele>
        <time>2010-04-06T16:30:22Z</time>
      </trkpt>
      <trkpt lat="45.12554" lon="4.95841">
        <ele>256.23199462891</ele>
        <time>2010-04-06T16:30:25Z</time>
      </trkpt>
      <trkpt lat="45.12508" lon="4.95946">
        <ele>251.89900207519</ele>
        <time>2010-04-06T16:30:33Z</time>
      </trkpt>
      <trkpt lat="45.1249" lon="4.95985">
        <ele>250.37199401856</ele>
        <time>2010-04-06T16:30:36Z</time>
      </trkpt>
      <trkpt lat="45.12445" lon="4.96086">
        <ele>247.54600524902</ele>
        <time>2010-04-06T16:30:44Z</time>
      </trkpt>
      <trkpt lat="45.12436" lon="4.96109">
        <ele>246.92300415039</ele>
        <time>2010-04-06T16:30:46Z</time>
      </trkpt>
      <trkpt lat="45.12405" lon="4.96176">
        <ele>244.39300537109</ele>
        <time>2010-04-06T16:30:52Z</time>
      </trkpt>
      <trkpt lat="45.124" lon="4.96187">
        <ele>244.42300415039</ele>
        <time>2010-04-06T16:30:53Z</time>
      </trkpt>
      <trkpt lat="45.1237" lon="4.96242">
        <ele>238.41200256348</ele>
        <time>2010-04-06T16:30:58Z</time>
      </trkpt>
      <trkpt lat="45.12362" lon="4.96252">
        <ele>238.28999328613</ele>
        <time>2010-04-06T16:30:59Z</time>
      </trkpt>
      <trkpt lat="45.12327" lon="4.96284">
        <ele>235.0890045166</ele>
        <time>2010-04-06T16:31:03Z</time>
      </trkpt>
      <trkpt lat="45.12318" lon="4.96291">
        <ele>235.12100219727</ele>
        <time>2010-04-06T16:31:04Z</time>
      </trkpt>
      <trkpt lat="45.12255" lon="4.96328">
        <ele>227.64399719238</ele>
        <time>2010-04-06T16:31:10Z</time>
      </trkpt>
      <trkpt lat="45.12245" lon="4.96334">
        <ele>227.65100097656</ele>
        <time>2010-04-06T16:31:11Z</time>
      </trkpt>
      <trkpt lat="45.12169" lon="4.96371">
        <ele>224.20899963379</ele>
        <time>2010-04-06T16:31:18Z</time>
      </trkpt>
      <trkpt lat="45.12123" lon="4.96389">
        <ele>220.44299316406</ele>
        <time>2010-04-06T16:31:22Z</time>
      </trkpt>
      <trkpt lat="45.12099" lon="4.96397">
        <ele>219.30200195312</ele>
        <time>2010-04-06T16:31:24Z</time>
      </trkpt>
      <trkpt lat="45.12088" lon="4.96402">
        <ele>217.92799377441</ele>
        <time>2010-04-06T16:31:25Z</time>
      </trkpt>
      <trkpt lat="45.12067" lon="4.96418">
        <ele>216.62800598144</ele>
        <time>2010-04-06T16:31:27Z</time>
      </trkpt>
      <trkpt lat="45.12047" lon="4.9644">
        <ele>214.31399536133</ele>
        <time>2010-04-06T16:31:29Z</time>
      </trkpt>
      <trkpt lat="45.12028" lon="4.96464">
        <ele>211.64399719238</ele>
        <time>2010-04-06T16:31:31Z</time>
      </trkpt>
      <trkpt lat="45.11993" lon="4.9649">
        <ele>208.56399536133</ele>
        <time>2010-04-06T16:31:34Z</time>
      </trkpt>
      <trkpt lat="45.11968" lon="4.96497">
        <ele>207.49600219727</ele>
        <time>2010-04-06T16:31:36Z</time>
      </trkpt>
      <trkpt lat="45.11943" lon="4.96505">
        <ele>207.17100524902</ele>
        <time>2010-04-06T16:31:38Z</time>
      </trkpt>
      <trkpt lat="45.11908" lon="4.96528">
        <ele>203.35099792481</ele>
        <time>2010-04-06T16:31:41Z</time>
      </trkpt>
      <trkpt lat="45.11882" lon="4.96566">
        <ele>202.7559967041</ele>
        <time>2010-04-06T16:31:44Z</time>
      </trkpt>
      <trkpt lat="45.11871" lon="4.96596">
        <ele>202.99699401856</ele>
        <time>2010-04-06T16:31:46Z</time>
      </trkpt>
      <trkpt lat="45.11839" lon="4.96698">
        <ele>202.72799682617</ele>
        <time>2010-04-06T16:31:53Z</time>
      </trkpt>
      <trkpt lat="45.11811" lon="4.96758">
        <ele>200.46200561523</ele>
        <time>2010-04-06T16:31:58Z</time>
      </trkpt>
      <trkpt lat="45.11781" lon="4.96802">
        <ele>200.94999694824</ele>
        <time>2010-04-06T16:32:03Z</time>
      </trkpt>
      <trkpt lat="45.11768" lon="4.96815">
        <ele>200.5950012207</ele>
        <time>2010-04-06T16:32:05Z</time>
      </trkpt>
      <trkpt lat="45.11743" lon="4.96822">
        <ele>200.17100524902</ele>
        <time>2010-04-06T16:32:09Z</time>
      </trkpt>
      <trkpt lat="45.11712" lon="4.96798">
        <ele>199.05999755859</ele>
        <time>2010-04-06T16:32:15Z</time>
      </trkpt>
      <trkpt lat="45.1168" lon="4.96746">
        <ele>199.6549987793</ele>
        <time>2010-04-06T16:32:23Z</time>
      </trkpt>
      <trkpt lat="45.11655" lon="4.96694">
        <ele>200.0359954834</ele>
        <time>2010-04-06T16:32:30Z</time>
      </trkpt>
      <trkpt lat="45.11642" lon="4.96661">
        <ele>200.05200195312</ele>
        <time>2010-04-06T16:32:34Z</time>
      </trkpt>
      <trkpt lat="45.1162" lon="4.96601">
        <ele>198.38299560547</ele>
        <time>2010-04-06T16:32:41Z</time>
      </trkpt>
      <trkpt lat="45.11593" lon="4.96531">
        <ele>198.30999755859</ele>
        <time>2010-04-06T16:32:50Z</time>
      </trkpt>
      <trkpt lat="45.11582" lon="4.96504">
        <ele>198.90100097656</ele>
        <time>2010-04-06T16:32:54Z</time>
      </trkpt>
      <trkpt lat="45.1158" lon="4.96475">
        <ele>201.04600524902</ele>
        <time>2010-04-06T16:32:59Z</time>
      </trkpt>
      <trkpt lat="45.1158" lon="4.9647">
        <ele>201.18800354004</ele>
        <time>2010-04-06T16:33:00Z</time>
      </trkpt>
      <trkpt lat="45.1158" lon="4.96464">
        <ele>201.43200683594</ele>
        <time>2010-04-06T16:33:01Z</time>
      </trkpt>
      <trkpt lat="45.1158" lon="4.96452">
        <ele>201.78300476074</ele>
        <time>2010-04-06T16:33:04Z</time>
      </trkpt>
      <trkpt lat="45.11575" lon="4.96446">
        <ele>202.15199279785</ele>
        <time>2010-04-06T16:33:09Z</time>
      </trkpt>
      <trkpt lat="45.11574" lon="4.96446">
        <ele>202.17700195312</ele>
        <time>2010-04-06T16:33:11Z</time>
      </trkpt>
      <trkpt lat="45.1157" lon="4.96451">
        <ele>201.45799255371</ele>
        <time>2010-04-06T16:33:36Z</time>
      </trkpt>
      <trkpt lat="45.11562" lon="4.96447">
        <ele>201.37399291992</ele>
        <time>2010-04-06T16:33:40Z</time>
      </trkpt>
      <trkpt lat="45.11558" lon="4.96433">
        <ele>201.67700195312</ele>
        <time>2010-04-06T16:33:44Z</time>
      </trkpt>
      <trkpt lat="45.11559" lon="4.96426">
        <ele>202.38000488281</ele>
        <time>2010-04-06T16:33:46Z</time>
      </trkpt>
      <trkpt lat="45.11564" lon="4.96423">
        <ele>202.91000366211</ele>
        <time>2010-04-06T16:33:51Z</time>
      </trkpt>
      <trkpt lat="45.11565" lon="4.96424">
        <ele>202.6609954834</ele>
        <time>2010-04-06T16:33:54Z</time>
      </trkpt>
      <trkpt lat="45.11566" lon="4.96426">
        <ele>202.49600219727</ele>
        <time>2010-04-06T16:33:59Z</time>
      </trkpt>
      <trkpt lat="45.11567" lon="4.96424">
        <ele>202.71499633789</ele>
        <time>2010-04-06T16:34:05Z</time>
      </trkpt>
    </trkseg>
  </trk>
</gpx>